<?xml version='1.0' encoding='UTF-8'?><gpx version="1.1" creator="JPX - https://github.com/jenetics/jpx" xmlns="http://www.topografix.com/GPX/1/1"><trk><trkseg><trkpt lat="37.73812466139949" lon="14.841115748431923"><ele>861.0</ele><time>2026-04-06T18:26:30.999Z</time></trkpt><trkpt lat="37.738065600572284" lon="14.841064109784938"><ele>861.0</ele><time>2026-04-06T18:26:39.999Z</time></trkpt><trkpt lat="37.7379934900746" lon="14.84103918079093"><ele>861.0</ele><time>2026-04-06T18:26:43.999Z</time></trkpt><trkpt lat="37.737959070118634" lon="14.84092584643683"><ele>861.0</ele><time>2026-04-06T18:26:47.999Z</time></trkpt><trkpt lat="37.73793633864953" lon="14.840806773840775"><ele>861.0</ele><time>2026-04-06T18:26:49.999Z</time></trkpt><trkpt lat="37.737902304015115" lon="14.84067787535476"><ele>861.0</ele><time>2026-04-06T18:26:52.999Z</time></trkpt><trkpt lat="37.73787551526802" lon="14.840572746281925"><ele>860.5714285714286</ele><time>2026-04-06T18:26:54.999Z</time></trkpt><trkpt lat="37.73785506101883" lon="14.840477050237913"><ele>860.1428571428571</ele><time>2026-04-06T18:26:56.999Z</time></trkpt><trkpt lat="37.737836154549086" lon="14.84038926797277"><ele>859.7142857142858</ele><time>2026-04-06T18:27:02.999Z</time></trkpt><trkpt lat="37.737807396117134" lon="14.840294024905672"><ele>859.2857142857142</ele><time>2026-04-06T18:27:05.998Z</time></trkpt><trkpt lat="37.73779774262702" lon="14.840214041691652"><ele>858.8571428571429</ele><time>2026-04-06T18:27:07.998Z</time></trkpt><trkpt lat="37.73778702004308" lon="14.840135240018592"><ele>858.4285714285714</ele><time>2026-04-06T18:27:09.998Z</time></trkpt><trkpt lat="37.73784052154652" lon="14.84006551403693"><ele>858.0</ele><time>2026-04-06T18:27:12.998Z</time></trkpt><trkpt lat="37.73794037749554" lon="14.84006574446008"><ele>856.4</ele><time>2026-04-06T18:27:14.998Z</time></trkpt><trkpt lat="37.738041338584274" lon="14.840048716607495"><ele>854.8</ele><time>2026-04-06T18:27:16.998Z</time></trkpt><trkpt lat="37.73811921069732" lon="14.840011604165388"><ele>853.2</ele><time>2026-04-06T18:27:18.998Z</time></trkpt><trkpt lat="37.73819046300418" lon="14.839936983079419"><ele>851.6</ele><time>2026-04-06T18:27:20.998Z</time></trkpt><trkpt lat="37.73824982180503" lon="14.839822347778172"><ele>850.0</ele><time>2026-04-06T18:27:22.998Z</time></trkpt><trkpt lat="37.73829028576128" lon="14.839714412937441"><ele>850.0</ele><time>2026-04-06T18:27:24.998Z</time></trkpt><trkpt lat="37.738371314043256" lon="14.839516830070249"><ele>850.0</ele><time>2026-04-06T18:27:27.998Z</time></trkpt><trkpt lat="37.738388289259085" lon="14.839415344828415"><ele>850.0</ele><time>2026-04-06T18:27:29.998Z</time></trkpt><trkpt lat="37.73846342032109" lon="14.839340174589239"><ele>850.0</ele><time>2026-04-06T18:27:31.998Z</time></trkpt><trkpt lat="37.73853478878113" lon="14.839257576189747"><ele>849.1666666666666</ele><time>2026-04-06T18:27:33.998Z</time></trkpt><trkpt lat="37.73858456466934" lon="14.839143177869248"><ele>848.3333333333333</ele><time>2026-04-06T18:27:35.998Z</time></trkpt><trkpt lat="37.738642630854756" lon="14.839067975212506"><ele>847.5</ele><time>2026-04-06T18:27:37.998Z</time></trkpt><trkpt lat="37.738689937381196" lon="14.839003597584668"><ele>846.6666666666667</ele><time>2026-04-06T18:27:39.998Z</time></trkpt><trkpt lat="37.73876882864279" lon="14.838950038932673"><ele>845.8333333333334</ele><time>2026-04-06T18:27:42.998Z</time></trkpt><trkpt lat="37.73884579140226" lon="14.838887166880081"><ele>845.0</ele><time>2026-04-06T18:27:45.998Z</time></trkpt><trkpt lat="37.73889995065614" lon="14.838816606485302"><ele>845.0</ele><time>2026-04-06T18:27:47.997Z</time></trkpt><trkpt lat="37.738927618289104" lon="14.838687507430185"><ele>845.0</ele><time>2026-04-06T18:27:49.997Z</time></trkpt><trkpt lat="37.738986741453814" lon="14.838571928285607"><ele>845.0</ele><time>2026-04-06T18:27:51.997Z</time></trkpt><trkpt lat="37.73905957889088" lon="14.838457824644832"><ele>845.0</ele><time>2026-04-06T18:27:53.997Z</time></trkpt><trkpt lat="37.73912900134275" lon="14.83835554191594"><ele>845.0</ele><time>2026-04-06T18:27:55.997Z</time></trkpt><trkpt lat="37.73922909435797" lon="14.838338217908413"><ele>842.4</ele><time>2026-04-06T18:27:57.997Z</time></trkpt><trkpt lat="37.7393191663306" lon="14.83831828385711"><ele>839.8</ele><time>2026-04-06T18:27:59.997Z</time></trkpt><trkpt lat="37.739360431520296" lon="14.838257745382863"><ele>837.2</ele><time>2026-04-06T18:28:00.997Z</time></trkpt><trkpt lat="37.73938171021019" lon="14.838125865201738"><ele>834.6</ele><time>2026-04-06T18:28:02.997Z</time></trkpt><trkpt lat="37.739439675735916" lon="14.837983892010273"><ele>832.0</ele><time>2026-04-06T18:28:04.997Z</time></trkpt><trkpt lat="37.73946679827265" lon="14.83790878687342"><ele>832.0</ele><time>2026-04-06T18:28:05.997Z</time></trkpt><trkpt lat="37.73949285141391" lon="14.83783084853139"><ele>832.0</ele><time>2026-04-06T18:28:06.997Z</time></trkpt><trkpt lat="37.73954082792654" lon="14.837694860931148"><ele>832.0</ele><time>2026-04-06T18:28:08.997Z</time></trkpt><trkpt lat="37.739594559143654" lon="14.83759042049156"><ele>832.0</ele><time>2026-04-06T18:28:10.999Z</time></trkpt><trkpt lat="37.73965427019883" lon="14.8374767610751"><ele>832.0</ele><time>2026-04-06T18:28:12.999Z</time></trkpt><trkpt lat="37.73969492305277" lon="14.837331914626965"><ele>830.6</ele><time>2026-04-06T18:28:14.999Z</time></trkpt><trkpt lat="37.73972514696805" lon="14.83719997572274"><ele>829.2</ele><time>2026-04-06T18:28:16.999Z</time></trkpt><trkpt lat="37.739800380296096" lon="14.837097540728637"><ele>827.8</ele><time>2026-04-06T18:28:18.999Z</time></trkpt><trkpt lat="37.739864538909984" lon="14.837005599441632"><ele>826.4</ele><time>2026-04-06T18:28:20.999Z</time></trkpt><trkpt lat="37.739941238099746" lon="14.836916191805473"><ele>825.0</ele><time>2026-04-06T18:28:22.999Z</time></trkpt><trkpt lat="37.73997131967625" lon="14.836845125391886"><ele>823.6666666666666</ele><time>2026-04-06T18:28:23.999Z</time></trkpt><trkpt lat="37.74001391053316" lon="14.836780356731447"><ele>822.3333333333333</ele><time>2026-04-06T18:28:24.999Z</time></trkpt><trkpt lat="37.74006712906797" lon="14.836714044349614"><ele>821.0</ele><time>2026-04-06T18:28:25.999Z</time></trkpt><trkpt lat="37.740091036607055" lon="14.836612738018625"><ele>819.6666666666666</ele><time>2026-04-06T18:28:26.999Z</time></trkpt><trkpt lat="37.7401430938833" lon="14.836510099806935"><ele>818.3333333333333</ele><time>2026-04-06T18:28:28.999Z</time></trkpt><trkpt lat="37.740212157950275" lon="14.836458770094"><ele>817.0</ele><time>2026-04-06T18:28:30.999Z</time></trkpt><trkpt lat="37.74028965994731" lon="14.836349862205342"><ele>816.9999999999999</ele><time>2026-04-06T18:28:32.999Z</time></trkpt><trkpt lat="37.74035946151676" lon="14.836213889698206"><ele>817.0</ele><time>2026-04-06T18:28:34.999Z</time></trkpt><trkpt lat="37.740403702414575" lon="14.8361464553223"><ele>817.0</ele><time>2026-04-06T18:28:35.999Z</time></trkpt><trkpt lat="37.74045904778734" lon="14.836090042951884"><ele>817.0</ele><time>2026-04-06T18:28:36.999Z</time></trkpt><trkpt lat="37.740487127097964" lon="14.836009582532789"><ele>816.9999999999999</ele><time>2026-04-06T18:28:37.999Z</time></trkpt><trkpt lat="37.740536961408196" lon="14.835953662205068"><ele>817.0</ele><time>2026-04-06T18:28:38.999Z</time></trkpt><trkpt lat="37.74060552253826" lon="14.835835252550192"><ele>814.0</ele><time>2026-04-06T18:28:40.999Z</time></trkpt><trkpt lat="37.74067617593022" lon="14.835771464939247"><ele>811.0</ele><time>2026-04-06T18:28:42.999Z</time></trkpt><trkpt lat="37.7407407805639" lon="14.83567376005906"><ele>808.0</ele><time>2026-04-06T18:28:44.999Z</time></trkpt><trkpt lat="37.740761939942615" lon="14.835528704860993"><ele>805.0</ele><time>2026-04-06T18:28:46.999Z</time></trkpt><trkpt lat="37.74078388774127" lon="14.835446868026636"><ele>802.0</ele><time>2026-04-06T18:28:47.999Z</time></trkpt><trkpt lat="37.74081202981071" lon="14.83531811945888"><ele>801.9999999999999</ele><time>2026-04-06T18:28:49.999Z</time></trkpt><trkpt lat="37.7408576416452" lon="14.83521083322462"><ele>802.0</ele><time>2026-04-06T18:28:51.999Z</time></trkpt><trkpt lat="37.740946306083586" lon="14.835122259487768"><ele>802.0</ele><time>2026-04-06T18:28:53.999Z</time></trkpt><trkpt lat="37.74100750454028" lon="14.8350785522982"><ele>802.0</ele><time>2026-04-06T18:28:54.999Z</time></trkpt><trkpt lat="37.74107689380638" lon="14.835054142441797"><ele>801.9999999999999</ele><time>2026-04-06T18:28:55.999Z</time></trkpt><trkpt lat="37.741135899880966" lon="14.835012451291062"><ele>802.0</ele><time>2026-04-06T18:28:56.999Z</time></trkpt><trkpt lat="37.741237296708576" lon="14.834931681599077"><ele>799.9999999999999</ele><time>2026-04-06T18:28:58.999Z</time></trkpt><trkpt lat="37.74130178155766" lon="14.834806524486506"><ele>798.0</ele><time>2026-04-06T18:29:00.999Z</time></trkpt><trkpt lat="37.741332459056906" lon="14.83473380734498"><ele>796.0</ele><time>2026-04-06T18:29:01.999Z</time></trkpt><trkpt lat="37.74140872178475" lon="14.834636095712446"><ele>794.0</ele><time>2026-04-06T18:29:03.999Z</time></trkpt><trkpt lat="37.74146140217778" lon="14.83457290471878"><ele>791.9999999999999</ele><time>2026-04-06T18:29:04.999Z</time></trkpt><trkpt lat="37.741499449816914" lon="14.834505727743739"><ele>790.0</ele><time>2026-04-06T18:29:05.999Z</time></trkpt><trkpt lat="37.74160383408181" lon="14.834491032075935"><ele>789.9999999999999</ele><time>2026-04-06T18:29:07.999Z</time></trkpt><trkpt lat="37.741712243348125" lon="14.83446765831609"><ele>790.0</ele><time>2026-04-06T18:29:09.998Z</time></trkpt><trkpt lat="37.741752485089734" lon="14.834404107569638"><ele>790.0</ele><time>2026-04-06T18:29:10.998Z</time></trkpt><trkpt lat="37.74181105236047" lon="14.834268418161454"><ele>790.0</ele><time>2026-04-06T18:29:12.998Z</time></trkpt><trkpt lat="37.74183403550447" lon="14.83418127275928"><ele>789.9999999999999</ele><time>2026-04-06T18:29:13.998Z</time></trkpt><trkpt lat="37.741831117006626" lon="14.834098843540595"><ele>790.0</ele><time>2026-04-06T18:29:14.998Z</time></trkpt><trkpt lat="37.74192586777176" lon="14.833998816210755"><ele>787.8</ele><time>2026-04-06T18:29:16.998Z</time></trkpt><trkpt lat="37.741993931974505" lon="14.833894135359232"><ele>785.6</ele><time>2026-04-06T18:29:18.998Z</time></trkpt><trkpt lat="37.74206162049801" lon="14.83381801686612"><ele>783.4000000000001</ele><time>2026-04-06T18:29:20.998Z</time></trkpt><trkpt lat="37.74214604867337" lon="14.83374311287474"><ele>781.2</ele><time>2026-04-06T18:29:22.998Z</time></trkpt><trkpt lat="37.742234043567315" lon="14.833656805521871"><ele>779.0</ele><time>2026-04-06T18:29:24.998Z</time></trkpt><trkpt lat="37.742279355641614" lon="14.833598316112598"><ele>779.0000000000001</ele><time>2026-04-06T18:29:25.998Z</time></trkpt><trkpt lat="37.742301687482914" lon="14.83352114809202"><ele>779.0</ele><time>2026-04-06T18:29:26.998Z</time></trkpt><trkpt lat="37.74226638102772" lon="14.833444268193212"><ele>779.0</ele><time>2026-04-06T18:29:28.998Z</time></trkpt><trkpt lat="37.74219339450422" lon="14.833344540055236"><ele>779.0</ele><time>2026-04-06T18:29:30.998Z</time></trkpt><trkpt lat="37.74211636197213" lon="14.833279071967736"><ele>779.0000000000001</ele><time>2026-04-06T18:29:32.998Z</time></trkpt><trkpt lat="37.74203649058157" lon="14.833201374736191"><ele>779.0</ele><time>2026-04-06T18:29:44.998Z</time></trkpt><trkpt lat="37.74192600746401" lon="14.833088594125064"><ele>778.2</ele><time>2026-04-06T18:29:46.998Z</time></trkpt><trkpt lat="37.74186316811171" lon="14.833008715605992"><ele>777.4000000000001</ele><time>2026-04-06T18:29:47.998Z</time></trkpt><trkpt lat="37.741799806375106" lon="14.832916089860603"><ele>776.6</ele><time>2026-04-06T18:29:48.998Z</time></trkpt><trkpt lat="37.74184448529806" lon="14.83299738913231"><ele>775.8</ele><time>2026-04-06T18:29:49.998Z</time></trkpt><trkpt lat="37.74185694704384" lon="14.83287718830513"><ele>775.0</ele><time>2026-04-06T18:29:51.998Z</time></trkpt><trkpt lat="37.741834485750054" lon="14.832747889336844"><ele>772.6</ele><time>2026-04-06T18:29:53.998Z</time></trkpt><trkpt lat="37.74180718268704" lon="14.832635622889443"><ele>770.2</ele><time>2026-04-06T18:29:55.997Z</time></trkpt><trkpt lat="37.74176602993293" lon="14.832530156674522"><ele>767.8</ele><time>2026-04-06T18:29:57.997Z</time></trkpt><trkpt lat="37.74172980270944" lon="14.832437090498408"><ele>765.4</ele><time>2026-04-06T18:29:59.997Z</time></trkpt><trkpt lat="37.741688251696395" lon="14.832317831485396"><ele>763.0</ele><time>2026-04-06T18:30:01.997Z</time></trkpt><trkpt lat="37.74167047933631" lon="14.832180724763633"><ele>763.0</ele><time>2026-04-06T18:30:03.997Z</time></trkpt><trkpt lat="37.741669402943614" lon="14.832067900967008"><ele>763.0</ele><time>2026-04-06T18:30:05.997Z</time></trkpt><trkpt lat="37.74167868079231" lon="14.831960794111113"><ele>763.0</ele><time>2026-04-06T18:30:07.997Z</time></trkpt><trkpt lat="37.74171164008501" lon="14.831866506517537"><ele>763.0</ele><time>2026-04-06T18:30:09.997Z</time></trkpt><trkpt lat="37.74174029396882" lon="14.831740617068114"><ele>763.0</ele><time>2026-04-06T18:30:11.997Z</time></trkpt><trkpt lat="37.74173066332378" lon="14.831622678315952"><ele>761.5</ele><time>2026-04-06T18:30:13.997Z</time></trkpt><trkpt lat="37.74168253376838" lon="14.83152286857236"><ele>760.0</ele><time>2026-04-06T18:30:16Z</time></trkpt><trkpt lat="37.741654492619375" lon="14.83141728741481"><ele>758.5</ele><time>2026-04-06T18:30:18Z</time></trkpt><trkpt lat="37.741634962228716" lon="14.831311411878971"><ele>757.0</ele><time>2026-04-06T18:30:20Z</time></trkpt><trkpt lat="37.74161235575367" lon="14.831208254470852"><ele>755.5</ele><time>2026-04-06T18:30:22Z</time></trkpt><trkpt lat="37.74160664510872" lon="14.831106029243735"><ele>754.0</ele><time>2026-04-06T18:30:24Z</time></trkpt><trkpt lat="37.7415987093981" lon="14.830991412639175"><ele>752.3333333333334</ele><time>2026-04-06T18:30:26Z</time></trkpt><trkpt lat="37.74159902086789" lon="14.830870268588898"><ele>750.6666666666667</ele><time>2026-04-06T18:30:28Z</time></trkpt><trkpt lat="37.74160537684194" lon="14.83074857583565"><ele>749.0</ele><time>2026-04-06T18:30:30Z</time></trkpt><trkpt lat="37.74161052666718" lon="14.830640427824866"><ele>747.3333333333334</ele><time>2026-04-06T18:30:32Z</time></trkpt><trkpt lat="37.741612342935895" lon="14.83053404367604"><ele>745.6666666666666</ele><time>2026-04-06T18:30:34Z</time></trkpt><trkpt lat="37.74162914724756" lon="14.830440439151738"><ele>744.0</ele><time>2026-04-06T18:30:35.999Z</time></trkpt><trkpt lat="37.741670874565514" lon="14.83036407125762"><ele>744.0</ele><time>2026-04-06T18:30:37.999Z</time></trkpt><trkpt lat="37.741741026806835" lon="14.830315267193432"><ele>744.0</ele><time>2026-04-06T18:30:39.999Z</time></trkpt><trkpt lat="37.74182584479557" lon="14.830275769731728"><ele>744.0</ele><time>2026-04-06T18:30:41.999Z</time></trkpt><trkpt lat="37.741922030455605" lon="14.830240445922456"><ele>744.0</ele><time>2026-04-06T18:30:43.999Z</time></trkpt><trkpt lat="37.74198844713046" lon="14.83017200402661"><ele>744.0</ele><time>2026-04-06T18:30:45.999Z</time></trkpt><trkpt lat="37.7420307985755" lon="14.830097910273402"><ele>744.0</ele><time>2026-04-06T18:30:52.999Z</time></trkpt><trkpt lat="37.741984967309584" lon="14.829951364863065"><ele>743.0</ele><time>2026-04-06T18:30:54.999Z</time></trkpt><trkpt lat="37.7419434972495" lon="14.829871813177029"><ele>742.0</ele><time>2026-04-06T18:30:55.999Z</time></trkpt><trkpt lat="37.74189099066842" lon="14.829791124226242"><ele>741.0</ele><time>2026-04-06T18:30:56.999Z</time></trkpt><trkpt lat="37.74181984988091" lon="14.82969092853208"><ele>740.0</ele><time>2026-04-06T18:30:57.999Z</time></trkpt><trkpt lat="37.74174133039436" lon="14.82957669996718"><ele>739.0</ele><time>2026-04-06T18:30:58.999Z</time></trkpt><trkpt lat="37.74164701845507" lon="14.829459654543893"><ele>738.75</ele><time>2026-04-06T18:30:59.999Z</time></trkpt><trkpt lat="37.74154006427252" lon="14.82935111281563"><ele>738.5</ele><time>2026-04-06T18:31:00.999Z</time></trkpt><trkpt lat="37.74142654597649" lon="14.829259349869522"><ele>738.25</ele><time>2026-04-06T18:31:01.999Z</time></trkpt><trkpt lat="37.741304231437546" lon="14.82918803732521"><ele>738.0</ele><time>2026-04-06T18:31:02.999Z</time></trkpt><trkpt lat="37.74117565853012" lon="14.829126635007444"><ele>735.0</ele><time>2026-04-06T18:31:03.999Z</time></trkpt><trkpt lat="37.74104289700073" lon="14.82906800724744"><ele>732.0</ele><time>2026-04-06T18:31:04.999Z</time></trkpt><trkpt lat="37.74090632677291" lon="14.829011934681015"><ele>729.0</ele><time>2026-04-06T18:31:05.999Z</time></trkpt><trkpt lat="37.74075262778567" lon="14.828948148730854"><ele>726.0</ele><time>2026-04-06T18:31:06.999Z</time></trkpt><trkpt lat="37.74059404253401" lon="14.828884246966078"><ele>726.0</ele><time>2026-04-06T18:31:07.999Z</time></trkpt><trkpt lat="37.74043642018031" lon="14.828817478363188"><ele>726.0</ele><time>2026-04-06T18:31:08.999Z</time></trkpt><trkpt lat="37.74028389474784" lon="14.82875022906504"><ele>726.0</ele><time>2026-04-06T18:31:09.999Z</time></trkpt><trkpt lat="37.74013767776256" lon="14.828689332472935"><ele>725.75</ele><time>2026-04-06T18:31:10.999Z</time></trkpt><trkpt lat="37.739998644136186" lon="14.828653122735034"><ele>725.5</ele><time>2026-04-06T18:31:11.999Z</time></trkpt><trkpt lat="37.73986221100562" lon="14.828644119202295"><ele>725.25</ele><time>2026-04-06T18:31:12.999Z</time></trkpt><trkpt lat="37.73972817339646" lon="14.82865990493548"><ele>725.0</ele><time>2026-04-06T18:31:13.999Z</time></trkpt><trkpt lat="37.739599393933425" lon="14.828698911733518"><ele>725.0</ele><time>2026-04-06T18:31:14.999Z</time></trkpt><trkpt lat="37.739474488701674" lon="14.828758122314587"><ele>725.0</ele><time>2026-04-06T18:31:15.999Z</time></trkpt><trkpt lat="37.739351264081165" lon="14.828822497612956"><ele>725.0</ele><time>2026-04-06T18:31:16.999Z</time></trkpt><trkpt lat="37.73923312432842" lon="14.828891454474563"><ele>725.0</ele><time>2026-04-06T18:31:17.999Z</time></trkpt><trkpt lat="37.73911334855679" lon="14.828958760776732"><ele>723.5</ele><time>2026-04-06T18:31:18.999Z</time></trkpt><trkpt lat="37.738992659620855" lon="14.829016513383229"><ele>722.0</ele><time>2026-04-06T18:31:19.998Z</time></trkpt><trkpt lat="37.738871784628664" lon="14.829065064226612"><ele>720.5</ele><time>2026-04-06T18:31:20.998Z</time></trkpt><trkpt lat="37.73875493699108" lon="14.82910190971628"><ele>719.0</ele><time>2026-04-06T18:31:21.998Z</time></trkpt><trkpt lat="37.73863804645469" lon="14.829135310589114"><ele>717.25</ele><time>2026-04-06T18:31:22.998Z</time></trkpt><trkpt lat="37.73851855202326" lon="14.8291648118997"><ele>715.5</ele><time>2026-04-06T18:31:23.998Z</time></trkpt><trkpt lat="37.73840213438574" lon="14.829195155849657"><ele>713.75</ele><time>2026-04-06T18:31:24.998Z</time></trkpt><trkpt lat="37.738284065243846" lon="14.82922308162656"><ele>712.0</ele><time>2026-04-06T18:31:25.998Z</time></trkpt><trkpt lat="37.73816602975824" lon="14.829251232651128"><ele>712.0</ele><time>2026-04-06T18:31:26.998Z</time></trkpt><trkpt lat="37.73805052469123" lon="14.829277672524878"><ele>712.0</ele><time>2026-04-06T18:31:27.998Z</time></trkpt><trkpt lat="37.73793481733786" lon="14.829305294956654"><ele>712.0</ele><time>2026-04-06T18:31:28.998Z</time></trkpt><trkpt lat="37.73781934844252" lon="14.829334023780365"><ele>712.0</ele><time>2026-04-06T18:31:29.998Z</time></trkpt><trkpt lat="37.73770446292301" lon="14.829362149002081"><ele>711.5</ele><time>2026-04-06T18:31:30.998Z</time></trkpt><trkpt lat="37.73759086504115" lon="14.829390907025548"><ele>711.0</ele><time>2026-04-06T18:31:31.998Z</time></trkpt><trkpt lat="37.73747777384739" lon="14.829422447395368"><ele>710.5</ele><time>2026-04-06T18:31:32.998Z</time></trkpt><trkpt lat="37.7373634145921" lon="14.82945135818664"><ele>710.0</ele><time>2026-04-06T18:31:33.998Z</time></trkpt><trkpt lat="37.7372499796238" lon="14.82948144585446"><ele>710.0</ele><time>2026-04-06T18:31:34.998Z</time></trkpt><trkpt lat="37.73713772643093" lon="14.82951091181632"><ele>710.0</ele><time>2026-04-06T18:31:35.998Z</time></trkpt><trkpt lat="37.73702685575254" lon="14.829540677714865"><ele>710.0</ele><time>2026-04-06T18:31:36.998Z</time></trkpt><trkpt lat="37.73691520286721" lon="14.829570859659338"><ele>710.0</ele><time>2026-04-06T18:31:37.998Z</time></trkpt><trkpt lat="37.736804667637266" lon="14.829603154136128"><ele>708.6</ele><time>2026-04-06T18:31:38.998Z</time></trkpt><trkpt lat="37.73669620432825" lon="14.829637338700508"><ele>707.2</ele><time>2026-04-06T18:31:39.998Z</time></trkpt><trkpt lat="37.736589590590484" lon="14.829675908156274"><ele>705.8</ele><time>2026-04-06T18:31:40.998Z</time></trkpt><trkpt lat="37.73648657329547" lon="14.829718073103043"><ele>704.4</ele><time>2026-04-06T18:31:41.998Z</time></trkpt><trkpt lat="37.73637627451103" lon="14.829767774175394"><ele>703.0</ele><time>2026-04-06T18:31:42.998Z</time></trkpt><trkpt lat="37.73628403670183" lon="14.829806363562971"><ele>703.0</ele><time>2026-04-06T18:31:43.998Z</time></trkpt><trkpt lat="37.73618382417822" lon="14.82984946731668"><ele>703.0</ele><time>2026-04-06T18:31:44.998Z</time></trkpt><trkpt lat="37.736088049275814" lon="14.829891482156697"><ele>703.0</ele><time>2026-04-06T18:31:45.998Z</time></trkpt><trkpt lat="37.735992667014855" lon="14.82992991340375"><ele>703.0</ele><time>2026-04-06T18:31:46.998Z</time></trkpt><trkpt lat="37.73589938003335" lon="14.829966991861234"><ele>703.0</ele><time>2026-04-06T18:31:47.998Z</time></trkpt><trkpt lat="37.73580982867486" lon="14.830002893228915"><ele>702.0</ele><time>2026-04-06T18:31:48.998Z</time></trkpt><trkpt lat="37.73571972728974" lon="14.83003497360401"><ele>701.0</ele><time>2026-04-06T18:31:49.998Z</time></trkpt><trkpt lat="37.73563419554815" lon="14.830061892756028"><ele>700.0</ele><time>2026-04-06T18:31:50.998Z</time></trkpt><trkpt lat="37.73554858289854" lon="14.830085270656175"><ele>699.0</ele><time>2026-04-06T18:31:51.998Z</time></trkpt><trkpt lat="37.73544709854254" lon="14.83009850724491"><ele>698.0</ele><time>2026-04-06T18:31:52.998Z</time></trkpt><trkpt lat="37.73534025590279" lon="14.830101464248811"><ele>698.0</ele><time>2026-04-06T18:31:53.998Z</time></trkpt><trkpt lat="37.735229919081874" lon="14.830100158211804"><ele>698.0</ele><time>2026-04-06T18:31:54.998Z</time></trkpt><trkpt lat="37.735118067493474" lon="14.830095034488007"><ele>698.0</ele><time>2026-04-06T18:31:55.998Z</time></trkpt><trkpt lat="37.735002247697246" lon="14.830089253073398"><ele>698.0</ele><time>2026-04-06T18:31:56.998Z</time></trkpt><trkpt lat="37.73487606315673" lon="14.830081677688723"><ele>697.5</ele><time>2026-04-06T18:31:57.998Z</time></trkpt><trkpt lat="37.734736021164316" lon="14.830075071086862"><ele>697.0</ele><time>2026-04-06T18:31:58.998Z</time></trkpt><trkpt lat="37.734587858656745" lon="14.830072044335203"><ele>696.5</ele><time>2026-04-06T18:31:59.998Z</time></trkpt><trkpt lat="37.73444108621841" lon="14.830075583071164"><ele>696.0</ele><time>2026-04-06T18:32:00.998Z</time></trkpt><trkpt lat="37.734308306479065" lon="14.830104274756295"><ele>697.5</ele><time>2026-04-06T18:32:01.998Z</time></trkpt><trkpt lat="37.73418404948846" lon="14.830145129083395"><ele>699.0</ele><time>2026-04-06T18:32:02.998Z</time></trkpt><trkpt lat="37.734065689244" lon="14.830205402387667"><ele>700.5</ele><time>2026-04-06T18:32:03.998Z</time></trkpt><trkpt lat="37.73395353238693" lon="14.830281347088418"><ele>702.0</ele><time>2026-04-06T18:32:04.997Z</time></trkpt><trkpt lat="37.73385030105509" lon="14.83037084835983"><ele>702.0</ele><time>2026-04-06T18:32:05.997Z</time></trkpt><trkpt lat="37.7337488591737" lon="14.83046027081719"><ele>702.0</ele><time>2026-04-06T18:32:06.997Z</time></trkpt><trkpt lat="37.73364412689739" lon="14.83054220089561"><ele>702.0</ele><time>2026-04-06T18:32:07.997Z</time></trkpt><trkpt lat="37.73353416565427" lon="14.830617019555492"><ele>702.0</ele><time>2026-04-06T18:32:08.997Z</time></trkpt><trkpt lat="37.73342099269226" lon="14.830684756879233"><ele>701.25</ele><time>2026-04-06T18:32:09.997Z</time></trkpt><trkpt lat="37.73330133010595" lon="14.830743444939069"><ele>700.5</ele><time>2026-04-06T18:32:10.997Z</time></trkpt><trkpt lat="37.73317673336997" lon="14.830789146075997"><ele>699.75</ele><time>2026-04-06T18:32:11.997Z</time></trkpt><trkpt lat="37.73304973029695" lon="14.830824249213101"><ele>699.0</ele><time>2026-04-06T18:32:12.997Z</time></trkpt><trkpt lat="37.732921561409775" lon="14.830858579017262"><ele>699.0</ele><time>2026-04-06T18:32:13.997Z</time></trkpt><trkpt lat="37.73279075955943" lon="14.830883090953767"><ele>699.0</ele><time>2026-04-06T18:32:14.997Z</time></trkpt><trkpt lat="37.73265753468694" lon="14.830896577372556"><ele>699.0</ele><time>2026-04-06T18:32:15.997Z</time></trkpt><trkpt lat="37.73252490740712" lon="14.830899222421769"><ele>699.0</ele><time>2026-04-06T18:32:16.997Z</time></trkpt><trkpt lat="37.73239057566127" lon="14.830871123104806"><ele>699.25</ele><time>2026-04-06T18:32:17.997Z</time></trkpt><trkpt lat="37.732259591463645" lon="14.830818965353563"><ele>699.5</ele><time>2026-04-06T18:32:18.997Z</time></trkpt><trkpt lat="37.73213399379561" lon="14.830753108933152"><ele>699.75</ele><time>2026-04-06T18:32:19.997Z</time></trkpt><trkpt lat="37.73201258628156" lon="14.830686220790355"><ele>700.0</ele><time>2026-04-06T18:32:20.997Z</time></trkpt><trkpt lat="37.73188898129405" lon="14.83063828815876"><ele>700.0</ele><time>2026-04-06T18:32:22Z</time></trkpt><trkpt lat="37.73176837877872" lon="14.83062413454285"><ele>700.0</ele><time>2026-04-06T18:32:23Z</time></trkpt><trkpt lat="37.73164616953999" lon="14.83063480891747"><ele>700.0</ele><time>2026-04-06T18:32:24Z</time></trkpt><trkpt lat="37.73152406441499" lon="14.830666336864997"><ele>700.0</ele><time>2026-04-06T18:32:25Z</time></trkpt><trkpt lat="37.73140077958777" lon="14.83071493155797"><ele>700.0</ele><time>2026-04-06T18:32:26Z</time></trkpt><trkpt lat="37.73128025729075" lon="14.830772911032573"><ele>700.0</ele><time>2026-04-06T18:32:27Z</time></trkpt><trkpt lat="37.731160723964756" lon="14.830836135151282"><ele>700.0</ele><time>2026-04-06T18:32:28Z</time></trkpt><trkpt lat="37.73103853914207" lon="14.830897372452451"><ele>700.0</ele><time>2026-04-06T18:32:29Z</time></trkpt><trkpt lat="37.730917973858986" lon="14.830954095755448"><ele>702.0</ele><time>2026-04-06T18:32:30Z</time></trkpt><trkpt lat="37.73079585514196" lon="14.831008504832562"><ele>704.0</ele><time>2026-04-06T18:32:31Z</time></trkpt><trkpt lat="37.73067577197537" lon="14.83106699904892"><ele>706.0</ele><time>2026-04-06T18:32:32Z</time></trkpt><trkpt lat="37.73055566298555" lon="14.831124033336359"><ele>708.0</ele><time>2026-04-06T18:32:33Z</time></trkpt><trkpt lat="37.73043576872222" lon="14.831182048243257"><ele>708.0</ele><time>2026-04-06T18:32:34Z</time></trkpt><trkpt lat="37.73031552506155" lon="14.83123869608748"><ele>708.0</ele><time>2026-04-06T18:32:35Z</time></trkpt><trkpt lat="37.73019552490489" lon="14.831296480360965"><ele>708.0</ele><time>2026-04-06T18:32:36Z</time></trkpt><trkpt lat="37.73007599624766" lon="14.831352519404712"><ele>708.0</ele><time>2026-04-06T18:32:37Z</time></trkpt><trkpt lat="37.72995688100338" lon="14.831410737129477"><ele>705.75</ele><time>2026-04-06T18:32:38Z</time></trkpt><trkpt lat="37.72983758012844" lon="14.831469178432274"><ele>703.5</ele><time>2026-04-06T18:32:39Z</time></trkpt><trkpt lat="37.72971664763185" lon="14.83152873863481"><ele>701.25</ele><time>2026-04-06T18:32:40Z</time></trkpt><trkpt lat="37.72959570171727" lon="14.831588988737545"><ele>699.0</ele><time>2026-04-06T18:32:41Z</time></trkpt><trkpt lat="37.729473907565094" lon="14.831647273783735"><ele>698.0</ele><time>2026-04-06T18:32:42Z</time></trkpt><trkpt lat="37.72935123428352" lon="14.831706213116469"><ele>697.0</ele><time>2026-04-06T18:32:43Z</time></trkpt><trkpt lat="37.729228661172904" lon="14.831766296184156"><ele>696.0</ele><time>2026-04-06T18:32:44Z</time></trkpt><trkpt lat="37.729107035903986" lon="14.83182781577313"><ele>695.0</ele><time>2026-04-06T18:32:45Z</time></trkpt><trkpt lat="37.72898557504414" lon="14.83189191840419"><ele>697.5</ele><time>2026-04-06T18:32:46Z</time></trkpt><trkpt lat="37.72886425243151" lon="14.831959656796682"><ele>700.0</ele><time>2026-04-06T18:32:46.999Z</time></trkpt><trkpt lat="37.72874574441285" lon="14.832033852732403"><ele>702.5</ele><time>2026-04-06T18:32:47.999Z</time></trkpt><trkpt lat="37.728628994869624" lon="14.83211461077898"><ele>705.0</ele><time>2026-04-06T18:32:48.999Z</time></trkpt><trkpt lat="37.72851671491145" lon="14.832201997817698"><ele>705.0</ele><time>2026-04-06T18:32:49.999Z</time></trkpt><trkpt lat="37.72841182017717" lon="14.832304723832804"><ele>705.0</ele><time>2026-04-06T18:32:50.999Z</time></trkpt><trkpt lat="37.72831107754273" lon="14.832414263109634"><ele>705.0</ele><time>2026-04-06T18:32:51.999Z</time></trkpt><trkpt lat="37.728212431603964" lon="14.832527581224033"><ele>705.0</ele><time>2026-04-06T18:32:52.999Z</time></trkpt><trkpt lat="37.728115443359165" lon="14.832644261004157"><ele>705.25</ele><time>2026-04-06T18:32:53.999Z</time></trkpt><trkpt lat="37.72801813082441" lon="14.83275937907213"><ele>705.5</ele><time>2026-04-06T18:32:54.999Z</time></trkpt><trkpt lat="37.727919046731884" lon="14.832875553317956"><ele>705.75</ele><time>2026-04-06T18:32:55.999Z</time></trkpt><trkpt lat="37.727822274078754" lon="14.832989238977158"><ele>706.0</ele><time>2026-04-06T18:32:56.999Z</time></trkpt><trkpt lat="37.72772626995341" lon="14.833098976026045"><ele>706.0</ele><time>2026-04-06T18:32:57.999Z</time></trkpt><trkpt lat="37.72763078808675" lon="14.833205141595188"><ele>706.0</ele><time>2026-04-06T18:32:58.999Z</time></trkpt><trkpt lat="37.727533471698905" lon="14.833303309319541"><ele>706.0</ele><time>2026-04-06T18:32:59.999Z</time></trkpt><trkpt lat="37.727433407463835" lon="14.833395944812052"><ele>706.0</ele><time>2026-04-06T18:33:00.999Z</time></trkpt><trkpt lat="37.72733238239392" lon="14.83348769348589"><ele>708.25</ele><time>2026-04-06T18:33:01.999Z</time></trkpt><trkpt lat="37.72722902390447" lon="14.833572319430399"><ele>710.5</ele><time>2026-04-06T18:33:02.999Z</time></trkpt><trkpt lat="37.72712282363728" lon="14.833650945405752"><ele>712.75</ele><time>2026-04-06T18:33:03.999Z</time></trkpt><trkpt lat="37.72701314892688" lon="14.833724598151749"><ele>715.0</ele><time>2026-04-06T18:33:04.999Z</time></trkpt><trkpt lat="37.72690120527699" lon="14.833793340592184"><ele>715.0</ele><time>2026-04-06T18:33:05.999Z</time></trkpt><trkpt lat="37.72678692002064" lon="14.8338604230183"><ele>715.0</ele><time>2026-04-06T18:33:06.999Z</time></trkpt><trkpt lat="37.72667241432588" lon="14.833928017208853"><ele>715.0</ele><time>2026-04-06T18:33:07.999Z</time></trkpt><trkpt lat="37.72655747790616" lon="14.833998221140115"><ele>715.0</ele><time>2026-04-06T18:33:08.999Z</time></trkpt><trkpt lat="37.726442975850446" lon="14.83407119653254"><ele>715.0</ele><time>2026-04-06T18:33:09.999Z</time></trkpt><trkpt lat="37.72632866140411" lon="14.834145396465988"><ele>715.0</ele><time>2026-04-06T18:33:10.999Z</time></trkpt><trkpt lat="37.72621571435973" lon="14.834218434660158"><ele>715.0</ele><time>2026-04-06T18:33:11.999Z</time></trkpt><trkpt lat="37.72610562227379" lon="14.834289391888461"><ele>715.0</ele><time>2026-04-06T18:33:12.999Z</time></trkpt><trkpt lat="37.726000562224385" lon="14.834355259644454"><ele>716.75</ele><time>2026-04-06T18:33:13.999Z</time></trkpt><trkpt lat="37.72589495537266" lon="14.834420182250664"><ele>718.5</ele><time>2026-04-06T18:33:14.999Z</time></trkpt><trkpt lat="37.72579234212307" lon="14.834485055020618"><ele>720.25</ele><time>2026-04-06T18:33:15.999Z</time></trkpt><trkpt lat="37.72568921668793" lon="14.834548667133001"><ele>722.0</ele><time>2026-04-06T18:33:16.999Z</time></trkpt><trkpt lat="37.72558586593164" lon="14.834611766344858"><ele>722.0</ele><time>2026-04-06T18:33:17.999Z</time></trkpt><trkpt lat="37.72547977787788" lon="14.8346732811943"><ele>722.0</ele><time>2026-04-06T18:33:18.999Z</time></trkpt><trkpt lat="37.725373870077796" lon="14.83472948396816"><ele>722.0</ele><time>2026-04-06T18:33:19.999Z</time></trkpt><trkpt lat="37.725266683259605" lon="14.834776387263805"><ele>722.0</ele><time>2026-04-06T18:33:20.999Z</time></trkpt><trkpt lat="37.72515720999388" lon="14.834813276621515"><ele>721.2</ele><time>2026-04-06T18:33:21.999Z</time></trkpt><trkpt lat="37.725046894328365" lon="14.834836571749992"><ele>720.4000000000001</ele><time>2026-04-06T18:33:22.999Z</time></trkpt><trkpt lat="37.724935384910715" lon="14.834844785292995"><ele>719.5999999999999</ele><time>2026-04-06T18:33:23.999Z</time></trkpt><trkpt lat="37.724824951417304" lon="14.834841211870355"><ele>718.8</ele><time>2026-04-06T18:33:24.999Z</time></trkpt><trkpt lat="37.72471301260309" lon="14.834833361788636"><ele>718.0</ele><time>2026-04-06T18:33:25.999Z</time></trkpt><trkpt lat="37.72459985817556" lon="14.834822934726729"><ele>718.0</ele><time>2026-04-06T18:33:26.999Z</time></trkpt><trkpt lat="37.724488472398114" lon="14.834812456340881"><ele>718.0</ele><time>2026-04-06T18:33:27.998Z</time></trkpt><trkpt lat="37.7243773378388" lon="14.83480059558428"><ele>718.0</ele><time>2026-04-06T18:33:28.998Z</time></trkpt><trkpt lat="37.72426557077654" lon="14.83478912690074"><ele>718.0</ele><time>2026-04-06T18:33:29.998Z</time></trkpt><trkpt lat="37.724151071907535" lon="14.83477404550257"><ele>717.5</ele><time>2026-04-06T18:33:30.998Z</time></trkpt><trkpt lat="37.72403442034944" lon="14.834754371070003"><ele>717.0</ele><time>2026-04-06T18:33:31.998Z</time></trkpt><trkpt lat="37.72391777353493" lon="14.834730298257625"><ele>716.5</ele><time>2026-04-06T18:33:32.998Z</time></trkpt><trkpt lat="37.72380129945538" lon="14.834703519425254"><ele>716.0</ele><time>2026-04-06T18:33:33.998Z</time></trkpt><trkpt lat="37.72368449751853" lon="14.834681202620239"><ele>716.0</ele><time>2026-04-06T18:33:34.998Z</time></trkpt><trkpt lat="37.7235664161419" lon="14.834669905612287"><ele>716.0</ele><time>2026-04-06T18:33:35.998Z</time></trkpt><trkpt lat="37.72344606839911" lon="14.834666739367893"><ele>716.0</ele><time>2026-04-06T18:33:36.998Z</time></trkpt><trkpt lat="37.72332320026265" lon="14.834676816286873"><ele>716.0</ele><time>2026-04-06T18:33:37.998Z</time></trkpt><trkpt lat="37.723197853957316" lon="14.83470286439145"><ele>715.25</ele><time>2026-04-06T18:33:38.998Z</time></trkpt><trkpt lat="37.7230714726007" lon="14.834745583187734"><ele>714.5</ele><time>2026-04-06T18:33:39.998Z</time></trkpt><trkpt lat="37.72294507141269" lon="14.834796541544497"><ele>713.75</ele><time>2026-04-06T18:33:40.998Z</time></trkpt><trkpt lat="37.72281146284919" lon="14.834861514588729"><ele>713.0</ele><time>2026-04-06T18:33:41.998Z</time></trkpt><trkpt lat="37.72267052468801" lon="14.834932791660144"><ele>713.3333333333333</ele><time>2026-04-06T18:33:42.998Z</time></trkpt><trkpt lat="37.7225281750984" lon="14.834993113720857"><ele>713.6666666666666</ele><time>2026-04-06T18:33:43.998Z</time></trkpt><trkpt lat="37.72238365245528" lon="14.835044971271083"><ele>714.0</ele><time>2026-04-06T18:33:44.998Z</time></trkpt><trkpt lat="37.722248605635166" lon="14.8351786624036"><ele>714.0</ele><time>2026-04-06T18:33:45.998Z</time></trkpt><trkpt lat="37.72210578627264" lon="14.835251288601524"><ele>714.0</ele><time>2026-04-06T18:33:46.998Z</time></trkpt><trkpt lat="37.72195413012177" lon="14.835318331074443"><ele>714.0</ele><time>2026-04-06T18:33:47.998Z</time></trkpt><trkpt lat="37.721805822753126" lon="14.835380444170982"><ele>710.6666666666666</ele><time>2026-04-06T18:33:48.998Z</time></trkpt><trkpt lat="37.72165560985588" lon="14.835449347671833"><ele>707.3333333333333</ele><time>2026-04-06T18:33:49.998Z</time></trkpt><trkpt lat="37.72150456241004" lon="14.835514607003704"><ele>704.0</ele><time>2026-04-06T18:33:50.998Z</time></trkpt><trkpt lat="37.72135221432203" lon="14.8355900009453"><ele>704.0</ele><time>2026-04-06T18:33:51.998Z</time></trkpt><trkpt lat="37.72120371388409" lon="14.835661575936745"><ele>704.0</ele><time>2026-04-06T18:33:52.998Z</time></trkpt><trkpt lat="37.72106199235623" lon="14.835727234447969"><ele>704.0</ele><time>2026-04-06T18:33:53.998Z</time></trkpt><trkpt lat="37.720926101170264" lon="14.835779969552767"><ele>699.75</ele><time>2026-04-06T18:33:54.998Z</time></trkpt><trkpt lat="37.72078387273064" lon="14.835803793016096"><ele>695.5</ele><time>2026-04-06T18:33:55.998Z</time></trkpt><trkpt lat="37.72063879235561" lon="14.835805049512858"><ele>691.25</ele><time>2026-04-06T18:33:56.998Z</time></trkpt><trkpt lat="37.720500513182245" lon="14.835783963662475"><ele>687.0</ele><time>2026-04-06T18:33:57.998Z</time></trkpt><trkpt lat="37.72036581594238" lon="14.83572105472966"><ele>686.75</ele><time>2026-04-06T18:33:58.998Z</time></trkpt><trkpt lat="37.72023113393574" lon="14.835652904715698"><ele>686.5</ele><time>2026-04-06T18:33:59.998Z</time></trkpt><trkpt lat="37.720100811711646" lon="14.835567157296312"><ele>686.25</ele><time>2026-04-06T18:34:00.998Z</time></trkpt><trkpt lat="37.71996957190603" lon="14.835483943649097"><ele>686.0</ele><time>2026-04-06T18:34:01.998Z</time></trkpt><trkpt lat="37.719886211985084" lon="14.835353752939904"><ele>686.0</ele><time>2026-04-06T18:34:02.998Z</time></trkpt><trkpt lat="37.71982114482705" lon="14.835215340859136"><ele>686.0</ele><time>2026-04-06T18:34:03.998Z</time></trkpt><trkpt lat="37.7197673101288" lon="14.835080703888604"><ele>686.0</ele><time>2026-04-06T18:34:04.998Z</time></trkpt><trkpt lat="37.719738419358556" lon="14.834932871834017"><ele>686.0</ele><time>2026-04-06T18:34:05.998Z</time></trkpt><trkpt lat="37.71973303507466" lon="14.834775647834821"><ele>684.0</ele><time>2026-04-06T18:34:06.998Z</time></trkpt><trkpt lat="37.71972911040969" lon="14.834610079461521"><ele>682.0</ele><time>2026-04-06T18:34:07.998Z</time></trkpt><trkpt lat="37.71971858693613" lon="14.834453208165916"><ele>680.0</ele><time>2026-04-06T18:34:08.998Z</time></trkpt><trkpt lat="37.71967907584138" lon="14.834294385502734"><ele>678.0</ele><time>2026-04-06T18:34:09.998Z</time></trkpt><trkpt lat="37.71962199559705" lon="14.834145335903262"><ele>675.75</ele><time>2026-04-06T18:34:10.998Z</time></trkpt><trkpt lat="37.71955091004822" lon="14.834008002776935"><ele>673.5</ele><time>2026-04-06T18:34:11.997Z</time></trkpt><trkpt lat="37.71946816352125" lon="14.83388442623879"><ele>671.25</ele><time>2026-04-06T18:34:12.997Z</time></trkpt><trkpt lat="37.7193677628318" lon="14.833774961385737"><ele>669.0</ele><time>2026-04-06T18:34:13.997Z</time></trkpt><trkpt lat="37.71925884313937" lon="14.833678475325547"><ele>668.5</ele><time>2026-04-06T18:34:14.997Z</time></trkpt><trkpt lat="37.71914181842084" lon="14.83359624369998"><ele>668.0</ele><time>2026-04-06T18:34:15.997Z</time></trkpt><trkpt lat="37.71901994741199" lon="14.833527319747134"><ele>667.5</ele><time>2026-04-06T18:34:16.997Z</time></trkpt><trkpt lat="37.7188971078255" lon="14.833475391823024"><ele>667.0</ele><time>2026-04-06T18:34:17.997Z</time></trkpt><trkpt lat="37.71876786758751" lon="14.833446451319949"><ele>664.75</ele><time>2026-04-06T18:34:18.997Z</time></trkpt><trkpt lat="37.71863403278031" lon="14.833442394258501"><ele>662.5</ele><time>2026-04-06T18:34:19.997Z</time></trkpt><trkpt lat="37.718504058709776" lon="14.83345709746104"><ele>660.25</ele><time>2026-04-06T18:34:20.997Z</time></trkpt><trkpt lat="37.718376710777335" lon="14.83349111934838"><ele>658.0</ele><time>2026-04-06T18:34:21.997Z</time></trkpt><trkpt lat="37.7182500669743" lon="14.833542764216569"><ele>658.0</ele><time>2026-04-06T18:34:22.997Z</time></trkpt><trkpt lat="37.71812701389838" lon="14.833599571390183"><ele>658.0</ele><time>2026-04-06T18:34:23.997Z</time></trkpt><trkpt lat="37.71780565698691" lon="14.83388952127177"><ele>658.5</ele><time>2026-04-06T18:34:26.997Z</time></trkpt><trkpt lat="37.71770952790007" lon="14.833991564411926"><ele>659.0</ele><time>2026-04-06T18:34:28Z</time></trkpt><trkpt lat="37.71759558874441" lon="14.834087511771521"><ele>659.5</ele><time>2026-04-06T18:34:29Z</time></trkpt><trkpt lat="37.71748031195706" lon="14.834198373017708"><ele>660.0</ele><time>2026-04-06T18:34:30Z</time></trkpt><trkpt lat="37.717360025551635" lon="14.83432112745568"><ele>660.0</ele><time>2026-04-06T18:34:31Z</time></trkpt><trkpt lat="37.7172381923766" lon="14.834442916884086"><ele>660.0</ele><time>2026-04-06T18:34:32Z</time></trkpt><trkpt lat="37.71710617599464" lon="14.834573121325503"><ele>660.0</ele><time>2026-04-06T18:34:33Z</time></trkpt><trkpt lat="37.716977537151166" lon="14.83469178461958"><ele>658.25</ele><time>2026-04-06T18:34:34Z</time></trkpt><trkpt lat="37.71686235704217" lon="14.834807048009585"><ele>656.5</ele><time>2026-04-06T18:34:35Z</time></trkpt><trkpt lat="37.71674667502122" lon="14.83491254999402"><ele>654.75</ele><time>2026-04-06T18:34:36Z</time></trkpt><trkpt lat="37.71663166208388" lon="14.835014660938516"><ele>653.0</ele><time>2026-04-06T18:34:37Z</time></trkpt><trkpt lat="37.71652018618387" lon="14.835115188729649"><ele>655.25</ele><time>2026-04-06T18:34:38Z</time></trkpt><trkpt lat="37.71641767802259" lon="14.835214294649687"><ele>657.5</ele><time>2026-04-06T18:34:39Z</time></trkpt><trkpt lat="37.716313098966275" lon="14.835311649344577"><ele>659.75</ele><time>2026-04-06T18:34:40Z</time></trkpt><trkpt lat="37.716208281296396" lon="14.835407745749652"><ele>662.0</ele><time>2026-04-06T18:34:41Z</time></trkpt><trkpt lat="37.71610369715262" lon="14.835505589405125"><ele>660.0</ele><time>2026-04-06T18:34:42Z</time></trkpt><trkpt lat="37.715999523704994" lon="14.835602375801384"><ele>658.0</ele><time>2026-04-06T18:34:43Z</time></trkpt><trkpt lat="37.715897599739094" lon="14.835697250846279"><ele>656.0</ele><time>2026-04-06T18:34:44Z</time></trkpt><trkpt lat="37.715798132404814" lon="14.835790315352575"><ele>654.0</ele><time>2026-04-06T18:34:45Z</time></trkpt><trkpt lat="37.715697929778415" lon="14.835883297648138"><ele>657.0</ele><time>2026-04-06T18:34:46Z</time></trkpt><trkpt lat="37.715599689707744" lon="14.835973243192102"><ele>660.0</ele><time>2026-04-06T18:34:47Z</time></trkpt><trkpt lat="37.71550118909938" lon="14.83606778609979"><ele>663.0</ele><time>2026-04-06T18:34:48Z</time></trkpt><trkpt lat="37.7154052703382" lon="14.836157914297173"><ele>666.0</ele><time>2026-04-06T18:34:49Z</time></trkpt><trkpt lat="37.715306599785116" lon="14.836244302420425"><ele>664.0</ele><time>2026-04-06T18:34:50Z</time></trkpt><trkpt lat="37.71521172496086" lon="14.836334126273636"><ele>662.0</ele><time>2026-04-06T18:34:51Z</time></trkpt><trkpt lat="37.715112626302464" lon="14.836425026812977"><ele>660.0</ele><time>2026-04-06T18:34:51.999Z</time></trkpt><trkpt lat="37.715010901619834" lon="14.836518804462415"><ele>658.0</ele><time>2026-04-06T18:34:52.999Z</time></trkpt><trkpt lat="37.71490774157801" lon="14.836614164324498"><ele>658.0</ele><time>2026-04-06T18:34:53.999Z</time></trkpt><trkpt lat="37.714804331244274" lon="14.836710422973427"><ele>658.0</ele><time>2026-04-06T18:34:54.999Z</time></trkpt><trkpt lat="37.71469710231874" lon="14.836798228535535"><ele>658.0</ele><time>2026-04-06T18:34:55.999Z</time></trkpt><trkpt lat="37.71458810842084" lon="14.836878782915486"><ele>658.0</ele><time>2026-04-06T18:34:56.999Z</time></trkpt><trkpt lat="37.71447757507339" lon="14.836952807442044"><ele>657.25</ele><time>2026-04-06T18:34:57.999Z</time></trkpt><trkpt lat="37.71436234390708" lon="14.837012951639927"><ele>656.5</ele><time>2026-04-06T18:34:58.999Z</time></trkpt><trkpt lat="37.71424136230966" lon="14.837068787602103"><ele>655.75</ele><time>2026-04-06T18:34:59.999Z</time></trkpt><trkpt lat="37.71411866288965" lon="14.837119448400196"><ele>655.0</ele><time>2026-04-06T18:35:00.999Z</time></trkpt><trkpt lat="37.71399537202165" lon="14.837170219900928"><ele>655.0</ele><time>2026-04-06T18:35:01.999Z</time></trkpt><trkpt lat="37.71386817189431" lon="14.837220660033678"><ele>655.0</ele><time>2026-04-06T18:35:02.999Z</time></trkpt><trkpt lat="37.71374259539778" lon="14.837269761404135"><ele>655.0</ele><time>2026-04-06T18:35:03.999Z</time></trkpt><trkpt lat="37.71361314202911" lon="14.837318893216842"><ele>655.0</ele><time>2026-04-06T18:35:04.999Z</time></trkpt><trkpt lat="37.713482067337736" lon="14.83737135507463"><ele>653.75</ele><time>2026-04-06T18:35:05.999Z</time></trkpt><trkpt lat="37.71335074143056" lon="14.837424209810555"><ele>652.5</ele><time>2026-04-06T18:35:06.999Z</time></trkpt><trkpt lat="37.71321689654216" lon="14.837473037345406"><ele>651.25</ele><time>2026-04-06T18:35:07.999Z</time></trkpt><trkpt lat="37.71308297183673" lon="14.83752544859408"><ele>650.0</ele><time>2026-04-06T18:35:08.999Z</time></trkpt><trkpt lat="37.71294086470264" lon="14.837581709940126"><ele>650.0</ele><time>2026-04-06T18:35:09.999Z</time></trkpt><trkpt lat="37.71279578957841" lon="14.83763898984956"><ele>650.0</ele><time>2026-04-06T18:35:10.999Z</time></trkpt><trkpt lat="37.712646735297746" lon="14.837694272059208"><ele>650.0</ele><time>2026-04-06T18:35:11.999Z</time></trkpt><trkpt lat="37.712497497015256" lon="14.837744224584695"><ele>650.0</ele><time>2026-04-06T18:35:12.999Z</time></trkpt><trkpt lat="37.71234646958511" lon="14.837793146462502"><ele>650.0</ele><time>2026-04-06T18:35:13.999Z</time></trkpt><trkpt lat="37.7121948144441" lon="14.837836530299185"><ele>650.0</ele><time>2026-04-06T18:35:14.999Z</time></trkpt><trkpt lat="37.71204155222295" lon="14.837874621608703"><ele>647.6666666666666</ele><time>2026-04-06T18:35:15.999Z</time></trkpt><trkpt lat="37.711887993232125" lon="14.837913811445818"><ele>645.3333333333334</ele><time>2026-04-06T18:35:16.999Z</time></trkpt><trkpt lat="37.71173478219763" lon="14.83795413212848"><ele>643.0</ele><time>2026-04-06T18:35:17.999Z</time></trkpt><trkpt lat="37.711583962169975" lon="14.837993994526586"><ele>643.0</ele><time>2026-04-06T18:35:18.999Z</time></trkpt><trkpt lat="37.71143286287173" lon="14.838032001898085"><ele>643.0</ele><time>2026-04-06T18:35:19.999Z</time></trkpt><trkpt lat="37.71128169182422" lon="14.838064610881494"><ele>643.0</ele><time>2026-04-06T18:35:20.999Z</time></trkpt><trkpt lat="37.71113216595701" lon="14.838088453435974"><ele>643.3333333333334</ele><time>2026-04-06T18:35:21.999Z</time></trkpt><trkpt lat="37.71098310660158" lon="14.838110705517924"><ele>643.6666666666666</ele><time>2026-04-06T18:35:22.999Z</time></trkpt><trkpt lat="37.71083522683421" lon="14.83812200746579"><ele>644.0</ele><time>2026-04-06T18:35:23.999Z</time></trkpt><trkpt lat="37.71068349925466" lon="14.83812560723258"><ele>644.0</ele><time>2026-04-06T18:35:24.999Z</time></trkpt><trkpt lat="37.71053255849779" lon="14.838125200215526"><ele>644.0</ele><time>2026-04-06T18:35:25.999Z</time></trkpt><trkpt lat="37.710381116906184" lon="14.838127158981782"><ele>644.0</ele><time>2026-04-06T18:35:26.999Z</time></trkpt><trkpt lat="37.7102310025783" lon="14.838127618561746"><ele>644.6666666666666</ele><time>2026-04-06T18:35:27.999Z</time></trkpt><trkpt lat="37.710078311228706" lon="14.838128893967513"><ele>645.3333333333334</ele><time>2026-04-06T18:35:28.999Z</time></trkpt><trkpt lat="37.709925233960675" lon="14.838140588605654"><ele>646.0</ele><time>2026-04-06T18:35:29.999Z</time></trkpt><trkpt lat="37.709777608397815" lon="14.838169292727201"><ele>646.0</ele><time>2026-04-06T18:35:30.999Z</time></trkpt><trkpt lat="37.70963055020065" lon="14.838211991203364"><ele>646.0</ele><time>2026-04-06T18:35:31.999Z</time></trkpt><trkpt lat="37.70948991663207" lon="14.83827620650751"><ele>646.0</ele><time>2026-04-06T18:35:32.998Z</time></trkpt><trkpt lat="37.70935178800294" lon="14.838351201446613"><ele>646.0</ele><time>2026-04-06T18:35:33.998Z</time></trkpt><trkpt lat="37.709218072484106" lon="14.83843461446285"><ele>646.0</ele><time>2026-04-06T18:35:34.998Z</time></trkpt><trkpt lat="37.70908346369133" lon="14.838523040877066"><ele>646.0</ele><time>2026-04-06T18:35:35.998Z</time></trkpt><trkpt lat="37.708953270801146" lon="14.838615913473491"><ele>646.3333333333334</ele><time>2026-04-06T18:35:36.998Z</time></trkpt><trkpt lat="37.708824998213274" lon="14.83871650696086"><ele>646.6666666666666</ele><time>2026-04-06T18:35:37.998Z</time></trkpt><trkpt lat="37.70869522560259" lon="14.838819836067719"><ele>647.0</ele><time>2026-04-06T18:35:38.998Z</time></trkpt><trkpt lat="37.708569955000215" lon="14.83892133129754"><ele>646.25</ele><time>2026-04-06T18:35:39.998Z</time></trkpt><trkpt lat="37.708449640717234" lon="14.83902310424086"><ele>645.5</ele><time>2026-04-06T18:35:40.998Z</time></trkpt><trkpt lat="37.70833013854558" lon="14.839118274541054"><ele>644.75</ele><time>2026-04-06T18:35:41.998Z</time></trkpt><trkpt lat="37.708211577605056" lon="14.839214921430566"><ele>644.0</ele><time>2026-04-06T18:35:42.998Z</time></trkpt><trkpt lat="37.70809617197035" lon="14.839310486504962"><ele>643.25</ele><time>2026-04-06T18:35:43.998Z</time></trkpt><trkpt lat="37.707979806142205" lon="14.839402577082714"><ele>642.5</ele><time>2026-04-06T18:35:44.998Z</time></trkpt><trkpt lat="37.7078660008086" lon="14.83949362561422"><ele>641.75</ele><time>2026-04-06T18:35:45.998Z</time></trkpt><trkpt lat="37.707753017995365" lon="14.839582829080634"><ele>641.0</ele><time>2026-04-06T18:35:46.998Z</time></trkpt><trkpt lat="37.707637123954754" lon="14.83966675231398"><ele>640.25</ele><time>2026-04-06T18:35:47.998Z</time></trkpt><trkpt lat="37.70752321157324" lon="14.83974179699691"><ele>639.5</ele><time>2026-04-06T18:35:48.998Z</time></trkpt><trkpt lat="37.707410995825576" lon="14.839804027827732"><ele>638.75</ele><time>2026-04-06T18:35:49.998Z</time></trkpt><trkpt lat="37.707296954183604" lon="14.839853597753848"><ele>638.0</ele><time>2026-04-06T18:35:50.998Z</time></trkpt><trkpt lat="37.707179515114426" lon="14.839890909467615"><ele>638.0</ele><time>2026-04-06T18:35:51.998Z</time></trkpt><trkpt lat="37.70705898858671" lon="14.839914605189493"><ele>638.0</ele><time>2026-04-06T18:35:52.998Z</time></trkpt><trkpt lat="37.706936113239095" lon="14.839933741532382"><ele>638.0</ele><time>2026-04-06T18:35:53.998Z</time></trkpt><trkpt lat="37.70681805505442" lon="14.83993949187345"><ele>638.0</ele><time>2026-04-06T18:35:54.998Z</time></trkpt><trkpt lat="37.70669604281402" lon="14.839934798486457"><ele>636.75</ele><time>2026-04-06T18:35:55.998Z</time></trkpt><trkpt lat="37.70657020873856" lon="14.839928936347857"><ele>635.5</ele><time>2026-04-06T18:35:56.998Z</time></trkpt><trkpt lat="37.70644088723049" lon="14.839924537073324"><ele>634.25</ele><time>2026-04-06T18:35:57.998Z</time></trkpt><trkpt lat="37.706312040035705" lon="14.839918565793642"><ele>633.0</ele><time>2026-04-06T18:35:58.998Z</time></trkpt><trkpt lat="37.706184577758414" lon="14.839918917680862"><ele>632.5</ele><time>2026-04-06T18:35:59.998Z</time></trkpt><trkpt lat="37.70605721324592" lon="14.839922753033411"><ele>632.0</ele><time>2026-04-06T18:36:00.998Z</time></trkpt><trkpt lat="37.70593202736016" lon="14.839924729170402"><ele>631.5</ele><time>2026-04-06T18:36:01.998Z</time></trkpt><trkpt lat="37.70581544929229" lon="14.839945129486292"><ele>631.0</ele><time>2026-04-06T18:36:02.998Z</time></trkpt><trkpt lat="37.70571012049519" lon="14.83994785774783"><ele>631.0</ele><time>2026-04-06T18:36:03.998Z</time></trkpt><trkpt lat="37.705612141574896" lon="14.839951585335942"><ele>631.0</ele><time>2026-04-06T18:36:04.998Z</time></trkpt><trkpt lat="37.70551852534357" lon="14.83993783455166"><ele>631.0</ele><time>2026-04-06T18:36:05.998Z</time></trkpt><trkpt lat="37.7054368900262" lon="14.839904429644395"><ele>631.0</ele><time>2026-04-06T18:36:06.998Z</time></trkpt><trkpt lat="37.705357078088674" lon="14.839830139035127"><ele>631.0</ele><time>2026-04-06T18:36:07.998Z</time></trkpt><trkpt lat="37.70528414828554" lon="14.83972037439874"><ele>631.0</ele><time>2026-04-06T18:36:08.998Z</time></trkpt><trkpt lat="37.70526359841618" lon="14.83957437215763"><ele>631.0</ele><time>2026-04-06T18:36:09.998Z</time></trkpt><trkpt lat="37.705197792059685" lon="14.83946278115461"><ele>631.0</ele><time>2026-04-06T18:36:10.998Z</time></trkpt><trkpt lat="37.70512983152595" lon="14.839340636729082"><ele>631.0</ele><time>2026-04-06T18:36:11.998Z</time></trkpt><trkpt lat="37.705076866841026" lon="14.839211243001241"><ele>629.25</ele><time>2026-04-06T18:36:12.998Z</time></trkpt><trkpt lat="37.705043349299714" lon="14.839075674588077"><ele>627.5</ele><time>2026-04-06T18:36:13.998Z</time></trkpt><trkpt lat="37.70500807185435" lon="14.838937633936736"><ele>625.75</ele><time>2026-04-06T18:36:14.998Z</time></trkpt><trkpt lat="37.70495880156188" lon="14.838803750564821"><ele>624.0</ele><time>2026-04-06T18:36:15.997Z</time></trkpt><trkpt lat="37.70489959411968" lon="14.838677304800646"><ele>624.0</ele><time>2026-04-06T18:36:16.997Z</time></trkpt><trkpt lat="37.70483193455602" lon="14.838566377424586"><ele>624.0</ele><time>2026-04-06T18:36:17.997Z</time></trkpt><trkpt lat="37.70475767299903" lon="14.838482884205453"><ele>624.0</ele><time>2026-04-06T18:36:18.997Z</time></trkpt><trkpt lat="37.70467688614356" lon="14.838432106843614"><ele>624.0</ele><time>2026-04-06T18:36:19.997Z</time></trkpt><trkpt lat="37.704588511476764" lon="14.838412159422866"><ele>624.0</ele><time>2026-04-06T18:36:20.997Z</time></trkpt><trkpt lat="37.70448797334244" lon="14.838420554733203"><ele>623.0</ele><time>2026-04-06T18:36:21.997Z</time></trkpt><trkpt lat="37.704383104860675" lon="14.838451837820203"><ele>622.0</ele><time>2026-04-06T18:36:22.997Z</time></trkpt><trkpt lat="37.70427680300703" lon="14.838489587125462"><ele>621.0</ele><time>2026-04-06T18:36:23.997Z</time></trkpt><trkpt lat="37.70416821234469" lon="14.838507664632491"><ele>620.0</ele><time>2026-04-06T18:36:24.997Z</time></trkpt><trkpt lat="37.7040395780601" lon="14.838552130143475"><ele>620.0</ele><time>2026-04-06T18:36:25.997Z</time></trkpt><trkpt lat="37.70391519181731" lon="14.838593025639058"><ele>620.0</ele><time>2026-04-06T18:36:26.997Z</time></trkpt><trkpt lat="37.703789769500155" lon="14.838646133835011"><ele>620.0</ele><time>2026-04-06T18:36:27.997Z</time></trkpt><trkpt lat="37.70366986128475" lon="14.838710570931843"><ele>620.0</ele><time>2026-04-06T18:36:28.997Z</time></trkpt><trkpt lat="37.70356388992388" lon="14.838802730330402"><ele>618.0</ele><time>2026-04-06T18:36:29.997Z</time></trkpt><trkpt lat="37.70345689341005" lon="14.838896051631545"><ele>616.0</ele><time>2026-04-06T18:36:30.997Z</time></trkpt><trkpt lat="37.70335519203603" lon="14.838974992991744"><ele>614.0</ele><time>2026-04-06T18:36:31.997Z</time></trkpt><trkpt lat="37.70325612054577" lon="14.839044912402805"><ele>612.0</ele><time>2026-04-06T18:36:32.997Z</time></trkpt><trkpt lat="37.70316756806415" lon="14.83910797712496"><ele>612.0</ele><time>2026-04-06T18:36:34Z</time></trkpt><trkpt lat="37.703091012590164" lon="14.839144693415724"><ele>612.0</ele><time>2026-04-06T18:36:35Z</time></trkpt><trkpt lat="37.70301767091753" lon="14.83915233223559"><ele>612.0</ele><time>2026-04-06T18:36:36Z</time></trkpt><trkpt lat="37.702899968169405" lon="14.839044832883843"><ele>612.0</ele><time>2026-04-06T18:36:38Z</time></trkpt><trkpt lat="37.702885745333525" lon="14.838923994304716"><ele>612.0</ele><time>2026-04-06T18:36:39Z</time></trkpt><trkpt lat="37.70284805833803" lon="14.838820817632875"><ele>612.0</ele><time>2026-04-06T18:36:40Z</time></trkpt><trkpt lat="37.7027962045561" lon="14.838726574018507"><ele>612.0</ele><time>2026-04-06T18:36:41Z</time></trkpt><trkpt lat="37.702744526762395" lon="14.838634447868461"><ele>612.0</ele><time>2026-04-06T18:36:42Z</time></trkpt><trkpt lat="37.7026807085007" lon="14.838549343285857"><ele>612.0</ele><time>2026-04-06T18:36:43Z</time></trkpt><trkpt lat="37.702606319045955" lon="14.838480168082294"><ele>612.0</ele><time>2026-04-06T18:36:44Z</time></trkpt><trkpt lat="37.702525881505736" lon="14.83842120549762"><ele>609.8000000000001</ele><time>2026-04-06T18:36:45Z</time></trkpt><trkpt lat="37.70244289021159" lon="14.838363334396918"><ele>607.6</ele><time>2026-04-06T18:36:46Z</time></trkpt><trkpt lat="37.702356167392885" lon="14.838316332393559"><ele>605.4000000000001</ele><time>2026-04-06T18:36:47Z</time></trkpt><trkpt lat="37.70226678570295" lon="14.838272615403962"><ele>603.2</ele><time>2026-04-06T18:36:48Z</time></trkpt><trkpt lat="37.70217933223988" lon="14.83823100999536"><ele>601.0</ele><time>2026-04-06T18:36:49Z</time></trkpt><trkpt lat="37.70208694153603" lon="14.838196470816925"><ele>601.0</ele><time>2026-04-06T18:36:50Z</time></trkpt><trkpt lat="37.701994011524825" lon="14.838172797224486"><ele>601.0</ele><time>2026-04-06T18:36:51Z</time></trkpt><trkpt lat="37.7018981215462" lon="14.838155192706358"><ele>601.0</ele><time>2026-04-06T18:36:52Z</time></trkpt><trkpt lat="37.70180067766215" lon="14.838142008058464"><ele>601.0</ele><time>2026-04-06T18:36:53Z</time></trkpt><trkpt lat="37.70170180136671" lon="14.838122193473074"><ele>601.0</ele><time>2026-04-06T18:36:54Z</time></trkpt><trkpt lat="37.70160713813131" lon="14.838097820617445"><ele>600.8</ele><time>2026-04-06T18:36:55Z</time></trkpt><trkpt lat="37.70151523035785" lon="14.838069812359702"><ele>600.6</ele><time>2026-04-06T18:36:55.999Z</time></trkpt><trkpt lat="37.701425111019105" lon="14.8380467577525"><ele>600.4</ele><time>2026-04-06T18:36:56.999Z</time></trkpt><trkpt lat="37.70132905717906" lon="14.838019054512376"><ele>600.2</ele><time>2026-04-06T18:36:57.999Z</time></trkpt><trkpt lat="37.70123777008263" lon="14.837996098871182"><ele>600.0</ele><time>2026-04-06T18:36:58.999Z</time></trkpt><trkpt lat="37.701149256913425" lon="14.837968056862856"><ele>600.8</ele><time>2026-04-06T18:36:59.999Z</time></trkpt><trkpt lat="37.70106355300737" lon="14.837943358994053"><ele>601.6</ele><time>2026-04-06T18:37:00.999Z</time></trkpt><trkpt lat="37.7009822007067" lon="14.83792239507915"><ele>602.4</ele><time>2026-04-06T18:37:01.999Z</time></trkpt><trkpt lat="37.700894795554206" lon="14.837898347611452"><ele>603.2</ele><time>2026-04-06T18:37:02.999Z</time></trkpt><trkpt lat="37.70079099360592" lon="14.837866450664736"><ele>604.0</ele><time>2026-04-06T18:37:03.999Z</time></trkpt><trkpt lat="37.70067996887119" lon="14.837830821691258"><ele>604.0</ele><time>2026-04-06T18:37:04.999Z</time></trkpt><trkpt lat="37.70055443592326" lon="14.837789578575014"><ele>604.0</ele><time>2026-04-06T18:37:05.999Z</time></trkpt><trkpt lat="37.70041999690242" lon="14.837753201535985"><ele>604.0</ele><time>2026-04-06T18:37:06.999Z</time></trkpt><trkpt lat="37.700283966694734" lon="14.83773051725944"><ele>604.0</ele><time>2026-04-06T18:37:07.999Z</time></trkpt><trkpt lat="37.70014881880221" lon="14.837727383110893"><ele>603.0</ele><time>2026-04-06T18:37:08.999Z</time></trkpt><trkpt lat="37.70000463976578" lon="14.837751679873428"><ele>602.0</ele><time>2026-04-06T18:37:09.999Z</time></trkpt><trkpt lat="37.69985816559681" lon="14.837786489892133"><ele>601.0</ele><time>2026-04-06T18:37:10.999Z</time></trkpt><trkpt lat="37.69971301496331" lon="14.837799606216839"><ele>600.0</ele><time>2026-04-06T18:37:11.999Z</time></trkpt><trkpt lat="37.69957726187623" lon="14.837857447594361"><ele>600.0</ele><time>2026-04-06T18:37:12.999Z</time></trkpt><trkpt lat="37.699442091880904" lon="14.837911581586146"><ele>600.0</ele><time>2026-04-06T18:37:13.999Z</time></trkpt><trkpt lat="37.6993032620672" lon="14.837968891167538"><ele>600.0</ele><time>2026-04-06T18:37:14.999Z</time></trkpt><trkpt lat="37.69918289845845" lon="14.838080253491785"><ele>600.0</ele><time>2026-04-06T18:37:15.999Z</time></trkpt><trkpt lat="37.699065945795105" lon="14.83818918834965"><ele>599.25</ele><time>2026-04-06T18:37:16.999Z</time></trkpt><trkpt lat="37.698954403123906" lon="14.838304293759876"><ele>598.5</ele><time>2026-04-06T18:37:17.999Z</time></trkpt><trkpt lat="37.69883816500104" lon="14.838399510786369"><ele>597.75</ele><time>2026-04-06T18:37:18.999Z</time></trkpt><trkpt lat="37.698737589128754" lon="14.83851048910832"><ele>597.0</ele><time>2026-04-06T18:37:19.999Z</time></trkpt><trkpt lat="37.69866291758202" lon="14.838641307922394"><ele>598.2</ele><time>2026-04-06T18:37:20.999Z</time></trkpt><trkpt lat="37.69859092933348" lon="14.838753043034634"><ele>599.4000000000001</ele><time>2026-04-06T18:37:21.999Z</time></trkpt><trkpt lat="37.69851598839401" lon="14.838843802830858"><ele>600.5999999999999</ele><time>2026-04-06T18:37:22.999Z</time></trkpt><trkpt lat="37.69845674884771" lon="14.838937663055559"><ele>601.8</ele><time>2026-04-06T18:37:23.999Z</time></trkpt><trkpt lat="37.698396551302885" lon="14.839033041235544"><ele>603.0</ele><time>2026-04-06T18:37:24.999Z</time></trkpt><trkpt lat="37.698340182944634" lon="14.839122352479313"><ele>603.1999999999999</ele><time>2026-04-06T18:37:25.999Z</time></trkpt><trkpt lat="37.69828260964564" lon="14.839213049533537"><ele>603.4</ele><time>2026-04-06T18:37:26.999Z</time></trkpt><trkpt lat="37.69822441228119" lon="14.839303800391074"><ele>603.5999999999999</ele><time>2026-04-06T18:37:27.999Z</time></trkpt><trkpt lat="37.698169838628274" lon="14.839398772038189"><ele>603.8</ele><time>2026-04-06T18:37:28.999Z</time></trkpt><trkpt lat="37.69809054282811" lon="14.839467892997522"><ele>604.0</ele><time>2026-04-06T18:37:29.999Z</time></trkpt><trkpt lat="37.69800679140011" lon="14.839511644902991"><ele>605.4</ele><time>2026-04-06T18:37:30.999Z</time></trkpt><trkpt lat="37.6979219958631" lon="14.839535685851033"><ele>606.8</ele><time>2026-04-06T18:37:31.999Z</time></trkpt><trkpt lat="37.6978327237356" lon="14.83951654630198"><ele>608.2</ele><time>2026-04-06T18:37:32.999Z</time></trkpt><trkpt lat="37.69773052823808" lon="14.839519366246657"><ele>609.6</ele><time>2026-04-06T18:37:33.999Z</time></trkpt><trkpt lat="37.69762896471614" lon="14.839495252135244"><ele>611.0</ele><time>2026-04-06T18:37:34.999Z</time></trkpt><trkpt lat="37.69752634093824" lon="14.839473497296472"><ele>611.0</ele><time>2026-04-06T18:37:35.999Z</time></trkpt><trkpt lat="37.697426362460995" lon="14.839453927384929"><ele>611.0</ele><time>2026-04-06T18:37:36.998Z</time></trkpt><trkpt lat="37.697333883268634" lon="14.839440752585993"><ele>611.0</ele><time>2026-04-06T18:37:37.998Z</time></trkpt><trkpt lat="37.69724533088847" lon="14.839431430936672"><ele>611.0</ele><time>2026-04-06T18:37:38.998Z</time></trkpt><trkpt lat="37.69715671543213" lon="14.8394240136739"><ele>611.0</ele><time>2026-04-06T18:37:39.998Z</time></trkpt><trkpt lat="37.697073452646514" lon="14.839426791340284"><ele>611.0</ele><time>2026-04-06T18:37:40.998Z</time></trkpt><trkpt lat="37.69699011708572" lon="14.839440440596402"><ele>611.0</ele><time>2026-04-06T18:37:41.998Z</time></trkpt><trkpt lat="37.696910692357655" lon="14.839471799985368"><ele>611.0</ele><time>2026-04-06T18:37:42.998Z</time></trkpt><trkpt lat="37.69683451040745" lon="14.839520831157571"><ele>611.0</ele><time>2026-04-06T18:37:43.998Z</time></trkpt><trkpt lat="37.696761923485774" lon="14.839580000776333"><ele>611.0</ele><time>2026-04-06T18:37:44.998Z</time></trkpt><trkpt lat="37.696696967022405" lon="14.839666484069133"><ele>611.0</ele><time>2026-04-06T18:37:45.998Z</time></trkpt><trkpt lat="37.69663934724527" lon="14.83976872242281"><ele>610.6</ele><time>2026-04-06T18:37:46.998Z</time></trkpt><trkpt lat="37.69658728788361" lon="14.839878302079896"><ele>610.2</ele><time>2026-04-06T18:37:47.998Z</time></trkpt><trkpt lat="37.69653434736043" lon="14.839989463655705"><ele>609.8</ele><time>2026-04-06T18:37:48.998Z</time></trkpt><trkpt lat="37.69646609972927" lon="14.84008354423217"><ele>609.4</ele><time>2026-04-06T18:37:49.998Z</time></trkpt><trkpt lat="37.696416394708244" lon="14.840179684910348"><ele>609.0</ele><time>2026-04-06T18:37:50.998Z</time></trkpt><trkpt lat="37.69637141758904" lon="14.84026623278915"><ele>610.2</ele><time>2026-04-06T18:37:51.998Z</time></trkpt><trkpt lat="37.69632737208125" lon="14.840350987807435"><ele>611.4</ele><time>2026-04-06T18:37:52.998Z</time></trkpt><trkpt lat="37.69627822892873" lon="14.840445552103104"><ele>612.6</ele><time>2026-04-06T18:37:53.998Z</time></trkpt><trkpt lat="37.69622546235363" lon="14.840543451399686"><ele>613.8</ele><time>2026-04-06T18:37:54.998Z</time></trkpt><trkpt lat="37.696171803092035" lon="14.84065045836873"><ele>615.0</ele><time>2026-04-06T18:37:55.998Z</time></trkpt><trkpt lat="37.69609848758083" lon="14.840736645156062"><ele>614.2</ele><time>2026-04-06T18:37:56.998Z</time></trkpt><trkpt lat="37.69601224502562" lon="14.84080986964804"><ele>613.4</ele><time>2026-04-06T18:37:57.998Z</time></trkpt><trkpt lat="37.69591703369511" lon="14.840864006655416"><ele>612.6</ele><time>2026-04-06T18:37:58.998Z</time></trkpt><trkpt lat="37.695815320332045" lon="14.840895484498558"><ele>611.8</ele><time>2026-04-06T18:37:59.998Z</time></trkpt><trkpt lat="37.695721582597194" lon="14.840911867952137"><ele>611.0</ele><time>2026-04-06T18:38:00.998Z</time></trkpt><trkpt lat="37.69564489906474" lon="14.840945730641536"><ele>612.1428571428572</ele><time>2026-04-06T18:38:01.998Z</time></trkpt><trkpt lat="37.69559936003833" lon="14.841008570265904"><ele>613.2857142857143</ele><time>2026-04-06T18:38:02.998Z</time></trkpt><trkpt lat="37.69557292908242" lon="14.841084813182086"><ele>614.4285714285714</ele><time>2026-04-06T18:38:03.998Z</time></trkpt><trkpt lat="37.69556175001232" lon="14.84117844164743"><ele>615.5714285714287</ele><time>2026-04-06T18:38:04.998Z</time></trkpt><trkpt lat="37.69556122482877" lon="14.841272649384756"><ele>616.7142857142858</ele><time>2026-04-06T18:38:05.998Z</time></trkpt><trkpt lat="37.69557077670429" lon="14.841364892491137"><ele>617.8571428571429</ele><time>2026-04-06T18:38:06.998Z</time></trkpt><trkpt lat="37.69556283355594" lon="14.841466663139526"><ele>619.0</ele><time>2026-04-06T18:38:07.998Z</time></trkpt><trkpt lat="37.695574618495556" lon="14.8415737897206"><ele>619.0</ele><time>2026-04-06T18:38:08.998Z</time></trkpt><trkpt lat="37.69556082558564" lon="14.841690912396894"><ele>619.0</ele><time>2026-04-06T18:38:09.998Z</time></trkpt><trkpt lat="37.69554588375846" lon="14.841804558635966"><ele>619.0</ele><time>2026-04-06T18:38:10.998Z</time></trkpt><trkpt lat="37.69552728678532" lon="14.841921535170572"><ele>619.0</ele><time>2026-04-06T18:38:11.998Z</time></trkpt><trkpt lat="37.69550712268316" lon="14.842026216497395"><ele>619.0</ele><time>2026-04-06T18:38:12.998Z</time></trkpt><trkpt lat="37.69547021026132" lon="14.842137938255213"><ele>620.1666666666667</ele><time>2026-04-06T18:38:13.998Z</time></trkpt><trkpt lat="37.695423749448054" lon="14.842228198690853"><ele>621.3333333333334</ele><time>2026-04-06T18:38:14.998Z</time></trkpt><trkpt lat="37.69537074340235" lon="14.842301654213847"><ele>622.5</ele><time>2026-04-06T18:38:15.998Z</time></trkpt><trkpt lat="37.69530102228808" lon="14.84234395737687"><ele>623.6666666666666</ele><time>2026-04-06T18:38:16.998Z</time></trkpt><trkpt lat="37.69521953604323" lon="14.842369995533293"><ele>624.8333333333333</ele><time>2026-04-06T18:38:17.998Z</time></trkpt><trkpt lat="37.695125743020256" lon="14.842392123529828"><ele>626.0</ele><time>2026-04-06T18:38:18.998Z</time></trkpt><trkpt lat="37.695031933858544" lon="14.842410177863485"><ele>626.2</ele><time>2026-04-06T18:38:19.997Z</time></trkpt><trkpt lat="37.6949294944103" lon="14.84241510834017"><ele>626.4000000000001</ele><time>2026-04-06T18:38:20.997Z</time></trkpt><trkpt lat="37.694826729945405" lon="14.84240391537331"><ele>626.6</ele><time>2026-04-06T18:38:21.997Z</time></trkpt><trkpt lat="37.69472076872229" lon="14.842380124102727"><ele>626.8000000000001</ele><time>2026-04-06T18:38:22.997Z</time></trkpt><trkpt lat="37.694610944000964" lon="14.842356549125261"><ele>627.0</ele><time>2026-04-06T18:38:23.997Z</time></trkpt><trkpt lat="37.69449667551868" lon="14.842335564559768"><ele>628.0</ele><time>2026-04-06T18:38:24.997Z</time></trkpt><trkpt lat="37.69437956092318" lon="14.842318101908711"><ele>629.0</ele><time>2026-04-06T18:38:25.997Z</time></trkpt><trkpt lat="37.694261977109015" lon="14.842302989882988"><ele>630.0</ele><time>2026-04-06T18:38:26.997Z</time></trkpt><trkpt lat="37.69415023805175" lon="14.84229705372324"><ele>631.0</ele><time>2026-04-06T18:38:27.997Z</time></trkpt><trkpt lat="37.69404276101842" lon="14.842298731041343"><ele>631.0</ele><time>2026-04-06T18:38:28.997Z</time></trkpt><trkpt lat="37.69393227016949" lon="14.842316170579616"><ele>631.0</ele><time>2026-04-06T18:38:29.997Z</time></trkpt><trkpt lat="37.69381488888011" lon="14.842356984346665"><ele>631.0</ele><time>2026-04-06T18:38:30.997Z</time></trkpt><trkpt lat="37.69369439516481" lon="14.842402950441736"><ele>631.0</ele><time>2026-04-06T18:38:31.997Z</time></trkpt><trkpt lat="37.69357290826428" lon="14.842447479864438"><ele>628.75</ele><time>2026-04-06T18:38:32.997Z</time></trkpt><trkpt lat="37.693448557562604" lon="14.842494269053049"><ele>626.5</ele><time>2026-04-06T18:38:33.997Z</time></trkpt><trkpt lat="37.693320938839854" lon="14.84253573741397"><ele>624.25</ele><time>2026-04-06T18:38:34.997Z</time></trkpt><trkpt lat="37.693196483380966" lon="14.84257483382512"><ele>622.0</ele><time>2026-04-06T18:38:35.997Z</time></trkpt><trkpt lat="37.69307834312051" lon="14.842611830267835"><ele>621.75</ele><time>2026-04-06T18:38:36.997Z</time></trkpt><trkpt lat="37.692963742249304" lon="14.842636167690499"><ele>621.5</ele><time>2026-04-06T18:38:37.997Z</time></trkpt><trkpt lat="37.692850893744975" lon="14.842641466634266"><ele>621.25</ele><time>2026-04-06T18:38:38.997Z</time></trkpt><trkpt lat="37.69273610510598" lon="14.842620556106555"><ele>621.0</ele><time>2026-04-06T18:38:40Z</time></trkpt><trkpt lat="37.69261847470531" lon="14.842583611722631"><ele>621.0</ele><time>2026-04-06T18:38:41Z</time></trkpt><trkpt lat="37.6924994770171" lon="14.8425316415549"><ele>621.0</ele><time>2026-04-06T18:38:42Z</time></trkpt><trkpt lat="37.692375432161896" lon="14.842478493806198"><ele>621.0</ele><time>2026-04-06T18:38:43Z</time></trkpt><trkpt lat="37.69224977649584" lon="14.842424981840221"><ele>621.0</ele><time>2026-04-06T18:38:44Z</time></trkpt><trkpt lat="37.692121626515465" lon="14.84236776676119"><ele>621.0</ele><time>2026-04-06T18:38:45Z</time></trkpt><trkpt lat="37.69199226804182" lon="14.842310271110792"><ele>621.0</ele><time>2026-04-06T18:38:46Z</time></trkpt><trkpt lat="37.69185921373092" lon="14.842255439108063"><ele>621.0</ele><time>2026-04-06T18:38:47Z</time></trkpt><trkpt lat="37.691725272824534" lon="14.842196103301012"><ele>621.0</ele><time>2026-04-06T18:38:48Z</time></trkpt><trkpt lat="37.691599089507584" lon="14.842127415078613"><ele>624.25</ele><time>2026-04-06T18:38:49Z</time></trkpt><trkpt lat="37.69148475537987" lon="14.842053590042275"><ele>627.5</ele><time>2026-04-06T18:38:50Z</time></trkpt><trkpt lat="37.691376120327334" lon="14.84198889282638"><ele>630.75</ele><time>2026-04-06T18:38:51Z</time></trkpt><trkpt lat="37.691270298556695" lon="14.841942820983657"><ele>634.0</ele><time>2026-04-06T18:38:52Z</time></trkpt><trkpt lat="37.69117456689612" lon="14.841925373889469"><ele>635.0</ele><time>2026-04-06T18:38:53Z</time></trkpt><trkpt lat="37.6910758303411" lon="14.841938140636008"><ele>636.0</ele><time>2026-04-06T18:38:54Z</time></trkpt><trkpt lat="37.69097217919757" lon="14.841969163588988"><ele>637.0</ele><time>2026-04-06T18:38:55Z</time></trkpt><trkpt lat="37.6908711093225" lon="14.842017210943009"><ele>638.0</ele><time>2026-04-06T18:38:56Z</time></trkpt><trkpt lat="37.690775204184085" lon="14.84208736134763"><ele>639.0</ele><time>2026-04-06T18:38:56.999Z</time></trkpt><trkpt lat="37.690682015348386" lon="14.842148121670505"><ele>639.0</ele><time>2026-04-06T18:38:57.999Z</time></trkpt><trkpt lat="37.69059468039666" lon="14.842194022338798"><ele>639.0</ele><time>2026-04-06T18:38:58.999Z</time></trkpt><trkpt lat="37.69051045580165" lon="14.842223525962295"><ele>639.0</ele><time>2026-04-06T18:38:59.999Z</time></trkpt><trkpt lat="37.690429282906265" lon="14.842231377635247"><ele>639.0</ele><time>2026-04-06T18:39:00.999Z</time></trkpt><trkpt lat="37.69035109321455" lon="14.842218717023808"><ele>639.0</ele><time>2026-04-06T18:39:01.999Z</time></trkpt><trkpt lat="37.69027948891676" lon="14.842173900991401"><ele>639.0</ele><time>2026-04-06T18:39:02.999Z</time></trkpt><trkpt lat="37.6902120966286" lon="14.842099682989652"><ele>639.4</ele><time>2026-04-06T18:39:03.999Z</time></trkpt><trkpt lat="37.69015006872886" lon="14.841997852644086"><ele>639.8</ele><time>2026-04-06T18:39:04.999Z</time></trkpt><trkpt lat="37.690102102151734" lon="14.841877454402804"><ele>640.1999999999999</ele><time>2026-04-06T18:39:05.999Z</time></trkpt><trkpt lat="37.690066870749526" lon="14.84174201624539"><ele>640.5999999999999</ele><time>2026-04-06T18:39:06.999Z</time></trkpt><trkpt lat="37.690023428083244" lon="14.841621936706746"><ele>641.0</ele><time>2026-04-06T18:39:07.999Z</time></trkpt><trkpt lat="37.68995972495979" lon="14.841520089236868"><ele>638.5</ele><time>2026-04-06T18:39:08.999Z</time></trkpt><trkpt lat="37.68987472729335" lon="14.841425738408667"><ele>636.0</ele><time>2026-04-06T18:39:09.999Z</time></trkpt><trkpt lat="37.689786831937255" lon="14.841334515783807"><ele>633.5</ele><time>2026-04-06T18:39:10.999Z</time></trkpt><trkpt lat="37.68969192943565" lon="14.84123649531818"><ele>631.0</ele><time>2026-04-06T18:39:11.999Z</time></trkpt><trkpt lat="37.68958997268181" lon="14.841202852248259"><ele>631.0</ele><time>2026-04-06T18:39:12.999Z</time></trkpt><trkpt lat="37.68947633444024" lon="14.841166933423025"><ele>631.0</ele><time>2026-04-06T18:39:13.999Z</time></trkpt><trkpt lat="37.68936330986593" lon="14.841142333451813"><ele>631.0</ele><time>2026-04-06T18:39:14.999Z</time></trkpt><trkpt lat="37.6892611561184" lon="14.841116768866714"><ele>631.0</ele><time>2026-04-06T18:39:15.999Z</time></trkpt><trkpt lat="37.689162558318465" lon="14.841084434774288"><ele>631.0</ele><time>2026-04-06T18:39:16.999Z</time></trkpt><trkpt lat="37.68907135809235" lon="14.841051664411234"><ele>630.6666666666667</ele><time>2026-04-06T18:39:17.999Z</time></trkpt><trkpt lat="37.68899207866301" lon="14.841014005048155"><ele>630.3333333333334</ele><time>2026-04-06T18:39:18.999Z</time></trkpt><trkpt lat="37.68892163619031" lon="14.840951235468976"><ele>630.0</ele><time>2026-04-06T18:39:19.999Z</time></trkpt><trkpt lat="37.68886878081192" lon="14.840865435799033"><ele>629.6666666666666</ele><time>2026-04-06T18:39:20.999Z</time></trkpt><trkpt lat="37.68881604741412" lon="14.840776545239752"><ele>629.3333333333333</ele><time>2026-04-06T18:39:21.999Z</time></trkpt><trkpt lat="37.6887504632947" lon="14.840712998059582"><ele>629.0</ele><time>2026-04-06T18:39:22.999Z</time></trkpt><trkpt lat="37.688678424803946" lon="14.840683710750133"><ele>629.0</ele><time>2026-04-06T18:39:23.999Z</time></trkpt><trkpt lat="37.68860568786364" lon="14.840682239070622"><ele>629.0</ele><time>2026-04-06T18:39:24.999Z</time></trkpt><trkpt lat="37.68852181288736" lon="14.84070061499467"><ele>629.0</ele><time>2026-04-06T18:39:25.999Z</time></trkpt><trkpt lat="37.68843627836293" lon="14.840743775118902"><ele>629.0</ele><time>2026-04-06T18:39:26.999Z</time></trkpt><trkpt lat="37.68835762172325" lon="14.840803023922742"><ele>629.0</ele><time>2026-04-06T18:39:27.999Z</time></trkpt><trkpt lat="37.68828496343162" lon="14.840878871610986"><ele>629.0</ele><time>2026-04-06T18:39:28.999Z</time></trkpt><trkpt lat="37.688227842002846" lon="14.840951889495267"><ele>630.8</ele><time>2026-04-06T18:39:29.999Z</time></trkpt><trkpt lat="37.68817341521052" lon="14.841008443006348"><ele>632.5999999999999</ele><time>2026-04-06T18:39:30.999Z</time></trkpt><trkpt lat="37.68810078618744" lon="14.84104892295736"><ele>634.4</ele><time>2026-04-06T18:39:31.999Z</time></trkpt><trkpt lat="37.688011250490376" lon="14.841045612094469"><ele>636.1999999999999</ele><time>2026-04-06T18:39:32.999Z</time></trkpt><trkpt lat="37.687908231223496" lon="14.84105130737356"><ele>638.0</ele><time>2026-04-06T18:39:33.999Z</time></trkpt><trkpt lat="37.687798672673374" lon="14.841055470061214"><ele>639.0</ele><time>2026-04-06T18:39:34.999Z</time></trkpt><trkpt lat="37.68768493224264" lon="14.841082440829192"><ele>640.0</ele><time>2026-04-06T18:39:35.999Z</time></trkpt><trkpt lat="37.68756672176082" lon="14.84108668729787"><ele>641.0</ele><time>2026-04-06T18:39:36.999Z</time></trkpt><trkpt lat="37.687444501080215" lon="14.841093118511509"><ele>642.0</ele><time>2026-04-06T18:39:37.999Z</time></trkpt><trkpt lat="37.68732297491895" lon="14.841100487027415"><ele>642.0</ele><time>2026-04-06T18:39:38.998Z</time></trkpt><trkpt lat="37.687191562328515" lon="14.841103095165609"><ele>642.0</ele><time>2026-04-06T18:39:39.998Z</time></trkpt><trkpt lat="37.6870620770782" lon="14.841105917142205"><ele>642.0</ele><time>2026-04-06T18:39:40.998Z</time></trkpt><trkpt lat="37.68693185473291" lon="14.841114420062414"><ele>642.0</ele><time>2026-04-06T18:39:41.998Z</time></trkpt><trkpt lat="37.68680471926539" lon="14.841129221725952"><ele>642.5</ele><time>2026-04-06T18:39:42.998Z</time></trkpt><trkpt lat="37.686681161253766" lon="14.84113236348401"><ele>643.0</ele><time>2026-04-06T18:39:43.998Z</time></trkpt><trkpt lat="37.686561178020526" lon="14.841131897913572"><ele>643.5</ele><time>2026-04-06T18:39:44.998Z</time></trkpt><trkpt lat="37.686442974570326" lon="14.841112597276622"><ele>644.0</ele><time>2026-04-06T18:39:45.998Z</time></trkpt><trkpt lat="37.686324185683446" lon="14.841078837869658"><ele>644.0</ele><time>2026-04-06T18:39:46.998Z</time></trkpt><trkpt lat="37.68620759647163" lon="14.841038443546381"><ele>644.0</ele><time>2026-04-06T18:39:47.998Z</time></trkpt><trkpt lat="37.68609203481772" lon="14.840993892955753"><ele>644.0</ele><time>2026-04-06T18:39:48.998Z</time></trkpt><trkpt lat="37.685971930860255" lon="14.840948231631227"><ele>644.0</ele><time>2026-04-06T18:39:49.998Z</time></trkpt><trkpt lat="37.68584617478904" lon="14.84090281725505"><ele>641.5</ele><time>2026-04-06T18:39:50.998Z</time></trkpt><trkpt lat="37.68571874232651" lon="14.840852411061098"><ele>639.0</ele><time>2026-04-06T18:39:51.998Z</time></trkpt><trkpt lat="37.6855938672729" lon="14.84080090195956"><ele>636.5</ele><time>2026-04-06T18:39:52.998Z</time></trkpt><trkpt lat="37.68546506876584" lon="14.840750978221593"><ele>634.0</ele><time>2026-04-06T18:39:53.998Z</time></trkpt><trkpt lat="37.68533479958271" lon="14.840704252976698"><ele>633.75</ele><time>2026-04-06T18:39:54.998Z</time></trkpt><trkpt lat="37.685206313483704" lon="14.840658933724256"><ele>633.5</ele><time>2026-04-06T18:39:55.998Z</time></trkpt><trkpt lat="37.68507904537951" lon="14.84062476768987"><ele>633.25</ele><time>2026-04-06T18:39:56.998Z</time></trkpt><trkpt lat="37.684955342235035" lon="14.840569158149336"><ele>633.0</ele><time>2026-04-06T18:39:57.998Z</time></trkpt><trkpt lat="37.68482714577217" lon="14.840531801258678"><ele>633.0</ele><time>2026-04-06T18:39:58.998Z</time></trkpt><trkpt lat="37.68469606665653" lon="14.840515243760233"><ele>633.0</ele><time>2026-04-06T18:39:59.998Z</time></trkpt><trkpt lat="37.68457290503075" lon="14.840463733229152"><ele>633.0</ele><time>2026-04-06T18:40:00.998Z</time></trkpt><trkpt lat="37.68445272311363" lon="14.840399043575117"><ele>633.0</ele><time>2026-04-06T18:40:01.998Z</time></trkpt><trkpt lat="37.684340287207995" lon="14.840317086713297"><ele>632.75</ele><time>2026-04-06T18:40:02.998Z</time></trkpt><trkpt lat="37.68423173943096" lon="14.84022033459622"><ele>632.5</ele><time>2026-04-06T18:40:03.998Z</time></trkpt><trkpt lat="37.68412383849309" lon="14.84010946937635"><ele>632.25</ele><time>2026-04-06T18:40:04.998Z</time></trkpt><trkpt lat="37.684016718438365" lon="14.839989867046894"><ele>632.0</ele><time>2026-04-06T18:40:05.998Z</time></trkpt><trkpt lat="37.68390408382183" lon="14.839870909624464"><ele>632.0</ele><time>2026-04-06T18:40:06.998Z</time></trkpt><trkpt lat="37.68379543372246" lon="14.839747055507935"><ele>632.0</ele><time>2026-04-06T18:40:07.998Z</time></trkpt><trkpt lat="37.683686814605274" lon="14.839622010203902"><ele>632.0</ele><time>2026-04-06T18:40:08.998Z</time></trkpt><trkpt lat="37.68357823305833" lon="14.839499561093696"><ele>632.0</ele><time>2026-04-06T18:40:09.998Z</time></trkpt><trkpt lat="37.68346946709611" lon="14.839373983041444"><ele>631.0</ele><time>2026-04-06T18:40:10.998Z</time></trkpt><trkpt lat="37.68336224946739" lon="14.839249339466027"><ele>630.0</ele><time>2026-04-06T18:40:11.998Z</time></trkpt><trkpt lat="37.68325394089405" lon="14.839126887773697"><ele>629.0</ele><time>2026-04-06T18:40:12.998Z</time></trkpt><trkpt lat="37.683144095515445" lon="14.839004048884618"><ele>628.0</ele><time>2026-04-06T18:40:13.998Z</time></trkpt><trkpt lat="37.68303465680444" lon="14.838880909124109"><ele>628.0</ele><time>2026-04-06T18:40:14.998Z</time></trkpt><trkpt lat="37.682926561659436" lon="14.838762606247009"><ele>628.0</ele><time>2026-04-06T18:40:15.998Z</time></trkpt><trkpt lat="37.68282106045564" lon="14.838642507716102"><ele>628.0</ele><time>2026-04-06T18:40:16.998Z</time></trkpt><trkpt lat="37.6827182886553" lon="14.838525048189759"><ele>628.0</ele><time>2026-04-06T18:40:17.998Z</time></trkpt><trkpt lat="37.682620785473794" lon="14.838410847849609"><ele>627.5</ele><time>2026-04-06T18:40:18.998Z</time></trkpt><trkpt lat="37.682521055046756" lon="14.838294931718227"><ele>627.0</ele><time>2026-04-06T18:40:19.998Z</time></trkpt><trkpt lat="37.68242615766471" lon="14.838181539486085"><ele>626.5</ele><time>2026-04-06T18:40:20.998Z</time></trkpt><trkpt lat="37.68233509991421" lon="14.838071137316414"><ele>626.0</ele><time>2026-04-06T18:40:21.997Z</time></trkpt><trkpt lat="37.68224680003545" lon="14.837977277623809"><ele>626.0</ele><time>2026-04-06T18:40:22.997Z</time></trkpt><trkpt lat="37.68216825973465" lon="14.837914334596087"><ele>626.0</ele><time>2026-04-06T18:40:23.997Z</time></trkpt><trkpt lat="37.68208555909688" lon="14.837847671140556"><ele>626.0</ele><time>2026-04-06T18:40:24.997Z</time></trkpt><trkpt lat="37.68196949241155" lon="14.837842769995593"><ele>626.0</ele><time>2026-04-06T18:40:25.997Z</time></trkpt><trkpt lat="37.68185387571318" lon="14.837830763724666"><ele>626.0</ele><time>2026-04-06T18:40:26.997Z</time></trkpt><trkpt lat="37.681735469893496" lon="14.837822635318597"><ele>626.0</ele><time>2026-04-06T18:40:27.997Z</time></trkpt><trkpt lat="37.681618058083444" lon="14.83781934060489"><ele>626.0</ele><time>2026-04-06T18:40:28.997Z</time></trkpt><trkpt lat="37.681500029950676" lon="14.837817763100237"><ele>626.0</ele><time>2026-04-06T18:40:29.997Z</time></trkpt><trkpt lat="37.68138247264255" lon="14.83781476022729"><ele>626.0</ele><time>2026-04-06T18:40:30.997Z</time></trkpt><trkpt lat="37.68126570376255" lon="14.837810736703778"><ele>626.0</ele><time>2026-04-06T18:40:31.997Z</time></trkpt><trkpt lat="37.68114998736046" lon="14.837806309785861"><ele>626.0</ele><time>2026-04-06T18:40:32.997Z</time></trkpt><trkpt lat="37.681036821173656" lon="14.837798557753167"><ele>626.0</ele><time>2026-04-06T18:40:33.997Z</time></trkpt><trkpt lat="37.680925820079125" lon="14.837784176277891"><ele>626.0</ele><time>2026-04-06T18:40:34.997Z</time></trkpt><trkpt lat="37.68081696460618" lon="14.837753756163906"><ele>625.0</ele><time>2026-04-06T18:40:35.997Z</time></trkpt><trkpt lat="37.68071759486586" lon="14.837720927368457"><ele>624.0</ele><time>2026-04-06T18:40:36.997Z</time></trkpt><trkpt lat="37.68062418554078" lon="14.837683325040642"><ele>623.0</ele><time>2026-04-06T18:40:37.997Z</time></trkpt><trkpt lat="37.680556833844385" lon="14.837666058063233"><ele>622.0</ele><time>2026-04-06T18:40:38.997Z</time></trkpt><trkpt lat="37.680444619793846" lon="14.837660008248685"><ele>621.0</ele><time>2026-04-06T18:40:40.997Z</time></trkpt><trkpt lat="37.68032222540873" lon="14.83762939597347"><ele>620.7142857142857</ele><time>2026-04-06T18:40:42.997Z</time></trkpt><trkpt lat="37.680258048144616" lon="14.837586078203412"><ele>620.4285714285714</ele><time>2026-04-06T18:40:43.997Z</time></trkpt><trkpt lat="37.68020150903327" lon="14.837529866661281"><ele>620.1428571428571</ele><time>2026-04-06T18:40:44.999Z</time></trkpt><trkpt lat="37.6801533371277" lon="14.837466306480461"><ele>619.8571428571429</ele><time>2026-04-06T18:40:46Z</time></trkpt><trkpt lat="37.68010796335183" lon="14.837400706463407"><ele>619.5714285714286</ele><time>2026-04-06T18:40:46.999Z</time></trkpt><trkpt lat="37.68005976128952" lon="14.837338023827492"><ele>619.2857142857142</ele><time>2026-04-06T18:40:47.999Z</time></trkpt><trkpt lat="37.680008300213245" lon="14.837281477015368"><ele>619.0</ele><time>2026-04-06T18:40:48.999Z</time></trkpt><trkpt lat="37.67995870624252" lon="14.837227905486865"><ele>619.0</ele><time>2026-04-06T18:40:49.999Z</time></trkpt><trkpt lat="37.67987956402454" lon="14.837126204706227"><ele>619.0</ele><time>2026-04-06T18:40:51.999Z</time></trkpt><trkpt lat="37.6797949071526" lon="14.837030194944308"><ele>619.0</ele><time>2026-04-06T18:40:53.999Z</time></trkpt><trkpt lat="37.679644211519836" lon="14.837134191154545"><ele>619.0</ele><time>2026-04-06T18:40:54.999Z</time></trkpt><trkpt lat="37.6795521175774" lon="14.837159414695687"><ele>619.0</ele><time>2026-04-06T18:40:55.999Z</time></trkpt><trkpt lat="37.679451141854976" lon="14.837167022814995"><ele>619.0</ele><time>2026-04-06T18:40:56.999Z</time></trkpt><trkpt lat="37.679344941378666" lon="14.83715386596869"><ele>619.0</ele><time>2026-04-06T18:40:57.999Z</time></trkpt><trkpt lat="37.679229270068255" lon="14.837133792151429"><ele>619.0</ele><time>2026-04-06T18:40:58.999Z</time></trkpt><trkpt lat="37.679112573213445" lon="14.837118740521221"><ele>619.0</ele><time>2026-04-06T18:40:59.999Z</time></trkpt><trkpt lat="37.678989913086426" lon="14.83710478024901"><ele>618.75</ele><time>2026-04-06T18:41:00.999Z</time></trkpt><trkpt lat="37.67886441003828" lon="14.837088727424568"><ele>618.5</ele><time>2026-04-06T18:41:01.999Z</time></trkpt><trkpt lat="37.678737493542954" lon="14.837073338737152"><ele>618.25</ele><time>2026-04-06T18:41:02.999Z</time></trkpt><trkpt lat="37.67861168977783" lon="14.83705921577982"><ele>618.0</ele><time>2026-04-06T18:41:03.999Z</time></trkpt><trkpt lat="37.67848249071055" lon="14.83704430158851"><ele>620.25</ele><time>2026-04-06T18:41:04.999Z</time></trkpt><trkpt lat="37.678355492913354" lon="14.837029540340668"><ele>622.5</ele><time>2026-04-06T18:41:05.999Z</time></trkpt><trkpt lat="37.67822684946924" lon="14.837015086082205"><ele>624.75</ele><time>2026-04-06T18:41:06.999Z</time></trkpt><trkpt lat="37.67809713994001" lon="14.837002320495534"><ele>627.0</ele><time>2026-04-06T18:41:07.999Z</time></trkpt><trkpt lat="37.67796332075509" lon="14.836990739558102"><ele>627.0</ele><time>2026-04-06T18:41:08.999Z</time></trkpt><trkpt lat="37.67782870581375" lon="14.836974325537392"><ele>627.0</ele><time>2026-04-06T18:41:10Z</time></trkpt><trkpt lat="37.67769283207436" lon="14.836954226518621"><ele>627.0</ele><time>2026-04-06T18:41:11Z</time></trkpt><trkpt lat="37.677557337901106" lon="14.836937555791826"><ele>627.0</ele><time>2026-04-06T18:41:12Z</time></trkpt><trkpt lat="37.677424004414256" lon="14.836922552629169"><ele>628.25</ele><time>2026-04-06T18:41:13Z</time></trkpt><trkpt lat="37.67729049660541" lon="14.836904196549984"><ele>629.5</ele><time>2026-04-06T18:41:14Z</time></trkpt><trkpt lat="37.67715567812685" lon="14.836884467838024"><ele>630.75</ele><time>2026-04-06T18:41:15Z</time></trkpt><trkpt lat="37.67702280589768" lon="14.836869436046475"><ele>632.0</ele><time>2026-04-06T18:41:16Z</time></trkpt><trkpt lat="37.67689095657426" lon="14.836864877240794"><ele>632.5</ele><time>2026-04-06T18:41:17Z</time></trkpt><trkpt lat="37.67676082876549" lon="14.836871737717727"><ele>633.0</ele><time>2026-04-06T18:41:18Z</time></trkpt><trkpt lat="37.6766332786784" lon="14.836891016366195"><ele>633.5</ele><time>2026-04-06T18:41:19Z</time></trkpt><trkpt lat="37.67651113894481" lon="14.836934065474539"><ele>634.0</ele><time>2026-04-06T18:41:20Z</time></trkpt><trkpt lat="37.67638801974629" lon="14.836983987541027"><ele>634.0</ele><time>2026-04-06T18:41:21Z</time></trkpt><trkpt lat="37.67626649205599" lon="14.837045146496989"><ele>634.0</ele><time>2026-04-06T18:41:22Z</time></trkpt><trkpt lat="37.676152506721856" lon="14.837125528655422"><ele>634.0</ele><time>2026-04-06T18:41:23Z</time></trkpt><trkpt lat="37.67604682488412" lon="14.8372151227392"><ele>634.0</ele><time>2026-04-06T18:41:24Z</time></trkpt><trkpt lat="37.67595415335595" lon="14.837304268111186"><ele>634.0</ele><time>2026-04-06T18:41:25Z</time></trkpt><trkpt lat="37.675876693860324" lon="14.837403635567055"><ele>634.0</ele><time>2026-04-06T18:41:26Z</time></trkpt><trkpt lat="37.6758089142524" lon="14.837502717848738"><ele>634.0</ele><time>2026-04-06T18:41:27Z</time></trkpt><trkpt lat="37.67574090077964" lon="14.83758533200263"><ele>634.0</ele><time>2026-04-06T18:41:28Z</time></trkpt><trkpt lat="37.67566200923981" lon="14.837646670304455"><ele>634.0</ele><time>2026-04-06T18:41:29Z</time></trkpt><trkpt lat="37.67557091512128" lon="14.837699117278238"><ele>634.0</ele><time>2026-04-06T18:41:30Z</time></trkpt><trkpt lat="37.67547060052894" lon="14.837732608851342"><ele>634.0</ele><time>2026-04-06T18:41:31Z</time></trkpt><trkpt lat="37.67538209804016" lon="14.837783168653857"><ele>634.0</ele><time>2026-04-06T18:41:32Z</time></trkpt><trkpt lat="37.67530554707182" lon="14.837853011285837"><ele>634.0</ele><time>2026-04-06T18:41:33Z</time></trkpt><trkpt lat="37.67523958537759" lon="14.83794882821382"><ele>634.0</ele><time>2026-04-06T18:41:34Z</time></trkpt><trkpt lat="37.67518385583889" lon="14.83805906072092"><ele>632.5</ele><time>2026-04-06T18:41:35Z</time></trkpt><trkpt lat="37.67513688919787" lon="14.838186439352478"><ele>631.0</ele><time>2026-04-06T18:41:36Z</time></trkpt><trkpt lat="37.67509079753256" lon="14.83832596039436"><ele>629.5</ele><time>2026-04-06T18:41:37Z</time></trkpt><trkpt lat="37.67504041350188" lon="14.83847245316844"><ele>628.0</ele><time>2026-04-06T18:41:38Z</time></trkpt><trkpt lat="37.6749915194153" lon="14.83862316442262"><ele>628.0</ele><time>2026-04-06T18:41:39Z</time></trkpt><trkpt lat="37.67494393484268" lon="14.838777473224068"><ele>628.0</ele><time>2026-04-06T18:41:39.999Z</time></trkpt><trkpt lat="37.674898063730886" lon="14.838934677386955"><ele>628.0</ele><time>2026-04-06T18:41:40.999Z</time></trkpt><trkpt lat="37.67485106472375" lon="14.839090527897708"><ele>628.0</ele><time>2026-04-06T18:41:41.999Z</time></trkpt><trkpt lat="37.67480419347339" lon="14.839247199578292"><ele>629.0</ele><time>2026-04-06T18:41:42.999Z</time></trkpt><trkpt lat="37.674760461625034" lon="14.839403655691912"><ele>630.0</ele><time>2026-04-06T18:41:43.999Z</time></trkpt><trkpt lat="37.67471565730581" lon="14.839564323501683"><ele>631.0</ele><time>2026-04-06T18:41:44.999Z</time></trkpt><trkpt lat="37.674672592366136" lon="14.839721231343484"><ele>632.0</ele><time>2026-04-06T18:41:45.999Z</time></trkpt><trkpt lat="37.67462870665558" lon="14.839878889722467"><ele>632.0</ele><time>2026-04-06T18:41:46.999Z</time></trkpt><trkpt lat="37.67458495386929" lon="14.840039198810908"><ele>632.0</ele><time>2026-04-06T18:41:47.999Z</time></trkpt><trkpt lat="37.67454247722667" lon="14.84019852842639"><ele>632.0</ele><time>2026-04-06T18:41:48.999Z</time></trkpt><trkpt lat="37.67449612749684" lon="14.840360192328736"><ele>632.0</ele><time>2026-04-06T18:41:49.999Z</time></trkpt><trkpt lat="37.67444847421801" lon="14.840518949643174"><ele>631.25</ele><time>2026-04-06T18:41:50.999Z</time></trkpt><trkpt lat="37.67440143415778" lon="14.840679372883498"><ele>630.5</ele><time>2026-04-06T18:41:51.999Z</time></trkpt><trkpt lat="37.674355804528034" lon="14.840838450738282"><ele>629.75</ele><time>2026-04-06T18:41:52.999Z</time></trkpt><trkpt lat="37.67431084932454" lon="14.840997122281035"><ele>629.0</ele><time>2026-04-06T18:41:53.999Z</time></trkpt><trkpt lat="37.674265271683666" lon="14.841153011600708"><ele>629.0</ele><time>2026-04-06T18:41:54.999Z</time></trkpt><trkpt lat="37.67422084304365" lon="14.84131104161445"><ele>629.0</ele><time>2026-04-06T18:41:55.999Z</time></trkpt><trkpt lat="37.67415962477194" lon="14.841465076337105"><ele>629.0</ele><time>2026-04-06T18:41:56.999Z</time></trkpt><trkpt lat="37.67411328265978" lon="14.841625194761807"><ele>629.0</ele><time>2026-04-06T18:41:57.999Z</time></trkpt><trkpt lat="37.67406624615488" lon="14.841786932243677"><ele>629.0</ele><time>2026-04-06T18:41:58.999Z</time></trkpt><trkpt lat="37.67401937407836" lon="14.841951469997568"><ele>629.0</ele><time>2026-04-06T18:41:59.999Z</time></trkpt><trkpt lat="37.67397168975004" lon="14.842116952659794"><ele>629.0</ele><time>2026-04-06T18:42:00.999Z</time></trkpt><trkpt lat="37.67392278964423" lon="14.842286511417138"><ele>629.0</ele><time>2026-04-06T18:42:01.999Z</time></trkpt><trkpt lat="37.67388725536454" lon="14.84246361329286"><ele>629.5</ele><time>2026-04-06T18:42:02.999Z</time></trkpt><trkpt lat="37.67383441430765" lon="14.842634567482449"><ele>630.0</ele><time>2026-04-06T18:42:03.999Z</time></trkpt><trkpt lat="37.673782063664724" lon="14.842806130031876"><ele>630.5</ele><time>2026-04-06T18:42:04.999Z</time></trkpt><trkpt lat="37.673732728212116" lon="14.842978314528262"><ele>631.0</ele><time>2026-04-06T18:42:05.999Z</time></trkpt><trkpt lat="37.673684247831716" lon="14.843151836139757"><ele>631.0</ele><time>2026-04-06T18:42:06.999Z</time></trkpt><trkpt lat="37.67363416697094" lon="14.843323766639966"><ele>631.0</ele><time>2026-04-06T18:42:07.999Z</time></trkpt><trkpt lat="37.67358233249879" lon="14.843494598471965"><ele>631.0</ele><time>2026-04-06T18:42:08.999Z</time></trkpt><trkpt lat="37.67353075910837" lon="14.843666971811308"><ele>631.0</ele><time>2026-04-06T18:42:09.999Z</time></trkpt><trkpt lat="37.67348079344236" lon="14.843842021224704"><ele>632.0</ele><time>2026-04-06T18:42:10.999Z</time></trkpt><trkpt lat="37.67342974278008" lon="14.844019134044192"><ele>633.0</ele><time>2026-04-06T18:42:11.999Z</time></trkpt><trkpt lat="37.673379216660116" lon="14.844197281998463"><ele>634.0</ele><time>2026-04-06T18:42:12.999Z</time></trkpt><trkpt lat="37.67332878714104" lon="14.844376154898649"><ele>635.0</ele><time>2026-04-06T18:42:13.999Z</time></trkpt><trkpt lat="37.67327762419761" lon="14.844554269765727"><ele>636.6666666666666</ele><time>2026-04-06T18:42:14.999Z</time></trkpt><trkpt lat="37.67322595219852" lon="14.844732436169982"><ele>638.3333333333334</ele><time>2026-04-06T18:42:15.999Z</time></trkpt><trkpt lat="37.673174533932546" lon="14.844912401903507"><ele>640.0</ele><time>2026-04-06T18:42:16.999Z</time></trkpt><trkpt lat="37.673122455752264" lon="14.845092865701366"><ele>640.0</ele><time>2026-04-06T18:42:17.999Z</time></trkpt><trkpt lat="37.67307075818402" lon="14.84527407417359"><ele>640.0</ele><time>2026-04-06T18:42:18.999Z</time></trkpt><trkpt lat="37.67301929460993" lon="14.845454838140618"><ele>640.0</ele><time>2026-04-06T18:42:19.999Z</time></trkpt><trkpt lat="37.67296510276147" lon="14.84563962712918"><ele>640.0</ele><time>2026-04-06T18:42:20.999Z</time></trkpt><trkpt lat="37.6729107889521" lon="14.845827342312614"><ele>640.0</ele><time>2026-04-06T18:42:21.999Z</time></trkpt><trkpt lat="37.67285667406011" lon="14.846014468528194"><ele>640.0</ele><time>2026-04-06T18:42:22.998Z</time></trkpt><trkpt lat="37.67280115295237" lon="14.84620291497386"><ele>639.3333333333334</ele><time>2026-04-06T18:42:23.998Z</time></trkpt><trkpt lat="37.67274180259219" lon="14.846391437642714"><ele>638.6666666666666</ele><time>2026-04-06T18:42:24.998Z</time></trkpt><trkpt lat="37.672678537523375" lon="14.846579931961609"><ele>638.0</ele><time>2026-04-06T18:42:25.998Z</time></trkpt><trkpt lat="37.6726099731185" lon="14.846767618880076"><ele>638.0</ele><time>2026-04-06T18:42:26.998Z</time></trkpt><trkpt lat="37.6725370391033" lon="14.846953817966464"><ele>638.0</ele><time>2026-04-06T18:42:27.998Z</time></trkpt><trkpt lat="37.672459541270655" lon="14.847138278694736"><ele>638.0</ele><time>2026-04-06T18:42:28.998Z</time></trkpt><trkpt lat="37.67237626794003" lon="14.847326225630878"><ele>638.0</ele><time>2026-04-06T18:42:29.998Z</time></trkpt><trkpt lat="37.67228713133946" lon="14.847511692099918"><ele>638.0</ele><time>2026-04-06T18:42:30.998Z</time></trkpt><trkpt lat="37.67219415294251" lon="14.847694422160476"><ele>638.0</ele><time>2026-04-06T18:42:31.998Z</time></trkpt><trkpt lat="37.67209712501708" lon="14.847875792697174"><ele>638.3333333333333</ele><time>2026-04-06T18:42:32.998Z</time></trkpt><trkpt lat="37.67199603612833" lon="14.84805296468663"><ele>638.6666666666666</ele><time>2026-04-06T18:42:33.998Z</time></trkpt><trkpt lat="37.671892387392965" lon="14.84822748994085"><ele>639.0</ele><time>2026-04-06T18:42:34.998Z</time></trkpt><trkpt lat="37.67178556223517" lon="14.848400944119135"><ele>641.3333333333334</ele><time>2026-04-06T18:42:35.998Z</time></trkpt><trkpt lat="37.671676876994326" lon="14.848569292338675"><ele>643.6666666666667</ele><time>2026-04-06T18:42:36.998Z</time></trkpt><trkpt lat="37.67156457264042" lon="14.84873744592031"><ele>646.0</ele><time>2026-04-06T18:42:37.998Z</time></trkpt><trkpt lat="37.67145019988961" lon="14.848907930296734"><ele>646.0</ele><time>2026-04-06T18:42:38.998Z</time></trkpt><trkpt lat="37.67133597535097" lon="14.849078660468319"><ele>646.0</ele><time>2026-04-06T18:42:39.998Z</time></trkpt><trkpt lat="37.67122305583051" lon="14.849250364372375"><ele>646.0</ele><time>2026-04-06T18:42:40.998Z</time></trkpt><trkpt lat="37.67110823923663" lon="14.84942269830695"><ele>644.6666666666667</ele><time>2026-04-06T18:42:41.998Z</time></trkpt><trkpt lat="37.670994035842746" lon="14.849597608064336"><ele>643.3333333333334</ele><time>2026-04-06T18:42:42.998Z</time></trkpt><trkpt lat="37.67087872032493" lon="14.849771730206536"><ele>642.0</ele><time>2026-04-06T18:42:43.998Z</time></trkpt><trkpt lat="37.670763210979665" lon="14.849944565453571"><ele>642.0</ele><time>2026-04-06T18:42:44.998Z</time></trkpt><trkpt lat="37.670645390107815" lon="14.850120451059992"><ele>642.0</ele><time>2026-04-06T18:42:45.998Z</time></trkpt><trkpt lat="37.67052661492809" lon="14.850306160606285"><ele>642.0</ele><time>2026-04-06T18:42:46.998Z</time></trkpt><trkpt lat="37.67041133830445" lon="14.850471092685982"><ele>642.0</ele><time>2026-04-06T18:42:47.998Z</time></trkpt><trkpt lat="37.67028987726255" lon="14.850657105750594"><ele>642.0</ele><time>2026-04-06T18:42:48.998Z</time></trkpt><trkpt lat="37.670166040352285" lon="14.850844497435478"><ele>642.0</ele><time>2026-04-06T18:42:50Z</time></trkpt><trkpt lat="37.67004364681722" lon="14.851028525651476"><ele>639.6666666666666</ele><time>2026-04-06T18:42:51Z</time></trkpt><trkpt lat="37.6699295057723" lon="14.851212692193359"><ele>637.3333333333333</ele><time>2026-04-06T18:42:52Z</time></trkpt><trkpt lat="37.66981061847816" lon="14.851395831396662"><ele>635.0</ele><time>2026-04-06T18:42:53Z</time></trkpt><trkpt lat="37.66968557294635" lon="14.851573886997743"><ele>635.0</ele><time>2026-04-06T18:42:54Z</time></trkpt><trkpt lat="37.66955845192001" lon="14.851752266441165"><ele>635.0</ele><time>2026-04-06T18:42:55Z</time></trkpt><trkpt lat="37.669433705527354" lon="14.85193475187753"><ele>635.0</ele><time>2026-04-06T18:42:56Z</time></trkpt><trkpt lat="37.66931127384163" lon="14.852121058196763"><ele>633.0</ele><time>2026-04-06T18:42:57Z</time></trkpt><trkpt lat="37.66919386210878" lon="14.85230128294718"><ele>631.0</ele><time>2026-04-06T18:42:58Z</time></trkpt><trkpt lat="37.6690776411893" lon="14.85248433289289"><ele>629.0</ele><time>2026-04-06T18:42:59Z</time></trkpt><trkpt lat="37.668957932838886" lon="14.85266144026273"><ele>629.0</ele><time>2026-04-06T18:43:00Z</time></trkpt><trkpt lat="37.66883798284543" lon="14.852835098918288"><ele>629.0</ele><time>2026-04-06T18:43:01Z</time></trkpt><trkpt lat="37.668711662511555" lon="14.85301524858514"><ele>629.0</ele><time>2026-04-06T18:43:02Z</time></trkpt><trkpt lat="37.66858743172266" lon="14.853199607935078"><ele>629.0</ele><time>2026-04-06T18:43:03Z</time></trkpt><trkpt lat="37.668462477878876" lon="14.853385496325032"><ele>629.0</ele><time>2026-04-06T18:43:04Z</time></trkpt><trkpt lat="37.6683373479708" lon="14.853571720617978"><ele>629.0</ele><time>2026-04-06T18:43:05Z</time></trkpt><trkpt lat="37.66821372010226" lon="14.853760757871681"><ele>629.0</ele><time>2026-04-06T18:43:06Z</time></trkpt><trkpt lat="37.66809000945866" lon="14.85395309701228"><ele>629.0</ele><time>2026-04-06T18:43:07Z</time></trkpt><trkpt lat="37.667966640643506" lon="14.854141980613877"><ele>629.0</ele><time>2026-04-06T18:43:08Z</time></trkpt><trkpt lat="37.66784292994723" lon="14.854332741894671"><ele>629.6666666666666</ele><time>2026-04-06T18:43:09Z</time></trkpt><trkpt lat="37.6677249262157" lon="14.85452138490665"><ele>630.3333333333334</ele><time>2026-04-06T18:43:10Z</time></trkpt><trkpt lat="37.667601580381145" lon="14.854709442294444"><ele>631.0</ele><time>2026-04-06T18:43:11Z</time></trkpt><trkpt lat="37.66747730147391" lon="14.85489595763671"><ele>631.0</ele><time>2026-04-06T18:43:12Z</time></trkpt><trkpt lat="37.66735267685856" lon="14.855084207298223"><ele>631.0</ele><time>2026-04-06T18:43:13Z</time></trkpt><trkpt lat="37.66723054927375" lon="14.855274593587868"><ele>631.0</ele><time>2026-04-06T18:43:14Z</time></trkpt><trkpt lat="37.66710837757333" lon="14.855465868046199"><ele>631.3333333333334</ele><time>2026-04-06T18:43:15Z</time></trkpt><trkpt lat="37.666988029031074" lon="14.85565634611914"><ele>631.6666666666666</ele><time>2026-04-06T18:43:16Z</time></trkpt><trkpt lat="37.666870706618596" lon="14.855850054943806"><ele>632.0</ele><time>2026-04-06T18:43:17Z</time></trkpt><trkpt lat="37.6667634945946" lon="14.856051784548578"><ele>634.3333333333333</ele><time>2026-04-06T18:43:18Z</time></trkpt><trkpt lat="37.666656887435806" lon="14.856255314562521"><ele>636.6666666666666</ele><time>2026-04-06T18:43:19Z</time></trkpt><trkpt lat="37.66655324448504" lon="14.856458088872108"><ele>639.0</ele><time>2026-04-06T18:43:20Z</time></trkpt><trkpt lat="37.66645091804302" lon="14.856662117738084"><ele>639.0</ele><time>2026-04-06T18:43:21Z</time></trkpt><trkpt lat="37.666353455546464" lon="14.856864907116064"><ele>639.0</ele><time>2026-04-06T18:43:22Z</time></trkpt><trkpt lat="37.66625712141961" lon="14.857068456290143"><ele>639.0</ele><time>2026-04-06T18:43:23Z</time></trkpt><trkpt lat="37.66615895954736" lon="14.857271608017674"><ele>637.6666666666666</ele><time>2026-04-06T18:43:24Z</time></trkpt><trkpt lat="37.666062975484664" lon="14.857475523060138"><ele>636.3333333333333</ele><time>2026-04-06T18:43:25Z</time></trkpt><trkpt lat="37.66596693236468" lon="14.857682175701928"><ele>635.0</ele><time>2026-04-06T18:43:26Z</time></trkpt><trkpt lat="37.66587616366395" lon="14.857888139664151"><ele>635.0</ele><time>2026-04-06T18:43:27Z</time></trkpt><trkpt lat="37.66578378587144" lon="14.858090039586036"><ele>635.0</ele><time>2026-04-06T18:43:28Z</time></trkpt><trkpt lat="37.66569632569277" lon="14.858284700660523"><ele>635.0</ele><time>2026-04-06T18:43:29Z</time></trkpt><trkpt lat="37.665610218064685" lon="14.85847132311253"><ele>636.6666666666666</ele><time>2026-04-06T18:43:30Z</time></trkpt><trkpt lat="37.665527331448196" lon="14.858655155194878"><ele>638.3333333333334</ele><time>2026-04-06T18:43:31Z</time></trkpt><trkpt lat="37.66544742203141" lon="14.858834719257944"><ele>640.0</ele><time>2026-04-06T18:43:32Z</time></trkpt><trkpt lat="37.66536644776515" lon="14.859012032570615"><ele>640.0</ele><time>2026-04-06T18:43:33Z</time></trkpt><trkpt lat="37.66528794953676" lon="14.859187474850016"><ele>640.0</ele><time>2026-04-06T18:43:34Z</time></trkpt><trkpt lat="37.66521004364739" lon="14.859361500459423"><ele>640.0</ele><time>2026-04-06T18:43:35Z</time></trkpt><trkpt lat="37.66513103016052" lon="14.859533991471766"><ele>638.3333333333334</ele><time>2026-04-06T18:43:36Z</time></trkpt><trkpt lat="37.66505379964271" lon="14.85970660722194"><ele>636.6666666666666</ele><time>2026-04-06T18:43:37Z</time></trkpt><trkpt lat="37.66497597560856" lon="14.859882357175737"><ele>635.0</ele><time>2026-04-06T18:43:38Z</time></trkpt><trkpt lat="37.66489839875081" lon="14.86006257215185"><ele>635.0</ele><time>2026-04-06T18:43:39Z</time></trkpt><trkpt lat="37.66481855666997" lon="14.86023701782088"><ele>635.0</ele><time>2026-04-06T18:43:40Z</time></trkpt><trkpt lat="37.66473555124061" lon="14.860413163599459"><ele>635.0</ele><time>2026-04-06T18:43:41Z</time></trkpt><trkpt lat="37.66465522759208" lon="14.86059516324685"><ele>635.0</ele><time>2026-04-06T18:43:42Z</time></trkpt><trkpt lat="37.66456899542065" lon="14.86077685867883"><ele>635.0</ele><time>2026-04-06T18:43:42.999Z</time></trkpt><trkpt lat="37.66448336303612" lon="14.860956598888365"><ele>635.0</ele><time>2026-04-06T18:43:43.999Z</time></trkpt><trkpt lat="37.66439628769911" lon="14.861142005034662"><ele>631.6666666666666</ele><time>2026-04-06T18:43:44.999Z</time></trkpt><trkpt lat="37.66431055489807" lon="14.861326639428922"><ele>628.3333333333334</ele><time>2026-04-06T18:43:45.999Z</time></trkpt><trkpt lat="37.664226873885056" lon="14.861512977369788"><ele>625.0</ele><time>2026-04-06T18:43:46.999Z</time></trkpt><trkpt lat="37.66414499456254" lon="14.861701051995352"><ele>627.3333333333334</ele><time>2026-04-06T18:43:47.999Z</time></trkpt><trkpt lat="37.66406096862015" lon="14.861888644850794"><ele>629.6666666666666</ele><time>2026-04-06T18:43:48.999Z</time></trkpt><trkpt lat="37.6639745559157" lon="14.862073692725076"><ele>632.0</ele><time>2026-04-06T18:43:49.999Z</time></trkpt><trkpt lat="37.66389236527581" lon="14.862260035502782"><ele>632.0</ele><time>2026-04-06T18:43:50.999Z</time></trkpt><trkpt lat="37.6638096362706" lon="14.862442531005494"><ele>632.0</ele><time>2026-04-06T18:43:51.999Z</time></trkpt><trkpt lat="37.663725723244625" lon="14.862625933069033"><ele>632.0</ele><time>2026-04-06T18:43:52.999Z</time></trkpt><trkpt lat="37.6636422731714" lon="14.86280659944615"><ele>630.3333333333333</ele><time>2026-04-06T18:43:53.999Z</time></trkpt><trkpt lat="37.663559018788945" lon="14.862984925188673"><ele>628.6666666666666</ele><time>2026-04-06T18:43:54.999Z</time></trkpt><trkpt lat="37.66348073702608" lon="14.863163184754221"><ele>627.0</ele><time>2026-04-06T18:43:55.999Z</time></trkpt><trkpt lat="37.66340138769411" lon="14.863338029279952"><ele>627.6666666666666</ele><time>2026-04-06T18:43:56.999Z</time></trkpt><trkpt lat="37.66332233236942" lon="14.863510782692927"><ele>628.3333333333333</ele><time>2026-04-06T18:43:57.999Z</time></trkpt><trkpt lat="37.6632430451487" lon="14.863679607267901"><ele>629.0</ele><time>2026-04-06T18:43:58.999Z</time></trkpt><trkpt lat="37.6631622576569" lon="14.863848875591529"><ele>629.0</ele><time>2026-04-06T18:43:59.999Z</time></trkpt><trkpt lat="37.663084283390035" lon="14.864017812248424"><ele>629.0</ele><time>2026-04-06T18:44:00.999Z</time></trkpt><trkpt lat="37.66300773811736" lon="14.86418498094482"><ele>629.0</ele><time>2026-04-06T18:44:01.999Z</time></trkpt><trkpt lat="37.66293154930396" lon="14.864353058159224"><ele>630.3333333333333</ele><time>2026-04-06T18:44:02.999Z</time></trkpt><trkpt lat="37.662857307221806" lon="14.864521832845972"><ele>631.6666666666666</ele><time>2026-04-06T18:44:03.999Z</time></trkpt><trkpt lat="37.662782387134015" lon="14.864686420241503"><ele>633.0</ele><time>2026-04-06T18:44:04.999Z</time></trkpt><trkpt lat="37.662708617229974" lon="14.864853191951337"><ele>631.5</ele><time>2026-04-06T18:44:05.999Z</time></trkpt><trkpt lat="37.662637433209696" lon="14.865012590308227"><ele>630.0</ele><time>2026-04-06T18:44:06.999Z</time></trkpt><trkpt lat="37.66256727325813" lon="14.865171430394428"><ele>628.5</ele><time>2026-04-06T18:44:07.999Z</time></trkpt><trkpt lat="37.66249508610688" lon="14.865325729142818"><ele>627.0</ele><time>2026-04-06T18:44:08.999Z</time></trkpt><trkpt lat="37.66242271046718" lon="14.865477971394515"><ele>627.0</ele><time>2026-04-06T18:44:09.999Z</time></trkpt><trkpt lat="37.66234647965119" lon="14.86562476575008"><ele>627.0</ele><time>2026-04-06T18:44:10.999Z</time></trkpt><trkpt lat="37.66226062529503" lon="14.86576346893608"><ele>627.0</ele><time>2026-04-06T18:44:11.999Z</time></trkpt><trkpt lat="37.66216698186217" lon="14.865901750971702"><ele>627.0</ele><time>2026-04-06T18:44:12.999Z</time></trkpt><trkpt lat="37.66206381736115" lon="14.866034547240579"><ele>627.75</ele><time>2026-04-06T18:44:13.999Z</time></trkpt><trkpt lat="37.66195305386079" lon="14.86615510730584"><ele>628.5</ele><time>2026-04-06T18:44:14.999Z</time></trkpt><trkpt lat="37.66183475419325" lon="14.866269803937055"><ele>629.25</ele><time>2026-04-06T18:44:15.999Z</time></trkpt><trkpt lat="37.66170812097999" lon="14.866374942877126"><ele>630.0</ele><time>2026-04-06T18:44:16.999Z</time></trkpt><trkpt lat="37.66157674634421" lon="14.866469027876368"><ele>630.0</ele><time>2026-04-06T18:44:17.999Z</time></trkpt><trkpt lat="37.66144320931716" lon="14.866561372884458"><ele>630.0</ele><time>2026-04-06T18:44:18.999Z</time></trkpt><trkpt lat="37.66129742579328" lon="14.866635321521493"><ele>630.0</ele><time>2026-04-06T18:44:19.999Z</time></trkpt><trkpt lat="37.66115107323338" lon="14.866701681631296"><ele>629.0</ele><time>2026-04-06T18:44:20.999Z</time></trkpt><trkpt lat="37.661003713775386" lon="14.866766007038102"><ele>628.0</ele><time>2026-04-06T18:44:21.999Z</time></trkpt><trkpt lat="37.660853429955296" lon="14.866825884162282"><ele>627.0</ele><time>2026-04-06T18:44:22.999Z</time></trkpt><trkpt lat="37.6607016764498" lon="14.86688843493947"><ele>627.3333333333334</ele><time>2026-04-06T18:44:23.999Z</time></trkpt><trkpt lat="37.66054932171901" lon="14.866949560725745"><ele>627.6666666666667</ele><time>2026-04-06T18:44:24.999Z</time></trkpt><trkpt lat="37.66039902730615" lon="14.86700890276468"><ele>628.0</ele><time>2026-04-06T18:44:25.998Z</time></trkpt><trkpt lat="37.66024814070216" lon="14.867068702749544"><ele>628.0</ele><time>2026-04-06T18:44:26.998Z</time></trkpt><trkpt lat="37.66009918226534" lon="14.867129035970867"><ele>628.0</ele><time>2026-04-06T18:44:27.998Z</time></trkpt><trkpt lat="37.65994981544709" lon="14.867188972761337"><ele>628.0</ele><time>2026-04-06T18:44:28.998Z</time></trkpt><trkpt lat="37.65980294278546" lon="14.867249099785147"><ele>628.0</ele><time>2026-04-06T18:44:29.998Z</time></trkpt><trkpt lat="37.65965462300677" lon="14.867310014337953"><ele>628.0</ele><time>2026-04-06T18:44:30.998Z</time></trkpt><trkpt lat="37.65950677146454" lon="14.867370440970035"><ele>628.0</ele><time>2026-04-06T18:44:31.998Z</time></trkpt><trkpt lat="37.65935939434818" lon="14.867431363197463"><ele>628.3333333333334</ele><time>2026-04-06T18:44:32.998Z</time></trkpt><trkpt lat="37.65921052541412" lon="14.867494722114337"><ele>628.6666666666666</ele><time>2026-04-06T18:44:33.998Z</time></trkpt><trkpt lat="37.65906291981764" lon="14.867556292790738"><ele>629.0</ele><time>2026-04-06T18:44:34.998Z</time></trkpt><trkpt lat="37.65891502948796" lon="14.867616911957144"><ele>629.3333333333333</ele><time>2026-04-06T18:44:35.998Z</time></trkpt><trkpt lat="37.65876570356847" lon="14.867677770133733"><ele>629.6666666666666</ele><time>2026-04-06T18:44:36.998Z</time></trkpt><trkpt lat="37.65861474020752" lon="14.86774067191337"><ele>630.0</ele><time>2026-04-06T18:44:37.998Z</time></trkpt><trkpt lat="37.65846286080797" lon="14.867803058013052"><ele>630.0</ele><time>2026-04-06T18:44:38.998Z</time></trkpt><trkpt lat="37.65831006504232" lon="14.867866523616357"><ele>630.0</ele><time>2026-04-06T18:44:39.998Z</time></trkpt><trkpt lat="37.658155137533306" lon="14.867931435759859"><ele>630.0</ele><time>2026-04-06T18:44:40.998Z</time></trkpt><trkpt lat="37.658002483033904" lon="14.867998147190521"><ele>630.0</ele><time>2026-04-06T18:44:41.998Z</time></trkpt><trkpt lat="37.65785355358238" lon="14.868065649716696"><ele>630.0</ele><time>2026-04-06T18:44:42.998Z</time></trkpt><trkpt lat="37.657707728361224" lon="14.86813949627485"><ele>630.0</ele><time>2026-04-06T18:44:43.998Z</time></trkpt><trkpt lat="37.657565583102134" lon="14.868219623313593"><ele>629.3333333333334</ele><time>2026-04-06T18:44:44.998Z</time></trkpt><trkpt lat="37.657426654762325" lon="14.86831149337308"><ele>628.6666666666667</ele><time>2026-04-06T18:44:45.998Z</time></trkpt><trkpt lat="37.65728249834234" lon="14.868389620405855"><ele>628.0</ele><time>2026-04-06T18:44:46.998Z</time></trkpt><trkpt lat="37.657153904949816" lon="14.868513533669859"><ele>628.0</ele><time>2026-04-06T18:44:47.998Z</time></trkpt><trkpt lat="37.657010060067314" lon="14.868609541840828"><ele>628.0</ele><time>2026-04-06T18:44:48.998Z</time></trkpt><trkpt lat="37.65687454820836" lon="14.868733161890173"><ele>628.0</ele><time>2026-04-06T18:44:49.998Z</time></trkpt><trkpt lat="37.656745486914915" lon="14.868864039599927"><ele>627.0</ele><time>2026-04-06T18:44:50.998Z</time></trkpt><trkpt lat="37.65663254606413" lon="14.869019642434893"><ele>626.0</ele><time>2026-04-06T18:44:51.998Z</time></trkpt><trkpt lat="37.656514728393084" lon="14.869165743123078"><ele>625.0</ele><time>2026-04-06T18:44:52.998Z</time></trkpt><trkpt lat="37.6564058968889" lon="14.869321063223655"><ele>625.0</ele><time>2026-04-06T18:44:53.998Z</time></trkpt><trkpt lat="37.65630317110687" lon="14.869486267361374"><ele>625.0</ele><time>2026-04-06T18:44:55Z</time></trkpt><trkpt lat="37.65620479341583" lon="14.869657773765844"><ele>625.0</ele><time>2026-04-06T18:44:56Z</time></trkpt><trkpt lat="37.65611191972814" lon="14.869831455514566"><ele>622.0</ele><time>2026-04-06T18:44:57Z</time></trkpt><trkpt lat="37.65602241889552" lon="14.870012133121703"><ele>619.0</ele><time>2026-04-06T18:44:58Z</time></trkpt><trkpt lat="37.65593295646922" lon="14.870194852989739"><ele>616.0</ele><time>2026-04-06T18:44:59Z</time></trkpt><trkpt lat="37.65584152847717" lon="14.870374959063495"><ele>615.6666666666667</ele><time>2026-04-06T18:45:00Z</time></trkpt><trkpt lat="37.655751560962145" lon="14.87056067368892"><ele>615.3333333333334</ele><time>2026-04-06T18:45:01Z</time></trkpt><trkpt lat="37.65566109843028" lon="14.870743082305413"><ele>615.0</ele><time>2026-04-06T18:45:02Z</time></trkpt><trkpt lat="37.6555704498154" lon="14.870928140273179"><ele>615.0</ele><time>2026-04-06T18:45:03Z</time></trkpt><trkpt lat="37.655481408335525" lon="14.871112330475606"><ele>615.0</ele><time>2026-04-06T18:45:04Z</time></trkpt><trkpt lat="37.65539122350442" lon="14.871296891067932"><ele>615.0</ele><time>2026-04-06T18:45:05Z</time></trkpt><trkpt lat="37.65530060044561" lon="14.871483548786692"><ele>615.3333333333334</ele><time>2026-04-06T18:45:06Z</time></trkpt><trkpt lat="37.655210312341296" lon="14.87166380492027"><ele>615.6666666666667</ele><time>2026-04-06T18:45:07Z</time></trkpt><trkpt lat="37.65512061472255" lon="14.871843997452396"><ele>616.0</ele><time>2026-04-06T18:45:08Z</time></trkpt><trkpt lat="37.65503031606321" lon="14.872024056230257"><ele>616.0</ele><time>2026-04-06T18:45:09Z</time></trkpt><trkpt lat="37.6549441223131" lon="14.872205483062483"><ele>616.0</ele><time>2026-04-06T18:45:10Z</time></trkpt><trkpt lat="37.65485467446869" lon="14.872385358132252"><ele>616.0</ele><time>2026-04-06T18:45:11Z</time></trkpt><trkpt lat="37.654767701562875" lon="14.872567579423368"><ele>616.6666666666667</ele><time>2026-04-06T18:45:12Z</time></trkpt><trkpt lat="37.65467889151308" lon="14.872748041293441"><ele>617.3333333333334</ele><time>2026-04-06T18:45:13Z</time></trkpt><trkpt lat="37.654593630943275" lon="14.872928903963226"><ele>618.0</ele><time>2026-04-06T18:45:14Z</time></trkpt><trkpt lat="37.65450744758161" lon="14.873109298496269"><ele>616.6666666666666</ele><time>2026-04-06T18:45:15Z</time></trkpt><trkpt lat="37.65441796540438" lon="14.873283543837369"><ele>615.3333333333333</ele><time>2026-04-06T18:45:16Z</time></trkpt><trkpt lat="37.654327673342834" lon="14.873460221373563"><ele>614.0</ele><time>2026-04-06T18:45:17Z</time></trkpt><trkpt lat="37.65423828435216" lon="14.873636746305984"><ele>614.0</ele><time>2026-04-06T18:45:18Z</time></trkpt><trkpt lat="37.65414766355027" lon="14.873814924467744"><ele>614.0</ele><time>2026-04-06T18:45:19Z</time></trkpt><trkpt lat="37.65405866896884" lon="14.873992821585539"><ele>614.0</ele><time>2026-04-06T18:45:20Z</time></trkpt><trkpt lat="37.65396883656018" lon="14.874173823744108"><ele>615.6666666666666</ele><time>2026-04-06T18:45:21Z</time></trkpt><trkpt lat="37.65387722528324" lon="14.874351400636243"><ele>617.3333333333334</ele><time>2026-04-06T18:45:22Z</time></trkpt><trkpt lat="37.6537927966489" lon="14.874531173263938"><ele>619.0</ele><time>2026-04-06T18:45:23Z</time></trkpt><trkpt lat="37.653702979636385" lon="14.874712935487334"><ele>619.0</ele><time>2026-04-06T18:45:24Z</time></trkpt><trkpt lat="37.65361078788979" lon="14.874894372589857"><ele>619.0</ele><time>2026-04-06T18:45:25Z</time></trkpt><trkpt lat="37.65352034960505" lon="14.875079051983352"><ele>619.0</ele><time>2026-04-06T18:45:26Z</time></trkpt><trkpt lat="37.65343120663867" lon="14.87526072380991"><ele>619.0</ele><time>2026-04-06T18:45:27Z</time></trkpt><trkpt lat="37.65334234751256" lon="14.875443899772074"><ele>619.0</ele><time>2026-04-06T18:45:28Z</time></trkpt><trkpt lat="37.65325314771023" lon="14.875627600917678"><ele>619.0</ele><time>2026-04-06T18:45:29Z</time></trkpt><trkpt lat="37.653161022032165" lon="14.875811931432013"><ele>619.3333333333334</ele><time>2026-04-06T18:45:30Z</time></trkpt><trkpt lat="37.65306665909477" lon="14.87599551536774"><ele>619.6666666666666</ele><time>2026-04-06T18:45:31Z</time></trkpt><trkpt lat="37.65297674323752" lon="14.876176668592514"><ele>620.0</ele><time>2026-04-06T18:45:32Z</time></trkpt><trkpt lat="37.65288967145871" lon="14.876353331001665"><ele>620.0</ele><time>2026-04-06T18:45:33Z</time></trkpt><trkpt lat="37.65280187362633" lon="14.876527816485778"><ele>620.0</ele><time>2026-04-06T18:45:34Z</time></trkpt><trkpt lat="37.652711285270165" lon="14.876697392629682"><ele>620.0</ele><time>2026-04-06T18:45:35Z</time></trkpt><trkpt lat="37.652617491577416" lon="14.876862262635035"><ele>619.0</ele><time>2026-04-06T18:45:36Z</time></trkpt><trkpt lat="37.65251789215393" lon="14.877024315002966"><ele>618.0</ele><time>2026-04-06T18:45:37Z</time></trkpt><trkpt lat="37.652408618333936" lon="14.877180563974939"><ele>617.0</ele><time>2026-04-06T18:45:38Z</time></trkpt><trkpt lat="37.65229398318292" lon="14.877331962376342"><ele>617.0</ele><time>2026-04-06T18:45:39Z</time></trkpt><trkpt lat="37.65217612304163" lon="14.87748116889006"><ele>617.0</ele><time>2026-04-06T18:45:40Z</time></trkpt><trkpt lat="37.65205178821917" lon="14.877625075353961"><ele>617.0</ele><time>2026-04-06T18:45:41Z</time></trkpt><trkpt lat="37.65192168170001" lon="14.877763344758463"><ele>616.6666666666666</ele><time>2026-04-06T18:45:42Z</time></trkpt><trkpt lat="37.651784087046586" lon="14.877895624906298"><ele>616.3333333333334</ele><time>2026-04-06T18:45:43Z</time></trkpt><trkpt lat="37.65164154556075" lon="14.878020820401868"><ele>616.0</ele><time>2026-04-06T18:45:44Z</time></trkpt><trkpt lat="37.65149365562767" lon="14.878144668380305"><ele>616.0</ele><time>2026-04-06T18:45:45Z</time></trkpt><trkpt lat="37.65134438690503" lon="14.878270912332246"><ele>616.0</ele><time>2026-04-06T18:45:46Z</time></trkpt><trkpt lat="37.65119482568373" lon="14.87839633295172"><ele>616.0</ele><time>2026-04-06T18:45:47Z</time></trkpt><trkpt lat="37.651045328154474" lon="14.878521876643232"><ele>614.3333333333334</ele><time>2026-04-06T18:45:48Z</time></trkpt><trkpt lat="37.65089501191718" lon="14.878649366563629"><ele>612.6666666666666</ele><time>2026-04-06T18:45:48.999Z</time></trkpt><trkpt lat="37.65074818156667" lon="14.8787737952131"><ele>611.0</ele><time>2026-04-06T18:45:49.999Z</time></trkpt><trkpt lat="37.65060374494732" lon="14.87889850969585"><ele>611.0</ele><time>2026-04-06T18:45:50.999Z</time></trkpt><trkpt lat="37.65046215190256" lon="14.879021946139295"><ele>611.0</ele><time>2026-04-06T18:45:51.999Z</time></trkpt><trkpt lat="37.65032354369933" lon="14.879141621565083"><ele>611.0</ele><time>2026-04-06T18:45:52.999Z</time></trkpt><trkpt lat="37.650187189437915" lon="14.879262437657296"><ele>611.6666666666666</ele><time>2026-04-06T18:45:53.999Z</time></trkpt><trkpt lat="37.65005117911935" lon="14.879380521826848"><ele>612.3333333333334</ele><time>2026-04-06T18:45:54.999Z</time></trkpt><trkpt lat="37.64991732666061" lon="14.879498563116892"><ele>613.0</ele><time>2026-04-06T18:45:55.999Z</time></trkpt><trkpt lat="37.649784818686804" lon="14.879614386108782"><ele>613.0</ele><time>2026-04-06T18:45:56.999Z</time></trkpt><trkpt lat="37.64965407525892" lon="14.879727008584188"><ele>613.0</ele><time>2026-04-06T18:45:57.999Z</time></trkpt><trkpt lat="37.64952344829495" lon="14.879837860863848"><ele>613.0</ele><time>2026-04-06T18:45:58.999Z</time></trkpt><trkpt lat="37.64939332318822" lon="14.879946184772402"><ele>611.0</ele><time>2026-04-06T18:45:59.999Z</time></trkpt><trkpt lat="37.649265029933254" lon="14.880052672093909"><ele>609.0</ele><time>2026-04-06T18:46:00.999Z</time></trkpt><trkpt lat="37.64913757378975" lon="14.880158378222102"><ele>607.0</ele><time>2026-04-06T18:46:01.999Z</time></trkpt><trkpt lat="37.64900925399088" lon="14.88026062745079"><ele>606.0</ele><time>2026-04-06T18:46:02.999Z</time></trkpt><trkpt lat="37.64888348822451" lon="14.880363918592591"><ele>605.0</ele><time>2026-04-06T18:46:03.999Z</time></trkpt><trkpt lat="37.64875866710373" lon="14.880466083657447"><ele>604.0</ele><time>2026-04-06T18:46:04.999Z</time></trkpt><trkpt lat="37.64863470358657" lon="14.880570958666459"><ele>603.0</ele><time>2026-04-06T18:46:05.999Z</time></trkpt><trkpt lat="37.648513567205626" lon="14.880673081704922"><ele>603.75</ele><time>2026-04-06T18:46:06.999Z</time></trkpt><trkpt lat="37.64839339471021" lon="14.880776064207657"><ele>604.5</ele><time>2026-04-06T18:46:07.999Z</time></trkpt><trkpt lat="37.648271225280226" lon="14.880880984914283"><ele>605.25</ele><time>2026-04-06T18:46:08.999Z</time></trkpt><trkpt lat="37.648150603814294" lon="14.880987145933654"><ele>606.0</ele><time>2026-04-06T18:46:09.999Z</time></trkpt><trkpt lat="37.64803286195421" lon="14.881091542379005"><ele>606.0</ele><time>2026-04-06T18:46:10.999Z</time></trkpt><trkpt lat="37.64791586879768" lon="14.881194964728168"><ele>606.0</ele><time>2026-04-06T18:46:11.999Z</time></trkpt><trkpt lat="37.647798094126465" lon="14.881298320851899"><ele>606.0</ele><time>2026-04-06T18:46:12.999Z</time></trkpt><trkpt lat="37.64768067017222" lon="14.881398530703986"><ele>606.0</ele><time>2026-04-06T18:46:13.999Z</time></trkpt><trkpt lat="37.64756314802068" lon="14.881499611566523"><ele>605.0</ele><time>2026-04-06T18:46:14.999Z</time></trkpt><trkpt lat="37.647446493319684" lon="14.881598983013506"><ele>604.0</ele><time>2026-04-06T18:46:15.999Z</time></trkpt><trkpt lat="37.64733617077596" lon="14.881693775041171"><ele>603.0</ele><time>2026-04-06T18:46:16.999Z</time></trkpt><trkpt lat="37.64722300734382" lon="14.881787643170671"><ele>602.0</ele><time>2026-04-06T18:46:17.999Z</time></trkpt><trkpt lat="37.6471103740025" lon="14.881881510339023"><ele>602.0</ele><time>2026-04-06T18:46:18.999Z</time></trkpt><trkpt lat="37.64699819693015" lon="14.881977129044307"><ele>602.0</ele><time>2026-04-06T18:46:19.999Z</time></trkpt><trkpt lat="37.64688798788718" lon="14.882067773577647"><ele>602.0</ele><time>2026-04-06T18:46:20.999Z</time></trkpt><trkpt lat="37.64677586338597" lon="14.882163994911679"><ele>602.0</ele><time>2026-04-06T18:46:21.999Z</time></trkpt><trkpt lat="37.646663060738135" lon="14.882260061159228"><ele>601.25</ele><time>2026-04-06T18:46:22.999Z</time></trkpt><trkpt lat="37.64655117569571" lon="14.882354617887838"><ele>600.5</ele><time>2026-04-06T18:46:23.999Z</time></trkpt><trkpt lat="37.64643888992531" lon="14.882449462851719"><ele>599.75</ele><time>2026-04-06T18:46:24.999Z</time></trkpt><trkpt lat="37.64632630911973" lon="14.882543114698061"><ele>599.0</ele><time>2026-04-06T18:46:25.999Z</time></trkpt><trkpt lat="37.646213736497785" lon="14.882636843868976"><ele>597.0</ele><time>2026-04-06T18:46:26.999Z</time></trkpt><trkpt lat="37.64610147014922" lon="14.882729663031169"><ele>595.0</ele><time>2026-04-06T18:46:27.999Z</time></trkpt><trkpt lat="37.64598929996552" lon="14.88282326318706"><ele>593.0</ele><time>2026-04-06T18:46:28.999Z</time></trkpt><trkpt lat="37.64587752148853" lon="14.88291689234831"><ele>591.0</ele><time>2026-04-06T18:46:29.999Z</time></trkpt><trkpt lat="37.64576595105552" lon="14.883010407922798"><ele>591.0</ele><time>2026-04-06T18:46:30.999Z</time></trkpt><trkpt lat="37.64565573756868" lon="14.883107043184244"><ele>591.0</ele><time>2026-04-06T18:46:31.998Z</time></trkpt><trkpt lat="37.64554504490855" lon="14.88320227591197"><ele>591.0</ele><time>2026-04-06T18:46:32.998Z</time></trkpt><trkpt lat="37.64543522761885" lon="14.883298905531442"><ele>591.0</ele><time>2026-04-06T18:46:33.998Z</time></trkpt><trkpt lat="37.645324534399286" lon="14.883393386830173"><ele>589.0</ele><time>2026-04-06T18:46:34.998Z</time></trkpt><trkpt lat="37.64521410204469" lon="14.883488248587625"><ele>587.0</ele><time>2026-04-06T18:46:35.998Z</time></trkpt><trkpt lat="37.64510422278976" lon="14.883582323253595"><ele>585.0</ele><time>2026-04-06T18:46:36.998Z</time></trkpt><trkpt lat="37.64499369750695" lon="14.883675255528294"><ele>583.0</ele><time>2026-04-06T18:46:37.998Z</time></trkpt><trkpt lat="37.64488296123116" lon="14.883767220058088"><ele>583.0</ele><time>2026-04-06T18:46:38.998Z</time></trkpt><trkpt lat="37.64477351813706" lon="14.88385936723033"><ele>583.0</ele><time>2026-04-06T18:46:39.998Z</time></trkpt><trkpt lat="37.6446637032584" lon="14.883951446521566"><ele>583.0</ele><time>2026-04-06T18:46:40.998Z</time></trkpt><trkpt lat="37.64455455348666" lon="14.884044363575718"><ele>583.0</ele><time>2026-04-06T18:46:41.998Z</time></trkpt><trkpt lat="37.644446231384656" lon="14.884138037220026"><ele>580.75</ele><time>2026-04-06T18:46:42.998Z</time></trkpt><trkpt lat="37.64433750084116" lon="14.88423265806523"><ele>578.5</ele><time>2026-04-06T18:46:43.998Z</time></trkpt><trkpt lat="37.64422865915507" lon="14.884327377317119"><ele>576.25</ele><time>2026-04-06T18:46:44.998Z</time></trkpt><trkpt lat="37.64412004720862" lon="14.884420804152892"><ele>574.0</ele><time>2026-04-06T18:46:45.998Z</time></trkpt><trkpt lat="37.644010811169366" lon="14.884513817879236"><ele>574.0</ele><time>2026-04-06T18:46:46.998Z</time></trkpt><trkpt lat="37.643901682443285" lon="14.884607037948316"><ele>574.0</ele><time>2026-04-06T18:46:47.998Z</time></trkpt><trkpt lat="37.64379226717345" lon="14.884698041382277"><ele>574.0</ele><time>2026-04-06T18:46:48.998Z</time></trkpt><trkpt lat="37.6436830015736" lon="14.884788231936477"><ele>574.0</ele><time>2026-04-06T18:46:49.998Z</time></trkpt><trkpt lat="37.64357406471237" lon="14.884879307429099"><ele>573.5</ele><time>2026-04-06T18:46:50.998Z</time></trkpt><trkpt lat="37.64346668916263" lon="14.884970691403778"><ele>573.0</ele><time>2026-04-06T18:46:51.998Z</time></trkpt><trkpt lat="37.64336057995649" lon="14.88506220485658"><ele>572.5</ele><time>2026-04-06T18:46:52.998Z</time></trkpt><trkpt lat="37.64325582567565" lon="14.885154435933181"><ele>572.0</ele><time>2026-04-06T18:46:53.998Z</time></trkpt><trkpt lat="37.643155079191665" lon="14.885244336703783"><ele>572.0</ele><time>2026-04-06T18:46:54.998Z</time></trkpt><trkpt lat="37.64304834121965" lon="14.885336720645839"><ele>572.0</ele><time>2026-04-06T18:46:55.998Z</time></trkpt><trkpt lat="37.64293567510871" lon="14.885430618120441"><ele>572.0</ele><time>2026-04-06T18:46:56.998Z</time></trkpt><trkpt lat="37.64282156042107" lon="14.885528272926683"><ele>572.0</ele><time>2026-04-06T18:46:57.998Z</time></trkpt><trkpt lat="37.64270645886991" lon="14.885626576050308"><ele>571.5</ele><time>2026-04-06T18:46:58.998Z</time></trkpt><trkpt lat="37.64258814471444" lon="14.885726681686378"><ele>571.0</ele><time>2026-04-06T18:46:59.998Z</time></trkpt><trkpt lat="37.642468165006214" lon="14.885825854920174"><ele>570.5</ele><time>2026-04-06T18:47:01Z</time></trkpt><trkpt lat="37.6423470463234" lon="14.885922253890698"><ele>570.0</ele><time>2026-04-06T18:47:02Z</time></trkpt><trkpt lat="37.64222235241602" lon="14.88602460636451"><ele>570.0</ele><time>2026-04-06T18:47:03Z</time></trkpt><trkpt lat="37.64209748378463" lon="14.886130229438368"><ele>570.0</ele><time>2026-04-06T18:47:04Z</time></trkpt><trkpt lat="37.6419704979436" lon="14.886238753615327"><ele>570.0</ele><time>2026-04-06T18:47:05Z</time></trkpt><trkpt lat="37.64184420548905" lon="14.886347558605559"><ele>568.3333333333334</ele><time>2026-04-06T18:47:06Z</time></trkpt><trkpt lat="37.64171534287163" lon="14.886458652489239"><ele>566.6666666666667</ele><time>2026-04-06T18:47:07Z</time></trkpt><trkpt lat="37.64158765022626" lon="14.886567972327422"><ele>565.0</ele><time>2026-04-06T18:47:08Z</time></trkpt><trkpt lat="37.641457641148115" lon="14.886676469523161"><ele>565.0</ele><time>2026-04-06T18:47:09Z</time></trkpt><trkpt lat="37.64132499117889" lon="14.886785514824027"><ele>565.0</ele><time>2026-04-06T18:47:10Z</time></trkpt><trkpt lat="37.64119097616273" lon="14.886896939356149"><ele>565.0</ele><time>2026-04-06T18:47:11Z</time></trkpt><trkpt lat="37.64105561056569" lon="14.887009733217168"><ele>563.0</ele><time>2026-04-06T18:47:12Z</time></trkpt><trkpt lat="37.64091913237162" lon="14.887123892691543"><ele>561.0</ele><time>2026-04-06T18:47:13Z</time></trkpt><trkpt lat="37.64078043021422" lon="14.887239727577107"><ele>559.0</ele><time>2026-04-06T18:47:14Z</time></trkpt><trkpt lat="37.640641463022895" lon="14.887357143087259"><ele>559.0</ele><time>2026-04-06T18:47:15Z</time></trkpt><trkpt lat="37.64050181179555" lon="14.88747450477329"><ele>559.0</ele><time>2026-04-06T18:47:16Z</time></trkpt><trkpt lat="37.640361025761294" lon="14.887591987126163"><ele>559.0</ele><time>2026-04-06T18:47:17Z</time></trkpt><trkpt lat="37.64021785298693" lon="14.887707799094219"><ele>557.6666666666667</ele><time>2026-04-06T18:47:18Z</time></trkpt><trkpt lat="37.640073506517886" lon="14.88782292806166"><ele>556.3333333333334</ele><time>2026-04-06T18:47:19Z</time></trkpt><trkpt lat="37.639930403914306" lon="14.887939975741086"><ele>555.0</ele><time>2026-04-06T18:47:20Z</time></trkpt><trkpt lat="37.639790625140215" lon="14.888057375476"><ele>555.0</ele><time>2026-04-06T18:47:21Z</time></trkpt><trkpt lat="37.63965184748032" lon="14.888173003409433"><ele>555.0</ele><time>2026-04-06T18:47:22Z</time></trkpt><trkpt lat="37.6395141575265" lon="14.888288896505491"><ele>555.0</ele><time>2026-04-06T18:47:23Z</time></trkpt><trkpt lat="37.63937737180503" lon="14.888402404261713"><ele>554.3333333333334</ele><time>2026-04-06T18:47:24Z</time></trkpt><trkpt lat="37.63923979565183" lon="14.888516718319716"><ele>553.6666666666667</ele><time>2026-04-06T18:47:25Z</time></trkpt><trkpt lat="37.63910079116241" lon="14.888631883045184"><ele>553.0</ele><time>2026-04-06T18:47:26Z</time></trkpt><trkpt lat="37.63896031945448" lon="14.888748182446385"><ele>553.0</ele><time>2026-04-06T18:47:27Z</time></trkpt><trkpt lat="37.638819186211904" lon="14.888865949775177"><ele>553.0</ele><time>2026-04-06T18:47:28Z</time></trkpt><trkpt lat="37.63867742632848" lon="14.888986357533494"><ele>553.0</ele><time>2026-04-06T18:47:29Z</time></trkpt><trkpt lat="37.638534677234084" lon="14.88910801410257"><ele>552.6666666666667</ele><time>2026-04-06T18:47:30Z</time></trkpt><trkpt lat="37.63839125781066" lon="14.889228822400181"><ele>552.3333333333334</ele><time>2026-04-06T18:47:31Z</time></trkpt><trkpt lat="37.63824776078609" lon="14.889348745675559"><ele>552.0</ele><time>2026-04-06T18:47:32Z</time></trkpt><trkpt lat="37.63810130833855" lon="14.889470274463145"><ele>552.0</ele><time>2026-04-06T18:47:33Z</time></trkpt><trkpt lat="37.63795651288867" lon="14.889591002029958"><ele>552.0</ele><time>2026-04-06T18:47:34Z</time></trkpt><trkpt lat="37.637811587439764" lon="14.88971328676617"><ele>552.0</ele><time>2026-04-06T18:47:35Z</time></trkpt><trkpt lat="37.637666517641215" lon="14.889835579933454"><ele>552.6666666666666</ele><time>2026-04-06T18:47:36Z</time></trkpt><trkpt lat="37.63752017500462" lon="14.889957758290308"><ele>553.3333333333333</ele><time>2026-04-06T18:47:37Z</time></trkpt><trkpt lat="37.637371626801446" lon="14.890078991059273"><ele>554.0</ele><time>2026-04-06T18:47:38Z</time></trkpt><trkpt lat="37.637222413295774" lon="14.890200638877003"><ele>554.0</ele><time>2026-04-06T18:47:39Z</time></trkpt><trkpt lat="37.637073207244455" lon="14.89032481668768"><ele>554.0</ele><time>2026-04-06T18:47:40Z</time></trkpt><trkpt lat="37.63692505031295" lon="14.890450683348494"><ele>554.0</ele><time>2026-04-06T18:47:41Z</time></trkpt><trkpt lat="37.63677947758289" lon="14.89057607977171"><ele>554.3333333333333</ele><time>2026-04-06T18:47:42Z</time></trkpt><trkpt lat="37.636633259635666" lon="14.890698886154313"><ele>554.6666666666666</ele><time>2026-04-06T18:47:43Z</time></trkpt><trkpt lat="37.63649038599475" lon="14.890818779003878"><ele>555.0</ele><time>2026-04-06T18:47:44Z</time></trkpt><trkpt lat="37.63634920967061" lon="14.890938632529059"><ele>555.0</ele><time>2026-04-06T18:47:45Z</time></trkpt><trkpt lat="37.63620963271341" lon="14.891055959975912"><ele>555.0</ele><time>2026-04-06T18:47:46Z</time></trkpt><trkpt lat="37.636069395633605" lon="14.891171616893393"><ele>555.0</ele><time>2026-04-06T18:47:47Z</time></trkpt><trkpt lat="37.635931308242" lon="14.891285580920805"><ele>552.3333333333334</ele><time>2026-04-06T18:47:48Z</time></trkpt><trkpt lat="37.635792103894325" lon="14.891397188520774"><ele>549.6666666666667</ele><time>2026-04-06T18:47:49Z</time></trkpt><trkpt lat="37.635654381031" lon="14.891509245875426"><ele>547.0</ele><time>2026-04-06T18:47:50Z</time></trkpt><trkpt lat="37.63551961096987" lon="14.8916212649569"><ele>547.0</ele><time>2026-04-06T18:47:50.999Z</time></trkpt><trkpt lat="37.635385274045234" lon="14.891731653846351"><ele>547.0</ele><time>2026-04-06T18:47:51.999Z</time></trkpt><trkpt lat="37.63525196100531" lon="14.891842572370285"><ele>547.0</ele><time>2026-04-06T18:47:52.999Z</time></trkpt><trkpt lat="37.63512000898332" lon="14.891952136615567"><ele>545.0</ele><time>2026-04-06T18:47:53.999Z</time></trkpt><trkpt lat="37.63499036602645" lon="14.89206069365488"><ele>543.0</ele><time>2026-04-06T18:47:54.999Z</time></trkpt><trkpt lat="37.6348620363244" lon="14.892168726737529"><ele>541.0</ele><time>2026-04-06T18:47:55.999Z</time></trkpt><trkpt lat="37.63473488941163" lon="14.892275492080888"><ele>541.0</ele><time>2026-04-06T18:47:56.999Z</time></trkpt><trkpt lat="37.63460749170237" lon="14.892382024177165"><ele>541.0</ele><time>2026-04-06T18:47:57.999Z</time></trkpt><trkpt lat="37.6344812653629" lon="14.892486361159818"><ele>541.0</ele><time>2026-04-06T18:47:58.999Z</time></trkpt><trkpt lat="37.634357992275966" lon="14.892589646276248"><ele>540.0</ele><time>2026-04-06T18:47:59.999Z</time></trkpt><trkpt lat="37.63423411860478" lon="14.892691067249617"><ele>539.0</ele><time>2026-04-06T18:48:00.999Z</time></trkpt><trkpt lat="37.63411303407808" lon="14.892791284191153"><ele>538.0</ele><time>2026-04-06T18:48:01.999Z</time></trkpt><trkpt lat="37.63399509349944" lon="14.892889046784955"><ele>537.0</ele><time>2026-04-06T18:48:02.999Z</time></trkpt><trkpt lat="37.63387914726174" lon="14.892985166321216"><ele>537.0</ele><time>2026-04-06T18:48:03.999Z</time></trkpt><trkpt lat="37.633765439522605" lon="14.893080841447295"><ele>537.0</ele><time>2026-04-06T18:48:04.999Z</time></trkpt><trkpt lat="37.63365315579311" lon="14.893175018324765"><ele>537.0</ele><time>2026-04-06T18:48:05.999Z</time></trkpt><trkpt lat="37.63354349426694" lon="14.893268412896795"><ele>537.0</ele><time>2026-04-06T18:48:06.999Z</time></trkpt><trkpt lat="37.63343575779999" lon="14.89336116080733"><ele>536.0</ele><time>2026-04-06T18:48:07.999Z</time></trkpt><trkpt lat="37.63333308363392" lon="14.893452736378531"><ele>535.0</ele><time>2026-04-06T18:48:08.999Z</time></trkpt><trkpt lat="37.63322280473411" lon="14.893544334356287"><ele>534.0</ele><time>2026-04-06T18:48:09.999Z</time></trkpt><trkpt lat="37.633107208311166" lon="14.89364494046254"><ele>533.0</ele><time>2026-04-06T18:48:10.999Z</time></trkpt><trkpt lat="37.63298778104403" lon="14.893747605029692"><ele>533.0</ele><time>2026-04-06T18:48:11.999Z</time></trkpt><trkpt lat="37.63286094103633" lon="14.893852670848174"><ele>533.0</ele><time>2026-04-06T18:48:12.999Z</time></trkpt><trkpt lat="37.632731408837095" lon="14.893959374727736"><ele>533.0</ele><time>2026-04-06T18:48:13.999Z</time></trkpt><trkpt lat="37.63259644418772" lon="14.894071683661911"><ele>533.3333333333333</ele><time>2026-04-06T18:48:14.999Z</time></trkpt><trkpt lat="37.63245596004735" lon="14.89418791393895"><ele>533.6666666666666</ele><time>2026-04-06T18:48:15.999Z</time></trkpt><trkpt lat="37.63231357574976" lon="14.894304883065423"><ele>534.0</ele><time>2026-04-06T18:48:16.999Z</time></trkpt><trkpt lat="37.63216814233582" lon="14.894424956880888"><ele>534.0</ele><time>2026-04-06T18:48:17.999Z</time></trkpt><trkpt lat="37.632020715725105" lon="14.894546909807193"><ele>534.0</ele><time>2026-04-06T18:48:18.999Z</time></trkpt><trkpt lat="37.63187126951981" lon="14.894671634283176"><ele>534.0</ele><time>2026-04-06T18:48:19.999Z</time></trkpt><trkpt lat="37.63171906351235" lon="14.894800377446614"><ele>535.3333333333334</ele><time>2026-04-06T18:48:20.999Z</time></trkpt><trkpt lat="37.631561571254885" lon="14.894933653510483"><ele>536.6666666666667</ele><time>2026-04-06T18:48:21.999Z</time></trkpt><trkpt lat="37.63140486721584" lon="14.895068044475183"><ele>538.0</ele><time>2026-04-06T18:48:22.999Z</time></trkpt><trkpt lat="37.631245395230515" lon="14.895181516917752"><ele>535.3333333333334</ele><time>2026-04-06T18:48:23.999Z</time></trkpt><trkpt lat="37.631095335130645" lon="14.895306233258749"><ele>532.6666666666666</ele><time>2026-04-06T18:48:24.999Z</time></trkpt><trkpt lat="37.630947998702226" lon="14.895427924406025"><ele>530.0</ele><time>2026-04-06T18:48:25.999Z</time></trkpt><trkpt lat="37.630809500224856" lon="14.895561284500683"><ele>530.0</ele><time>2026-04-06T18:48:26.999Z</time></trkpt><trkpt lat="37.63066207039267" lon="14.895667932473009"><ele>530.0</ele><time>2026-04-06T18:48:27.999Z</time></trkpt><trkpt lat="37.630514288559645" lon="14.895763504488405"><ele>530.0</ele><time>2026-04-06T18:48:28.999Z</time></trkpt><trkpt lat="37.63036379611082" lon="14.895844528576045"><ele>529.6666666666666</ele><time>2026-04-06T18:48:29.999Z</time></trkpt><trkpt lat="37.63021131809366" lon="14.895904797201425"><ele>529.3333333333334</ele><time>2026-04-06T18:48:30.999Z</time></trkpt><trkpt lat="37.63005924603017" lon="14.895955836714158"><ele>529.0</ele><time>2026-04-06T18:48:31.999Z</time></trkpt><trkpt lat="37.6299076248523" lon="14.89599228389151"><ele>529.0</ele><time>2026-04-06T18:48:32.999Z</time></trkpt><trkpt lat="37.62975541310706" lon="14.896010721274754"><ele>529.0</ele><time>2026-04-06T18:48:33.999Z</time></trkpt><trkpt lat="37.62960692051234" lon="14.89601685652542"><ele>529.0</ele><time>2026-04-06T18:48:34.998Z</time></trkpt><trkpt lat="37.62946016852754" lon="14.896017311674191"><ele>529.0</ele><time>2026-04-06T18:48:35.998Z</time></trkpt><trkpt lat="37.62931855010868" lon="14.896003447555694"><ele>528.75</ele><time>2026-04-06T18:48:36.998Z</time></trkpt><trkpt lat="37.62917864934467" lon="14.895979639085912"><ele>528.5</ele><time>2026-04-06T18:48:37.998Z</time></trkpt><trkpt lat="37.62904097402151" lon="14.89595075027297"><ele>528.25</ele><time>2026-04-06T18:48:38.998Z</time></trkpt><trkpt lat="37.62890712018464" lon="14.895925600708521"><ele>528.0</ele><time>2026-04-06T18:48:39.998Z</time></trkpt><trkpt lat="37.628776298085775" lon="14.895904877598499"><ele>526.0</ele><time>2026-04-06T18:48:40.998Z</time></trkpt><trkpt lat="37.62865432970269" lon="14.895886319497418"><ele>524.0</ele><time>2026-04-06T18:48:41.998Z</time></trkpt><trkpt lat="37.62853293961091" lon="14.895867411563714"><ele>522.0</ele><time>2026-04-06T18:48:42.998Z</time></trkpt><trkpt lat="37.62840455088812" lon="14.895849097238603"><ele>520.0</ele><time>2026-04-06T18:48:43.998Z</time></trkpt><trkpt lat="37.62827287940948" lon="14.895827278107694"><ele>520.0</ele><time>2026-04-06T18:48:44.998Z</time></trkpt><trkpt lat="37.628135963338984" lon="14.895804152732387"><ele>520.0</ele><time>2026-04-06T18:48:45.998Z</time></trkpt><trkpt lat="37.62799356131499" lon="14.895783059798683"><ele>520.0</ele><time>2026-04-06T18:48:46.998Z</time></trkpt><trkpt lat="37.62784670928541" lon="14.895760414795953"><ele>520.0</ele><time>2026-04-06T18:48:47.998Z</time></trkpt><trkpt lat="37.62769635061057" lon="14.895732803513058"><ele>522.3333333333334</ele><time>2026-04-06T18:48:48.998Z</time></trkpt><trkpt lat="37.627540775265125" lon="14.895706051986155"><ele>524.6666666666666</ele><time>2026-04-06T18:48:49.998Z</time></trkpt><trkpt lat="37.62738133766267" lon="14.895680927607456"><ele>527.0</ele><time>2026-04-06T18:48:50.998Z</time></trkpt><trkpt lat="37.6272193615388" lon="14.895659008090886"><ele>527.0</ele><time>2026-04-06T18:48:51.998Z</time></trkpt><trkpt lat="37.627055360799275" lon="14.895631714249548"><ele>527.0</ele><time>2026-04-06T18:48:52.998Z</time></trkpt><trkpt lat="37.62689571998108" lon="14.89560421026859"><ele>527.0</ele><time>2026-04-06T18:48:53.998Z</time></trkpt><trkpt lat="37.62673769755754" lon="14.895577055067657"><ele>526.3333333333333</ele><time>2026-04-06T18:48:54.998Z</time></trkpt><trkpt lat="37.62658059958729" lon="14.89554803893559"><ele>525.6666666666666</ele><time>2026-04-06T18:48:55.998Z</time></trkpt><trkpt lat="37.62642580014825" lon="14.895519255486079"><ele>525.0</ele><time>2026-04-06T18:48:56.998Z</time></trkpt><trkpt lat="37.62627763742991" lon="14.895494967435173"><ele>523.25</ele><time>2026-04-06T18:48:57.998Z</time></trkpt><trkpt lat="37.62612866861985" lon="14.895473472727339"><ele>521.5</ele><time>2026-04-06T18:48:58.998Z</time></trkpt><trkpt lat="37.62598104695651" lon="14.89545149717586"><ele>519.75</ele><time>2026-04-06T18:48:59.998Z</time></trkpt><trkpt lat="37.62583929223668" lon="14.895436940022464"><ele>518.0</ele><time>2026-04-06T18:49:00.998Z</time></trkpt><trkpt lat="37.62570112814723" lon="14.895431032224227"><ele>518.0</ele><time>2026-04-06T18:49:01.998Z</time></trkpt><trkpt lat="37.62556043019288" lon="14.895436039026105"><ele>518.0</ele><time>2026-04-06T18:49:02.998Z</time></trkpt><trkpt lat="37.62542320804074" lon="14.895460993875199"><ele>518.0</ele><time>2026-04-06T18:49:03.998Z</time></trkpt><trkpt lat="37.6252863220594" lon="14.89550453568984"><ele>518.0</ele><time>2026-04-06T18:49:04.998Z</time></trkpt><trkpt lat="37.62514542407742" lon="14.89553283981905"><ele>517.5</ele><time>2026-04-06T18:49:05.998Z</time></trkpt><trkpt lat="37.62501029944393" lon="14.895593139235531"><ele>517.0</ele><time>2026-04-06T18:49:07Z</time></trkpt><trkpt lat="37.62487632596974" lon="14.895665846731399"><ele>516.5</ele><time>2026-04-06T18:49:08Z</time></trkpt><trkpt lat="37.62475238390628" lon="14.895750636837061"><ele>516.0</ele><time>2026-04-06T18:49:09Z</time></trkpt><trkpt lat="37.6246362503001" lon="14.895839927297368"><ele>516.25</ele><time>2026-04-06T18:49:10Z</time></trkpt><trkpt lat="37.6245256863702" lon="14.895944696811931"><ele>516.5</ele><time>2026-04-06T18:49:11Z</time></trkpt><trkpt lat="37.6244196826038" lon="14.896058158316256"><ele>516.75</ele><time>2026-04-06T18:49:12Z</time></trkpt><trkpt lat="37.62432049681622" lon="14.896178989484751"><ele>517.0</ele><time>2026-04-06T18:49:13Z</time></trkpt><trkpt lat="37.62422950733911" lon="14.896307819401883"><ele>516.25</ele><time>2026-04-06T18:49:14Z</time></trkpt><trkpt lat="37.62414382803786" lon="14.896446141698785"><ele>515.5</ele><time>2026-04-06T18:49:15Z</time></trkpt><trkpt lat="37.62407009338375" lon="14.896601043198881"><ele>514.75</ele><time>2026-04-06T18:49:16Z</time></trkpt><trkpt lat="37.623984136182166" lon="14.896751656128028"><ele>514.0</ele><time>2026-04-06T18:49:17Z</time></trkpt><trkpt lat="37.623899164270505" lon="14.896907186507496"><ele>514.0</ele><time>2026-04-06T18:49:18Z</time></trkpt><trkpt lat="37.62381692355749" lon="14.897064251412584"><ele>514.0</ele><time>2026-04-06T18:49:19Z</time></trkpt><trkpt lat="37.62373625882989" lon="14.897222612104052"><ele>514.0</ele><time>2026-04-06T18:49:20Z</time></trkpt><trkpt lat="37.623656059447384" lon="14.897378388425171"><ele>514.0</ele><time>2026-04-06T18:49:21Z</time></trkpt><trkpt lat="37.62357713477829" lon="14.897531283848863"><ele>510.25</ele><time>2026-04-06T18:49:22Z</time></trkpt><trkpt lat="37.62349686823356" lon="14.89768289683045"><ele>506.5</ele><time>2026-04-06T18:49:23Z</time></trkpt><trkpt lat="37.62341495444343" lon="14.897837836272418"><ele>502.75</ele><time>2026-04-06T18:49:24Z</time></trkpt><trkpt lat="37.623332674068934" lon="14.897992592472782"><ele>499.0</ele><time>2026-04-06T18:49:25Z</time></trkpt><trkpt lat="37.62324965357227" lon="14.898146823926433"><ele>499.0</ele><time>2026-04-06T18:49:26Z</time></trkpt><trkpt lat="37.62316793865527" lon="14.898301081845027"><ele>499.0</ele><time>2026-04-06T18:49:27Z</time></trkpt><trkpt lat="37.62308535703557" lon="14.898452578161157"><ele>499.0</ele><time>2026-04-06T18:49:28Z</time></trkpt><trkpt lat="37.62300403467943" lon="14.898600194958467"><ele>499.0</ele><time>2026-04-06T18:49:29Z</time></trkpt><trkpt lat="37.62292291576216" lon="14.89874601705411"><ele>499.0</ele><time>2026-04-06T18:49:30Z</time></trkpt><trkpt lat="37.62283980708064" lon="14.898890492762357"><ele>499.0</ele><time>2026-04-06T18:49:31Z</time></trkpt><trkpt lat="37.62275296787982" lon="14.89902859633091"><ele>499.0</ele><time>2026-04-06T18:49:32Z</time></trkpt><trkpt lat="37.622659531346656" lon="14.89916168531614"><ele>499.0</ele><time>2026-04-06T18:49:33Z</time></trkpt><trkpt lat="37.62255777314082" lon="14.899287943602635"><ele>499.0</ele><time>2026-04-06T18:49:34Z</time></trkpt><trkpt lat="37.62244986320865" lon="14.89940493324884"><ele>499.0</ele><time>2026-04-06T18:49:35Z</time></trkpt><trkpt lat="37.62233298494136" lon="14.89951675059602"><ele>499.0</ele><time>2026-04-06T18:49:36Z</time></trkpt><trkpt lat="37.6222090356657" lon="14.899622449177663"><ele>499.0</ele><time>2026-04-06T18:49:37Z</time></trkpt><trkpt lat="37.622076978290615" lon="14.89972227060569"><ele>497.0</ele><time>2026-04-06T18:49:38Z</time></trkpt><trkpt lat="37.62193640372594" lon="14.899803523936328"><ele>495.0</ele><time>2026-04-06T18:49:39Z</time></trkpt><trkpt lat="37.62178976762835" lon="14.899875422876644"><ele>493.0</ele><time>2026-04-06T18:49:40Z</time></trkpt><trkpt lat="37.62163983799013" lon="14.899937052467216"><ele>493.0</ele><time>2026-04-06T18:49:41Z</time></trkpt><trkpt lat="37.6214888337269" lon="14.899991282768195"><ele>493.0</ele><time>2026-04-06T18:49:42Z</time></trkpt><trkpt lat="37.62133606634249" lon="14.90004369207492"><ele>493.0</ele><time>2026-04-06T18:49:43Z</time></trkpt><trkpt lat="37.62118111515805" lon="14.900094702069204"><ele>490.6666666666667</ele><time>2026-04-06T18:49:44Z</time></trkpt><trkpt lat="37.62102713485113" lon="14.900145247212238"><ele>488.33333333333337</ele><time>2026-04-06T18:49:45Z</time></trkpt><trkpt lat="37.62087306272231" lon="14.90019699094197"><ele>486.0</ele><time>2026-04-06T18:49:46Z</time></trkpt><trkpt lat="37.62071858131823" lon="14.900249051856406"><ele>486.0</ele><time>2026-04-06T18:49:47Z</time></trkpt><trkpt lat="37.62056518158588" lon="14.900299896674113"><ele>486.0</ele><time>2026-04-06T18:49:48Z</time></trkpt><trkpt lat="37.62041239303988" lon="14.900349985299554"><ele>486.0</ele><time>2026-04-06T18:49:49Z</time></trkpt><trkpt lat="37.62026073962325" lon="14.900399603213227"><ele>484.0</ele><time>2026-04-06T18:49:50Z</time></trkpt><trkpt lat="37.62011188324863" lon="14.900448909175564"><ele>482.0</ele><time>2026-04-06T18:49:51Z</time></trkpt><trkpt lat="37.61996133367022" lon="14.900496157049634"><ele>480.0</ele><time>2026-04-06T18:49:52Z</time></trkpt><trkpt lat="37.61980936344714" lon="14.90054369777052"><ele>480.0</ele><time>2026-04-06T18:49:53Z</time></trkpt><trkpt lat="37.619657152016025" lon="14.900591926265896"><ele>480.0</ele><time>2026-04-06T18:49:54Z</time></trkpt><trkpt lat="37.61950519932793" lon="14.900638612698424"><ele>480.0</ele><time>2026-04-06T18:49:55Z</time></trkpt><trkpt lat="37.619354026845635" lon="14.900684703509228"><ele>479.0</ele><time>2026-04-06T18:49:56Z</time></trkpt><trkpt lat="37.61920269937274" lon="14.900730357975291"><ele>478.0</ele><time>2026-04-06T18:49:57Z</time></trkpt><trkpt lat="37.61905231521257" lon="14.900777070862238"><ele>477.0</ele><time>2026-04-06T18:49:58Z</time></trkpt><trkpt lat="37.618902148564544" lon="14.9008253774796"><ele>477.0</ele><time>2026-04-06T18:49:58.999Z</time></trkpt><trkpt lat="37.61875181826898" lon="14.900873092060445"><ele>477.0</ele><time>2026-04-06T18:49:59.999Z</time></trkpt><trkpt lat="37.618601229028165" lon="14.900918893372598"><ele>477.0</ele><time>2026-04-06T18:50:00.999Z</time></trkpt><trkpt lat="37.61845342094177" lon="14.90096675755322"><ele>476.0</ele><time>2026-04-06T18:50:01.999Z</time></trkpt><trkpt lat="37.61830420016304" lon="14.901016094703158"><ele>475.0</ele><time>2026-04-06T18:50:02.999Z</time></trkpt><trkpt lat="37.61815470105503" lon="14.901065387686717"><ele>474.0</ele><time>2026-04-06T18:50:03.999Z</time></trkpt><trkpt lat="37.618006216027275" lon="14.9011129629053"><ele>474.0</ele><time>2026-04-06T18:50:04.999Z</time></trkpt><trkpt lat="37.61785647795525" lon="14.901161475702466"><ele>474.0</ele><time>2026-04-06T18:50:05.999Z</time></trkpt><trkpt lat="37.617708668149874" lon="14.901208551276326"><ele>474.0</ele><time>2026-04-06T18:50:06.999Z</time></trkpt><trkpt lat="37.61756016639018" lon="14.901256812018666"><ele>472.66666666666663</ele><time>2026-04-06T18:50:07.999Z</time></trkpt><trkpt lat="37.61741148673273" lon="14.901305996421979"><ele>471.3333333333333</ele><time>2026-04-06T18:50:08.999Z</time></trkpt><trkpt lat="37.61726351960959" lon="14.901353847059507"><ele>470.0</ele><time>2026-04-06T18:50:09.999Z</time></trkpt><trkpt lat="37.617115383162336" lon="14.901402573047593"><ele>468.3333333333333</ele><time>2026-04-06T18:50:10.999Z</time></trkpt><trkpt lat="37.616967828005606" lon="14.901450880281432"><ele>466.66666666666663</ele><time>2026-04-06T18:50:11.999Z</time></trkpt><trkpt lat="37.616819795882755" lon="14.901500610987943"><ele>465.0</ele><time>2026-04-06T18:50:12.999Z</time></trkpt><trkpt lat="37.61667193488513" lon="14.90155014399314"><ele>465.0</ele><time>2026-04-06T18:50:13.999Z</time></trkpt><trkpt lat="37.61652490808322" lon="14.901597598825601"><ele>465.0</ele><time>2026-04-06T18:50:14.999Z</time></trkpt><trkpt lat="37.616377970854195" lon="14.90164509161178"><ele>465.0</ele><time>2026-04-06T18:50:15.999Z</time></trkpt><trkpt lat="37.61623262486684" lon="14.90169117414668"><ele>465.25</ele><time>2026-04-06T18:50:16.999Z</time></trkpt><trkpt lat="37.616090180381114" lon="14.901739261895404"><ele>465.5</ele><time>2026-04-06T18:50:17.999Z</time></trkpt><trkpt lat="37.61595015453661" lon="14.901787589594482"><ele>465.75</ele><time>2026-04-06T18:50:18.999Z</time></trkpt><trkpt lat="37.61581416550844" lon="14.901836852512414"><ele>466.0</ele><time>2026-04-06T18:50:19.999Z</time></trkpt><trkpt lat="37.615681093075146" lon="14.901888445186255"><ele>466.0</ele><time>2026-04-06T18:50:20.999Z</time></trkpt><trkpt lat="37.615551532938014" lon="14.90194358557797"><ele>466.0</ele><time>2026-04-06T18:50:21.999Z</time></trkpt><trkpt lat="37.61543032923978" lon="14.902003508877653"><ele>466.0</ele><time>2026-04-06T18:50:22.999Z</time></trkpt><trkpt lat="37.61531651262359" lon="14.902062300062472"><ele>466.0</ele><time>2026-04-06T18:50:23.999Z</time></trkpt><trkpt lat="37.61520500807689" lon="14.902123324688285"><ele>464.0</ele><time>2026-04-06T18:50:24.999Z</time></trkpt><trkpt lat="37.61508346318246" lon="14.902197777699387"><ele>462.0</ele><time>2026-04-06T18:50:25.999Z</time></trkpt><trkpt lat="37.61494650584855" lon="14.902259561914573"><ele>460.0</ele><time>2026-04-06T18:50:26.999Z</time></trkpt><trkpt lat="37.614812319741525" lon="14.90235513770594"><ele>458.0</ele><time>2026-04-06T18:50:27.999Z</time></trkpt><trkpt lat="37.61468499714146" lon="14.90247289876241"><ele>458.0</ele><time>2026-04-06T18:50:28.999Z</time></trkpt><trkpt lat="37.61454852242974" lon="14.902580423887299"><ele>458.0</ele><time>2026-04-06T18:50:29.999Z</time></trkpt><trkpt lat="37.61441299406475" lon="14.902689058090019"><ele>458.0</ele><time>2026-04-06T18:50:30.999Z</time></trkpt><trkpt lat="37.61427714077419" lon="14.902799003981396"><ele>458.3333333333333</ele><time>2026-04-06T18:50:31.999Z</time></trkpt><trkpt lat="37.61413673463512" lon="14.902909634484017"><ele>458.66666666666663</ele><time>2026-04-06T18:50:32.999Z</time></trkpt><trkpt lat="37.61399894407457" lon="14.903027202390337"><ele>459.0</ele><time>2026-04-06T18:50:33.999Z</time></trkpt><trkpt lat="37.61385970665962" lon="14.903146502354257"><ele>459.0</ele><time>2026-04-06T18:50:34.999Z</time></trkpt><trkpt lat="37.61371815391398" lon="14.903266781534304"><ele>459.0</ele><time>2026-04-06T18:50:35.999Z</time></trkpt><trkpt lat="37.61357814467283" lon="14.903389119378112"><ele>459.0</ele><time>2026-04-06T18:50:36.999Z</time></trkpt><trkpt lat="37.613436032549586" lon="14.90351189124121"><ele>455.66666666666663</ele><time>2026-04-06T18:50:37.999Z</time></trkpt><trkpt lat="37.61329444573646" lon="14.903635427530356"><ele>452.3333333333333</ele><time>2026-04-06T18:50:38.999Z</time></trkpt><trkpt lat="37.61315311269338" lon="14.903756528010181"><ele>449.0</ele><time>2026-04-06T18:50:39.999Z</time></trkpt><trkpt lat="37.61301127990332" lon="14.903878551062308"><ele>449.0</ele><time>2026-04-06T18:50:40.999Z</time></trkpt><trkpt lat="37.612869885988744" lon="14.904000713985223"><ele>449.0</ele><time>2026-04-06T18:50:41.999Z</time></trkpt><trkpt lat="37.61272847740038" lon="14.904122743701432"><ele>449.0</ele><time>2026-04-06T18:50:42.998Z</time></trkpt><trkpt lat="37.61258649374663" lon="14.904245764036201"><ele>446.3333333333333</ele><time>2026-04-06T18:50:43.998Z</time></trkpt><trkpt lat="37.61244466068564" lon="14.904367861761143"><ele>443.66666666666663</ele><time>2026-04-06T18:50:44.998Z</time></trkpt><trkpt lat="37.6123052879588" lon="14.904490708653439"><ele>441.0</ele><time>2026-04-06T18:50:45.998Z</time></trkpt><trkpt lat="37.61216492217836" lon="14.90461312442531"><ele>441.0</ele><time>2026-04-06T18:50:46.998Z</time></trkpt><trkpt lat="37.61202348313964" lon="14.904734715300357"><ele>441.0</ele><time>2026-04-06T18:50:47.998Z</time></trkpt><trkpt lat="37.611882842011916" lon="14.904855829719315"><ele>441.0</ele><time>2026-04-06T18:50:48.998Z</time></trkpt><trkpt lat="37.61174174372526" lon="14.904976304981863"><ele>442.0</ele><time>2026-04-06T18:50:49.998Z</time></trkpt><trkpt lat="37.6115993584857" lon="14.90509760949556"><ele>443.0</ele><time>2026-04-06T18:50:50.998Z</time></trkpt><trkpt lat="37.61145519026659" lon="14.905218738588566"><ele>444.0</ele><time>2026-04-06T18:50:51.998Z</time></trkpt><trkpt lat="37.61131152171914" lon="14.905340388249583"><ele>444.0</ele><time>2026-04-06T18:50:52.998Z</time></trkpt><trkpt lat="37.61116603894711" lon="14.905464851580781"><ele>444.0</ele><time>2026-04-06T18:50:53.998Z</time></trkpt><trkpt lat="37.61102132553297" lon="14.905589870216678"><ele>444.0</ele><time>2026-04-06T18:50:54.998Z</time></trkpt><trkpt lat="37.610877100920355" lon="14.905714977815608"><ele>443.0</ele><time>2026-04-06T18:50:55.998Z</time></trkpt><trkpt lat="37.61073212789018" lon="14.905840517642059"><ele>442.0</ele><time>2026-04-06T18:50:56.998Z</time></trkpt><trkpt lat="37.6105902638352" lon="14.905962274418597"><ele>441.0</ele><time>2026-04-06T18:50:57.998Z</time></trkpt><trkpt lat="37.6104514876519" lon="14.906084664048173"><ele>438.66666666666663</ele><time>2026-04-06T18:50:58.998Z</time></trkpt><trkpt lat="37.61031177418646" lon="14.906205668764866"><ele>436.3333333333333</ele><time>2026-04-06T18:50:59.998Z</time></trkpt><trkpt lat="37.61017170727005" lon="14.906326310377885"><ele>434.0</ele><time>2026-04-06T18:51:00.998Z</time></trkpt><trkpt lat="37.61003255732295" lon="14.906444934698724"><ele>434.0</ele><time>2026-04-06T18:51:01.998Z</time></trkpt><trkpt lat="37.60989317182446" lon="14.90656212905905"><ele>434.0</ele><time>2026-04-06T18:51:02.998Z</time></trkpt><trkpt lat="37.60975694338826" lon="14.906679129389454"><ele>434.0</ele><time>2026-04-06T18:51:03.998Z</time></trkpt><trkpt lat="37.60962031873098" lon="14.906795987346275"><ele>433.0</ele><time>2026-04-06T18:51:04.998Z</time></trkpt><trkpt lat="37.609486070612" lon="14.90691228107891"><ele>432.0</ele><time>2026-04-06T18:51:05.998Z</time></trkpt><trkpt lat="37.609352603272306" lon="14.907027090435996"><ele>431.0</ele><time>2026-04-06T18:51:06.998Z</time></trkpt><trkpt lat="37.60921894153013" lon="14.907139259799422"><ele>431.0</ele><time>2026-04-06T18:51:07.998Z</time></trkpt><trkpt lat="37.60908752734053" lon="14.907251290550747"><ele>431.0</ele><time>2026-04-06T18:51:08.998Z</time></trkpt><trkpt lat="37.60895730159936" lon="14.907365101241771"><ele>431.0</ele><time>2026-04-06T18:51:09.998Z</time></trkpt><trkpt lat="37.6088278514822" lon="14.907478634464157"><ele>432.3333333333333</ele><time>2026-04-06T18:51:10.998Z</time></trkpt><trkpt lat="37.60869874032224" lon="14.90759009271774"><ele>433.66666666666663</ele><time>2026-04-06T18:51:11.998Z</time></trkpt><trkpt lat="37.60857088162029" lon="14.907700677216804"><ele>435.0</ele><time>2026-04-06T18:51:13Z</time></trkpt><trkpt lat="37.60844340050295" lon="14.907811772309492"><ele>432.33333333333337</ele><time>2026-04-06T18:51:14Z</time></trkpt><trkpt lat="37.608315568191585" lon="14.907922980023649"><ele>429.6666666666667</ele><time>2026-04-06T18:51:15Z</time></trkpt><trkpt lat="37.608185853215204" lon="14.908033004278053"><ele>427.0</ele><time>2026-04-06T18:51:16Z</time></trkpt><trkpt lat="37.60805557693749" lon="14.908136620887287"><ele>427.0</ele><time>2026-04-06T18:51:17Z</time></trkpt><trkpt lat="37.607927386515144" lon="14.908242496431983"><ele>427.0</ele><time>2026-04-06T18:51:18Z</time></trkpt><trkpt lat="37.60780110048316" lon="14.90835123556802"><ele>427.0</ele><time>2026-04-06T18:51:19Z</time></trkpt><trkpt lat="37.607674996976776" lon="14.908459999412708"><ele>426.0</ele><time>2026-04-06T18:51:20Z</time></trkpt><trkpt lat="37.60754933366513" lon="14.908569575090095"><ele>425.0</ele><time>2026-04-06T18:51:21Z</time></trkpt><trkpt lat="37.60742486651751" lon="14.90867835892134"><ele>424.0</ele><time>2026-04-06T18:51:22Z</time></trkpt><trkpt lat="37.60730012635309" lon="14.908788114601668"><ele>424.0</ele><time>2026-04-06T18:51:23Z</time></trkpt><trkpt lat="37.60717394426988" lon="14.908895783808058"><ele>424.0</ele><time>2026-04-06T18:51:24Z</time></trkpt><trkpt lat="37.60704870464473" lon="14.909003012942074"><ele>424.0</ele><time>2026-04-06T18:51:25Z</time></trkpt><trkpt lat="37.606921387933475" lon="14.909108746475631"><ele>422.0</ele><time>2026-04-06T18:51:26Z</time></trkpt><trkpt lat="37.60679522183177" lon="14.909214101792056"><ele>420.0</ele><time>2026-04-06T18:51:27Z</time></trkpt><trkpt lat="37.606669518019324" lon="14.909321874236698"><ele>418.0</ele><time>2026-04-06T18:51:28Z</time></trkpt><trkpt lat="37.60654543812111" lon="14.909429334516714"><ele>418.0</ele><time>2026-04-06T18:51:29Z</time></trkpt><trkpt lat="37.60642121314772" lon="14.909536353763166"><ele>418.0</ele><time>2026-04-06T18:51:30Z</time></trkpt><trkpt lat="37.60629621928644" lon="14.909643615969275"><ele>418.0</ele><time>2026-04-06T18:51:31Z</time></trkpt><trkpt lat="37.60617156194045" lon="14.909750593648651"><ele>416.33333333333337</ele><time>2026-04-06T18:51:32Z</time></trkpt><trkpt lat="37.60604652419556" lon="14.909856572221965"><ele>414.66666666666663</ele><time>2026-04-06T18:51:33Z</time></trkpt><trkpt lat="37.60592024770376" lon="14.909963715369177"><ele>413.0</ele><time>2026-04-06T18:51:34Z</time></trkpt><trkpt lat="37.60579648671109" lon="14.910069881520565"><ele>413.5</ele><time>2026-04-06T18:51:35Z</time></trkpt><trkpt lat="37.60567323746357" lon="14.910176807411878"><ele>414.0</ele><time>2026-04-06T18:51:36Z</time></trkpt><trkpt lat="37.60555031002388" lon="14.910285514024231"><ele>414.5</ele><time>2026-04-06T18:51:37Z</time></trkpt><trkpt lat="37.6054263751519" lon="14.910391582564484"><ele>415.0</ele><time>2026-04-06T18:51:38Z</time></trkpt><trkpt lat="37.6053035966391" lon="14.910497288549161"><ele>412.75</ele><time>2026-04-06T18:51:39Z</time></trkpt><trkpt lat="37.605180623716755" lon="14.91060439576281"><ele>410.5</ele><time>2026-04-06T18:51:40Z</time></trkpt><trkpt lat="37.60506150206544" lon="14.910710594292762"><ele>408.25</ele><time>2026-04-06T18:51:41Z</time></trkpt><trkpt lat="37.60494104376923" lon="14.910814716035636"><ele>406.0</ele><time>2026-04-06T18:51:42Z</time></trkpt><trkpt lat="37.60481705162443" lon="14.910915533523319"><ele>405.25</ele><time>2026-04-06T18:51:43Z</time></trkpt><trkpt lat="37.604691493864294" lon="14.91100995103013"><ele>404.5</ele><time>2026-04-06T18:51:44Z</time></trkpt><trkpt lat="37.60456284556145" lon="14.911097429345965"><ele>403.75</ele><time>2026-04-06T18:51:45Z</time></trkpt><trkpt lat="37.60443119513168" lon="14.9111757418462"><ele>403.0</ele><time>2026-04-06T18:51:46Z</time></trkpt><trkpt lat="37.60429833010815" lon="14.911246701731608"><ele>402.0</ele><time>2026-04-06T18:51:47Z</time></trkpt><trkpt lat="37.6041620306743" lon="14.91130821072389"><ele>401.0</ele><time>2026-04-06T18:51:48Z</time></trkpt><trkpt lat="37.604023610225155" lon="14.911359078535572"><ele>400.0</ele><time>2026-04-06T18:51:49Z</time></trkpt><trkpt lat="37.603882880241834" lon="14.911398855575808"><ele>399.0</ele><time>2026-04-06T18:51:50Z</time></trkpt><trkpt lat="37.60374202878505" lon="14.911429622657286"><ele>398.25</ele><time>2026-04-06T18:51:51Z</time></trkpt><trkpt lat="37.603601212903364" lon="14.911449596108444"><ele>397.5</ele><time>2026-04-06T18:51:52Z</time></trkpt><trkpt lat="37.60345956923426" lon="14.911458903487322"><ele>396.75</ele><time>2026-04-06T18:51:53Z</time></trkpt><trkpt lat="37.603318510943396" lon="14.911459751126204"><ele>396.0</ele><time>2026-04-06T18:51:54Z</time></trkpt><trkpt lat="37.60317911234008" lon="14.911452730592407"><ele>396.0</ele><time>2026-04-06T18:51:55Z</time></trkpt><trkpt lat="37.60304047244003" lon="14.911444999218974"><ele>396.0</ele><time>2026-04-06T18:51:56Z</time></trkpt><trkpt lat="37.60290117709876" lon="14.911437237659149"><ele>396.0</ele><time>2026-04-06T18:51:57Z</time></trkpt><trkpt lat="37.60276269357659" lon="14.911429950753247"><ele>396.0</ele><time>2026-04-06T18:51:57.999Z</time></trkpt><trkpt lat="37.60262363473727" lon="14.911425868272786"><ele>395.25</ele><time>2026-04-06T18:51:58.999Z</time></trkpt><trkpt lat="37.602485303964336" lon="14.91142128821266"><ele>394.5</ele><time>2026-04-06T18:51:59.999Z</time></trkpt><trkpt lat="37.60234737388925" lon="14.911414463445986"><ele>393.75</ele><time>2026-04-06T18:52:00.999Z</time></trkpt><trkpt lat="37.60220971589032" lon="14.911411958109575"><ele>393.0</ele><time>2026-04-06T18:52:01.999Z</time></trkpt><trkpt lat="37.602073078231356" lon="14.911407881678343"><ele>392.0</ele><time>2026-04-06T18:52:02.999Z</time></trkpt><trkpt lat="37.60193673292026" lon="14.911404585923952"><ele>391.0</ele><time>2026-04-06T18:52:03.999Z</time></trkpt><trkpt lat="37.60179994603748" lon="14.911401195300492"><ele>390.0</ele><time>2026-04-06T18:52:04.999Z</time></trkpt><trkpt lat="37.60166315987643" lon="14.911397207617924"><ele>389.0</ele><time>2026-04-06T18:52:05.999Z</time></trkpt><trkpt lat="37.60153088354172" lon="14.911392864170077"><ele>389.0</ele><time>2026-04-06T18:52:06.999Z</time></trkpt><trkpt lat="37.60138764553915" lon="14.911390593498387"><ele>389.0</ele><time>2026-04-06T18:52:07.999Z</time></trkpt><trkpt lat="37.601241527740505" lon="14.911383363727746"><ele>389.0</ele><time>2026-04-06T18:52:08.999Z</time></trkpt><trkpt lat="37.601092831363225" lon="14.911379628621972"><ele>389.0</ele><time>2026-04-06T18:52:09.999Z</time></trkpt><trkpt lat="37.600946293831456" lon="14.9113764118133"><ele>388.5</ele><time>2026-04-06T18:52:10.999Z</time></trkpt><trkpt lat="37.60079708202752" lon="14.911373265678101"><ele>388.0</ele><time>2026-04-06T18:52:11.999Z</time></trkpt><trkpt lat="37.600649574353085" lon="14.911367141159692"><ele>387.5</ele><time>2026-04-06T18:52:12.999Z</time></trkpt><trkpt lat="37.60050155179516" lon="14.911358848550321"><ele>387.0</ele><time>2026-04-06T18:52:13.999Z</time></trkpt><trkpt lat="37.600352566792324" lon="14.911350337430472"><ele>386.25</ele><time>2026-04-06T18:52:14.999Z</time></trkpt><trkpt lat="37.6002027728066" lon="14.911343318928582"><ele>385.5</ele><time>2026-04-06T18:52:15.999Z</time></trkpt><trkpt lat="37.60005204537154" lon="14.911337531840836"><ele>384.75</ele><time>2026-04-06T18:52:16.999Z</time></trkpt><trkpt lat="37.599903848383164" lon="14.911330911739668"><ele>384.0</ele><time>2026-04-06T18:52:17.999Z</time></trkpt><trkpt lat="37.59975603218764" lon="14.911329642612138"><ele>384.0</ele><time>2026-04-06T18:52:18.999Z</time></trkpt><trkpt lat="37.59960867494749" lon="14.911325722492482"><ele>384.0</ele><time>2026-04-06T18:52:19.999Z</time></trkpt><trkpt lat="37.599459840017886" lon="14.911322242141441"><ele>384.0</ele><time>2026-04-06T18:52:20.999Z</time></trkpt><trkpt lat="37.599311650051725" lon="14.911321697290584"><ele>384.0</ele><time>2026-04-06T18:52:21.999Z</time></trkpt><trkpt lat="37.59916393217936" lon="14.911324576657755"><ele>381.6666666666667</ele><time>2026-04-06T18:52:22.999Z</time></trkpt><trkpt lat="37.5990137372592" lon="14.911332968626997"><ele>379.33333333333337</ele><time>2026-04-06T18:52:23.999Z</time></trkpt><trkpt lat="37.598864020878814" lon="14.911352399358837"><ele>377.0</ele><time>2026-04-06T18:52:24.999Z</time></trkpt><trkpt lat="37.59871194543923" lon="14.911378415334283"><ele>374.6666666666667</ele><time>2026-04-06T18:52:25.999Z</time></trkpt><trkpt lat="37.59855971077603" lon="14.91140890246062"><ele>372.3333333333333</ele><time>2026-04-06T18:52:26.999Z</time></trkpt><trkpt lat="37.598407599380636" lon="14.9114489196695"><ele>370.0</ele><time>2026-04-06T18:52:27.999Z</time></trkpt><trkpt lat="37.598257495335" lon="14.911496066397165"><ele>370.0</ele><time>2026-04-06T18:52:28.999Z</time></trkpt><trkpt lat="37.59810945638623" lon="14.911550157486626"><ele>370.0</ele><time>2026-04-06T18:52:29.999Z</time></trkpt><trkpt lat="37.59796323834336" lon="14.911611581054835"><ele>370.0</ele><time>2026-04-06T18:52:30.999Z</time></trkpt><trkpt lat="37.59782037466699" lon="14.911678275497621"><ele>369.3333333333333</ele><time>2026-04-06T18:52:31.999Z</time></trkpt><trkpt lat="37.597680458480966" lon="14.911752806073657"><ele>368.6666666666667</ele><time>2026-04-06T18:52:32.999Z</time></trkpt><trkpt lat="37.59754108624969" lon="14.911828387847939"><ele>368.0</ele><time>2026-04-06T18:52:33.999Z</time></trkpt><trkpt lat="37.597401196475936" lon="14.911904800145306"><ele>368.0</ele><time>2026-04-06T18:52:34.999Z</time></trkpt><trkpt lat="37.59726012122445" lon="14.911982616735942"><ele>368.0</ele><time>2026-04-06T18:52:35.999Z</time></trkpt><trkpt lat="37.59711726637505" lon="14.912059644605472"><ele>368.0</ele><time>2026-04-06T18:52:36.999Z</time></trkpt><trkpt lat="37.59697367288925" lon="14.912136333332018"><ele>366.33333333333337</ele><time>2026-04-06T18:52:37.999Z</time></trkpt><trkpt lat="37.59682946997711" lon="14.912212547394413"><ele>364.6666666666667</ele><time>2026-04-06T18:52:38.999Z</time></trkpt><trkpt lat="37.59668584473405" lon="14.912289084117036"><ele>363.0</ele><time>2026-04-06T18:52:39.999Z</time></trkpt><trkpt lat="37.596539251546226" lon="14.912367512472372"><ele>363.0</ele><time>2026-04-06T18:52:40.998Z</time></trkpt><trkpt lat="37.596391108072595" lon="14.912446484968056"><ele>363.0</ele><time>2026-04-06T18:52:41.998Z</time></trkpt><trkpt lat="37.59624210196655" lon="14.912527842065833"><ele>363.0</ele><time>2026-04-06T18:52:42.998Z</time></trkpt><trkpt lat="37.59609517771904" lon="14.912610468169026"><ele>364.3333333333333</ele><time>2026-04-06T18:52:43.998Z</time></trkpt><trkpt lat="37.595947996513935" lon="14.912691892104842"><ele>365.66666666666663</ele><time>2026-04-06T18:52:44.998Z</time></trkpt><trkpt lat="37.59579975190929" lon="14.912775317783"><ele>367.0</ele><time>2026-04-06T18:52:45.998Z</time></trkpt><trkpt lat="37.59565167332329" lon="14.91285812978813"><ele>367.0</ele><time>2026-04-06T18:52:46.998Z</time></trkpt><trkpt lat="37.595502605283976" lon="14.912940414712011"><ele>367.0</ele><time>2026-04-06T18:52:47.998Z</time></trkpt><trkpt lat="37.59535127752072" lon="14.913024543383964"><ele>367.0</ele><time>2026-04-06T18:52:48.998Z</time></trkpt><trkpt lat="37.59519730307144" lon="14.913110728203444"><ele>365.3333333333333</ele><time>2026-04-06T18:52:49.998Z</time></trkpt><trkpt lat="37.59504403444627" lon="14.913195983493589"><ele>363.6666666666667</ele><time>2026-04-06T18:52:50.998Z</time></trkpt><trkpt lat="37.59489142472123" lon="14.913282214232357"><ele>362.0</ele><time>2026-04-06T18:52:51.998Z</time></trkpt><trkpt lat="37.59473733798259" lon="14.913367411263163"><ele>363.33333333333337</ele><time>2026-04-06T18:52:52.998Z</time></trkpt><trkpt lat="37.59458353014262" lon="14.913449684465919"><ele>364.6666666666667</ele><time>2026-04-06T18:52:53.998Z</time></trkpt><trkpt lat="37.594429430767335" lon="14.913532263867934"><ele>366.0</ele><time>2026-04-06T18:52:54.998Z</time></trkpt><trkpt lat="37.59427371845219" lon="14.91361607661291"><ele>366.0</ele><time>2026-04-06T18:52:55.998Z</time></trkpt><trkpt lat="37.59412245047059" lon="14.913700826280227"><ele>366.0</ele><time>2026-04-06T18:52:56.998Z</time></trkpt><trkpt lat="37.59397156619936" lon="14.913788893651315"><ele>366.0</ele><time>2026-04-06T18:52:57.998Z</time></trkpt><trkpt lat="37.59381874921829" lon="14.913875469773508"><ele>364.6666666666667</ele><time>2026-04-06T18:52:58.998Z</time></trkpt><trkpt lat="37.593667402393514" lon="14.91396129193384"><ele>363.33333333333337</ele><time>2026-04-06T18:52:59.998Z</time></trkpt><trkpt lat="37.59351573504706" lon="14.91404771105188"><ele>362.0</ele><time>2026-04-06T18:53:00.998Z</time></trkpt><trkpt lat="37.59336655190152" lon="14.914135519491094"><ele>362.0</ele><time>2026-04-06T18:53:01.998Z</time></trkpt><trkpt lat="37.59321791807262" lon="14.914225123636468"><ele>362.0</ele><time>2026-04-06T18:53:02.998Z</time></trkpt><trkpt lat="37.59306900745951" lon="14.914305811071612"><ele>362.0</ele><time>2026-04-06T18:53:03.998Z</time></trkpt><trkpt lat="37.59292086080369" lon="14.914387507564175"><ele>361.0</ele><time>2026-04-06T18:53:04.998Z</time></trkpt><trkpt lat="37.59277339081185" lon="14.914467810512045"><ele>360.0</ele><time>2026-04-06T18:53:05.998Z</time></trkpt><trkpt lat="37.59262756362792" lon="14.914543688412738"><ele>359.0</ele><time>2026-04-06T18:53:06.998Z</time></trkpt><trkpt lat="37.592484374535736" lon="14.914620739196135"><ele>359.0</ele><time>2026-04-06T18:53:07.998Z</time></trkpt><trkpt lat="37.592340994914544" lon="14.914698647204933"><ele>359.0</ele><time>2026-04-06T18:53:08.998Z</time></trkpt><trkpt lat="37.59219666222497" lon="14.914777767446191"><ele>359.0</ele><time>2026-04-06T18:53:09.998Z</time></trkpt><trkpt lat="37.592050776204246" lon="14.914854219750003"><ele>358.33333333333337</ele><time>2026-04-06T18:53:10.998Z</time></trkpt><trkpt lat="37.591906921597385" lon="14.914933942555347"><ele>357.6666666666667</ele><time>2026-04-06T18:53:11.998Z</time></trkpt><trkpt lat="37.59176253560224" lon="14.915015377624226"><ele>357.0</ele><time>2026-04-06T18:53:12.998Z</time></trkpt><trkpt lat="37.59161870475387" lon="14.915098653049553"><ele>359.0</ele><time>2026-04-06T18:53:13.998Z</time></trkpt><trkpt lat="37.59147317303835" lon="14.91517759264992"><ele>361.0</ele><time>2026-04-06T18:53:14.998Z</time></trkpt><trkpt lat="37.5913267206387" lon="14.91525964760537"><ele>363.0</ele><time>2026-04-06T18:53:15.998Z</time></trkpt><trkpt lat="37.59118197893929" lon="14.915340604432787"><ele>360.6666666666667</ele><time>2026-04-06T18:53:16.998Z</time></trkpt><trkpt lat="37.5910374477986" lon="14.915418739902403"><ele>358.33333333333337</ele><time>2026-04-06T18:53:17.998Z</time></trkpt><trkpt lat="37.59089312248623" lon="14.91549756657225"><ele>356.0</ele><time>2026-04-06T18:53:19Z</time></trkpt><trkpt lat="37.59075256448255" lon="14.915576427977927"><ele>356.0</ele><time>2026-04-06T18:53:20Z</time></trkpt><trkpt lat="37.59061065716996" lon="14.915651968333442"><ele>356.0</ele><time>2026-04-06T18:53:21Z</time></trkpt><trkpt lat="37.590465852671755" lon="14.915717094655994"><ele>356.0</ele><time>2026-04-06T18:53:22Z</time></trkpt><trkpt lat="37.59031871516987" lon="14.915773368761325"><ele>354.6666666666667</ele><time>2026-04-06T18:53:23Z</time></trkpt><trkpt lat="37.59017144849364" lon="14.915829692522424"><ele>353.3333333333333</ele><time>2026-04-06T18:53:24Z</time></trkpt><trkpt lat="37.59002397290467" lon="14.915878517802895"><ele>352.0</ele><time>2026-04-06T18:53:25Z</time></trkpt><trkpt lat="37.58987613693924" lon="14.915919266388983"><ele>352.0</ele><time>2026-04-06T18:53:26Z</time></trkpt><trkpt lat="37.589727891375816" lon="14.915954135392505"><ele>352.0</ele><time>2026-04-06T18:53:27Z</time></trkpt><trkpt lat="37.58957982513686" lon="14.915985641683026"><ele>352.0</ele><time>2026-04-06T18:53:28Z</time></trkpt><trkpt lat="37.58943101735561" lon="14.916008134004384"><ele>351.3333333333333</ele><time>2026-04-06T18:53:29Z</time></trkpt><trkpt lat="37.58928054598141" lon="14.916024845287597"><ele>350.6666666666667</ele><time>2026-04-06T18:53:30Z</time></trkpt><trkpt lat="37.58913164822315" lon="14.91604224983787"><ele>350.0</ele><time>2026-04-06T18:53:31Z</time></trkpt><trkpt lat="37.588981833537325" lon="14.916058771922923"><ele>350.0</ele><time>2026-04-06T18:53:32Z</time></trkpt><trkpt lat="37.588829523310025" lon="14.916070712060627"><ele>350.0</ele><time>2026-04-06T18:53:33Z</time></trkpt><trkpt lat="37.58868201125138" lon="14.916089260117854"><ele>350.0</ele><time>2026-04-06T18:53:34Z</time></trkpt><trkpt lat="37.58853458829761" lon="14.916108180781919"><ele>350.0</ele><time>2026-04-06T18:53:35Z</time></trkpt><trkpt lat="37.5883885673705" lon="14.91612007105554"><ele>350.0</ele><time>2026-04-06T18:53:36Z</time></trkpt><trkpt lat="37.58824487060356" lon="14.916126278881741"><ele>350.0</ele><time>2026-04-06T18:53:37Z</time></trkpt><trkpt lat="37.5881038069225" lon="14.916137629932537"><ele>350.0</ele><time>2026-04-06T18:53:38Z</time></trkpt><trkpt lat="37.58796611532834" lon="14.916155342942464"><ele>350.0</ele><time>2026-04-06T18:53:39Z</time></trkpt><trkpt lat="37.58782655519622" lon="14.916168328954337"><ele>347.5</ele><time>2026-04-06T18:53:40Z</time></trkpt><trkpt lat="37.58768811446087" lon="14.91618040686052"><ele>345.0</ele><time>2026-04-06T18:53:41Z</time></trkpt><trkpt lat="37.58755015832411" lon="14.916193232946288"><ele>342.5</ele><time>2026-04-06T18:53:42Z</time></trkpt><trkpt lat="37.58741308618283" lon="14.916207369293065"><ele>340.0</ele><time>2026-04-06T18:53:43Z</time></trkpt><trkpt lat="37.587276265767336" lon="14.916222540734557"><ele>340.0</ele><time>2026-04-06T18:53:44Z</time></trkpt><trkpt lat="37.587139233325836" lon="14.916236856294821"><ele>340.0</ele><time>2026-04-06T18:53:45Z</time></trkpt><trkpt lat="37.58700293403644" lon="14.916250401286513"><ele>340.0</ele><time>2026-04-06T18:53:46Z</time></trkpt><trkpt lat="37.58687265832285" lon="14.916263402601972"><ele>340.0</ele><time>2026-04-06T18:53:47Z</time></trkpt><trkpt lat="37.586742196702666" lon="14.916278355378447"><ele>339.0</ele><time>2026-04-06T18:53:48Z</time></trkpt><trkpt lat="37.58660688487235" lon="14.916291916794458"><ele>338.0</ele><time>2026-04-06T18:53:49Z</time></trkpt><trkpt lat="37.58647026519414" lon="14.916304363020465"><ele>337.0</ele><time>2026-04-06T18:53:50Z</time></trkpt><trkpt lat="37.5863324264718" lon="14.916317963098981"><ele>336.0</ele><time>2026-04-06T18:53:51Z</time></trkpt><trkpt lat="37.586192946344724" lon="14.916333506990242"><ele>334.5</ele><time>2026-04-06T18:53:52Z</time></trkpt><trkpt lat="37.586053241824395" lon="14.91634796509876"><ele>333.0</ele><time>2026-04-06T18:53:53Z</time></trkpt><trkpt lat="37.58591221411791" lon="14.916365131011613"><ele>331.5</ele><time>2026-04-06T18:53:54Z</time></trkpt><trkpt lat="37.58577234322617" lon="14.916382201589348"><ele>330.0</ele><time>2026-04-06T18:53:55Z</time></trkpt><trkpt lat="37.58563273246382" lon="14.916397603168024"><ele>330.0</ele><time>2026-04-06T18:53:56Z</time></trkpt><trkpt lat="37.58549512486749" lon="14.916419577241147"><ele>330.0</ele><time>2026-04-06T18:53:57Z</time></trkpt><trkpt lat="37.5853584993143" lon="14.916444010897708"><ele>330.0</ele><time>2026-04-06T18:53:58Z</time></trkpt><trkpt lat="37.585220285010344" lon="14.916465237220512"><ele>330.0</ele><time>2026-04-06T18:53:59Z</time></trkpt><trkpt lat="37.58507940822552" lon="14.916493613053722"><ele>330.0</ele><time>2026-04-06T18:54:00Z</time></trkpt><trkpt lat="37.5849329880316" lon="14.916524727414664"><ele>330.0</ele><time>2026-04-06T18:54:01Z</time></trkpt><trkpt lat="37.58478608914745" lon="14.91656259153567"><ele>330.0</ele><time>2026-04-06T18:54:02Z</time></trkpt><trkpt lat="37.58464014326607" lon="14.916603151101922"><ele>330.0</ele><time>2026-04-06T18:54:03Z</time></trkpt><trkpt lat="37.58449460881856" lon="14.916644720390853"><ele>329.3333333333333</ele><time>2026-04-06T18:54:04Z</time></trkpt><trkpt lat="37.58434839708412" lon="14.916683278331373"><ele>328.66666666666663</ele><time>2026-04-06T18:54:05Z</time></trkpt><trkpt lat="37.58420283817497" lon="14.916729446438827"><ele>328.0</ele><time>2026-04-06T18:54:06Z</time></trkpt><trkpt lat="37.58405575205051" lon="14.916777332906962"><ele>328.0</ele><time>2026-04-06T18:54:07Z</time></trkpt><trkpt lat="37.58390859719383" lon="14.916826565486645"><ele>328.0</ele><time>2026-04-06T18:54:08Z</time></trkpt><trkpt lat="37.58375926159502" lon="14.916880498198951"><ele>328.0</ele><time>2026-04-06T18:54:09Z</time></trkpt><trkpt lat="37.583609390851414" lon="14.916932444455657"><ele>328.0</ele><time>2026-04-06T18:54:10Z</time></trkpt><trkpt lat="37.58345899574796" lon="14.916986456588166"><ele>328.0</ele><time>2026-04-06T18:54:11Z</time></trkpt><trkpt lat="37.58330830486851" lon="14.91703982101176"><ele>328.0</ele><time>2026-04-06T18:54:12Z</time></trkpt><trkpt lat="37.58315788262432" lon="14.917093096808548"><ele>328.0</ele><time>2026-04-06T18:54:13Z</time></trkpt><trkpt lat="37.58300733559288" lon="14.917146662059206"><ele>328.0</ele><time>2026-04-06T18:54:13.999Z</time></trkpt><trkpt lat="37.582854668722995" lon="14.917201158602579"><ele>328.0</ele><time>2026-04-06T18:54:14.999Z</time></trkpt><trkpt lat="37.58270113111068" lon="14.91725515967087"><ele>325.3333333333333</ele><time>2026-04-06T18:54:15.999Z</time></trkpt><trkpt lat="37.58254913668411" lon="14.917311309691678"><ele>322.6666666666667</ele><time>2026-04-06T18:54:16.999Z</time></trkpt><trkpt lat="37.58239960623759" lon="14.91736328855268"><ele>320.0</ele><time>2026-04-06T18:54:17.999Z</time></trkpt><trkpt lat="37.5822510953616" lon="14.917419881024875"><ele>320.0</ele><time>2026-04-06T18:54:18.999Z</time></trkpt><trkpt lat="37.58210528933571" lon="14.917474861803173"><ele>320.0</ele><time>2026-04-06T18:54:19.999Z</time></trkpt><trkpt lat="37.58196018943145" lon="14.917528478421803"><ele>320.0</ele><time>2026-04-06T18:54:20.999Z</time></trkpt><trkpt lat="37.58181796484743" lon="14.917580488072069"><ele>320.5</ele><time>2026-04-06T18:54:21.999Z</time></trkpt><trkpt lat="37.581676248977246" lon="14.917629849131501"><ele>321.0</ele><time>2026-04-06T18:54:22.999Z</time></trkpt><trkpt lat="37.58153476215035" lon="14.917679204885518"><ele>321.5</ele><time>2026-04-06T18:54:23.999Z</time></trkpt><trkpt lat="37.581394923894514" lon="14.917732182781464"><ele>322.0</ele><time>2026-04-06T18:54:24.999Z</time></trkpt><trkpt lat="37.58125529724302" lon="14.917783314678429"><ele>320.75</ele><time>2026-04-06T18:54:25.999Z</time></trkpt><trkpt lat="37.58111364901737" lon="14.917836168687835"><ele>319.5</ele><time>2026-04-06T18:54:26.999Z</time></trkpt><trkpt lat="37.580971196746574" lon="14.91788421545849"><ele>318.25</ele><time>2026-04-06T18:54:27.999Z</time></trkpt><trkpt lat="37.580828792757515" lon="14.917929419233218"><ele>317.0</ele><time>2026-04-06T18:54:28.999Z</time></trkpt><trkpt lat="37.58068650297429" lon="14.91797715678239"><ele>317.0</ele><time>2026-04-06T18:54:29.999Z</time></trkpt><trkpt lat="37.58054626188358" lon="14.918027083692541"><ele>317.0</ele><time>2026-04-06T18:54:30.999Z</time></trkpt><trkpt lat="37.58040611398503" lon="14.918077018864851"><ele>317.0</ele><time>2026-04-06T18:54:31.999Z</time></trkpt><trkpt lat="37.58026711578199" lon="14.918125959713656"><ele>317.0</ele><time>2026-04-06T18:54:32.999Z</time></trkpt><trkpt lat="37.58012758481954" lon="14.91817353684444"><ele>316.5</ele><time>2026-04-06T18:54:33.999Z</time></trkpt><trkpt lat="37.5799910844207" lon="14.918222227199166"><ele>316.0</ele><time>2026-04-06T18:54:34.999Z</time></trkpt><trkpt lat="37.57985441059879" lon="14.918272653913935"><ele>315.5</ele><time>2026-04-06T18:54:35.999Z</time></trkpt><trkpt lat="37.579717071314604" lon="14.918322939756093"><ele>315.0</ele><time>2026-04-06T18:54:36.999Z</time></trkpt><trkpt lat="37.5795796732183" lon="14.918370379232773"><ele>314.0</ele><time>2026-04-06T18:54:37.999Z</time></trkpt><trkpt lat="37.57944430960651" lon="14.918419408408436"><ele>313.0</ele><time>2026-04-06T18:54:38.999Z</time></trkpt><trkpt lat="37.579309376526055" lon="14.918467411469807"><ele>312.0</ele><time>2026-04-06T18:54:39.999Z</time></trkpt><trkpt lat="37.5791742306503" lon="14.918513946081202"><ele>311.0</ele><time>2026-04-06T18:54:40.999Z</time></trkpt><trkpt lat="37.579040606932026" lon="14.918560083449089"><ele>311.0</ele><time>2026-04-06T18:54:41.999Z</time></trkpt><trkpt lat="37.57890844520101" lon="14.918604419631073"><ele>311.0</ele><time>2026-04-06T18:54:42.999Z</time></trkpt><trkpt lat="37.578778480000146" lon="14.918648065785437"><ele>311.0</ele><time>2026-04-06T18:54:43.999Z</time></trkpt><trkpt lat="37.57864872802911" lon="14.918690283373042"><ele>311.0</ele><time>2026-04-06T18:54:44.999Z</time></trkpt><trkpt lat="37.57851998216489" lon="14.918729515395267"><ele>310.5</ele><time>2026-04-06T18:54:45.999Z</time></trkpt><trkpt lat="37.578391580019264" lon="14.918763942126931"><ele>310.0</ele><time>2026-04-06T18:54:46.999Z</time></trkpt><trkpt lat="37.5782619929018" lon="14.918784378735316"><ele>309.5</ele><time>2026-04-06T18:54:47.999Z</time></trkpt><trkpt lat="37.578130571812515" lon="14.918792261563539"><ele>309.0</ele><time>2026-04-06T18:54:48.999Z</time></trkpt><trkpt lat="37.57799264768809" lon="14.918797827202958"><ele>309.0</ele><time>2026-04-06T18:54:49.999Z</time></trkpt><trkpt lat="37.57785239078076" lon="14.918797596492356"><ele>309.0</ele><time>2026-04-06T18:54:50.999Z</time></trkpt><trkpt lat="37.57771278504189" lon="14.918792734667752"><ele>309.0</ele><time>2026-04-06T18:54:51.999Z</time></trkpt><trkpt lat="37.577566222869066" lon="14.918776881969908"><ele>309.0</ele><time>2026-04-06T18:54:52.999Z</time></trkpt><trkpt lat="37.57741922856696" lon="14.918747671670882"><ele>308.0</ele><time>2026-04-06T18:54:53.999Z</time></trkpt><trkpt lat="37.57727572984627" lon="14.918704800979329"><ele>307.0</ele><time>2026-04-06T18:54:54.999Z</time></trkpt><trkpt lat="37.577132390197036" lon="14.918650211951572"><ele>306.0</ele><time>2026-04-06T18:54:55.999Z</time></trkpt><trkpt lat="37.5769899855929" lon="14.91858768456111"><ele>305.0</ele><time>2026-04-06T18:54:56.999Z</time></trkpt><trkpt lat="37.57684783913132" lon="14.918519606547529"><ele>304.33333333333337</ele><time>2026-04-06T18:54:57.998Z</time></trkpt><trkpt lat="37.576705684796394" lon="14.918447354232619"><ele>303.6666666666667</ele><time>2026-04-06T18:54:58.998Z</time></trkpt><trkpt lat="37.57656310485512" lon="14.918370181314373"><ele>303.0</ele><time>2026-04-06T18:54:59.998Z</time></trkpt><trkpt lat="37.57642100387541" lon="14.918293810581678"><ele>302.3333333333333</ele><time>2026-04-06T18:55:00.998Z</time></trkpt><trkpt lat="37.5762777900625" lon="14.91821517496815"><ele>301.66666666666663</ele><time>2026-04-06T18:55:01.998Z</time></trkpt><trkpt lat="37.57613529816202" lon="14.918137187162193"><ele>301.0</ele><time>2026-04-06T18:55:02.998Z</time></trkpt><trkpt lat="37.57599484515053" lon="14.918060770306177"><ele>301.0</ele><time>2026-04-06T18:55:03.998Z</time></trkpt><trkpt lat="37.575855575159075" lon="14.917988445778269"><ele>301.0</ele><time>2026-04-06T18:55:04.998Z</time></trkpt><trkpt lat="37.57571848409005" lon="14.91791165881259"><ele>301.0</ele><time>2026-04-06T18:55:05.998Z</time></trkpt><trkpt lat="37.57558410395343" lon="14.917835160326046"><ele>301.0</ele><time>2026-04-06T18:55:06.998Z</time></trkpt><trkpt lat="37.57545171952974" lon="14.917756148570742"><ele>300.25</ele><time>2026-04-06T18:55:07.998Z</time></trkpt><trkpt lat="37.57531785861925" lon="14.917682180505729"><ele>299.5</ele><time>2026-04-06T18:55:08.998Z</time></trkpt><trkpt lat="37.57518398350112" lon="14.9176062592785"><ele>298.75</ele><time>2026-04-06T18:55:09.998Z</time></trkpt><trkpt lat="37.57504864704004" lon="14.917533980830337"><ele>298.0</ele><time>2026-04-06T18:55:10.998Z</time></trkpt><trkpt lat="37.57491421088596" lon="14.917462751525937"><ele>297.75</ele><time>2026-04-06T18:55:11.998Z</time></trkpt><trkpt lat="37.57478460802642" lon="14.917392136483372"><ele>297.5</ele><time>2026-04-06T18:55:12.998Z</time></trkpt><trkpt lat="37.57465603613906" lon="14.917324012282307"><ele>297.25</ele><time>2026-04-06T18:55:13.998Z</time></trkpt><trkpt lat="37.57452638232674" lon="14.917256853165451"><ele>297.0</ele><time>2026-04-06T18:55:14.998Z</time></trkpt><trkpt lat="37.574396829315035" lon="14.917184220837472"><ele>297.0</ele><time>2026-04-06T18:55:15.998Z</time></trkpt><trkpt lat="37.574265779555745" lon="14.91711003628201"><ele>297.0</ele><time>2026-04-06T18:55:16.998Z</time></trkpt><trkpt lat="37.57412958277044" lon="14.917046751460319"><ele>297.0</ele><time>2026-04-06T18:55:17.998Z</time></trkpt><trkpt lat="37.57399665469268" lon="14.916969908245818"><ele>297.0</ele><time>2026-04-06T18:55:18.998Z</time></trkpt><trkpt lat="37.57385676950999" lon="14.916911055395342"><ele>297.0</ele><time>2026-04-06T18:55:19.998Z</time></trkpt><trkpt lat="37.5737126579899" lon="14.916855053657292"><ele>297.0</ele><time>2026-04-06T18:55:20.998Z</time></trkpt><trkpt lat="37.57356594737231" lon="14.91680213276897"><ele>297.0</ele><time>2026-04-06T18:55:21.998Z</time></trkpt><trkpt lat="37.57341594067427" lon="14.916772810642914"><ele>291.0</ele><time>2026-04-06T18:55:22.998Z</time></trkpt><trkpt lat="37.573268683978384" lon="14.91672125227861"><ele>285.0</ele><time>2026-04-06T18:55:24.001Z</time></trkpt><trkpt lat="37.57312314638159" lon="14.916671617187019"><ele>279.0</ele><time>2026-04-06T18:55:25.001Z</time></trkpt><trkpt lat="37.572976528239245" lon="14.916619887981298"><ele>279.5</ele><time>2026-04-06T18:55:26.001Z</time></trkpt><trkpt lat="37.57283031016568" lon="14.916573879705757"><ele>280.0</ele><time>2026-04-06T18:55:27.001Z</time></trkpt><trkpt lat="37.572686194672166" lon="14.916527891856978"><ele>280.5</ele><time>2026-04-06T18:55:28.001Z</time></trkpt><trkpt lat="37.572545046834485" lon="14.916479358987903"><ele>281.0</ele><time>2026-04-06T18:55:29.001Z</time></trkpt><trkpt lat="37.572402970826495" lon="14.91643167842442"><ele>281.0</ele><time>2026-04-06T18:55:30.001Z</time></trkpt><trkpt lat="37.57226270793711" lon="14.916380812103519"><ele>281.0</ele><time>2026-04-06T18:55:31.001Z</time></trkpt><trkpt lat="37.572121425043726" lon="14.916330984254346"><ele>281.0</ele><time>2026-04-06T18:55:32.001Z</time></trkpt><trkpt lat="37.571977320726255" lon="14.916282432631226"><ele>281.0</ele><time>2026-04-06T18:55:33.001Z</time></trkpt><trkpt lat="37.5718300080499" lon="14.916235252895335"><ele>281.33333333333337</ele><time>2026-04-06T18:55:34.001Z</time></trkpt><trkpt lat="37.57168286845625" lon="14.916186098620482"><ele>281.6666666666667</ele><time>2026-04-06T18:55:35.001Z</time></trkpt><trkpt lat="37.57153507169468" lon="14.916141880165474"><ele>282.0</ele><time>2026-04-06T18:55:36.001Z</time></trkpt><trkpt lat="37.5713872229897" lon="14.916096716419341"><ele>282.0</ele><time>2026-04-06T18:55:37.001Z</time></trkpt><trkpt lat="37.57123896908454" lon="14.91605635140717"><ele>282.0</ele><time>2026-04-06T18:55:38Z</time></trkpt><trkpt lat="37.571091740955985" lon="14.916018128010116"><ele>282.0</ele><time>2026-04-06T18:55:39Z</time></trkpt><trkpt lat="37.57094485669143" lon="14.915984230480264"><ele>282.25</ele><time>2026-04-06T18:55:40Z</time></trkpt><trkpt lat="37.57079578461712" lon="14.915961358387907"><ele>282.5</ele><time>2026-04-06T18:55:41Z</time></trkpt><trkpt lat="37.57064746098625" lon="14.915956893376297"><ele>282.75</ele><time>2026-04-06T18:55:42Z</time></trkpt><trkpt lat="37.5704975084179" lon="14.91596082518884"><ele>283.0</ele><time>2026-04-06T18:55:43Z</time></trkpt><trkpt lat="37.5703488857032" lon="14.915979193222737"><ele>283.75</ele><time>2026-04-06T18:55:44Z</time></trkpt><trkpt lat="37.57020207415025" lon="14.916003187996596"><ele>284.5</ele><time>2026-04-06T18:55:45Z</time></trkpt><trkpt lat="37.57005553888365" lon="14.916037938979274"><ele>285.25</ele><time>2026-04-06T18:55:46Z</time></trkpt><trkpt lat="37.56990798479877" lon="14.916073388567895"><ele>286.0</ele><time>2026-04-06T18:55:47Z</time></trkpt><trkpt lat="37.5697609051414" lon="14.916109907656807"><ele>286.0</ele><time>2026-04-06T18:55:48Z</time></trkpt><trkpt lat="37.56961367559481" lon="14.916158435444649"><ele>286.0</ele><time>2026-04-06T18:55:49Z</time></trkpt><trkpt lat="37.56946625289329" lon="14.916201485004118"><ele>286.0</ele><time>2026-04-06T18:55:50Z</time></trkpt><trkpt lat="37.569317394925356" lon="14.916244313446176"><ele>286.0</ele><time>2026-04-06T18:55:51Z</time></trkpt><trkpt lat="37.56916835984514" lon="14.916285782234466"><ele>286.0</ele><time>2026-04-06T18:55:52Z</time></trkpt><trkpt lat="37.56901640396091" lon="14.916325473554572"><ele>286.0</ele><time>2026-04-06T18:55:53Z</time></trkpt><trkpt lat="37.56886337826761" lon="14.91636462273615"><ele>286.0</ele><time>2026-04-06T18:55:54Z</time></trkpt><trkpt lat="37.56870929448542" lon="14.916406069481281"><ele>286.0</ele><time>2026-04-06T18:55:55Z</time></trkpt><trkpt lat="37.56855327869168" lon="14.916449821639045"><ele>286.0</ele><time>2026-04-06T18:55:56Z</time></trkpt><trkpt lat="37.56839541873298" lon="14.916493250045987"><ele>283.3333333333333</ele><time>2026-04-06T18:55:57Z</time></trkpt><trkpt lat="37.56823639526945" lon="14.916536897429541"><ele>280.6666666666667</ele><time>2026-04-06T18:55:58Z</time></trkpt><trkpt lat="37.5680755169322" lon="14.916581578039061"><ele>278.0</ele><time>2026-04-06T18:55:59Z</time></trkpt><trkpt lat="37.56791088154588" lon="14.916627785605492"><ele>278.33333333333337</ele><time>2026-04-06T18:56:00Z</time></trkpt><trkpt lat="37.56774389461216" lon="14.916670675287756"><ele>278.6666666666667</ele><time>2026-04-06T18:56:01Z</time></trkpt><trkpt lat="37.5675749570375" lon="14.916714969734011"><ele>279.0</ele><time>2026-04-06T18:56:02Z</time></trkpt><trkpt lat="37.56740482439107" lon="14.916762246553377"><ele>279.0</ele><time>2026-04-06T18:56:03Z</time></trkpt><trkpt lat="37.567235261559155" lon="14.91681105793414"><ele>279.0</ele><time>2026-04-06T18:56:04Z</time></trkpt><trkpt lat="37.56706757330042" lon="14.916862950533925"><ele>279.0</ele><time>2026-04-06T18:56:05Z</time></trkpt><trkpt lat="37.56689786517612" lon="14.916918304534319"><ele>278.6666666666667</ele><time>2026-04-06T18:56:06Z</time></trkpt><trkpt lat="37.56672756325985" lon="14.916979685019037"><ele>278.33333333333337</ele><time>2026-04-06T18:56:07Z</time></trkpt><trkpt lat="37.56655969931399" lon="14.917047423494564"><ele>278.0</ele><time>2026-04-06T18:56:08Z</time></trkpt><trkpt lat="37.56639416335952" lon="14.917124087785965"><ele>278.0</ele><time>2026-04-06T18:56:09Z</time></trkpt><trkpt lat="37.566231868379994" lon="14.917210984445274"><ele>278.0</ele><time>2026-04-06T18:56:10Z</time></trkpt><trkpt lat="37.56607250257047" lon="14.917307584289158"><ele>278.0</ele><time>2026-04-06T18:56:11Z</time></trkpt><trkpt lat="37.56591420722748" lon="14.91741127274469"><ele>278.33333333333337</ele><time>2026-04-06T18:56:12Z</time></trkpt><trkpt lat="37.565758549008365" lon="14.917523067061069"><ele>278.6666666666667</ele><time>2026-04-06T18:56:13Z</time></trkpt><trkpt lat="37.56560487801812" lon="14.917641332260413"><ele>279.0</ele><time>2026-04-06T18:56:14Z</time></trkpt><trkpt lat="37.56545188467396" lon="14.917762558966237"><ele>279.3333333333333</ele><time>2026-04-06T18:56:15Z</time></trkpt><trkpt lat="37.56529847941598" lon="14.917882449141057"><ele>279.66666666666663</ele><time>2026-04-06T18:56:16Z</time></trkpt><trkpt lat="37.56515266571574" lon="14.917997893708344"><ele>280.0</ele><time>2026-04-06T18:56:17Z</time></trkpt><trkpt lat="37.56501006615526" lon="14.918113071829953"><ele>280.0</ele><time>2026-04-06T18:56:18Z</time></trkpt><trkpt lat="37.564869869054576" lon="14.918228574112398"><ele>280.0</ele><time>2026-04-06T18:56:18.999Z</time></trkpt><trkpt lat="37.564728735393864" lon="14.91834320244459"><ele>280.0</ele><time>2026-04-06T18:56:19.999Z</time></trkpt><trkpt lat="37.56458729474354" lon="14.918456190029824"><ele>285.0</ele><time>2026-04-06T18:56:20.999Z</time></trkpt><trkpt lat="37.56444461648754" lon="14.918570374575806"><ele>290.0</ele><time>2026-04-06T18:56:21.999Z</time></trkpt><trkpt lat="37.56430216514686" lon="14.9186850656608"><ele>295.0</ele><time>2026-04-06T18:56:22.999Z</time></trkpt><trkpt lat="37.56416251152027" lon="14.91880026050346"><ele>295.0</ele><time>2026-04-06T18:56:23.999Z</time></trkpt><trkpt lat="37.56402271298928" lon="14.918914258335374"><ele>295.0</ele><time>2026-04-06T18:56:24.999Z</time></trkpt><trkpt lat="37.5638847949697" lon="14.919025647994847"><ele>295.0</ele><time>2026-04-06T18:56:25.999Z</time></trkpt><trkpt lat="37.563748366395274" lon="14.919135416335603"><ele>297.0</ele><time>2026-04-06T18:56:26.999Z</time></trkpt><trkpt lat="37.56361321387991" lon="14.919245101234058"><ele>299.0</ele><time>2026-04-06T18:56:27.999Z</time></trkpt><trkpt lat="37.56347994036746" lon="14.91935787331116"><ele>301.0</ele><time>2026-04-06T18:56:28.999Z</time></trkpt><trkpt lat="37.563345102247396" lon="14.919472434711077"><ele>301.0</ele><time>2026-04-06T18:56:29.999Z</time></trkpt><trkpt lat="37.56320895447801" lon="14.919584961479222"><ele>301.0</ele><time>2026-04-06T18:56:30.999Z</time></trkpt><trkpt lat="37.56307296586962" lon="14.919697457897417"><ele>301.0</ele><time>2026-04-06T18:56:31.999Z</time></trkpt><trkpt lat="37.56293997474398" lon="14.919811113524176"><ele>300.66666666666663</ele><time>2026-04-06T18:56:32.999Z</time></trkpt><trkpt lat="37.562809461362285" lon="14.919923371817884"><ele>300.3333333333333</ele><time>2026-04-06T18:56:33.999Z</time></trkpt><trkpt lat="37.56267734680827" lon="14.920033264601107"><ele>300.0</ele><time>2026-04-06T18:56:34.999Z</time></trkpt><trkpt lat="37.5625437806473" lon="14.920142651021834"><ele>300.6666666666667</ele><time>2026-04-06T18:56:35.999Z</time></trkpt><trkpt lat="37.56240817205168" lon="14.920250044737902"><ele>301.33333333333337</ele><time>2026-04-06T18:56:36.999Z</time></trkpt><trkpt lat="37.56227280658615" lon="14.9203567703737"><ele>302.0</ele><time>2026-04-06T18:56:37.999Z</time></trkpt><trkpt lat="37.56213762395444" lon="14.92046547691229"><ele>301.33333333333337</ele><time>2026-04-06T18:56:38.999Z</time></trkpt><trkpt lat="37.56199951003528" lon="14.920573194715033"><ele>300.6666666666667</ele><time>2026-04-06T18:56:39.999Z</time></trkpt><trkpt lat="37.56186296854153" lon="14.92068114380689"><ele>300.0</ele><time>2026-04-06T18:56:40.999Z</time></trkpt><trkpt lat="37.56172773474858" lon="14.920787012805059"><ele>300.0</ele><time>2026-04-06T18:56:41.999Z</time></trkpt><trkpt lat="37.561593857194886" lon="14.920891329650075"><ele>300.0</ele><time>2026-04-06T18:56:42.999Z</time></trkpt><trkpt lat="37.56146320925087" lon="14.920996698137259"><ele>300.0</ele><time>2026-04-06T18:56:43.999Z</time></trkpt><trkpt lat="37.56133737137664" lon="14.921107256498482"><ele>301.6666666666667</ele><time>2026-04-06T18:56:44.999Z</time></trkpt><trkpt lat="37.56121536421564" lon="14.921231164558597"><ele>303.33333333333337</ele><time>2026-04-06T18:56:45.999Z</time></trkpt><trkpt lat="37.56109465729508" lon="14.921360607842113"><ele>305.0</ele><time>2026-04-06T18:56:46.999Z</time></trkpt><trkpt lat="37.56097656621659" lon="14.921497217931769"><ele>305.6666666666667</ele><time>2026-04-06T18:56:47.999Z</time></trkpt><trkpt lat="37.560863106588265" lon="14.92164054134338"><ele>306.3333333333333</ele><time>2026-04-06T18:56:48.999Z</time></trkpt><trkpt lat="37.560751610842715" lon="14.921786398625901"><ele>307.0</ele><time>2026-04-06T18:56:49.999Z</time></trkpt><trkpt lat="37.56064165988288" lon="14.921938506311852"><ele>306.66666666666663</ele><time>2026-04-06T18:56:50.999Z</time></trkpt><trkpt lat="37.56053641942104" lon="14.922095721823997"><ele>306.3333333333333</ele><time>2026-04-06T18:56:51.999Z</time></trkpt><trkpt lat="37.56043329289349" lon="14.922255955290868"><ele>306.0</ele><time>2026-04-06T18:56:52.999Z</time></trkpt><trkpt lat="37.56033361549348" lon="14.922420364212424"><ele>305.3333333333333</ele><time>2026-04-06T18:56:53.999Z</time></trkpt><trkpt lat="37.56023804053657" lon="14.922588274770757"><ele>304.66666666666663</ele><time>2026-04-06T18:56:54.999Z</time></trkpt><trkpt lat="37.56013991109457" lon="14.922752261656226"><ele>304.0</ele><time>2026-04-06T18:56:55.999Z</time></trkpt><trkpt lat="37.56004492628267" lon="14.922918027950306"><ele>304.0</ele><time>2026-04-06T18:56:56.999Z</time></trkpt><trkpt lat="37.55994793573692" lon="14.923083943424764"><ele>304.0</ele><time>2026-04-06T18:56:57.999Z</time></trkpt><trkpt lat="37.55985130788686" lon="14.923250348481126"><ele>304.0</ele><time>2026-04-06T18:56:58.999Z</time></trkpt><trkpt lat="37.559753656551926" lon="14.92341452718763"><ele>304.0</ele><time>2026-04-06T18:56:59.999Z</time></trkpt><trkpt lat="37.559654104119815" lon="14.923578901026913"><ele>304.0</ele><time>2026-04-06T18:57:00.999Z</time></trkpt><trkpt lat="37.55955402457653" lon="14.923741419641818"><ele>304.0</ele><time>2026-04-06T18:57:01.998Z</time></trkpt><trkpt lat="37.559452776338155" lon="14.923903021545756"><ele>304.0</ele><time>2026-04-06T18:57:02.998Z</time></trkpt><trkpt lat="37.55935416971551" lon="14.924068391274478"><ele>304.0</ele><time>2026-04-06T18:57:03.998Z</time></trkpt><trkpt lat="37.559256849394046" lon="14.924234380763"><ele>304.0</ele><time>2026-04-06T18:57:04.998Z</time></trkpt><trkpt lat="37.55915969215836" lon="14.924399206464345"><ele>305.3333333333333</ele><time>2026-04-06T18:57:05.998Z</time></trkpt><trkpt lat="37.55906082580064" lon="14.924561593464533"><ele>306.6666666666667</ele><time>2026-04-06T18:57:06.998Z</time></trkpt><trkpt lat="37.5589635770043" lon="14.924726038926034"><ele>308.0</ele><time>2026-04-06T18:57:07.998Z</time></trkpt><trkpt lat="37.55886843688475" lon="14.924892089318845"><ele>308.0</ele><time>2026-04-06T18:57:08.998Z</time></trkpt><trkpt lat="37.55877197669893" lon="14.925056402947941"><ele>308.0</ele><time>2026-04-06T18:57:09.998Z</time></trkpt><trkpt lat="37.55867568220809" lon="14.925219353549315"><ele>308.0</ele><time>2026-04-06T18:57:10.998Z</time></trkpt><trkpt lat="37.558583110304994" lon="14.925384579838074"><ele>307.6666666666667</ele><time>2026-04-06T18:57:11.998Z</time></trkpt><trkpt lat="37.558487486551165" lon="14.925551504109858"><ele>307.3333333333333</ele><time>2026-04-06T18:57:12.998Z</time></trkpt><trkpt lat="37.55839248008107" lon="14.925718400364515"><ele>307.0</ele><time>2026-04-06T18:57:13.998Z</time></trkpt><trkpt lat="37.5582956062201" lon="14.92588492606151"><ele>308.0</ele><time>2026-04-06T18:57:14.998Z</time></trkpt><trkpt lat="37.55819625556154" lon="14.926051352413635"><ele>309.0</ele><time>2026-04-06T18:57:15.998Z</time></trkpt><trkpt lat="37.55809608858872" lon="14.926217276992077"><ele>310.0</ele><time>2026-04-06T18:57:16.998Z</time></trkpt><trkpt lat="37.55799530430802" lon="14.926387449729152"><ele>310.0</ele><time>2026-04-06T18:57:17.998Z</time></trkpt><trkpt lat="37.55789552796115" lon="14.926559072184903"><ele>310.0</ele><time>2026-04-06T18:57:18.998Z</time></trkpt><trkpt lat="37.55779491862853" lon="14.926729269667662"><ele>310.0</ele><time>2026-04-06T18:57:19.998Z</time></trkpt><trkpt lat="37.55769340692408" lon="14.926899014807985"><ele>309.3333333333333</ele><time>2026-04-06T18:57:20.998Z</time></trkpt><trkpt lat="37.55759407161525" lon="14.92706884691983"><ele>308.6666666666667</ele><time>2026-04-06T18:57:21.998Z</time></trkpt><trkpt lat="37.55749282734241" lon="14.927239059990864"><ele>308.0</ele><time>2026-04-06T18:57:22.998Z</time></trkpt><trkpt lat="37.55739240728964" lon="14.927408763732348"><ele>308.33333333333337</ele><time>2026-04-06T18:57:23.998Z</time></trkpt><trkpt lat="37.55729200825091" lon="14.927580178276134"><ele>308.6666666666667</ele><time>2026-04-06T18:57:24.998Z</time></trkpt><trkpt lat="37.557192038561844" lon="14.927752161954599"><ele>309.0</ele><time>2026-04-06T18:57:25.998Z</time></trkpt><trkpt lat="37.55709148426013" lon="14.92792502179876"><ele>308.3333333333333</ele><time>2026-04-06T18:57:26.998Z</time></trkpt><trkpt lat="37.55699098010509" lon="14.928099944074894"><ele>307.66666666666663</ele><time>2026-04-06T18:57:27.998Z</time></trkpt><trkpt lat="37.55688798416019" lon="14.928272629310111"><ele>307.0</ele><time>2026-04-06T18:57:29Z</time></trkpt><trkpt lat="37.55678576168793" lon="14.928444441403004"><ele>307.0</ele><time>2026-04-06T18:57:30.001Z</time></trkpt><trkpt lat="37.55668568636532" lon="14.928615028533686"><ele>307.0</ele><time>2026-04-06T18:57:31Z</time></trkpt><trkpt lat="37.556589736322664" lon="14.928783570885308"><ele>307.0</ele><time>2026-04-06T18:57:32Z</time></trkpt><trkpt lat="37.55649128910837" lon="14.92894962580103"><ele>307.0</ele><time>2026-04-06T18:57:33Z</time></trkpt><trkpt lat="37.556393702358996" lon="14.929115438707374"><ele>307.0</ele><time>2026-04-06T18:57:34Z</time></trkpt><trkpt lat="37.55629716739001" lon="14.929279674298671"><ele>307.0</ele><time>2026-04-06T18:57:35Z</time></trkpt><trkpt lat="37.55619777607639" lon="14.929442186382726"><ele>306.0</ele><time>2026-04-06T18:57:36Z</time></trkpt><trkpt lat="37.5560991527988" lon="14.929605404198863"><ele>305.0</ele><time>2026-04-06T18:57:37Z</time></trkpt><trkpt lat="37.55600102861671" lon="14.929768548451067"><ele>304.0</ele><time>2026-04-06T18:57:38Z</time></trkpt><trkpt lat="37.55590387849987" lon="14.929931370117155"><ele>304.3333333333333</ele><time>2026-04-06T18:57:39Z</time></trkpt><trkpt lat="37.555805987765076" lon="14.930095961719672"><ele>304.6666666666667</ele><time>2026-04-06T18:57:40Z</time></trkpt><trkpt lat="37.55570688065708" lon="14.93025910078305"><ele>305.0</ele><time>2026-04-06T18:57:41Z</time></trkpt><trkpt lat="37.555608908357186" lon="14.930423199131223"><ele>305.0</ele><time>2026-04-06T18:57:42Z</time></trkpt><trkpt lat="37.55551152379065" lon="14.930585922180066"><ele>305.0</ele><time>2026-04-06T18:57:43Z</time></trkpt><trkpt lat="37.55541999790185" lon="14.9307489074121"><ele>305.0</ele><time>2026-04-06T18:57:44Z</time></trkpt><trkpt lat="37.555331002124035" lon="14.930908374885007"><ele>299.0</ele><time>2026-04-06T18:57:45Z</time></trkpt><trkpt lat="37.555154332667755" lon="14.9312129872994"><ele>293.0</ele><time>2026-04-06T18:57:47Z</time></trkpt><trkpt lat="37.55498059969674" lon="14.931509904402413"><ele>293.0</ele><time>2026-04-06T18:57:49Z</time></trkpt><trkpt lat="37.554894536537276" lon="14.93165613328557"><ele>293.0</ele><time>2026-04-06T18:57:50Z</time></trkpt><trkpt lat="37.55480950646854" lon="14.931802524147697"><ele>293.0</ele><time>2026-04-06T18:57:51Z</time></trkpt><trkpt lat="37.55472252747815" lon="14.931950400644093"><ele>293.0</ele><time>2026-04-06T18:57:52Z</time></trkpt><trkpt lat="37.55464166951861" lon="14.932102943445642"><ele>293.0</ele><time>2026-04-06T18:57:53Z</time></trkpt><trkpt lat="37.55455499831962" lon="14.93225164092131"><ele>293.0</ele><time>2026-04-06T18:57:54Z</time></trkpt><trkpt lat="37.55446369044641" lon="14.932399312930286"><ele>293.0</ele><time>2026-04-06T18:57:55Z</time></trkpt><trkpt lat="37.554375907927614" lon="14.932549876554287"><ele>293.0</ele><time>2026-04-06T18:57:56Z</time></trkpt><trkpt lat="37.55428823595535" lon="14.932699243122647"><ele>292.0</ele><time>2026-04-06T18:57:57Z</time></trkpt><trkpt lat="37.55419770534217" lon="14.932844842013715"><ele>291.0</ele><time>2026-04-06T18:57:58Z</time></trkpt><trkpt lat="37.55410926085264" lon="14.932987674045089"><ele>290.0</ele><time>2026-04-06T18:57:59Z</time></trkpt><trkpt lat="37.554023937042814" lon="14.93312796702248"><ele>289.0</ele><time>2026-04-06T18:58:00Z</time></trkpt><trkpt lat="37.55393964390044" lon="14.93326624698698"><ele>289.25</ele><time>2026-04-06T18:58:01Z</time></trkpt><trkpt lat="37.55385804203405" lon="14.933403778326795"><ele>289.5</ele><time>2026-04-06T18:58:02Z</time></trkpt><trkpt lat="37.55377903280156" lon="14.933537637240992"><ele>289.75</ele><time>2026-04-06T18:58:03Z</time></trkpt><trkpt lat="37.55370051870711" lon="14.933671044838762"><ele>290.0</ele><time>2026-04-06T18:58:04Z</time></trkpt><trkpt lat="37.553619831815645" lon="14.933810805933675"><ele>288.5</ele><time>2026-04-06T18:58:05Z</time></trkpt><trkpt lat="37.55353681916872" lon="14.933954794570317"><ele>287.0</ele><time>2026-04-06T18:58:06Z</time></trkpt><trkpt lat="37.553451598250355" lon="14.934102123152506"><ele>285.5</ele><time>2026-04-06T18:58:07Z</time></trkpt><trkpt lat="37.553362949623214" lon="14.934249297569275"><ele>284.0</ele><time>2026-04-06T18:58:08Z</time></trkpt><trkpt lat="37.553273563331324" lon="14.934398012157484"><ele>284.0</ele><time>2026-04-06T18:58:09Z</time></trkpt><trkpt lat="37.553183898795226" lon="14.934550364710235"><ele>284.0</ele><time>2026-04-06T18:58:10Z</time></trkpt><trkpt lat="37.553091698212384" lon="14.93470756560049"><ele>284.0</ele><time>2026-04-06T18:58:11Z</time></trkpt><trkpt lat="37.55299793348083" lon="14.9348643961751"><ele>284.0</ele><time>2026-04-06T18:58:12Z</time></trkpt><trkpt lat="37.552903201455706" lon="14.935022901924643"><ele>284.0</ele><time>2026-04-06T18:58:13Z</time></trkpt><trkpt lat="37.5528107505085" lon="14.935177792870162"><ele>284.0</ele><time>2026-04-06T18:58:14Z</time></trkpt><trkpt lat="37.55271885423452" lon="14.93533225926549"><ele>281.6666666666667</ele><time>2026-04-06T18:58:15Z</time></trkpt><trkpt lat="37.55262578670563" lon="14.935488902736935"><ele>279.3333333333333</ele><time>2026-04-06T18:58:16Z</time></trkpt><trkpt lat="37.552532986416324" lon="14.935650457858031"><ele>277.0</ele><time>2026-04-06T18:58:17Z</time></trkpt><trkpt lat="37.55243802966194" lon="14.935812497661004"><ele>277.3333333333333</ele><time>2026-04-06T18:58:18Z</time></trkpt><trkpt lat="37.55233889934426" lon="14.935972514088066"><ele>277.6666666666667</ele><time>2026-04-06T18:58:19Z</time></trkpt><trkpt lat="37.552239716642696" lon="14.936134371349814"><ele>278.0</ele><time>2026-04-06T18:58:20Z</time></trkpt><trkpt lat="37.552140526930934" lon="14.936297952265255"><ele>278.0</ele><time>2026-04-06T18:58:21Z</time></trkpt><trkpt lat="37.55204640293795" lon="14.936466330263823"><ele>278.0</ele><time>2026-04-06T18:58:22Z</time></trkpt><trkpt lat="37.551950541628415" lon="14.936633175848625"><ele>278.0</ele><time>2026-04-06T18:58:22.999Z</time></trkpt><trkpt lat="37.55185438812289" lon="14.936800788639234"><ele>276.33333333333337</ele><time>2026-04-06T18:58:23.999Z</time></trkpt><trkpt lat="37.55175479593435" lon="14.936966447230406"><ele>274.6666666666667</ele><time>2026-04-06T18:58:24.999Z</time></trkpt><trkpt lat="37.55165665286987" lon="14.937135261350669"><ele>273.0</ele><time>2026-04-06T18:58:25.999Z</time></trkpt><trkpt lat="37.55155821848076" lon="14.937305440215107"><ele>273.0</ele><time>2026-04-06T18:58:26.999Z</time></trkpt><trkpt lat="37.55145830337365" lon="14.937474452656328"><ele>273.0</ele><time>2026-04-06T18:58:27.999Z</time></trkpt><trkpt lat="37.55136073300845" lon="14.937645270563948"><ele>273.0</ele><time>2026-04-06T18:58:28.999Z</time></trkpt><trkpt lat="37.5512609783723" lon="14.937815032468283"><ele>272.3333333333333</ele><time>2026-04-06T18:58:29.999Z</time></trkpt><trkpt lat="37.55116050983352" lon="14.937984504943467"><ele>271.66666666666663</ele><time>2026-04-06T18:58:30.999Z</time></trkpt><trkpt lat="37.5510598792962" lon="14.93815436018483"><ele>271.0</ele><time>2026-04-06T18:58:31.999Z</time></trkpt><trkpt lat="37.55095942114853" lon="14.938324338358244"><ele>271.3333333333333</ele><time>2026-04-06T18:58:32.999Z</time></trkpt><trkpt lat="37.55085722969678" lon="14.938495103586991"><ele>271.6666666666667</ele><time>2026-04-06T18:58:33.999Z</time></trkpt><trkpt lat="37.5507546884228" lon="14.938664466506182"><ele>272.0</ele><time>2026-04-06T18:58:34.999Z</time></trkpt><trkpt lat="37.55065084959343" lon="14.93883268386575"><ele>272.0</ele><time>2026-04-06T18:58:35.999Z</time></trkpt><trkpt lat="37.55054749165046" lon="14.939001533879578"><ele>272.0</ele><time>2026-04-06T18:58:36.999Z</time></trkpt><trkpt lat="37.55044561240159" lon="14.93917228086742"><ele>272.0</ele><time>2026-04-06T18:58:37.999Z</time></trkpt><trkpt lat="37.55034681831526" lon="14.93934451465737"><ele>269.33333333333337</ele><time>2026-04-06T18:58:38.999Z</time></trkpt><trkpt lat="37.55024861310166" lon="14.939512722454593"><ele>266.6666666666667</ele><time>2026-04-06T18:58:39.999Z</time></trkpt><trkpt lat="37.55014849416893" lon="14.939676836028212"><ele>264.0</ele><time>2026-04-06T18:58:40.999Z</time></trkpt><trkpt lat="37.550049991431436" lon="14.939843005533595"><ele>264.0</ele><time>2026-04-06T18:58:41.999Z</time></trkpt><trkpt lat="37.54995205211449" lon="14.940011670402196"><ele>264.0</ele><time>2026-04-06T18:58:42.999Z</time></trkpt><trkpt lat="37.549853587313606" lon="14.940179208276577"><ele>264.0</ele><time>2026-04-06T18:58:43.999Z</time></trkpt><trkpt lat="37.54975475809872" lon="14.94034663788488"><ele>264.3333333333333</ele><time>2026-04-06T18:58:44.999Z</time></trkpt><trkpt lat="37.549662509815484" lon="14.94050469401495"><ele>264.66666666666663</ele><time>2026-04-06T18:58:45.999Z</time></trkpt><trkpt lat="37.549560420415695" lon="14.940677196152532"><ele>265.0</ele><time>2026-04-06T18:58:46.999Z</time></trkpt><trkpt lat="37.549461983738034" lon="14.940845434353745"><ele>262.66666666666663</ele><time>2026-04-06T18:58:47.999Z</time></trkpt><trkpt lat="37.549361712740534" lon="14.941016318567735"><ele>260.3333333333333</ele><time>2026-04-06T18:58:48.999Z</time></trkpt><trkpt lat="37.54926041815763" lon="14.941190362016826"><ele>258.0</ele><time>2026-04-06T18:58:49.999Z</time></trkpt><trkpt lat="37.549157782512" lon="14.94136568258308"><ele>258.0</ele><time>2026-04-06T18:58:50.999Z</time></trkpt><trkpt lat="37.54905394810306" lon="14.941542492154218"><ele>258.0</ele><time>2026-04-06T18:58:51.999Z</time></trkpt><trkpt lat="37.548949376812004" lon="14.941719186114161"><ele>258.0</ele><time>2026-04-06T18:58:52.999Z</time></trkpt><trkpt lat="37.54874324015481" lon="14.942080556823068"><ele>257.0</ele><time>2026-04-06T18:58:54.999Z</time></trkpt><trkpt lat="37.548640233393556" lon="14.942261286838278"><ele>256.0</ele><time>2026-04-06T18:58:55.999Z</time></trkpt><trkpt lat="37.54853766392984" lon="14.94244372342567"><ele>255.0</ele><time>2026-04-06T18:58:56.999Z</time></trkpt><trkpt lat="37.548433736819746" lon="14.942618976446077"><ele>255.0</ele><time>2026-04-06T18:58:57.999Z</time></trkpt><trkpt lat="37.54832723411823" lon="14.942793376161932"><ele>255.0</ele><time>2026-04-06T18:58:58.999Z</time></trkpt><trkpt lat="37.548223014910555" lon="14.94296950152967"><ele>255.0</ele><time>2026-04-06T18:58:59.999Z</time></trkpt><trkpt lat="37.54811920662681" lon="14.943146691641669"><ele>255.0</ele><time>2026-04-06T18:59:00.999Z</time></trkpt><trkpt lat="37.54801415235537" lon="14.943320541802636"><ele>255.0</ele><time>2026-04-06T18:59:01.999Z</time></trkpt><trkpt lat="37.547911675967164" lon="14.943497101238592"><ele>255.0</ele><time>2026-04-06T18:59:02.999Z</time></trkpt><trkpt lat="37.54780802372578" lon="14.943670871095012"><ele>253.33333333333331</ele><time>2026-04-06T18:59:03.999Z</time></trkpt><trkpt lat="37.54770408406396" lon="14.943844700049091"><ele>251.66666666666666</ele><time>2026-04-06T18:59:04.998Z</time></trkpt><trkpt lat="37.54760139495902" lon="14.944019406666794"><ele>250.0</ele><time>2026-04-06T18:59:05.998Z</time></trkpt><trkpt lat="37.54749816788464" lon="14.944194046249953"><ele>250.0</ele><time>2026-04-06T18:59:06.998Z</time></trkpt><trkpt lat="37.547393397711936" lon="14.944367593787984"><ele>250.0</ele><time>2026-04-06T18:59:07.998Z</time></trkpt><trkpt lat="37.547290303545836" lon="14.94453993866429"><ele>250.0</ele><time>2026-04-06T18:59:08.998Z</time></trkpt><trkpt lat="37.547188235127926" lon="14.944713145868121"><ele>250.0</ele><time>2026-04-06T18:59:09.998Z</time></trkpt><trkpt lat="37.547086911759024" lon="14.94488397231476"><ele>250.0</ele><time>2026-04-06T18:59:10.998Z</time></trkpt><trkpt lat="37.54698590545504" lon="14.945053283990664"><ele>250.0</ele><time>2026-04-06T18:59:11.998Z</time></trkpt><trkpt lat="37.54688471831333" lon="14.945222531242443"><ele>249.33333333333331</ele><time>2026-04-06T18:59:12.998Z</time></trkpt><trkpt lat="37.54678635112785" lon="14.945391552648225"><ele>248.66666666666669</ele><time>2026-04-06T18:59:13.998Z</time></trkpt><trkpt lat="37.546689288677854" lon="14.94556319062087"><ele>248.0</ele><time>2026-04-06T18:59:14.998Z</time></trkpt><trkpt lat="37.54659066158544" lon="14.94573248306554"><ele>247.66666666666669</ele><time>2026-04-06T18:59:15.998Z</time></trkpt><trkpt lat="37.54649186637677" lon="14.945902701659659"><ele>247.33333333333331</ele><time>2026-04-06T18:59:16.998Z</time></trkpt><trkpt lat="37.54639287021001" lon="14.946071298426125"><ele>247.0</ele><time>2026-04-06T18:59:17.998Z</time></trkpt><trkpt lat="37.546291545898335" lon="14.946235053610113"><ele>247.33333333333331</ele><time>2026-04-06T18:59:18.998Z</time></trkpt><trkpt lat="37.54619266445931" lon="14.946400261346039"><ele>247.66666666666669</ele><time>2026-04-06T18:59:19.998Z</time></trkpt><trkpt lat="37.546093975181115" lon="14.946564945710785"><ele>248.0</ele><time>2026-04-06T18:59:20.998Z</time></trkpt><trkpt lat="37.54599783700447" lon="14.946726744332256"><ele>249.0</ele><time>2026-04-06T18:59:21.998Z</time></trkpt><trkpt lat="37.54590394770856" lon="14.946890576709432"><ele>250.0</ele><time>2026-04-06T18:59:22.998Z</time></trkpt><trkpt lat="37.54580725010713" lon="14.947057365225657"><ele>251.0</ele><time>2026-04-06T18:59:23.998Z</time></trkpt><trkpt lat="37.54571202302341" lon="14.947222750201743"><ele>251.0</ele><time>2026-04-06T18:59:24.998Z</time></trkpt><trkpt lat="37.54561530302814" lon="14.94738637249521"><ele>251.0</ele><time>2026-04-06T18:59:25.998Z</time></trkpt><trkpt lat="37.54552097911712" lon="14.947550461925715"><ele>251.0</ele><time>2026-04-06T18:59:26.998Z</time></trkpt><trkpt lat="37.54542567258648" lon="14.947714461786422"><ele>250.66666666666669</ele><time>2026-04-06T18:59:27.998Z</time></trkpt><trkpt lat="37.545331046674164" lon="14.947878103152444"><ele>250.33333333333331</ele><time>2026-04-06T18:59:28.998Z</time></trkpt><trkpt lat="37.54523141856151" lon="14.948036395226493"><ele>250.0</ele><time>2026-04-06T18:59:29.998Z</time></trkpt><trkpt lat="37.54513133666943" lon="14.948192100825144"><ele>250.0</ele><time>2026-04-06T18:59:30.998Z</time></trkpt><trkpt lat="37.545040299507164" lon="14.948354272194917"><ele>250.0</ele><time>2026-04-06T18:59:31.998Z</time></trkpt><trkpt lat="37.54495076951694" lon="14.948524719838458"><ele>250.0</ele><time>2026-04-06T18:59:32.998Z</time></trkpt><trkpt lat="37.54485638676742" lon="14.948680381478379"><ele>250.0</ele><time>2026-04-06T18:59:33.998Z</time></trkpt><trkpt lat="37.54476517764129" lon="14.948830958575888"><ele>250.0</ele><time>2026-04-06T18:59:35.001Z</time></trkpt><trkpt lat="37.54467823613954" lon="14.948983943270576"><ele>250.0</ele><time>2026-04-06T18:59:36.001Z</time></trkpt><trkpt lat="37.54458674612619" lon="14.94913842740449"><ele>250.33333333333331</ele><time>2026-04-06T18:59:37.001Z</time></trkpt><trkpt lat="37.544494926476695" lon="14.949293557147639"><ele>250.66666666666669</ele><time>2026-04-06T18:59:38.001Z</time></trkpt><trkpt lat="37.54440269350666" lon="14.949448219032474"><ele>251.0</ele><time>2026-04-06T18:59:39.001Z</time></trkpt><trkpt lat="37.544313011047144" lon="14.949612802294773"><ele>251.0</ele><time>2026-04-06T18:59:40.001Z</time></trkpt><trkpt lat="37.54422368529803" lon="14.949774092144446"><ele>251.0</ele><time>2026-04-06T18:59:41.001Z</time></trkpt><trkpt lat="37.54413050316811" lon="14.949930542336562"><ele>251.0</ele><time>2026-04-06T18:59:42.001Z</time></trkpt><trkpt lat="37.54404325144502" lon="14.950085988668109"><ele>250.0</ele><time>2026-04-06T18:59:43Z</time></trkpt><trkpt lat="37.54395268052738" lon="14.950244855390535"><ele>249.0</ele><time>2026-04-06T18:59:44.001Z</time></trkpt><trkpt lat="37.54385125215882" lon="14.950403255770823"><ele>248.0</ele><time>2026-04-06T18:59:45.001Z</time></trkpt><trkpt lat="37.54374825487716" lon="14.950559589470684"><ele>248.0</ele><time>2026-04-06T18:59:46Z</time></trkpt><trkpt lat="37.54364548511852" lon="14.950714821602231"><ele>248.0</ele><time>2026-04-06T18:59:47.001Z</time></trkpt><trkpt lat="37.543551234476176" lon="14.950872470283398"><ele>248.0</ele><time>2026-04-06T18:59:48.001Z</time></trkpt><trkpt lat="37.543459802149144" lon="14.951034126218852"><ele>248.0</ele><time>2026-04-06T18:59:49Z</time></trkpt><trkpt lat="37.54336773903002" lon="14.951188727485322"><ele>248.0</ele><time>2026-04-06T18:59:50Z</time></trkpt><trkpt lat="37.543274141518836" lon="14.951353186371676"><ele>248.0</ele><time>2026-04-06T18:59:51Z</time></trkpt><trkpt lat="37.54318000920906" lon="14.951513648375048"><ele>248.0</ele><time>2026-04-06T18:59:52Z</time></trkpt><trkpt lat="37.54308746479284" lon="14.95167296660445"><ele>248.0</ele><time>2026-04-06T18:59:53Z</time></trkpt><trkpt lat="37.54299022980183" lon="14.9518295565712"><ele>248.0</ele><time>2026-04-06T18:59:54Z</time></trkpt><trkpt lat="37.5428927206161" lon="14.951984464538382"><ele>248.33333333333334</ele><time>2026-04-06T18:59:55Z</time></trkpt><trkpt lat="37.54279852476204" lon="14.952154272747546"><ele>248.66666666666669</ele><time>2026-04-06T18:59:56Z</time></trkpt><trkpt lat="37.542702086378064" lon="14.95231738029688"><ele>249.0</ele><time>2026-04-06T18:59:57Z</time></trkpt><trkpt lat="37.54260602550085" lon="14.952477485988927"><ele>248.0</ele><time>2026-04-06T18:59:58Z</time></trkpt><trkpt lat="37.54251122904884" lon="14.952635391502778"><ele>247.0</ele><time>2026-04-06T18:59:59Z</time></trkpt><trkpt lat="37.54241713595895" lon="14.952792254794241"><ele>246.0</ele><time>2026-04-06T19:00:00Z</time></trkpt><trkpt lat="37.542321931335756" lon="14.952954158420942"><ele>246.0</ele><time>2026-04-06T19:00:01Z</time></trkpt><trkpt lat="37.542224703035295" lon="14.953119470662312"><ele>246.0</ele><time>2026-04-06T19:00:02Z</time></trkpt><trkpt lat="37.54212709753331" lon="14.9532806153496"><ele>246.0</ele><time>2026-04-06T19:00:03Z</time></trkpt><trkpt lat="37.542031323679176" lon="14.953440952737267"><ele>247.0</ele><time>2026-04-06T19:00:04Z</time></trkpt><trkpt lat="37.54193789599437" lon="14.95360043511886"><ele>248.0</ele><time>2026-04-06T19:00:05Z</time></trkpt><trkpt lat="37.54184578010737" lon="14.953760403570616"><ele>249.0</ele><time>2026-04-06T19:00:06Z</time></trkpt><trkpt lat="37.54175491011382" lon="14.953919766470515"><ele>249.0</ele><time>2026-04-06T19:00:07Z</time></trkpt><trkpt lat="37.541660415395754" lon="14.954079789182575"><ele>249.0</ele><time>2026-04-06T19:00:08Z</time></trkpt><trkpt lat="37.5415624707962" lon="14.954238592244746"><ele>249.0</ele><time>2026-04-06T19:00:09Z</time></trkpt><trkpt lat="37.541466362908636" lon="14.954400298523813"><ele>249.0</ele><time>2026-04-06T19:00:10Z</time></trkpt><trkpt lat="37.541370064831675" lon="14.954561247919212"><ele>249.0</ele><time>2026-04-06T19:00:11Z</time></trkpt><trkpt lat="37.54127462302137" lon="14.954719360669346"><ele>249.0</ele><time>2026-04-06T19:00:12Z</time></trkpt><trkpt lat="37.541179751201376" lon="14.954881044919112"><ele>248.66666666666669</ele><time>2026-04-06T19:00:13Z</time></trkpt><trkpt lat="37.541086772158145" lon="14.955046892989404"><ele>248.33333333333334</ele><time>2026-04-06T19:00:14Z</time></trkpt><trkpt lat="37.54099493278982" lon="14.955209907326275"><ele>248.0</ele><time>2026-04-06T19:00:15Z</time></trkpt><trkpt lat="37.54090412482774" lon="14.955375345139297"><ele>248.0</ele><time>2026-04-06T19:00:16Z</time></trkpt><trkpt lat="37.54081303828586" lon="14.955542492228458"><ele>248.0</ele><time>2026-04-06T19:00:17Z</time></trkpt><trkpt lat="37.540726917448985" lon="14.95571213360535"><ele>248.0</ele><time>2026-04-06T19:00:18Z</time></trkpt><trkpt lat="37.54064211075065" lon="14.955886068649127"><ele>248.33333333333334</ele><time>2026-04-06T19:00:19Z</time></trkpt><trkpt lat="37.54055726247818" lon="14.956060528421949"><ele>248.66666666666669</ele><time>2026-04-06T19:00:20Z</time></trkpt><trkpt lat="37.540477224871466" lon="14.956237720292236"><ele>249.0</ele><time>2026-04-06T19:00:21Z</time></trkpt><trkpt lat="37.5403997934531" lon="14.956414087123564"><ele>249.0</ele><time>2026-04-06T19:00:22Z</time></trkpt><trkpt lat="37.54032588568238" lon="14.95659576185293"><ele>249.0</ele><time>2026-04-06T19:00:23Z</time></trkpt><trkpt lat="37.54025236851788" lon="14.956776701051265"><ele>249.0</ele><time>2026-04-06T19:00:24Z</time></trkpt><trkpt lat="37.54018068231743" lon="14.956955522877369"><ele>249.33333333333331</ele><time>2026-04-06T19:00:25Z</time></trkpt><trkpt lat="37.5401191745595" lon="14.957136061401073"><ele>249.66666666666666</ele><time>2026-04-06T19:00:26Z</time></trkpt><trkpt lat="37.54005980912505" lon="14.95731794642591"><ele>250.0</ele><time>2026-04-06T19:00:27Z</time></trkpt><trkpt lat="37.540000202498284" lon="14.957500484210149"><ele>249.66666666666666</ele><time>2026-04-06T19:00:27.999Z</time></trkpt><trkpt lat="37.539945701794714" lon="14.95768205216651"><ele>249.33333333333331</ele><time>2026-04-06T19:00:28.999Z</time></trkpt><trkpt lat="37.53989316863264" lon="14.957864577209211"><ele>249.0</ele><time>2026-04-06T19:00:29.999Z</time></trkpt><trkpt lat="37.53984895237918" lon="14.958040886174217"><ele>249.0</ele><time>2026-04-06T19:00:30.999Z</time></trkpt><trkpt lat="37.53980454127027" lon="14.958219503008877"><ele>249.0</ele><time>2026-04-06T19:00:31.999Z</time></trkpt><trkpt lat="37.539761855906406" lon="14.958394586838123"><ele>249.0</ele><time>2026-04-06T19:00:32.999Z</time></trkpt><trkpt lat="37.53972370621453" lon="14.958569818010234"><ele>249.0</ele><time>2026-04-06T19:00:33.999Z</time></trkpt><trkpt lat="37.53968674520082" lon="14.958751781048125"><ele>249.0</ele><time>2026-04-06T19:00:34.999Z</time></trkpt><trkpt lat="37.53965162511505" lon="14.958944642929964"><ele>249.0</ele><time>2026-04-06T19:00:35.999Z</time></trkpt><trkpt lat="37.53961951809149" lon="14.959136824950036"><ele>249.0</ele><time>2026-04-06T19:00:36.999Z</time></trkpt><trkpt lat="37.53958676541794" lon="14.959333380861635"><ele>249.33333333333331</ele><time>2026-04-06T19:00:37.999Z</time></trkpt><trkpt lat="37.53955627073982" lon="14.959531670158887"><ele>249.66666666666666</ele><time>2026-04-06T19:00:38.999Z</time></trkpt><trkpt lat="37.539524180744706" lon="14.95973058717589"><ele>250.0</ele><time>2026-04-06T19:00:39.999Z</time></trkpt><trkpt lat="37.539496029145795" lon="14.95993457291289"><ele>249.33333333333331</ele><time>2026-04-06T19:00:40.999Z</time></trkpt><trkpt lat="37.53946420221201" lon="14.960141841413552"><ele>248.66666666666669</ele><time>2026-04-06T19:00:41.999Z</time></trkpt><trkpt lat="37.53943253616763" lon="14.960345333355457"><ele>248.0</ele><time>2026-04-06T19:00:42.999Z</time></trkpt><trkpt lat="37.539400396897605" lon="14.960550794682526"><ele>248.0</ele><time>2026-04-06T19:00:43.999Z</time></trkpt><trkpt lat="37.53937001127328" lon="14.960754230243657"><ele>248.0</ele><time>2026-04-06T19:00:44.999Z</time></trkpt><trkpt lat="37.53933822050455" lon="14.960959761145034"><ele>248.0</ele><time>2026-04-06T19:00:45.999Z</time></trkpt><trkpt lat="37.53930611265407" lon="14.961162519422965"><ele>248.33333333333334</ele><time>2026-04-06T19:00:46.999Z</time></trkpt><trkpt lat="37.53927187589819" lon="14.961364688855882"><ele>248.66666666666669</ele><time>2026-04-06T19:00:47.999Z</time></trkpt><trkpt lat="37.539242205451046" lon="14.961569681705257"><ele>249.0</ele><time>2026-04-06T19:00:48.999Z</time></trkpt><trkpt lat="37.53920762889793" lon="14.961775034007559"><ele>248.0</ele><time>2026-04-06T19:00:49.999Z</time></trkpt><trkpt lat="37.53917671938348" lon="14.961980024769275"><ele>247.0</ele><time>2026-04-06T19:00:50.999Z</time></trkpt><trkpt lat="37.5391473825559" lon="14.962186770872082"><ele>246.0</ele><time>2026-04-06T19:00:51.999Z</time></trkpt><trkpt lat="37.53911466755904" lon="14.962394995616645"><ele>244.66666666666669</ele><time>2026-04-06T19:00:52.999Z</time></trkpt><trkpt lat="37.53908327023359" lon="14.962600267831197"><ele>243.33333333333334</ele><time>2026-04-06T19:00:53.999Z</time></trkpt><trkpt lat="37.53905242208448" lon="14.96280828789737"><ele>242.0</ele><time>2026-04-06T19:00:54.999Z</time></trkpt><trkpt lat="37.5390237548093" lon="14.963017112991139"><ele>242.0</ele><time>2026-04-06T19:00:55.999Z</time></trkpt><trkpt lat="37.53899337479185" lon="14.963223410334129"><ele>242.0</ele><time>2026-04-06T19:00:56.999Z</time></trkpt><trkpt lat="37.53896646053897" lon="14.963431385249809"><ele>242.0</ele><time>2026-04-06T19:00:57.999Z</time></trkpt><trkpt lat="37.538940129587345" lon="14.963637818568957"><ele>242.0</ele><time>2026-04-06T19:00:58.999Z</time></trkpt><trkpt lat="37.53891122894053" lon="14.963846628906374"><ele>242.0</ele><time>2026-04-06T19:00:59.999Z</time></trkpt><trkpt lat="37.53888236353083" lon="14.964054552713696"><ele>242.0</ele><time>2026-04-06T19:01:00.999Z</time></trkpt><trkpt lat="37.53885387115695" lon="14.964261897645393"><ele>242.0</ele><time>2026-04-06T19:01:01.999Z</time></trkpt><trkpt lat="37.538820642706874" lon="14.964475168965459"><ele>242.0</ele><time>2026-04-06T19:01:02.999Z</time></trkpt><trkpt lat="37.5387847906462" lon="14.964687549909748"><ele>242.0</ele><time>2026-04-06T19:01:03.999Z</time></trkpt><trkpt lat="37.538752276888445" lon="14.964902073140857"><ele>242.33333333333334</ele><time>2026-04-06T19:01:04.999Z</time></trkpt><trkpt lat="37.538717800586085" lon="14.965128720653148"><ele>242.66666666666669</ele><time>2026-04-06T19:01:05.999Z</time></trkpt><trkpt lat="37.53868005762147" lon="14.965366602253278"><ele>243.0</ele><time>2026-04-06T19:01:06.999Z</time></trkpt><trkpt lat="37.538645144700624" lon="14.965599750153917"><ele>243.33333333333331</ele><time>2026-04-06T19:01:07.999Z</time></trkpt><trkpt lat="37.53860966467881" lon="14.96583066530299"><ele>243.66666666666666</ele><time>2026-04-06T19:01:08.999Z</time></trkpt><trkpt lat="37.53857719705958" lon="14.96605785927732"><ele>244.0</ele><time>2026-04-06T19:01:09.998Z</time></trkpt><trkpt lat="37.53854227583367" lon="14.966286943998403"><ele>244.66666666666666</ele><time>2026-04-06T19:01:10.998Z</time></trkpt><trkpt lat="37.53851042520962" lon="14.966511130478995"><ele>245.33333333333331</ele><time>2026-04-06T19:01:11.998Z</time></trkpt><trkpt lat="37.53847888178155" lon="14.96673618507426"><ele>246.0</ele><time>2026-04-06T19:01:12.998Z</time></trkpt><trkpt lat="37.53844359737806" lon="14.966963693955355"><ele>246.33333333333331</ele><time>2026-04-06T19:01:13.998Z</time></trkpt><trkpt lat="37.538407160406734" lon="14.96718766568734"><ele>246.66666666666666</ele><time>2026-04-06T19:01:14.998Z</time></trkpt><trkpt lat="37.538370096629706" lon="14.967414148558568"><ele>247.0</ele><time>2026-04-06T19:01:15.998Z</time></trkpt><trkpt lat="37.53833685734501" lon="14.9676386077645"><ele>247.66666666666666</ele><time>2026-04-06T19:01:16.998Z</time></trkpt><trkpt lat="37.538302690075405" lon="14.967862644386718"><ele>248.33333333333331</ele><time>2026-04-06T19:01:17.998Z</time></trkpt><trkpt lat="37.5382683926299" lon="14.968084166194403"><ele>249.0</ele><time>2026-04-06T19:01:18.998Z</time></trkpt><trkpt lat="37.53823698845375" lon="14.968306433777215"><ele>249.66666666666669</ele><time>2026-04-06T19:01:19.998Z</time></trkpt><trkpt lat="37.53820771205879" lon="14.968529046774472"><ele>250.33333333333334</ele><time>2026-04-06T19:01:20.998Z</time></trkpt><trkpt lat="37.53818041300164" lon="14.968754816248389"><ele>251.0</ele><time>2026-04-06T19:01:21.998Z</time></trkpt><trkpt lat="37.53815335392542" lon="14.968980329625955"><ele>251.66666666666669</ele><time>2026-04-06T19:01:22.998Z</time></trkpt><trkpt lat="37.53812463903796" lon="14.969205941650578"><ele>252.33333333333331</ele><time>2026-04-06T19:01:23.998Z</time></trkpt><trkpt lat="37.53809645656611" lon="14.969431126740634"><ele>253.0</ele><time>2026-04-06T19:01:24.998Z</time></trkpt><trkpt lat="37.53806002816849" lon="14.969658105303612"><ele>253.0</ele><time>2026-04-06T19:01:25.998Z</time></trkpt><trkpt lat="37.53802535669958" lon="14.969881370860206"><ele>253.0</ele><time>2026-04-06T19:01:26.998Z</time></trkpt><trkpt lat="37.53798436508887" lon="14.97010667441872"><ele>253.0</ele><time>2026-04-06T19:01:27.998Z</time></trkpt><trkpt lat="37.537942933242235" lon="14.970331147286522"><ele>253.0</ele><time>2026-04-06T19:01:28.998Z</time></trkpt><trkpt lat="37.53790129088593" lon="14.970556645322981"><ele>253.0</ele><time>2026-04-06T19:01:29.998Z</time></trkpt><trkpt lat="37.53786199614622" lon="14.970783690936742"><ele>253.0</ele><time>2026-04-06T19:01:30.998Z</time></trkpt><trkpt lat="37.53782410319102" lon="14.971012697102708"><ele>253.33333333333331</ele><time>2026-04-06T19:01:31.998Z</time></trkpt><trkpt lat="37.537787703149625" lon="14.971240827883571"><ele>253.66666666666669</ele><time>2026-04-06T19:01:32.998Z</time></trkpt><trkpt lat="37.53774917375406" lon="14.97147019037182"><ele>254.0</ele><time>2026-04-06T19:01:33.998Z</time></trkpt><trkpt lat="37.537714238852914" lon="14.971696822984727"><ele>254.33333333333334</ele><time>2026-04-06T19:01:34.998Z</time></trkpt><trkpt lat="37.53768088425188" lon="14.971926054030183"><ele>254.66666666666669</ele><time>2026-04-06T19:01:35.998Z</time></trkpt><trkpt lat="37.53764512712499" lon="14.972156637963039"><ele>255.0</ele><time>2026-04-06T19:01:36.998Z</time></trkpt><trkpt lat="37.53761369646804" lon="14.972383380027274"><ele>255.33333333333331</ele><time>2026-04-06T19:01:37.998Z</time></trkpt><trkpt lat="37.5375862161837" lon="14.972610261309843"><ele>255.66666666666666</ele><time>2026-04-06T19:01:38.998Z</time></trkpt><trkpt lat="37.537557262905324" lon="14.972845995562503"><ele>256.0</ele><time>2026-04-06T19:01:39.998Z</time></trkpt><trkpt lat="37.53752070085224" lon="14.973077019030395"><ele>256.0</ele><time>2026-04-06T19:01:41Z</time></trkpt><trkpt lat="37.53749028430199" lon="14.97331039625916"><ele>256.0</ele><time>2026-04-06T19:01:42Z</time></trkpt><trkpt lat="37.53745760464503" lon="14.973546368154183"><ele>256.0</ele><time>2026-04-06T19:01:43Z</time></trkpt><trkpt lat="37.53742373427771" lon="14.973783549862294"><ele>256.0</ele><time>2026-04-06T19:01:44Z</time></trkpt><trkpt lat="37.53738892926536" lon="14.974024240080706"><ele>256.0</ele><time>2026-04-06T19:01:45Z</time></trkpt><trkpt lat="37.53735821268347" lon="14.974265044377056"><ele>256.0</ele><time>2026-04-06T19:01:46Z</time></trkpt><trkpt lat="37.53732563071537" lon="14.974501759093473"><ele>256.0</ele><time>2026-04-06T19:01:47Z</time></trkpt><trkpt lat="37.53728627751195" lon="14.97474446711868"><ele>256.0</ele><time>2026-04-06T19:01:48Z</time></trkpt><trkpt lat="37.537243777165784" lon="14.974985370539889"><ele>256.0</ele><time>2026-04-06T19:01:49Z</time></trkpt><trkpt lat="37.537204743718455" lon="14.975227020575751"><ele>256.0</ele><time>2026-04-06T19:01:50Z</time></trkpt><trkpt lat="37.537168210193514" lon="14.975463633525663"><ele>256.0</ele><time>2026-04-06T19:01:51Z</time></trkpt><trkpt lat="37.537133628579745" lon="14.975699500502122"><ele>256.0</ele><time>2026-04-06T19:01:52Z</time></trkpt><trkpt lat="37.53710267925274" lon="14.975931116373031"><ele>256.0</ele><time>2026-04-06T19:01:53Z</time></trkpt><trkpt lat="37.53707021618992" lon="14.976164904526241"><ele>256.0</ele><time>2026-04-06T19:01:54Z</time></trkpt><trkpt lat="37.537034353968494" lon="14.976395280693989"><ele>256.0</ele><time>2026-04-06T19:01:55Z</time></trkpt><trkpt lat="37.536996637753184" lon="14.976628451835154"><ele>255.33333333333331</ele><time>2026-04-06T19:01:56Z</time></trkpt><trkpt lat="37.53696015115045" lon="14.976860690391765"><ele>254.66666666666669</ele><time>2026-04-06T19:01:57Z</time></trkpt><trkpt lat="37.536925187768034" lon="14.977094637128133"><ele>254.0</ele><time>2026-04-06T19:01:58Z</time></trkpt><trkpt lat="37.53688987843858" lon="14.977326605540156"><ele>255.0</ele><time>2026-04-06T19:01:59Z</time></trkpt><trkpt lat="37.53685496450737" lon="14.977559003731574"><ele>256.0</ele><time>2026-04-06T19:02:00Z</time></trkpt><trkpt lat="37.536818791455936" lon="14.97779048657124"><ele>257.0</ele><time>2026-04-06T19:02:01Z</time></trkpt><trkpt lat="37.536784089343904" lon="14.978025293653527"><ele>257.0</ele><time>2026-04-06T19:02:02Z</time></trkpt><trkpt lat="37.536746819738596" lon="14.978258722612592"><ele>257.0</ele><time>2026-04-06T19:02:03Z</time></trkpt><trkpt lat="37.53671048906659" lon="14.978495253375584"><ele>257.0</ele><time>2026-04-06T19:02:04Z</time></trkpt><trkpt lat="37.536670225479625" lon="14.978731535691733"><ele>257.0</ele><time>2026-04-06T19:02:05Z</time></trkpt><trkpt lat="37.53662735625567" lon="14.978967380529665"><ele>257.0</ele><time>2026-04-06T19:02:06Z</time></trkpt><trkpt lat="37.53657711939432" lon="14.979204175285123"><ele>257.0</ele><time>2026-04-06T19:02:07Z</time></trkpt><trkpt lat="37.53652413929503" lon="14.979441245021642"><ele>257.0</ele><time>2026-04-06T19:02:08Z</time></trkpt><trkpt lat="37.53646396697161" lon="14.97967217395181"><ele>257.0</ele><time>2026-04-06T19:02:09Z</time></trkpt><trkpt lat="37.53639274865745" lon="14.979908473221078"><ele>257.0</ele><time>2026-04-06T19:02:10Z</time></trkpt><trkpt lat="37.53632352989197" lon="14.98013637048595"><ele>256.6666666666667</ele><time>2026-04-06T19:02:11Z</time></trkpt><trkpt lat="37.53624747343107" lon="14.980374765488849"><ele>256.3333333333333</ele><time>2026-04-06T19:02:12Z</time></trkpt><trkpt lat="37.53616980071017" lon="14.980610409572323"><ele>256.0</ele><time>2026-04-06T19:02:13Z</time></trkpt><trkpt lat="37.536087427634754" lon="14.980843774119473"><ele>255.66666666666666</ele><time>2026-04-06T19:02:14Z</time></trkpt><trkpt lat="37.53600095724864" lon="14.981072172813024"><ele>255.33333333333331</ele><time>2026-04-06T19:02:15Z</time></trkpt><trkpt lat="37.535911705279545" lon="14.98130227356473"><ele>255.0</ele><time>2026-04-06T19:02:16Z</time></trkpt><trkpt lat="37.53582007945745" lon="14.981530547276197"><ele>255.33333333333331</ele><time>2026-04-06T19:02:17Z</time></trkpt><trkpt lat="37.53572677509334" lon="14.981759047629932"><ele>255.66666666666666</ele><time>2026-04-06T19:02:18Z</time></trkpt><trkpt lat="37.53562853559439" lon="14.98198686443924"><ele>256.0</ele><time>2026-04-06T19:02:19Z</time></trkpt><trkpt lat="37.53552896552553" lon="14.9822175454298"><ele>256.0</ele><time>2026-04-06T19:02:20Z</time></trkpt><trkpt lat="37.53542982169115" lon="14.982448532230256"><ele>256.0</ele><time>2026-04-06T19:02:21Z</time></trkpt><trkpt lat="37.5353330511654" lon="14.982680717315382"><ele>256.0</ele><time>2026-04-06T19:02:22Z</time></trkpt><trkpt lat="37.535236856793986" lon="14.982917817038114"><ele>256.0</ele><time>2026-04-06T19:02:23Z</time></trkpt><trkpt lat="37.53514191320739" lon="14.983154997882906"><ele>256.0</ele><time>2026-04-06T19:02:24Z</time></trkpt><trkpt lat="37.53504789770933" lon="14.983393390903526"><ele>256.0</ele><time>2026-04-06T19:02:25Z</time></trkpt><trkpt lat="37.53495432619928" lon="14.983632180906103"><ele>256.0</ele><time>2026-04-06T19:02:26Z</time></trkpt><trkpt lat="37.53485806961057" lon="14.98387197674265"><ele>256.0</ele><time>2026-04-06T19:02:27Z</time></trkpt><trkpt lat="37.53476187988912" lon="14.984112783742972"><ele>256.0</ele><time>2026-04-06T19:02:28Z</time></trkpt><trkpt lat="37.534667295837345" lon="14.984353363460338"><ele>255.66666666666666</ele><time>2026-04-06T19:02:29Z</time></trkpt><trkpt lat="37.534575386775636" lon="14.984594879109675"><ele>255.33333333333331</ele><time>2026-04-06T19:02:30Z</time></trkpt><trkpt lat="37.53448495203747" lon="14.984835144937875"><ele>255.0</ele><time>2026-04-06T19:02:30.999Z</time></trkpt><trkpt lat="37.53439263485232" lon="14.985075381838993"><ele>255.0</ele><time>2026-04-06T19:02:31.999Z</time></trkpt><trkpt lat="37.53429897963317" lon="14.985310834893003"><ele>255.0</ele><time>2026-04-06T19:02:32.999Z</time></trkpt><trkpt lat="37.53419675952822" lon="14.985546392961334"><ele>255.0</ele><time>2026-04-06T19:02:33.999Z</time></trkpt><trkpt lat="37.534090260438155" lon="14.985782761809203"><ele>254.33333333333331</ele><time>2026-04-06T19:02:34.999Z</time></trkpt><trkpt lat="37.53398682153296" lon="14.98601807610538"><ele>253.66666666666666</ele><time>2026-04-06T19:02:35.999Z</time></trkpt><trkpt lat="37.53387990982812" lon="14.986255918383254"><ele>253.0</ele><time>2026-04-06T19:02:36.999Z</time></trkpt><trkpt lat="37.53376548082431" lon="14.986489526331598"><ele>253.66666666666666</ele><time>2026-04-06T19:02:37.999Z</time></trkpt><trkpt lat="37.53364504185543" lon="14.986716822751674"><ele>254.33333333333331</ele><time>2026-04-06T19:02:38.999Z</time></trkpt><trkpt lat="37.53351659381456" lon="14.986942754336317"><ele>255.0</ele><time>2026-04-06T19:02:39.999Z</time></trkpt><trkpt lat="37.53338340189088" lon="14.987153228816425"><ele>255.0</ele><time>2026-04-06T19:02:40.999Z</time></trkpt><trkpt lat="37.53324605162736" lon="14.987366688966606"><ele>255.0</ele><time>2026-04-06T19:02:41.999Z</time></trkpt><trkpt lat="37.53310202891473" lon="14.987575348806947"><ele>255.0</ele><time>2026-04-06T19:02:42.999Z</time></trkpt><trkpt lat="37.5329529346805" lon="14.987777644398506"><ele>254.33333333333331</ele><time>2026-04-06T19:02:43.999Z</time></trkpt><trkpt lat="37.532799399266814" lon="14.987977248002007"><ele>253.66666666666666</ele><time>2026-04-06T19:02:44.999Z</time></trkpt><trkpt lat="37.53264025099204" lon="14.988167138904299"><ele>253.0</ele><time>2026-04-06T19:02:45.999Z</time></trkpt><trkpt lat="37.53248062251754" lon="14.988360043947372"><ele>252.66666666666666</ele><time>2026-04-06T19:02:46.999Z</time></trkpt><trkpt lat="37.53231672079484" lon="14.988549496392114"><ele>252.33333333333331</ele><time>2026-04-06T19:02:47.999Z</time></trkpt><trkpt lat="37.532148145700326" lon="14.988733511035734"><ele>252.0</ele><time>2026-04-06T19:02:48.999Z</time></trkpt><trkpt lat="37.5319776252145" lon="14.988913873897163"><ele>252.0</ele><time>2026-04-06T19:02:49.999Z</time></trkpt><trkpt lat="37.531808220460455" lon="14.98909224316034"><ele>252.0</ele><time>2026-04-06T19:02:50.999Z</time></trkpt><trkpt lat="37.531639304592865" lon="14.989272016722516"><ele>252.0</ele><time>2026-04-06T19:02:51.999Z</time></trkpt><trkpt lat="37.5314688806308" lon="14.989454950953691"><ele>251.66666666666669</ele><time>2026-04-06T19:02:52.999Z</time></trkpt><trkpt lat="37.531298590777624" lon="14.989633735619854"><ele>251.33333333333334</ele><time>2026-04-06T19:02:53.999Z</time></trkpt><trkpt lat="37.53112930855022" lon="14.989811770230467"><ele>251.0</ele><time>2026-04-06T19:02:54.999Z</time></trkpt><trkpt lat="37.530959287838854" lon="14.989989182810753"><ele>250.33333333333334</ele><time>2026-04-06T19:02:55.999Z</time></trkpt><trkpt lat="37.5307920204551" lon="14.990165722822379"><ele>249.66666666666669</ele><time>2026-04-06T19:02:56.999Z</time></trkpt><trkpt lat="37.530626741215535" lon="14.990343900318956"><ele>249.0</ele><time>2026-04-06T19:02:57.999Z</time></trkpt><trkpt lat="37.53046063730442" lon="14.990522771257309"><ele>249.66666666666669</ele><time>2026-04-06T19:02:58.999Z</time></trkpt><trkpt lat="37.53029154606825" lon="14.990700725604265"><ele>250.33333333333334</ele><time>2026-04-06T19:02:59.999Z</time></trkpt><trkpt lat="37.53012506398076" lon="14.990874514157762"><ele>251.0</ele><time>2026-04-06T19:03:00.999Z</time></trkpt><trkpt lat="37.52995845352622" lon="14.991049537477673"><ele>251.33333333333334</ele><time>2026-04-06T19:03:01.999Z</time></trkpt><trkpt lat="37.52979315541419" lon="14.991229001369488"><ele>251.66666666666669</ele><time>2026-04-06T19:03:02.999Z</time></trkpt><trkpt lat="37.52962642388347" lon="14.99140807630442"><ele>252.0</ele><time>2026-04-06T19:03:03.999Z</time></trkpt><trkpt lat="37.529462154045255" lon="14.99158612224129"><ele>252.33333333333331</ele><time>2026-04-06T19:03:04.999Z</time></trkpt><trkpt lat="37.529297488787094" lon="14.991761663308235"><ele>252.66666666666666</ele><time>2026-04-06T19:03:05.999Z</time></trkpt><trkpt lat="37.52913242784706" lon="14.991934818803038"><ele>253.0</ele><time>2026-04-06T19:03:06.999Z</time></trkpt><trkpt lat="37.52896564461558" lon="14.992107898409815"><ele>253.0</ele><time>2026-04-06T19:03:07.999Z</time></trkpt><trkpt lat="37.52879805753201" lon="14.992286208887759"><ele>253.0</ele><time>2026-04-06T19:03:08.999Z</time></trkpt><trkpt lat="37.528630098442925" lon="14.992464644978647"><ele>253.0</ele><time>2026-04-06T19:03:09.999Z</time></trkpt><trkpt lat="37.52846307117111" lon="14.992641820119468"><ele>253.33333333333331</ele><time>2026-04-06T19:03:10.999Z</time></trkpt><trkpt lat="37.528292552744894" lon="14.992819766628765"><ele>253.66666666666669</ele><time>2026-04-06T19:03:11.998Z</time></trkpt><trkpt lat="37.52811931964887" lon="14.992994757902164"><ele>254.0</ele><time>2026-04-06T19:03:12.998Z</time></trkpt><trkpt lat="37.52794546976308" lon="14.99316625028578"><ele>253.66666666666669</ele><time>2026-04-06T19:03:13.998Z</time></trkpt><trkpt lat="37.52777134322734" lon="14.993338165324188"><ele>253.33333333333331</ele><time>2026-04-06T19:03:14.998Z</time></trkpt><trkpt lat="37.52759824226199" lon="14.993510098445121"><ele>253.0</ele><time>2026-04-06T19:03:15.998Z</time></trkpt><trkpt lat="37.527422376398164" lon="14.993678950865664"><ele>253.0</ele><time>2026-04-06T19:03:16.998Z</time></trkpt><trkpt lat="37.52724221615091" lon="14.993842453269366"><ele>253.0</ele><time>2026-04-06T19:03:17.998Z</time></trkpt><trkpt lat="37.52705571626334" lon="14.994000568470117"><ele>253.0</ele><time>2026-04-06T19:03:18.998Z</time></trkpt><trkpt lat="37.52686445011837" lon="14.994147150715973"><ele>253.66666666666666</ele><time>2026-04-06T19:03:19.998Z</time></trkpt><trkpt lat="37.526666822429355" lon="14.994280630169847"><ele>254.33333333333331</ele><time>2026-04-06T19:03:20.998Z</time></trkpt><trkpt lat="37.52646489375032" lon="14.994400589992928"><ele>255.0</ele><time>2026-04-06T19:03:21.998Z</time></trkpt><trkpt lat="37.526259268569696" lon="14.994512080074081"><ele>255.5</ele><time>2026-04-06T19:03:22.998Z</time></trkpt><trkpt lat="37.52604935248757" lon="14.994616772626506"><ele>256.0</ele><time>2026-04-06T19:03:23.998Z</time></trkpt><trkpt lat="37.52583949411306" lon="14.99472019854776"><ele>256.0</ele><time>2026-04-06T19:03:24.998Z</time></trkpt><trkpt lat="37.52562612888715" lon="14.994818997975065"><ele>256.0</ele><time>2026-04-06T19:03:25.998Z</time></trkpt><trkpt lat="37.52540795818196" lon="14.994908349722502"><ele>256.5</ele><time>2026-04-06T19:03:26.998Z</time></trkpt><trkpt lat="37.52518793941214" lon="14.99499344727455"><ele>257.0</ele><time>2026-04-06T19:03:27.998Z</time></trkpt><trkpt lat="37.52497089844235" lon="14.99507803951786"><ele>256.0</ele><time>2026-04-06T19:03:28.998Z</time></trkpt><trkpt lat="37.52475369815593" lon="14.99516397315034"><ele>255.0</ele><time>2026-04-06T19:03:29.998Z</time></trkpt><trkpt lat="37.524540252747585" lon="14.99525229387982"><ele>254.33333333333331</ele><time>2026-04-06T19:03:30.998Z</time></trkpt><trkpt lat="37.52432973367372" lon="14.995342022415766"><ele>253.66666666666666</ele><time>2026-04-06T19:03:31.998Z</time></trkpt><trkpt lat="37.52411897432413" lon="14.995435867054605"><ele>253.0</ele><time>2026-04-06T19:03:32.998Z</time></trkpt><trkpt lat="37.52390779554215" lon="14.995535110184106"><ele>253.0</ele><time>2026-04-06T19:03:33.998Z</time></trkpt><trkpt lat="37.52369671216528" lon="14.995639418807038"><ele>253.0</ele><time>2026-04-06T19:03:34.998Z</time></trkpt><trkpt lat="37.52349119075229" lon="14.995744809281565"><ele>253.0</ele><time>2026-04-06T19:03:35.998Z</time></trkpt><trkpt lat="37.523292590357215" lon="14.995851003638705"><ele>252.66666666666666</ele><time>2026-04-06T19:03:36.998Z</time></trkpt><trkpt lat="37.5230968132884" lon="14.995958694257085"><ele>252.33333333333331</ele><time>2026-04-06T19:03:37.998Z</time></trkpt><trkpt lat="37.52290331137643" lon="14.996070909656417"><ele>252.0</ele><time>2026-04-06T19:03:38.998Z</time></trkpt><trkpt lat="37.52270957178536" lon="14.996184626574236"><ele>251.33333333333331</ele><time>2026-04-06T19:03:39.998Z</time></trkpt><trkpt lat="37.52251343579575" lon="14.996296516532508"><ele>250.66666666666666</ele><time>2026-04-06T19:03:40.998Z</time></trkpt><trkpt lat="37.52231512073966" lon="14.996407465748586"><ele>250.0</ele><time>2026-04-06T19:03:41.998Z</time></trkpt><trkpt lat="37.52211718478384" lon="14.996519252301702"><ele>250.33333333333331</ele><time>2026-04-06T19:03:42.998Z</time></trkpt><trkpt lat="37.521924385351774" lon="14.996629106333655"><ele>250.66666666666669</ele><time>2026-04-06T19:03:43.998Z</time></trkpt><trkpt lat="37.52173951658897" lon="14.996735378265353"><ele>251.0</ele><time>2026-04-06T19:03:44.998Z</time></trkpt><trkpt lat="37.52155998608794" lon="14.996836521751714"><ele>249.66666666666669</ele><time>2026-04-06T19:03:45.998Z</time></trkpt><trkpt lat="37.52139019865023" lon="14.9969302672526"><ele>248.33333333333331</ele><time>2026-04-06T19:03:47Z</time></trkpt><trkpt lat="37.52123261097458" lon="14.997022384595361"><ele>247.0</ele><time>2026-04-06T19:03:48Z</time></trkpt><trkpt lat="37.52108194310879" lon="14.997113278745022"><ele>247.0</ele><time>2026-04-06T19:03:49Z</time></trkpt><trkpt lat="37.52094268221106" lon="14.997205538888462"><ele>247.0</ele><time>2026-04-06T19:03:50Z</time></trkpt><trkpt lat="37.520811067255806" lon="14.997300191598523"><ele>247.0</ele><time>2026-04-06T19:03:51Z</time></trkpt><trkpt lat="37.52068868842483" lon="14.997400117136968"><ele>246.75</ele><time>2026-04-06T19:03:52Z</time></trkpt><trkpt lat="37.5205708373629" lon="14.997504002620916"><ele>246.5</ele><time>2026-04-06T19:03:53Z</time></trkpt><trkpt lat="37.520457093569696" lon="14.997610909114034"><ele>246.25</ele><time>2026-04-06T19:03:54Z</time></trkpt><trkpt lat="37.520348281678814" lon="14.997721035323623"><ele>246.0</ele><time>2026-04-06T19:03:55Z</time></trkpt><trkpt lat="37.52024427286967" lon="14.9978346423338"><ele>246.0</ele><time>2026-04-06T19:03:56Z</time></trkpt><trkpt lat="37.5201448715918" lon="14.9979511530369"><ele>246.0</ele><time>2026-04-06T19:03:57Z</time></trkpt><trkpt lat="37.52005005732089" lon="14.998067545665123"><ele>246.0</ele><time>2026-04-06T19:03:58Z</time></trkpt><trkpt lat="37.51995645291549" lon="14.998183742550713"><ele>246.0</ele><time>2026-04-06T19:03:59Z</time></trkpt><trkpt lat="37.51986236535568" lon="14.99829548307698"><ele>247.0</ele><time>2026-04-06T19:04:00Z</time></trkpt><trkpt lat="37.5197749580357" lon="14.998413446576654"><ele>248.0</ele><time>2026-04-06T19:04:01Z</time></trkpt><trkpt lat="37.51969528374429" lon="14.998535769150639"><ele>249.0</ele><time>2026-04-06T19:04:02Z</time></trkpt><trkpt lat="37.51962260456783" lon="14.998664416786074"><ele>250.0</ele><time>2026-04-06T19:04:03Z</time></trkpt><trkpt lat="37.51955380715835" lon="14.9987952069683"><ele>247.75</ele><time>2026-04-06T19:04:04Z</time></trkpt><trkpt lat="37.519486697773374" lon="14.998934217517482"><ele>245.5</ele><time>2026-04-06T19:04:05Z</time></trkpt><trkpt lat="37.51941610252996" lon="14.999081848282"><ele>243.25</ele><time>2026-04-06T19:04:06Z</time></trkpt><trkpt lat="37.51934498550755" lon="14.999238920857179"><ele>241.0</ele><time>2026-04-06T19:04:07Z</time></trkpt><trkpt lat="37.51927259579065" lon="14.999402071866468"><ele>241.0</ele><time>2026-04-06T19:04:08Z</time></trkpt><trkpt lat="37.519195974868936" lon="14.999577800844012"><ele>241.0</ele><time>2026-04-06T19:04:09Z</time></trkpt><trkpt lat="37.51911722820053" lon="14.999762965117775"><ele>241.0</ele><time>2026-04-06T19:04:10Z</time></trkpt><trkpt lat="37.51903285826022" lon="14.999958786081766"><ele>241.0</ele><time>2026-04-06T19:04:11Z</time></trkpt><trkpt lat="37.51894329922583" lon="15.000156236043674"><ele>241.0</ele><time>2026-04-06T19:04:12Z</time></trkpt><trkpt lat="37.51885055492653" lon="15.000352202091138"><ele>241.0</ele><time>2026-04-06T19:04:13Z</time></trkpt><trkpt lat="37.51875208138854" lon="15.000546405024519"><ele>235.0</ele><time>2026-04-06T19:04:14Z</time></trkpt><trkpt lat="37.518648784783004" lon="15.00073867228238"><ele>229.0</ele><time>2026-04-06T19:04:15Z</time></trkpt><trkpt lat="37.51854042286614" lon="15.000926784680496"><ele>223.0</ele><time>2026-04-06T19:04:16Z</time></trkpt><trkpt lat="37.518429222198044" lon="15.001110854559958"><ele>223.0</ele><time>2026-04-06T19:04:17Z</time></trkpt><trkpt lat="37.51832642781352" lon="15.001275012601319"><ele>223.0</ele><time>2026-04-06T19:04:18Z</time></trkpt><trkpt lat="37.51824441631488" lon="15.001394342612715"><ele>223.0</ele><time>2026-04-06T19:04:19Z</time></trkpt><trkpt lat="37.51815979568032" lon="15.001513184321775"><ele>223.0</ele><time>2026-04-06T19:04:20Z</time></trkpt><trkpt lat="37.51806515494344" lon="15.001621235422899"><ele>221.0</ele><time>2026-04-06T19:04:21Z</time></trkpt><trkpt lat="37.51797046669773" lon="15.00172901437669"><ele>219.0</ele><time>2026-04-06T19:04:22Z</time></trkpt><trkpt lat="37.51787396810716" lon="15.00183747326683"><ele>217.0</ele><time>2026-04-06T19:04:23Z</time></trkpt><trkpt lat="37.5177781757748" lon="15.001950563524142"><ele>215.0</ele><time>2026-04-06T19:04:24Z</time></trkpt><trkpt lat="37.51768036815039" lon="15.002061396391012"><ele>215.0</ele><time>2026-04-06T19:04:25Z</time></trkpt><trkpt lat="37.517580274897526" lon="15.002171170455638"><ele>215.0</ele><time>2026-04-06T19:04:26Z</time></trkpt><trkpt lat="37.51747909554163" lon="15.002278893244807"><ele>215.0</ele><time>2026-04-06T19:04:27Z</time></trkpt><trkpt lat="37.517371366072055" lon="15.002381970560648"><ele>215.0</ele><time>2026-04-06T19:04:28Z</time></trkpt><trkpt lat="37.517263452099876" lon="15.00248639085447"><ele>213.75</ele><time>2026-04-06T19:04:29Z</time></trkpt><trkpt lat="37.51715703408141" lon="15.002594644168"><ele>212.5</ele><time>2026-04-06T19:04:30Z</time></trkpt><trkpt lat="37.51704914845114" lon="15.002704161324155"><ele>211.25</ele><time>2026-04-06T19:04:31Z</time></trkpt><trkpt lat="37.51694140650693" lon="15.002816204449939"><ele>210.0</ele><time>2026-04-06T19:04:32Z</time></trkpt><trkpt lat="37.516832423245646" lon="15.002927533610569"><ele>210.0</ele><time>2026-04-06T19:04:32.999Z</time></trkpt><trkpt lat="37.516722017519236" lon="15.003040019649426"><ele>210.0</ele><time>2026-04-06T19:04:33.999Z</time></trkpt><trkpt lat="37.51661084796061" lon="15.00315458299238"><ele>210.0</ele><time>2026-04-06T19:04:34.999Z</time></trkpt><trkpt lat="37.51649908296217" lon="15.003266640298492"><ele>210.0</ele><time>2026-04-06T19:04:35.999Z</time></trkpt><trkpt lat="37.51638591098839" lon="15.003378224575055"><ele>211.0</ele><time>2026-04-06T19:04:36.999Z</time></trkpt><trkpt lat="37.5162727511953" lon="15.00348955618605"><ele>212.0</ele><time>2026-04-06T19:04:37.999Z</time></trkpt><trkpt lat="37.51616085257143" lon="15.003604601637855"><ele>213.0</ele><time>2026-04-06T19:04:38.999Z</time></trkpt><trkpt lat="37.516049508289704" lon="15.003720198503666"><ele>214.0</ele><time>2026-04-06T19:04:39.999Z</time></trkpt><trkpt lat="37.5159355692842" lon="15.003835146016515"><ele>212.75</ele><time>2026-04-06T19:04:40.999Z</time></trkpt><trkpt lat="37.515822344597744" lon="15.00394975115861"><ele>211.5</ele><time>2026-04-06T19:04:41.999Z</time></trkpt><trkpt lat="37.51570859776827" lon="15.004064311445763"><ele>210.25</ele><time>2026-04-06T19:04:42.999Z</time></trkpt><trkpt lat="37.51559504618564" lon="15.00417912306621"><ele>209.0</ele><time>2026-04-06T19:04:43.999Z</time></trkpt><trkpt lat="37.515481433737165" lon="15.004293881263738"><ele>206.5</ele><time>2026-04-06T19:04:44.999Z</time></trkpt><trkpt lat="37.515367188949945" lon="15.00440828542837"><ele>204.0</ele><time>2026-04-06T19:04:45.999Z</time></trkpt><trkpt lat="37.515252722885975" lon="15.00452334541443"><ele>201.5</ele><time>2026-04-06T19:04:46.999Z</time></trkpt><trkpt lat="37.515138933062055" lon="15.004640131842887"><ele>199.0</ele><time>2026-04-06T19:04:47.999Z</time></trkpt><trkpt lat="37.51502441070283" lon="15.004757450062646"><ele>199.0</ele><time>2026-04-06T19:04:48.999Z</time></trkpt><trkpt lat="37.514911453400885" lon="15.004875032927513"><ele>199.0</ele><time>2026-04-06T19:04:49.999Z</time></trkpt><trkpt lat="37.51479845297058" lon="15.00499241404955"><ele>199.0</ele><time>2026-04-06T19:04:50.999Z</time></trkpt><trkpt lat="37.5146858876198" lon="15.0051110562202"><ele>199.0</ele><time>2026-04-06T19:04:51.999Z</time></trkpt><trkpt lat="37.51457591563468" lon="15.00523103966616"><ele>197.75</ele><time>2026-04-06T19:04:52.999Z</time></trkpt><trkpt lat="37.51446716356326" lon="15.00535300587227"><ele>196.5</ele><time>2026-04-06T19:04:53.999Z</time></trkpt><trkpt lat="37.514361322965534" lon="15.005479408015743"><ele>195.25</ele><time>2026-04-06T19:04:54.999Z</time></trkpt><trkpt lat="37.51425836854427" lon="15.00561206527303"><ele>194.0</ele><time>2026-04-06T19:04:55.999Z</time></trkpt><trkpt lat="37.51416093208264" lon="15.005748826460392"><ele>195.75</ele><time>2026-04-06T19:04:56.999Z</time></trkpt><trkpt lat="37.51406879721974" lon="15.005891786655269"><ele>197.5</ele><time>2026-04-06T19:04:57.999Z</time></trkpt><trkpt lat="37.51398424957524" lon="15.006040883702216"><ele>199.25</ele><time>2026-04-06T19:04:58.999Z</time></trkpt><trkpt lat="37.51390573980693" lon="15.006195797429157"><ele>201.0</ele><time>2026-04-06T19:04:59.999Z</time></trkpt><trkpt lat="37.51383497564459" lon="15.00635714282657"><ele>201.0</ele><time>2026-04-06T19:05:00.999Z</time></trkpt><trkpt lat="37.51376884147005" lon="15.006522727284114"><ele>201.0</ele><time>2026-04-06T19:05:01.999Z</time></trkpt><trkpt lat="37.5137100107773" lon="15.006692858851043"><ele>201.0</ele><time>2026-04-06T19:05:02.999Z</time></trkpt><trkpt lat="37.513660648235074" lon="15.00686591816876"><ele>201.0</ele><time>2026-04-06T19:05:03.999Z</time></trkpt><trkpt lat="37.513618084139715" lon="15.007042591542632"><ele>197.75</ele><time>2026-04-06T19:05:04.999Z</time></trkpt><trkpt lat="37.51358346648354" lon="15.007223993538911"><ele>194.5</ele><time>2026-04-06T19:05:05.999Z</time></trkpt><trkpt lat="37.51355675536822" lon="15.00741023573713"><ele>191.25</ele><time>2026-04-06T19:05:06.999Z</time></trkpt><trkpt lat="37.51353776847507" lon="15.007598395789666"><ele>188.0</ele><time>2026-04-06T19:05:07.999Z</time></trkpt><trkpt lat="37.51352293292555" lon="15.007790891125406"><ele>187.66666666666666</ele><time>2026-04-06T19:05:08.999Z</time></trkpt><trkpt lat="37.51351482970245" lon="15.007984851810455"><ele>187.33333333333334</ele><time>2026-04-06T19:05:09.999Z</time></trkpt><trkpt lat="37.51351324103036" lon="15.008181093586142"><ele>187.0</ele><time>2026-04-06T19:05:10.999Z</time></trkpt><trkpt lat="37.51351622424036" lon="15.008380252839526"><ele>185.33333333333334</ele><time>2026-04-06T19:05:11.999Z</time></trkpt><trkpt lat="37.51352380046768" lon="15.008581231800532"><ele>183.66666666666666</ele><time>2026-04-06T19:05:12.999Z</time></trkpt><trkpt lat="37.51353220683968" lon="15.008785023682464"><ele>182.0</ele><time>2026-04-06T19:05:13.999Z</time></trkpt><trkpt lat="37.51354294439891" lon="15.008990456623938"><ele>179.0</ele><time>2026-04-06T19:05:14.998Z</time></trkpt><trkpt lat="37.51355581538591" lon="15.009198054879807"><ele>176.0</ele><time>2026-04-06T19:05:15.998Z</time></trkpt><trkpt lat="37.51356849279896" lon="15.009406578814879"><ele>173.0</ele><time>2026-04-06T19:05:16.998Z</time></trkpt><trkpt lat="37.513580818784106" lon="15.009617914475637"><ele>173.0</ele><time>2026-04-06T19:05:17.998Z</time></trkpt><trkpt lat="37.51359136176576" lon="15.009830237217635"><ele>173.0</ele><time>2026-04-06T19:05:18.998Z</time></trkpt><trkpt lat="37.51360019226948" lon="15.01004684133163"><ele>173.0</ele><time>2026-04-06T19:05:19.998Z</time></trkpt><trkpt lat="37.513607567977154" lon="15.010262841934411"><ele>173.0</ele><time>2026-04-06T19:05:20.998Z</time></trkpt><trkpt lat="37.513616557724205" lon="15.010479879022288"><ele>173.0</ele><time>2026-04-06T19:05:21.998Z</time></trkpt><trkpt lat="37.513624491429546" lon="15.01069851966634"><ele>173.0</ele><time>2026-04-06T19:05:22.998Z</time></trkpt><trkpt lat="37.51363220849339" lon="15.010916109044357"><ele>171.33333333333331</ele><time>2026-04-06T19:05:23.998Z</time></trkpt><trkpt lat="37.51364118181211" lon="15.011134872235575"><ele>169.66666666666666</ele><time>2026-04-06T19:05:24.998Z</time></trkpt><trkpt lat="37.513650974782" lon="15.011352589219475"><ele>168.0</ele><time>2026-04-06T19:05:25.998Z</time></trkpt><trkpt lat="37.5136612259651" lon="15.011568771960206"><ele>167.33333333333334</ele><time>2026-04-06T19:05:26.998Z</time></trkpt><trkpt lat="37.513667103722156" lon="15.011782965614566"><ele>166.66666666666669</ele><time>2026-04-06T19:05:27.998Z</time></trkpt><trkpt lat="37.51366701023424" lon="15.011996461005584"><ele>166.0</ele><time>2026-04-06T19:05:28.998Z</time></trkpt><trkpt lat="37.51365779294912" lon="15.01220548781921"><ele>166.0</ele><time>2026-04-06T19:05:29.998Z</time></trkpt><trkpt lat="37.5136403877699" lon="15.01241075846218"><ele>166.0</ele><time>2026-04-06T19:05:30.998Z</time></trkpt><trkpt lat="37.513614838363736" lon="15.012610571515678"><ele>166.0</ele><time>2026-04-06T19:05:31.998Z</time></trkpt><trkpt lat="37.51357973508972" lon="15.012805915495454"><ele>165.66666666666669</ele><time>2026-04-06T19:05:32.998Z</time></trkpt><trkpt lat="37.51353703935852" lon="15.012996077593233"><ele>165.33333333333334</ele><time>2026-04-06T19:05:33.998Z</time></trkpt><trkpt lat="37.51349366417261" lon="15.013179040406872"><ele>165.0</ele><time>2026-04-06T19:05:34.998Z</time></trkpt><trkpt lat="37.51344664764721" lon="15.013361615389098"><ele>164.0</ele><time>2026-04-06T19:05:35.998Z</time></trkpt><trkpt lat="37.51339249731545" lon="15.013550266306078"><ele>163.0</ele><time>2026-04-06T19:05:36.998Z</time></trkpt><trkpt lat="37.513331681751914" lon="15.013743960205675"><ele>162.0</ele><time>2026-04-06T19:05:37.998Z</time></trkpt><trkpt lat="37.513263176233025" lon="15.013938074378748"><ele>162.0</ele><time>2026-04-06T19:05:38.998Z</time></trkpt><trkpt lat="37.51318778096265" lon="15.01412934644333"><ele>162.0</ele><time>2026-04-06T19:05:39.998Z</time></trkpt><trkpt lat="37.513105800496604" lon="15.014321731660464"><ele>162.0</ele><time>2026-04-06T19:05:40.998Z</time></trkpt><trkpt lat="37.513019120823245" lon="15.014511939405931"><ele>162.33333333333334</ele><time>2026-04-06T19:05:41.998Z</time></trkpt><trkpt lat="37.51293035011136" lon="15.014701232637174"><ele>162.66666666666669</ele><time>2026-04-06T19:05:42.998Z</time></trkpt><trkpt lat="37.51284063339235" lon="15.014891023422692"><ele>163.0</ele><time>2026-04-06T19:05:43.998Z</time></trkpt><trkpt lat="37.51274904636479" lon="15.015081120674942"><ele>162.33333333333334</ele><time>2026-04-06T19:05:44.998Z</time></trkpt><trkpt lat="37.51265795450115" lon="15.015273131214807"><ele>161.66666666666666</ele><time>2026-04-06T19:05:45.998Z</time></trkpt><trkpt lat="37.51257023272738" lon="15.015466215311882"><ele>161.0</ele><time>2026-04-06T19:05:46.998Z</time></trkpt><trkpt lat="37.51248452835578" lon="15.015658414605557"><ele>161.0</ele><time>2026-04-06T19:05:47.998Z</time></trkpt><trkpt lat="37.51240076297194" lon="15.015849280661294"><ele>161.0</ele><time>2026-04-06T19:05:48.998Z</time></trkpt><trkpt lat="37.512321569437425" lon="15.016043929504002"><ele>161.0</ele><time>2026-04-06T19:05:49.998Z</time></trkpt><trkpt lat="37.5122481193085" lon="15.016239026207575"><ele>161.0</ele><time>2026-04-06T19:05:50.998Z</time></trkpt><trkpt lat="37.51217471362341" lon="15.016437679824476"><ele>161.0</ele><time>2026-04-06T19:05:52Z</time></trkpt><trkpt lat="37.51204547545726" lon="15.016836327864706"><ele>161.0</ele><time>2026-04-06T19:05:54Z</time></trkpt><trkpt lat="37.51198886283802" lon="15.017040047535016"><ele>161.0</ele><time>2026-04-06T19:05:55Z</time></trkpt><trkpt lat="37.511932477770515" lon="15.017243875063754"><ele>161.0</ele><time>2026-04-06T19:05:56Z</time></trkpt><trkpt lat="37.51187480935896" lon="15.017448259063515"><ele>161.0</ele><time>2026-04-06T19:05:57Z</time></trkpt><trkpt lat="37.51181685510777" lon="15.017649768629544"><ele>161.0</ele><time>2026-04-06T19:05:58Z</time></trkpt><trkpt lat="37.511756245953954" lon="15.017851440461827"><ele>161.0</ele><time>2026-04-06T19:05:59Z</time></trkpt><trkpt lat="37.51169205038076" lon="15.01805124717685"><ele>161.0</ele><time>2026-04-06T19:06:00Z</time></trkpt><trkpt lat="37.51162275366281" lon="15.018251781845631"><ele>161.0</ele><time>2026-04-06T19:06:01Z</time></trkpt><trkpt lat="37.51155332332399" lon="15.018456459125856"><ele>161.0</ele><time>2026-04-06T19:06:02Z</time></trkpt><trkpt lat="37.51148490845713" lon="15.018662757546892"><ele>160.66666666666666</ele><time>2026-04-06T19:06:03Z</time></trkpt><trkpt lat="37.51142031777271" lon="15.018868050116582"><ele>160.33333333333334</ele><time>2026-04-06T19:06:04Z</time></trkpt><trkpt lat="37.51135663792882" lon="15.019073486267224"><ele>160.0</ele><time>2026-04-06T19:06:05Z</time></trkpt><trkpt lat="37.5112968331878" lon="15.019279425203123"><ele>160.33333333333334</ele><time>2026-04-06T19:06:06Z</time></trkpt><trkpt lat="37.51123865527576" lon="15.019485509246302"><ele>160.66666666666666</ele><time>2026-04-06T19:06:07Z</time></trkpt><trkpt lat="37.511182690324176" lon="15.019695446084786"><ele>161.0</ele><time>2026-04-06T19:06:08Z</time></trkpt><trkpt lat="37.51112943152681" lon="15.01990491003506"><ele>160.33333333333331</ele><time>2026-04-06T19:06:09Z</time></trkpt><trkpt lat="37.51107996763379" lon="15.020115269476147"><ele>159.66666666666666</ele><time>2026-04-06T19:06:10Z</time></trkpt><trkpt lat="37.511036566796506" lon="15.020324938483776"><ele>159.0</ele><time>2026-04-06T19:06:11Z</time></trkpt><trkpt lat="37.51099932319839" lon="15.020539403165026"><ele>159.0</ele><time>2026-04-06T19:06:12Z</time></trkpt><trkpt lat="37.51096778251649" lon="15.020756891549404"><ele>159.0</ele><time>2026-04-06T19:06:13Z</time></trkpt><trkpt lat="37.51093744884581" lon="15.020974702212719"><ele>159.0</ele><time>2026-04-06T19:06:14Z</time></trkpt><trkpt lat="37.510906457330606" lon="15.021193073085204"><ele>159.33333333333334</ele><time>2026-04-06T19:06:15Z</time></trkpt><trkpt lat="37.51087642213513" lon="15.021411530357275"><ele>159.66666666666669</ele><time>2026-04-06T19:06:16Z</time></trkpt><trkpt lat="37.51084771842128" lon="15.021631305950766"><ele>160.0</ele><time>2026-04-06T19:06:17Z</time></trkpt><trkpt lat="37.51082056913648" lon="15.021852644288042"><ele>158.66666666666669</ele><time>2026-04-06T19:06:18Z</time></trkpt><trkpt lat="37.510798739014724" lon="15.02207543201147"><ele>157.33333333333334</ele><time>2026-04-06T19:06:19Z</time></trkpt><trkpt lat="37.510783156463205" lon="15.022299220661399"><ele>156.0</ele><time>2026-04-06T19:06:20Z</time></trkpt><trkpt lat="37.510774682715216" lon="15.022523920746185"><ele>156.0</ele><time>2026-04-06T19:06:21Z</time></trkpt><trkpt lat="37.51077008781771" lon="15.022750873562783"><ele>156.0</ele><time>2026-04-06T19:06:22Z</time></trkpt><trkpt lat="37.51076636903827" lon="15.022980898037655"><ele>156.0</ele><time>2026-04-06T19:06:23Z</time></trkpt><trkpt lat="37.51076591648831" lon="15.023210193283205"><ele>155.33333333333334</ele><time>2026-04-06T19:06:24Z</time></trkpt><trkpt lat="37.510766913141715" lon="15.023441790030375"><ele>154.66666666666669</ele><time>2026-04-06T19:06:25Z</time></trkpt><trkpt lat="37.51076497945687" lon="15.023675400532381"><ele>154.0</ele><time>2026-04-06T19:06:26Z</time></trkpt><trkpt lat="37.510765269819565" lon="15.023908928126257"><ele>154.0</ele><time>2026-04-06T19:06:27Z</time></trkpt><trkpt lat="37.510764817737076" lon="15.024135173781865"><ele>154.0</ele><time>2026-04-06T19:06:28Z</time></trkpt><trkpt lat="37.5107597864233" lon="15.024356659754952"><ele>154.0</ele><time>2026-04-06T19:06:29Z</time></trkpt><trkpt lat="37.510748930889314" lon="15.024572408539234"><ele>154.0</ele><time>2026-04-06T19:06:30Z</time></trkpt><trkpt lat="37.51072910322624" lon="15.024786306746131"><ele>154.0</ele><time>2026-04-06T19:06:31Z</time></trkpt><trkpt lat="37.51067711592616" lon="15.024967514003434"><ele>154.0</ele><time>2026-04-06T19:06:32Z</time></trkpt><trkpt lat="37.51060819740287" lon="15.02513578206007"><ele>154.0</ele><time>2026-04-06T19:06:33Z</time></trkpt><trkpt lat="37.510527503554165" lon="15.025286801979133"><ele>154.0</ele><time>2026-04-06T19:06:34Z</time></trkpt><trkpt lat="37.51043565774801" lon="15.025420702664126"><ele>154.0</ele><time>2026-04-06T19:06:35Z</time></trkpt><trkpt lat="37.51032898393292" lon="15.025531215032752"><ele>154.0</ele><time>2026-04-06T19:06:36Z</time></trkpt><trkpt lat="37.51020983394861" lon="15.025625357044973"><ele>154.25</ele><time>2026-04-06T19:06:37Z</time></trkpt><trkpt lat="37.51008594058171" lon="15.025700913580355"><ele>154.5</ele><time>2026-04-06T19:06:38Z</time></trkpt><trkpt lat="37.50996362159141" lon="15.025757378607448"><ele>154.75</ele><time>2026-04-06T19:06:39Z</time></trkpt><trkpt lat="37.5098391758939" lon="15.025788605127422"><ele>155.0</ele><time>2026-04-06T19:06:40Z</time></trkpt><trkpt lat="37.509716050902064" lon="15.02580380576306"><ele>155.0</ele><time>2026-04-06T19:06:41Z</time></trkpt><trkpt lat="37.5095941131183" lon="15.025801926387023"><ele>155.0</ele><time>2026-04-06T19:06:41.999Z</time></trkpt><trkpt lat="37.5094903385435" lon="15.02579712021733"><ele>155.0</ele><time>2026-04-06T19:06:42.999Z</time></trkpt><trkpt lat="37.509396096043886" lon="15.02578664341399"><ele>155.0</ele><time>2026-04-06T19:06:43.999Z</time></trkpt><trkpt lat="37.509304961147805" lon="15.025772462266788"><ele>155.0</ele><time>2026-04-06T19:06:44.999Z</time></trkpt><trkpt lat="37.509170579921374" lon="15.025612837892917"><ele>156.0</ele><time>2026-04-06T19:06:45.999Z</time></trkpt><trkpt lat="37.50908340220631" lon="15.025508126609955"><ele>157.0</ele><time>2026-04-06T19:06:46.999Z</time></trkpt><trkpt lat="37.50901956447402" lon="15.025397293529824"><ele>158.0</ele><time>2026-04-06T19:06:47.999Z</time></trkpt><trkpt lat="37.50896389081774" lon="15.025278984623977"><ele>159.0</ele><time>2026-04-06T19:06:48.999Z</time></trkpt><trkpt lat="37.5089168840685" lon="15.02514839901608"><ele>159.0</ele><time>2026-04-06T19:06:49.999Z</time></trkpt><trkpt lat="37.50888440846763" lon="15.025009038021134"><ele>159.0</ele><time>2026-04-06T19:06:50.999Z</time></trkpt><trkpt lat="37.50884821372988" lon="15.024872001706836"><ele>159.0</ele><time>2026-04-06T19:06:51.999Z</time></trkpt><trkpt lat="37.50880901561709" lon="15.0247374156643"><ele>159.0</ele><time>2026-04-06T19:06:52.999Z</time></trkpt><trkpt lat="37.50876838022703" lon="15.024598883425739"><ele>159.6</ele><time>2026-04-06T19:06:53.999Z</time></trkpt><trkpt lat="37.50872776369434" lon="15.024456868633047"><ele>160.2</ele><time>2026-04-06T19:06:54.999Z</time></trkpt><trkpt lat="37.50868841079827" lon="15.024323535801491"><ele>160.79999999999998</ele><time>2026-04-06T19:06:55.999Z</time></trkpt><trkpt lat="37.50865169088139" lon="15.024200511622587"><ele>161.4</ele><time>2026-04-06T19:06:56.999Z</time></trkpt><trkpt lat="37.50861232308309" lon="15.024077139465458"><ele>162.0</ele><time>2026-04-06T19:06:57.999Z</time></trkpt><trkpt lat="37.50855285360928" lon="15.02395030994621"><ele>162.0</ele><time>2026-04-06T19:06:58.999Z</time></trkpt><trkpt lat="37.50852226580199" lon="15.023790057099566"><ele>162.0</ele><time>2026-04-06T19:06:59.999Z</time></trkpt><trkpt lat="37.50848384099832" lon="15.023637553119892"><ele>162.0</ele><time>2026-04-06T19:07:00.999Z</time></trkpt><trkpt lat="37.5084560134719" lon="15.02347497288463"><ele>162.0</ele><time>2026-04-06T19:07:01.999Z</time></trkpt><trkpt lat="37.50842354324472" lon="15.023304117801231"><ele>162.75</ele><time>2026-04-06T19:07:02.999Z</time></trkpt><trkpt lat="37.50838961702717" lon="15.023132176599532"><ele>163.5</ele><time>2026-04-06T19:07:03.999Z</time></trkpt><trkpt lat="37.508354239178125" lon="15.022956178412134"><ele>164.25</ele><time>2026-04-06T19:07:04.999Z</time></trkpt><trkpt lat="37.50831689799842" lon="15.022778651078518"><ele>165.0</ele><time>2026-04-06T19:07:05.999Z</time></trkpt><trkpt lat="37.508281795061194" lon="15.022605504490597"><ele>165.25</ele><time>2026-04-06T19:07:06.999Z</time></trkpt><trkpt lat="37.50824255854702" lon="15.022420930698999"><ele>165.5</ele><time>2026-04-06T19:07:07.999Z</time></trkpt><trkpt lat="37.50821025646324" lon="15.022240812477486"><ele>165.75</ele><time>2026-04-06T19:07:08.999Z</time></trkpt><trkpt lat="37.50818120902494" lon="15.022058310614788"><ele>166.0</ele><time>2026-04-06T19:07:09.999Z</time></trkpt><trkpt lat="37.50816227426818" lon="15.021872970846342"><ele>166.0</ele><time>2026-04-06T19:07:10.999Z</time></trkpt><trkpt lat="37.50816071216741" lon="15.021682493593195"><ele>166.0</ele><time>2026-04-06T19:07:11.999Z</time></trkpt><trkpt lat="37.50817494251474" lon="15.021489925176239"><ele>166.0</ele><time>2026-04-06T19:07:12.999Z</time></trkpt><trkpt lat="37.50820003595784" lon="15.021297531937744"><ele>166.0</ele><time>2026-04-06T19:07:13.999Z</time></trkpt><trkpt lat="37.50823403664529" lon="15.021102967653157"><ele>166.0</ele><time>2026-04-06T19:07:14.999Z</time></trkpt><trkpt lat="37.50827752508807" lon="15.020913609653947"><ele>166.0</ele><time>2026-04-06T19:07:15.999Z</time></trkpt><trkpt lat="37.50833219165923" lon="15.020731793359891"><ele>166.33333333333334</ele><time>2026-04-06T19:07:16.999Z</time></trkpt><trkpt lat="37.50840408665215" lon="15.020558061615231"><ele>166.66666666666666</ele><time>2026-04-06T19:07:17.999Z</time></trkpt><trkpt lat="37.508487763324396" lon="15.020390766863446"><ele>167.0</ele><time>2026-04-06T19:07:18.999Z</time></trkpt><trkpt lat="37.50857995680031" lon="15.02022668677914"><ele>167.0</ele><time>2026-04-06T19:07:19.999Z</time></trkpt><trkpt lat="37.50868459212325" lon="15.020069608411127"><ele>167.0</ele><time>2026-04-06T19:07:20.999Z</time></trkpt><trkpt lat="37.508794719663314" lon="15.019916491983592"><ele>167.0</ele><time>2026-04-06T19:07:21.999Z</time></trkpt><trkpt lat="37.508916049259355" lon="15.019775329734973"><ele>166.33333333333331</ele><time>2026-04-06T19:07:22.999Z</time></trkpt><trkpt lat="37.50904779075687" lon="15.019649445620354"><ele>165.66666666666666</ele><time>2026-04-06T19:07:23.999Z</time></trkpt><trkpt lat="37.50918545390207" lon="15.019539987355595"><ele>165.0</ele><time>2026-04-06T19:07:24.998Z</time></trkpt><trkpt lat="37.50933166686817" lon="15.019446606268923"><ele>165.0</ele><time>2026-04-06T19:07:25.998Z</time></trkpt><trkpt lat="37.50948541646961" lon="15.01937471876801"><ele>165.0</ele><time>2026-04-06T19:07:26.998Z</time></trkpt><trkpt lat="37.509638870374474" lon="15.019311691205257"><ele>165.0</ele><time>2026-04-06T19:07:27.998Z</time></trkpt><trkpt lat="37.509795471104944" lon="15.01926752029363"><ele>164.0</ele><time>2026-04-06T19:07:28.998Z</time></trkpt><trkpt lat="37.5099529279448" lon="15.01924001131752"><ele>163.0</ele><time>2026-04-06T19:07:29.998Z</time></trkpt><trkpt lat="37.510114442942765" lon="15.01922793396412"><ele>162.0</ele><time>2026-04-06T19:07:30.998Z</time></trkpt><trkpt lat="37.510274982195334" lon="15.019228589581461"><ele>161.66666666666666</ele><time>2026-04-06T19:07:31.998Z</time></trkpt><trkpt lat="37.51043581502019" lon="15.019235996602575"><ele>161.33333333333331</ele><time>2026-04-06T19:07:32.998Z</time></trkpt><trkpt lat="37.510597960628346" lon="15.019247790763465"><ele>161.0</ele><time>2026-04-06T19:07:33.998Z</time></trkpt><trkpt lat="37.51076110952324" lon="15.019256694337635"><ele>161.0</ele><time>2026-04-06T19:07:34.998Z</time></trkpt><trkpt lat="37.510922146875515" lon="15.019265482445348"><ele>161.0</ele><time>2026-04-06T19:07:35.998Z</time></trkpt><trkpt lat="37.511080409334895" lon="15.019282478432586"><ele>161.0</ele><time>2026-04-06T19:07:36.998Z</time></trkpt><trkpt lat="37.51124028542761" lon="15.019302906261608"><ele>161.66666666666666</ele><time>2026-04-06T19:07:37.998Z</time></trkpt><trkpt lat="37.5113992932766" lon="15.019326332772911"><ele>162.33333333333334</ele><time>2026-04-06T19:07:38.998Z</time></trkpt><trkpt lat="37.51155724329205" lon="15.019351536474357"><ele>163.0</ele><time>2026-04-06T19:07:39.998Z</time></trkpt><trkpt lat="37.51172022197452" lon="15.019378991344812"><ele>163.0</ele><time>2026-04-06T19:07:40.998Z</time></trkpt><trkpt lat="37.511880067801926" lon="15.019403494742463"><ele>163.0</ele><time>2026-04-06T19:07:41.998Z</time></trkpt><trkpt lat="37.512044707560044" lon="15.01942835188878"><ele>163.0</ele><time>2026-04-06T19:07:42.998Z</time></trkpt><trkpt lat="37.512207515600565" lon="15.019454732998588"><ele>162.33333333333334</ele><time>2026-04-06T19:07:43.998Z</time></trkpt><trkpt lat="37.51236763206058" lon="15.01948151842048"><ele>161.66666666666666</ele><time>2026-04-06T19:07:44.998Z</time></trkpt><trkpt lat="37.512529709520365" lon="15.019512507611166"><ele>161.0</ele><time>2026-04-06T19:07:45.998Z</time></trkpt><trkpt lat="37.51269055500715" lon="15.019538841331611"><ele>161.0</ele><time>2026-04-06T19:07:46.998Z</time></trkpt><trkpt lat="37.51285297298725" lon="15.019567250911239"><ele>161.0</ele><time>2026-04-06T19:07:47.998Z</time></trkpt><trkpt lat="37.5130144638069" lon="15.019591324183658"><ele>161.0</ele><time>2026-04-06T19:07:48.998Z</time></trkpt><trkpt lat="37.513179889760565" lon="15.019616912868655"><ele>160.66666666666666</ele><time>2026-04-06T19:07:49.998Z</time></trkpt><trkpt lat="37.51334353840178" lon="15.019643538680675"><ele>160.33333333333334</ele><time>2026-04-06T19:07:50.998Z</time></trkpt><trkpt lat="37.51350635560938" lon="15.01966786177215"><ele>160.0</ele><time>2026-04-06T19:07:51.998Z</time></trkpt><trkpt lat="37.513670481960105" lon="15.019694039384497"><ele>160.0</ele><time>2026-04-06T19:07:52.998Z</time></trkpt><trkpt lat="37.51383447669313" lon="15.019721145482427"><ele>160.0</ele><time>2026-04-06T19:07:53.998Z</time></trkpt><trkpt lat="37.51400487563579" lon="15.019746611907534"><ele>160.0</ele><time>2026-04-06T19:07:54.998Z</time></trkpt><trkpt lat="37.51417708224492" lon="15.019775796173933"><ele>160.0</ele><time>2026-04-06T19:07:55.998Z</time></trkpt><trkpt lat="37.514344551827655" lon="15.01980421809506"><ele>160.0</ele><time>2026-04-06T19:07:56.998Z</time></trkpt><trkpt lat="37.51451429068409" lon="15.019832938061327"><ele>160.0</ele><time>2026-04-06T19:07:58Z</time></trkpt><trkpt lat="37.514685620548065" lon="15.01985733097409"><ele>160.66666666666669</ele><time>2026-04-06T19:07:59Z</time></trkpt><trkpt lat="37.51485469433272" lon="15.01988390631702"><ele>161.33333333333334</ele><time>2026-04-06T19:08:00Z</time></trkpt><trkpt lat="37.515026522915676" lon="15.019909704871262"><ele>162.0</ele><time>2026-04-06T19:08:01Z</time></trkpt><trkpt lat="37.5151963752465" lon="15.01993899434628"><ele>162.0</ele><time>2026-04-06T19:08:02Z</time></trkpt><trkpt lat="37.515368074772695" lon="15.0199675679549"><ele>162.0</ele><time>2026-04-06T19:08:03Z</time></trkpt><trkpt lat="37.51553999079191" lon="15.01999564609007"><ele>162.0</ele><time>2026-04-06T19:08:04Z</time></trkpt><trkpt lat="37.515709191312" lon="15.02002538570699"><ele>165.33333333333334</ele><time>2026-04-06T19:08:05Z</time></trkpt><trkpt lat="37.51588322183555" lon="15.020051922013009"><ele>168.66666666666669</ele><time>2026-04-06T19:08:06Z</time></trkpt><trkpt lat="37.51605155610405" lon="15.020077420046487"><ele>172.0</ele><time>2026-04-06T19:08:07Z</time></trkpt><trkpt lat="37.51622408982094" lon="15.020105705118953"><ele>174.33333333333334</ele><time>2026-04-06T19:08:08Z</time></trkpt><trkpt lat="37.51639613317274" lon="15.020133145190453"><ele>176.66666666666666</ele><time>2026-04-06T19:08:09Z</time></trkpt><trkpt lat="37.51656840979923" lon="15.020161126835827"><ele>179.0</ele><time>2026-04-06T19:08:10Z</time></trkpt><trkpt lat="37.516743531670386" lon="15.020188317272513"><ele>179.0</ele><time>2026-04-06T19:08:11Z</time></trkpt><trkpt lat="37.51691787431017" lon="15.020215744549386"><ele>179.0</ele><time>2026-04-06T19:08:12Z</time></trkpt><trkpt lat="37.517095459294836" lon="15.020244001844368"><ele>179.0</ele><time>2026-04-06T19:08:13Z</time></trkpt><trkpt lat="37.517273397971934" lon="15.020277215791639"><ele>181.33333333333331</ele><time>2026-04-06T19:08:14Z</time></trkpt><trkpt lat="37.51745150816348" lon="15.020306451369631"><ele>183.66666666666666</ele><time>2026-04-06T19:08:15Z</time></trkpt><trkpt lat="37.517632447655565" lon="15.020336650621458"><ele>186.0</ele><time>2026-04-06T19:08:16Z</time></trkpt><trkpt lat="37.51781305799885" lon="15.020368482614119"><ele>188.33333333333331</ele><time>2026-04-06T19:08:17Z</time></trkpt><trkpt lat="37.51799392067899" lon="15.020402433460502"><ele>190.66666666666666</ele><time>2026-04-06T19:08:18Z</time></trkpt><trkpt lat="37.51817634829506" lon="15.020439829855844"><ele>193.0</ele><time>2026-04-06T19:08:19Z</time></trkpt><trkpt lat="37.51835871339624" lon="15.020480281441397"><ele>193.0</ele><time>2026-04-06T19:08:20Z</time></trkpt><trkpt lat="37.51854236490524" lon="15.020529916365508"><ele>193.0</ele><time>2026-04-06T19:08:21Z</time></trkpt><trkpt lat="37.518728517400326" lon="15.020583481520104"><ele>193.0</ele><time>2026-04-06T19:08:22Z</time></trkpt><trkpt lat="37.51891211983669" lon="15.020643450048532"><ele>192.66666666666666</ele><time>2026-04-06T19:08:23Z</time></trkpt><trkpt lat="37.519094014386376" lon="15.02070895462187"><ele>192.33333333333331</ele><time>2026-04-06T19:08:24Z</time></trkpt><trkpt lat="37.519278487693576" lon="15.02078067867605"><ele>192.0</ele><time>2026-04-06T19:08:25Z</time></trkpt><trkpt lat="37.51946194103822" lon="15.02085762243881"><ele>191.33333333333334</ele><time>2026-04-06T19:08:26Z</time></trkpt><trkpt lat="37.519643694228535" lon="15.02094057995815"><ele>190.66666666666669</ele><time>2026-04-06T19:08:27Z</time></trkpt><trkpt lat="37.51982685087478" lon="15.021023741911916"><ele>190.0</ele><time>2026-04-06T19:08:28Z</time></trkpt><trkpt lat="37.520008096540906" lon="15.021111884086455"><ele>190.0</ele><time>2026-04-06T19:08:29Z</time></trkpt><trkpt lat="37.52019053397867" lon="15.021209526778378"><ele>190.0</ele><time>2026-04-06T19:08:30Z</time></trkpt><trkpt lat="37.52037641250406" lon="15.02131073548855"><ele>190.0</ele><time>2026-04-06T19:08:31Z</time></trkpt><trkpt lat="37.520582976020904" lon="15.02140900239243"><ele>190.33333333333334</ele><time>2026-04-06T19:08:32Z</time></trkpt><trkpt lat="37.52078081703574" lon="15.021504630548707"><ele>190.66666666666666</ele><time>2026-04-06T19:08:33Z</time></trkpt><trkpt lat="37.52092699807497" lon="15.02164855913318"><ele>191.0</ele><time>2026-04-06T19:08:34Z</time></trkpt><trkpt lat="37.52112058265401" lon="15.021789373055837"><ele>190.0</ele><time>2026-04-06T19:08:35Z</time></trkpt><trkpt lat="37.52130029801945" lon="15.021923324271974"><ele>189.0</ele><time>2026-04-06T19:08:36Z</time></trkpt><trkpt lat="37.521489050048295" lon="15.022069633975853"><ele>188.0</ele><time>2026-04-06T19:08:37Z</time></trkpt><trkpt lat="37.5216629287508" lon="15.022221147972255"><ele>188.0</ele><time>2026-04-06T19:08:38Z</time></trkpt><trkpt lat="37.521844813463574" lon="15.022376737470466"><ele>188.0</ele><time>2026-04-06T19:08:39Z</time></trkpt><trkpt lat="37.52201727012527" lon="15.022539624907656"><ele>188.0</ele><time>2026-04-06T19:08:40Z</time></trkpt><trkpt lat="37.52219247797146" lon="15.022707490246436"><ele>186.66666666666666</ele><time>2026-04-06T19:08:41Z</time></trkpt><trkpt lat="37.522357810042315" lon="15.0228791561637"><ele>185.33333333333334</ele><time>2026-04-06T19:08:42Z</time></trkpt><trkpt lat="37.522523240815985" lon="15.02305629785063"><ele>184.0</ele><time>2026-04-06T19:08:43Z</time></trkpt><trkpt lat="37.5226851314396" lon="15.023239382309876"><ele>183.33333333333334</ele><time>2026-04-06T19:08:44Z</time></trkpt><trkpt lat="37.52283896507561" lon="15.0234279077529"><ele>182.66666666666666</ele><time>2026-04-06T19:08:45Z</time></trkpt><trkpt lat="37.522996073405174" lon="15.023621840261901"><ele>182.0</ele><time>2026-04-06T19:08:46Z</time></trkpt><trkpt lat="37.523140972179135" lon="15.023821068287774"><ele>182.0</ele><time>2026-04-06T19:08:47Z</time></trkpt><trkpt lat="37.52329219339083" lon="15.024022746131285"><ele>182.0</ele><time>2026-04-06T19:08:47.999Z</time></trkpt><trkpt lat="37.52343045894766" lon="15.024230047564014"><ele>182.0</ele><time>2026-04-06T19:08:48.999Z</time></trkpt><trkpt lat="37.52356905040998" lon="15.024438645050303"><ele>181.66666666666666</ele><time>2026-04-06T19:08:49.999Z</time></trkpt><trkpt lat="37.5237044474688" lon="15.024651438093445"><ele>181.33333333333334</ele><time>2026-04-06T19:08:50.999Z</time></trkpt><trkpt lat="37.523836645465714" lon="15.024868591835816"><ele>181.0</ele><time>2026-04-06T19:08:51.999Z</time></trkpt><trkpt lat="37.52396246336502" lon="15.025087162610095"><ele>180.0</ele><time>2026-04-06T19:08:52.999Z</time></trkpt><trkpt lat="37.524086316646816" lon="15.02531029394875"><ele>179.0</ele><time>2026-04-06T19:08:53.999Z</time></trkpt><trkpt lat="37.524204369693" lon="15.025534536803638"><ele>178.0</ele><time>2026-04-06T19:08:54.999Z</time></trkpt><trkpt lat="37.52432531794656" lon="15.025760728361615"><ele>177.33333333333334</ele><time>2026-04-06T19:08:55.999Z</time></trkpt><trkpt lat="37.52443935177386" lon="15.025986138336403"><ele>176.66666666666666</ele><time>2026-04-06T19:08:56.999Z</time></trkpt><trkpt lat="37.524551460943776" lon="15.026213128569518"><ele>176.0</ele><time>2026-04-06T19:08:57.999Z</time></trkpt><trkpt lat="37.524662793167245" lon="15.02644227153517"><ele>176.33333333333331</ele><time>2026-04-06T19:08:58.999Z</time></trkpt><trkpt lat="37.52477164929478" lon="15.026670453620792"><ele>176.66666666666666</ele><time>2026-04-06T19:08:59.999Z</time></trkpt><trkpt lat="37.5248790178245" lon="15.026898773432341"><ele>177.0</ele><time>2026-04-06T19:09:00.999Z</time></trkpt><trkpt lat="37.52498721668162" lon="15.027126850493115"><ele>177.0</ele><time>2026-04-06T19:09:01.999Z</time></trkpt><trkpt lat="37.5250986775091" lon="15.027352133034059"><ele>177.0</ele><time>2026-04-06T19:09:02.999Z</time></trkpt><trkpt lat="37.52520956441918" lon="15.02757545871238"><ele>177.0</ele><time>2026-04-06T19:09:03.999Z</time></trkpt><trkpt lat="37.525321845183036" lon="15.027798740340822"><ele>180.0</ele><time>2026-04-06T19:09:04.999Z</time></trkpt><trkpt lat="37.52543471387662" lon="15.028021246340016"><ele>183.0</ele><time>2026-04-06T19:09:05.999Z</time></trkpt><trkpt lat="37.52554533847298" lon="15.028242660117046"><ele>186.0</ele><time>2026-04-06T19:09:06.999Z</time></trkpt><trkpt lat="37.52565599194614" lon="15.028466672863397"><ele>186.0</ele><time>2026-04-06T19:09:07.999Z</time></trkpt><trkpt lat="37.525764869841765" lon="15.028690687971869"><ele>186.0</ele><time>2026-04-06T19:09:08.999Z</time></trkpt><trkpt lat="37.52587322471359" lon="15.028914772000876"><ele>186.0</ele><time>2026-04-06T19:09:09.999Z</time></trkpt><trkpt lat="37.52598022306965" lon="15.029137094092837"><ele>185.33333333333334</ele><time>2026-04-06T19:09:10.999Z</time></trkpt><trkpt lat="37.52608925914057" lon="15.029360523031249"><ele>184.66666666666669</ele><time>2026-04-06T19:09:11.999Z</time></trkpt><trkpt lat="37.52619766056838" lon="15.029581395080443"><ele>184.0</ele><time>2026-04-06T19:09:12.999Z</time></trkpt><trkpt lat="37.5263076526179" lon="15.029803940982147"><ele>188.0</ele><time>2026-04-06T19:09:13.999Z</time></trkpt><trkpt lat="37.52641398923803" lon="15.030024846154038"><ele>192.0</ele><time>2026-04-06T19:09:14.999Z</time></trkpt><trkpt lat="37.52652205076988" lon="15.030246898667198"><ele>196.0</ele><time>2026-04-06T19:09:15.999Z</time></trkpt><trkpt lat="37.52662990539664" lon="15.030465240059181"><ele>196.0</ele><time>2026-04-06T19:09:16.999Z</time></trkpt><trkpt lat="37.52673813766773" lon="15.030684273686928"><ele>196.0</ele><time>2026-04-06T19:09:17.999Z</time></trkpt><trkpt lat="37.526848111906666" lon="15.030904957271659"><ele>196.0</ele><time>2026-04-06T19:09:18.999Z</time></trkpt><trkpt lat="37.52695705614958" lon="15.031126961079925"><ele>197.33333333333331</ele><time>2026-04-06T19:09:19.999Z</time></trkpt><trkpt lat="37.52706321225915" lon="15.031346727179333"><ele>198.66666666666669</ele><time>2026-04-06T19:09:20.999Z</time></trkpt><trkpt lat="37.52717250225631" lon="15.031565960371182"><ele>200.0</ele><time>2026-04-06T19:09:21.999Z</time></trkpt><trkpt lat="37.52728520192247" lon="15.031783519535795"><ele>200.0</ele><time>2026-04-06T19:09:22.999Z</time></trkpt><trkpt lat="37.52739833546715" lon="15.03200304010241"><ele>200.0</ele><time>2026-04-06T19:09:23.999Z</time></trkpt><trkpt lat="37.52750928253624" lon="15.032219014100155"><ele>200.0</ele><time>2026-04-06T19:09:24.999Z</time></trkpt><trkpt lat="37.527621139505065" lon="15.032442981802262"><ele>200.33333333333334</ele><time>2026-04-06T19:09:25.999Z</time></trkpt><trkpt lat="37.52773424624776" lon="15.032661792588353"><ele>200.66666666666669</ele><time>2026-04-06T19:09:26.999Z</time></trkpt><trkpt lat="37.52784826424051" lon="15.03288092232102"><ele>201.0</ele><time>2026-04-06T19:09:27.999Z</time></trkpt><trkpt lat="37.52796050192305" lon="15.033098955965624"><ele>202.0</ele><time>2026-04-06T19:09:28.999Z</time></trkpt><trkpt lat="37.52807350173557" lon="15.03331779144504"><ele>203.0</ele><time>2026-04-06T19:09:29.998Z</time></trkpt><trkpt lat="37.52818813616395" lon="15.03353654064943"><ele>204.0</ele><time>2026-04-06T19:09:30.998Z</time></trkpt><trkpt lat="37.52830511892667" lon="15.033753436242412"><ele>204.0</ele><time>2026-04-06T19:09:31.998Z</time></trkpt><trkpt lat="37.52842194163856" lon="15.033970057277044"><ele>204.0</ele><time>2026-04-06T19:09:32.998Z</time></trkpt><trkpt lat="37.528538843455124" lon="15.034185913930592"><ele>204.0</ele><time>2026-04-06T19:09:33.998Z</time></trkpt><trkpt lat="37.52865767050035" lon="15.03439947030938"><ele>204.66666666666669</ele><time>2026-04-06T19:09:34.998Z</time></trkpt><trkpt lat="37.52877721465094" lon="15.034612127159987"><ele>205.33333333333334</ele><time>2026-04-06T19:09:35.998Z</time></trkpt><trkpt lat="37.52889794672601" lon="15.034823419701123"><ele>206.0</ele><time>2026-04-06T19:09:36.998Z</time></trkpt><trkpt lat="37.529020573211525" lon="15.035032446599061"><ele>206.0</ele><time>2026-04-06T19:09:37.998Z</time></trkpt><trkpt lat="37.52914590952637" lon="15.03524010542661"><ele>206.0</ele><time>2026-04-06T19:09:38.998Z</time></trkpt><trkpt lat="37.52927268397777" lon="15.035444824235615"><ele>206.0</ele><time>2026-04-06T19:09:39.998Z</time></trkpt><trkpt lat="37.529402687120324" lon="15.035648469572989"><ele>206.33333333333334</ele><time>2026-04-06T19:09:40.998Z</time></trkpt><trkpt lat="37.529531822362266" lon="15.035850649199471"><ele>206.66666666666669</ele><time>2026-04-06T19:09:41.998Z</time></trkpt><trkpt lat="37.529664105974476" lon="15.036052345148322"><ele>207.0</ele><time>2026-04-06T19:09:42.998Z</time></trkpt><trkpt lat="37.52979809782923" lon="15.036250804812832"><ele>207.0</ele><time>2026-04-06T19:09:43.998Z</time></trkpt><trkpt lat="37.52993457867711" lon="15.036449566646342"><ele>207.0</ele><time>2026-04-06T19:09:44.998Z</time></trkpt><trkpt lat="37.530075432098805" lon="15.036645336352306"><ele>207.0</ele><time>2026-04-06T19:09:45.998Z</time></trkpt><trkpt lat="37.5302175515786" lon="15.036839912135312"><ele>207.0</ele><time>2026-04-06T19:09:46.998Z</time></trkpt><trkpt lat="37.53036101402619" lon="15.037031773877876"><ele>207.0</ele><time>2026-04-06T19:09:47.998Z</time></trkpt><trkpt lat="37.530504453422395" lon="15.037224657172718"><ele>207.0</ele><time>2026-04-06T19:09:48.998Z</time></trkpt><trkpt lat="37.5306491779469" lon="15.037413784043467"><ele>207.0</ele><time>2026-04-06T19:09:49.998Z</time></trkpt><trkpt lat="37.530796991836006" lon="15.037602601337559"><ele>207.0</ele><time>2026-04-06T19:09:50.998Z</time></trkpt><trkpt lat="37.53094358592565" lon="15.03778918552385"><ele>207.0</ele><time>2026-04-06T19:09:51.998Z</time></trkpt><trkpt lat="37.531090749832416" lon="15.037975021348327"><ele>208.33333333333331</ele><time>2026-04-06T19:09:52.998Z</time></trkpt><trkpt lat="37.53123715305988" lon="15.038158262082044"><ele>209.66666666666666</ele><time>2026-04-06T19:09:53.998Z</time></trkpt><trkpt lat="37.53138543749612" lon="15.038337373060475"><ele>211.0</ele><time>2026-04-06T19:09:54.998Z</time></trkpt><trkpt lat="37.531535286945385" lon="15.038514033900011"><ele>211.66666666666666</ele><time>2026-04-06T19:09:55.998Z</time></trkpt><trkpt lat="37.53168517233508" lon="15.038688358850287"><ele>212.33333333333331</ele><time>2026-04-06T19:09:56.998Z</time></trkpt><trkpt lat="37.53183722482088" lon="15.038859275319847"><ele>213.0</ele><time>2026-04-06T19:09:57.998Z</time></trkpt><trkpt lat="37.531991617974455" lon="15.039026789936306"><ele>215.33333333333331</ele><time>2026-04-06T19:09:58.998Z</time></trkpt><trkpt lat="37.53214739354231" lon="15.03919416764518"><ele>217.66666666666666</ele><time>2026-04-06T19:09:59.998Z</time></trkpt><trkpt lat="37.532302669664496" lon="15.0393596633251"><ele>220.0</ele><time>2026-04-06T19:10:00.998Z</time></trkpt><trkpt lat="37.53245759923607" lon="15.039524317357522"><ele>220.0</ele><time>2026-04-06T19:10:01.998Z</time></trkpt><trkpt lat="37.53261321581456" lon="15.039686814527686"><ele>220.0</ele><time>2026-04-06T19:10:02.998Z</time></trkpt><trkpt lat="37.53277030311554" lon="15.039847970071218"><ele>220.0</ele><time>2026-04-06T19:10:04Z</time></trkpt><trkpt lat="37.53292805848794" lon="15.040008069800004"><ele>221.33333333333331</ele><time>2026-04-06T19:10:05Z</time></trkpt><trkpt lat="37.53308489843557" lon="15.040167632116164"><ele>222.66666666666669</ele><time>2026-04-06T19:10:06Z</time></trkpt><trkpt lat="37.533240586218646" lon="15.040327811076164"><ele>224.0</ele><time>2026-04-06T19:10:07Z</time></trkpt><trkpt lat="37.53339560627214" lon="15.040485225828618"><ele>224.0</ele><time>2026-04-06T19:10:08Z</time></trkpt><trkpt lat="37.533552830755916" lon="15.040644835320776"><ele>224.0</ele><time>2026-04-06T19:10:09Z</time></trkpt><trkpt lat="37.53371060166896" lon="15.040806764967604"><ele>224.0</ele><time>2026-04-06T19:10:10Z</time></trkpt><trkpt lat="37.53386790324777" lon="15.040969897518462"><ele>225.33333333333334</ele><time>2026-04-06T19:10:11Z</time></trkpt><trkpt lat="37.53402615596614" lon="15.041131826820585"><ele>226.66666666666669</ele><time>2026-04-06T19:10:12Z</time></trkpt><trkpt lat="37.53418533619494" lon="15.041291868097057"><ele>228.0</ele><time>2026-04-06T19:10:13Z</time></trkpt><trkpt lat="37.53434712260423" lon="15.04145389021362"><ele>228.0</ele><time>2026-04-06T19:10:14Z</time></trkpt><trkpt lat="37.53451091435891" lon="15.041614416708995"><ele>228.0</ele><time>2026-04-06T19:10:15Z</time></trkpt><trkpt lat="37.53467459925397" lon="15.0417738360939"><ele>228.0</ele><time>2026-04-06T19:10:16Z</time></trkpt><trkpt lat="37.53483886193019" lon="15.041933597342169"><ele>228.33333333333331</ele><time>2026-04-06T19:10:17Z</time></trkpt><trkpt lat="37.53500353411581" lon="15.042093913391993"><ele>228.66666666666666</ele><time>2026-04-06T19:10:18Z</time></trkpt><trkpt lat="37.53516901179176" lon="15.042256168440861"><ele>229.0</ele><time>2026-04-06T19:10:19Z</time></trkpt><trkpt lat="37.53533302321692" lon="15.042418470581575"><ele>228.66666666666666</ele><time>2026-04-06T19:10:20Z</time></trkpt><trkpt lat="37.53549748527859" lon="15.042582770846712"><ele>228.33333333333331</ele><time>2026-04-06T19:10:21Z</time></trkpt><trkpt lat="37.53566150992126" lon="15.042746180301407"><ele>228.0</ele><time>2026-04-06T19:10:22Z</time></trkpt><trkpt lat="37.53582508196347" lon="15.04290951831426"><ele>228.0</ele><time>2026-04-06T19:10:23Z</time></trkpt><trkpt lat="37.53598674382112" lon="15.043074842850386"><ele>228.0</ele><time>2026-04-06T19:10:24Z</time></trkpt><trkpt lat="37.536147000993964" lon="15.043245058494996"><ele>228.0</ele><time>2026-04-06T19:10:25Z</time></trkpt><trkpt lat="37.536304779081284" lon="15.043419480576388"><ele>229.33333333333331</ele><time>2026-04-06T19:10:26Z</time></trkpt><trkpt lat="37.53646199123958" lon="15.043596104410128"><ele>230.66666666666666</ele><time>2026-04-06T19:10:27Z</time></trkpt><trkpt lat="37.536618450465575" lon="15.043772764806748"><ele>232.0</ele><time>2026-04-06T19:10:28Z</time></trkpt><trkpt lat="37.53677227528591" lon="15.043950204564755"><ele>232.0</ele><time>2026-04-06T19:10:29Z</time></trkpt><trkpt lat="37.53692357339832" lon="15.044128839164912"><ele>232.0</ele><time>2026-04-06T19:10:30Z</time></trkpt><trkpt lat="37.53707351674286" lon="15.044308876966495"><ele>232.0</ele><time>2026-04-06T19:10:31Z</time></trkpt><trkpt lat="37.53722152022588" lon="15.044491449157704"><ele>234.33333333333331</ele><time>2026-04-06T19:10:32Z</time></trkpt><trkpt lat="37.537367758938736" lon="15.04467657909408"><ele>236.66666666666669</ele><time>2026-04-06T19:10:33Z</time></trkpt><trkpt lat="37.53751063170652" lon="15.044862264838596"><ele>239.0</ele><time>2026-04-06T19:10:34Z</time></trkpt><trkpt lat="37.53765091505999" lon="15.045049634696749"><ele>239.33333333333334</ele><time>2026-04-06T19:10:35Z</time></trkpt><trkpt lat="37.53778908347629" lon="15.045237943683997"><ele>239.66666666666669</ele><time>2026-04-06T19:10:36Z</time></trkpt><trkpt lat="37.53792283047028" lon="15.045426448277972"><ele>240.0</ele><time>2026-04-06T19:10:37Z</time></trkpt><trkpt lat="37.53805748398451" lon="15.045620075699278"><ele>240.0</ele><time>2026-04-06T19:10:38Z</time></trkpt><trkpt lat="37.53818736473295" lon="15.045815286778621"><ele>240.0</ele><time>2026-04-06T19:10:39Z</time></trkpt><trkpt lat="37.53831355486332" lon="15.046013203445959"><ele>240.0</ele><time>2026-04-06T19:10:40Z</time></trkpt><trkpt lat="37.53843541319719" lon="15.046212592784874"><ele>240.0</ele><time>2026-04-06T19:10:41Z</time></trkpt><trkpt lat="37.5385530815596" lon="15.046413221814941"><ele>240.0</ele><time>2026-04-06T19:10:42Z</time></trkpt><trkpt lat="37.53866830985974" lon="15.046613622584893"><ele>240.0</ele><time>2026-04-06T19:10:43Z</time></trkpt><trkpt lat="37.538781845489424" lon="15.046815296372262"><ele>241.33333333333331</ele><time>2026-04-06T19:10:44Z</time></trkpt><trkpt lat="37.538891647547416" lon="15.047017360752113"><ele>242.66666666666666</ele><time>2026-04-06T19:10:45Z</time></trkpt><trkpt lat="37.538999495029685" lon="15.047220031165873"><ele>244.0</ele><time>2026-04-06T19:10:46Z</time></trkpt><trkpt lat="37.53910575247523" lon="15.04742303897695"><ele>243.66666666666666</ele><time>2026-04-06T19:10:47Z</time></trkpt><trkpt lat="37.53920919486347" lon="15.047628984284701"><ele>243.33333333333331</ele><time>2026-04-06T19:10:48Z</time></trkpt><trkpt lat="37.539311302264295" lon="15.047840893748141"><ele>243.0</ele><time>2026-04-06T19:10:49Z</time></trkpt><trkpt lat="37.53941178773299" lon="15.048054742749828"><ele>243.0</ele><time>2026-04-06T19:10:50Z</time></trkpt><trkpt lat="37.539510030289776" lon="15.048268336307226"><ele>243.0</ele><time>2026-04-06T19:10:51Z</time></trkpt><trkpt lat="37.53960746037194" lon="15.048486024607199"><ele>243.0</ele><time>2026-04-06T19:10:52Z</time></trkpt><trkpt lat="37.53970341355783" lon="15.04870719649245"><ele>244.66666666666669</ele><time>2026-04-06T19:10:52.999Z</time></trkpt><trkpt lat="37.539798230866886" lon="15.04893008499761"><ele>246.33333333333334</ele><time>2026-04-06T19:10:53.999Z</time></trkpt><trkpt lat="37.539892833804856" lon="15.049154775615868"><ele>248.0</ele><time>2026-04-06T19:10:54.999Z</time></trkpt><trkpt lat="37.53998676962758" lon="15.049381430772991"><ele>249.33333333333334</ele><time>2026-04-06T19:10:55.999Z</time></trkpt><trkpt lat="37.54008134829501" lon="15.04960940695874"><ele>250.66666666666669</ele><time>2026-04-06T19:10:56.999Z</time></trkpt><trkpt lat="37.54017439627109" lon="15.049838633075215"><ele>252.0</ele><time>2026-04-06T19:10:57.999Z</time></trkpt><trkpt lat="37.540265537234006" lon="15.050070691328088"><ele>253.0</ele><time>2026-04-06T19:10:58.999Z</time></trkpt><trkpt lat="37.54035934061276" lon="15.050297154709405"><ele>254.0</ele><time>2026-04-06T19:10:59.999Z</time></trkpt><trkpt lat="37.54045343698273" lon="15.050529349680621"><ele>255.0</ele><time>2026-04-06T19:11:00.999Z</time></trkpt><trkpt lat="37.54054619810414" lon="15.050760770389061"><ele>256.0</ele><time>2026-04-06T19:11:01.999Z</time></trkpt><trkpt lat="37.54063942335991" lon="15.05099227451786"><ele>257.0</ele><time>2026-04-06T19:11:02.999Z</time></trkpt><trkpt lat="37.540730732283876" lon="15.051220514668874"><ele>258.0</ele><time>2026-04-06T19:11:03.999Z</time></trkpt><trkpt lat="37.54082235991959" lon="15.051448939468736"><ele>256.6666666666667</ele><time>2026-04-06T19:11:04.999Z</time></trkpt><trkpt lat="37.54091460008772" lon="15.051677295984735"><ele>255.33333333333334</ele><time>2026-04-06T19:11:05.999Z</time></trkpt><trkpt lat="37.54100707458189" lon="15.05190399633554"><ele>254.0</ele><time>2026-04-06T19:11:06.999Z</time></trkpt><trkpt lat="37.541099569558945" lon="15.052128402509807"><ele>254.0</ele><time>2026-04-06T19:11:07.999Z</time></trkpt><trkpt lat="37.54119280561456" lon="15.05235188079619"><ele>254.0</ele><time>2026-04-06T19:11:08.999Z</time></trkpt><trkpt lat="37.541286590092234" lon="15.052576943081402"><ele>254.0</ele><time>2026-04-06T19:11:09.999Z</time></trkpt><trkpt lat="37.54138309727219" lon="15.052801662817876"><ele>254.66666666666669</ele><time>2026-04-06T19:11:10.999Z</time></trkpt><trkpt lat="37.54148262917375" lon="15.053027141525316"><ele>255.33333333333331</ele><time>2026-04-06T19:11:11.999Z</time></trkpt><trkpt lat="37.541585142152854" lon="15.053253362396855"><ele>256.0</ele><time>2026-04-06T19:11:12.999Z</time></trkpt><trkpt lat="37.54168916211003" lon="15.05347958127494"><ele>256.0</ele><time>2026-04-06T19:11:13.999Z</time></trkpt><trkpt lat="37.541795462840966" lon="15.05370568857205"><ele>256.0</ele><time>2026-04-06T19:11:14.999Z</time></trkpt><trkpt lat="37.541905090622066" lon="15.053930165019636"><ele>256.0</ele><time>2026-04-06T19:11:15.999Z</time></trkpt><trkpt lat="37.54201704179178" lon="15.054153790908648"><ele>258.66666666666663</ele><time>2026-04-06T19:11:16.999Z</time></trkpt><trkpt lat="37.542132025379956" lon="15.054376176155921"><ele>261.3333333333333</ele><time>2026-04-06T19:11:17.999Z</time></trkpt><trkpt lat="37.542248352716754" lon="15.05459822673993"><ele>264.0</ele><time>2026-04-06T19:11:18.999Z</time></trkpt><trkpt lat="37.542367577465626" lon="15.054818119056836"><ele>263.6666666666667</ele><time>2026-04-06T19:11:19.999Z</time></trkpt><trkpt lat="37.542488969246605" lon="15.055033304723478"><ele>263.33333333333337</ele><time>2026-04-06T19:11:20.999Z</time></trkpt><trkpt lat="37.54261359130189" lon="15.055241071808032"><ele>263.0</ele><time>2026-04-06T19:11:21.999Z</time></trkpt><trkpt lat="37.54274129548283" lon="15.05544366865202"><ele>263.0</ele><time>2026-04-06T19:11:22.999Z</time></trkpt><trkpt lat="37.54286980917592" lon="15.055638109808115"><ele>263.0</ele><time>2026-04-06T19:11:23.999Z</time></trkpt><trkpt lat="37.54300026159064" lon="15.055827125942464"><ele>263.0</ele><time>2026-04-06T19:11:24.999Z</time></trkpt><trkpt lat="37.54313897095972" lon="15.056035514102277"><ele>264.0</ele><time>2026-04-06T19:11:25.999Z</time></trkpt><trkpt lat="37.54327342103723" lon="15.056259566367872"><ele>265.0</ele><time>2026-04-06T19:11:26.999Z</time></trkpt><trkpt lat="37.5434086319925" lon="15.056454748933216"><ele>266.0</ele><time>2026-04-06T19:11:27.999Z</time></trkpt><trkpt lat="37.54354452374973" lon="15.056644960835238"><ele>266.33333333333337</ele><time>2026-04-06T19:11:28.999Z</time></trkpt><trkpt lat="37.54368139112298" lon="15.056835695447571"><ele>266.6666666666667</ele><time>2026-04-06T19:11:29.999Z</time></trkpt><trkpt lat="37.54381867689561" lon="15.057022551450334"><ele>267.0</ele><time>2026-04-06T19:11:30.999Z</time></trkpt><trkpt lat="37.543956986821804" lon="15.057208110731455"><ele>267.6666666666667</ele><time>2026-04-06T19:11:31.999Z</time></trkpt><trkpt lat="37.544096587063216" lon="15.057391612624874"><ele>268.33333333333337</ele><time>2026-04-06T19:11:32.999Z</time></trkpt><trkpt lat="37.54423741722588" lon="15.057571382047284"><ele>269.0</ele><time>2026-04-06T19:11:33.999Z</time></trkpt><trkpt lat="37.54437981102482" lon="15.05775001825662"><ele>269.0</ele><time>2026-04-06T19:11:34.998Z</time></trkpt><trkpt lat="37.54452047440919" lon="15.057928417166192"><ele>269.0</ele><time>2026-04-06T19:11:35.998Z</time></trkpt><trkpt lat="37.544659741273435" lon="15.058111684815627"><ele>269.0</ele><time>2026-04-06T19:11:36.998Z</time></trkpt><trkpt lat="37.54479809710331" lon="15.058297828144127"><ele>269.0</ele><time>2026-04-06T19:11:37.998Z</time></trkpt><trkpt lat="37.544936115480944" lon="15.058481208462199"><ele>269.0</ele><time>2026-04-06T19:11:38.998Z</time></trkpt><trkpt lat="37.54507562502282" lon="15.05866559629103"><ele>269.0</ele><time>2026-04-06T19:11:39.998Z</time></trkpt><trkpt lat="37.54521315665019" lon="15.058846524066002"><ele>269.0</ele><time>2026-04-06T19:11:40.998Z</time></trkpt><trkpt lat="37.54535360141391" lon="15.059029994307082"><ele>269.0</ele><time>2026-04-06T19:11:41.998Z</time></trkpt><trkpt lat="37.54549591626096" lon="15.059212955690523"><ele>269.0</ele><time>2026-04-06T19:11:42.998Z</time></trkpt><trkpt lat="37.545638579364834" lon="15.059395286526232"><ele>270.0</ele><time>2026-04-06T19:11:43.998Z</time></trkpt><trkpt lat="37.54578213550379" lon="15.059579476086165"><ele>271.0</ele><time>2026-04-06T19:11:44.998Z</time></trkpt><trkpt lat="37.54592670938623" lon="15.059764750711818"><ele>272.0</ele><time>2026-04-06T19:11:45.998Z</time></trkpt><trkpt lat="37.54607313490147" lon="15.059950926880548"><ele>273.0</ele><time>2026-04-06T19:11:46.998Z</time></trkpt><trkpt lat="37.546220334849885" lon="15.060137265093987"><ele>274.0</ele><time>2026-04-06T19:11:47.998Z</time></trkpt><trkpt lat="37.54636736839285" lon="15.06032538430122"><ele>275.0</ele><time>2026-04-06T19:11:48.998Z</time></trkpt><trkpt lat="37.54651413130313" lon="15.060511742258672"><ele>275.0</ele><time>2026-04-06T19:11:49.998Z</time></trkpt><trkpt lat="37.54666237262321" lon="15.060702553900386"><ele>275.0</ele><time>2026-04-06T19:11:50.998Z</time></trkpt><trkpt lat="37.54680980359585" lon="15.060891473444158"><ele>275.0</ele><time>2026-04-06T19:11:51.998Z</time></trkpt><trkpt lat="37.54695808329166" lon="15.061079982967561"><ele>275.33333333333337</ele><time>2026-04-06T19:11:52.998Z</time></trkpt><trkpt lat="37.54710447825984" lon="15.061270063037188"><ele>275.6666666666667</ele><time>2026-04-06T19:11:53.998Z</time></trkpt><trkpt lat="37.54725228388902" lon="15.06146216474012"><ele>276.0</ele><time>2026-04-06T19:11:54.998Z</time></trkpt><trkpt lat="37.54739877413552" lon="15.061655557257225"><ele>274.6666666666667</ele><time>2026-04-06T19:11:55.998Z</time></trkpt><trkpt lat="37.547543493459756" lon="15.061848263381755"><ele>273.33333333333337</ele><time>2026-04-06T19:11:56.998Z</time></trkpt><trkpt lat="37.547689398565495" lon="15.062043277632066"><ele>272.0</ele><time>2026-04-06T19:11:57.998Z</time></trkpt><trkpt lat="37.547834400538385" lon="15.062242691466972"><ele>271.6666666666667</ele><time>2026-04-06T19:11:58.998Z</time></trkpt><trkpt lat="37.54797786056962" lon="15.062444344464561"><ele>271.3333333333333</ele><time>2026-04-06T19:11:59.998Z</time></trkpt><trkpt lat="37.548117320386496" lon="15.062648201474659"><ele>271.0</ele><time>2026-04-06T19:12:00.998Z</time></trkpt><trkpt lat="37.548251379162274" lon="15.06285557902808"><ele>271.0</ele><time>2026-04-06T19:12:01.998Z</time></trkpt><trkpt lat="37.54837900872111" lon="15.06306947356143"><ele>271.0</ele><time>2026-04-06T19:12:02.998Z</time></trkpt><trkpt lat="37.54850052425843" lon="15.063287710943412"><ele>271.0</ele><time>2026-04-06T19:12:03.998Z</time></trkpt><trkpt lat="37.548615280930164" lon="15.063509540818597"><ele>271.3333333333333</ele><time>2026-04-06T19:12:04.998Z</time></trkpt><trkpt lat="37.548726182546915" lon="15.063738932775086"><ele>271.6666666666667</ele><time>2026-04-06T19:12:05.998Z</time></trkpt><trkpt lat="37.54883074492393" lon="15.063972327423558"><ele>272.0</ele><time>2026-04-06T19:12:06.998Z</time></trkpt><trkpt lat="37.548926537158515" lon="15.064207940246467"><ele>272.0</ele><time>2026-04-06T19:12:07.998Z</time></trkpt><trkpt lat="37.54901622311144" lon="15.064444002666466"><ele>272.0</ele><time>2026-04-06T19:12:08.998Z</time></trkpt><trkpt lat="37.54910019517766" lon="15.064683444836183"><ele>272.0</ele><time>2026-04-06T19:12:10Z</time></trkpt><trkpt lat="37.54917730462559" lon="15.064928062682727"><ele>271.33333333333337</ele><time>2026-04-06T19:12:11Z</time></trkpt><trkpt lat="37.549247726577555" lon="15.06517642004192"><ele>270.6666666666667</ele><time>2026-04-06T19:12:12Z</time></trkpt><trkpt lat="37.54931089909676" lon="15.065429272577909"><ele>270.0</ele><time>2026-04-06T19:12:13Z</time></trkpt><trkpt lat="37.5493680819384" lon="15.06568458581123"><ele>270.3333333333333</ele><time>2026-04-06T19:12:14Z</time></trkpt><trkpt lat="37.549418860459234" lon="15.065950668228833"><ele>270.66666666666663</ele><time>2026-04-06T19:12:15Z</time></trkpt><trkpt lat="37.54945982351154" lon="15.066209486791566"><ele>271.0</ele><time>2026-04-06T19:12:16Z</time></trkpt><trkpt lat="37.54949362370219" lon="15.06647176491906"><ele>272.0</ele><time>2026-04-06T19:12:17Z</time></trkpt><trkpt lat="37.549523517809625" lon="15.066737275285407"><ele>273.0</ele><time>2026-04-06T19:12:18Z</time></trkpt><trkpt lat="37.549546478733554" lon="15.06700444968287"><ele>274.0</ele><time>2026-04-06T19:12:19Z</time></trkpt><trkpt lat="37.549559410597965" lon="15.067270830540654"><ele>273.66666666666663</ele><time>2026-04-06T19:12:20Z</time></trkpt><trkpt lat="37.5495668403624" lon="15.067534170375586"><ele>273.3333333333333</ele><time>2026-04-06T19:12:21Z</time></trkpt><trkpt lat="37.5495662072889" lon="15.067801152034043"><ele>273.0</ele><time>2026-04-06T19:12:22Z</time></trkpt><trkpt lat="37.54956441297987" lon="15.068070083790817"><ele>272.6666666666667</ele><time>2026-04-06T19:12:23Z</time></trkpt><trkpt lat="37.54955664096736" lon="15.068340032766017"><ele>272.33333333333337</ele><time>2026-04-06T19:12:24Z</time></trkpt><trkpt lat="37.54954716814103" lon="15.068607164652995"><ele>272.0</ele><time>2026-04-06T19:12:25Z</time></trkpt><trkpt lat="37.5495343174765" lon="15.068874674580048"><ele>270.33333333333337</ele><time>2026-04-06T19:12:26Z</time></trkpt><trkpt lat="37.549517875192905" lon="15.069138951723824"><ele>268.6666666666667</ele><time>2026-04-06T19:12:27Z</time></trkpt><trkpt lat="37.549495827990725" lon="15.069409323539407"><ele>267.0</ele><time>2026-04-06T19:12:28Z</time></trkpt><trkpt lat="37.54947407612319" lon="15.069681078849571"><ele>266.6666666666667</ele><time>2026-04-06T19:12:29Z</time></trkpt><trkpt lat="37.54945512518197" lon="15.069952068621182"><ele>266.33333333333337</ele><time>2026-04-06T19:12:30Z</time></trkpt><trkpt lat="37.549439929503315" lon="15.070222292382146"><ele>266.0</ele><time>2026-04-06T19:12:31Z</time></trkpt><trkpt lat="37.54942629989027" lon="15.070494663275737"><ele>266.0</ele><time>2026-04-06T19:12:32Z</time></trkpt><trkpt lat="37.54941622984994" lon="15.070766060142926"><ele>266.0</ele><time>2026-04-06T19:12:33Z</time></trkpt><trkpt lat="37.549414548878005" lon="15.071036179302983"><ele>266.0</ele><time>2026-04-06T19:12:34Z</time></trkpt><trkpt lat="37.549423591955325" lon="15.071305580854501"><ele>265.6666666666667</ele><time>2026-04-06T19:12:35Z</time></trkpt><trkpt lat="37.54944166406854" lon="15.071577532851473"><ele>265.3333333333333</ele><time>2026-04-06T19:12:36Z</time></trkpt><trkpt lat="37.54946704163317" lon="15.071848889460105"><ele>265.0</ele><time>2026-04-06T19:12:37Z</time></trkpt><trkpt lat="37.54949502383503" lon="15.072117486115971"><ele>264.3333333333333</ele><time>2026-04-06T19:12:38Z</time></trkpt><trkpt lat="37.54952633077758" lon="15.072385911840296"><ele>263.6666666666667</ele><time>2026-04-06T19:12:39Z</time></trkpt><trkpt lat="37.54956393239745" lon="15.072655139248564"><ele>263.0</ele><time>2026-04-06T19:12:40Z</time></trkpt><trkpt lat="37.549607486558024" lon="15.072930184038134"><ele>267.0</ele><time>2026-04-06T19:12:41Z</time></trkpt><trkpt lat="37.54965708105551" lon="15.073203989917882"><ele>271.0</ele><time>2026-04-06T19:12:42Z</time></trkpt><trkpt lat="37.54970748114815" lon="15.073480140967405"><ele>275.0</ele><time>2026-04-06T19:12:43Z</time></trkpt><trkpt lat="37.54975642353742" lon="15.07375450961133"><ele>275.6666666666667</ele><time>2026-04-06T19:12:44Z</time></trkpt><trkpt lat="37.54980513262123" lon="15.074029643501827"><ele>276.3333333333333</ele><time>2026-04-06T19:12:45Z</time></trkpt><trkpt lat="37.54985287274624" lon="15.07430640478562"><ele>277.0</ele><time>2026-04-06T19:12:46Z</time></trkpt><trkpt lat="37.549905572294726" lon="15.074582324075216"><ele>278.0</ele><time>2026-04-06T19:12:47Z</time></trkpt><trkpt lat="37.54995448735228" lon="15.074860083037073"><ele>279.0</ele><time>2026-04-06T19:12:48Z</time></trkpt><trkpt lat="37.55000316548939" lon="15.075139950318986"><ele>279.0</ele><time>2026-04-06T19:12:49Z</time></trkpt><trkpt lat="37.55005114666904" lon="15.075421318932241"><ele>279.0</ele><time>2026-04-06T19:12:50Z</time></trkpt><trkpt lat="37.55009606479037" lon="15.075705592269033"><ele>277.5</ele><time>2026-04-06T19:12:51Z</time></trkpt><trkpt lat="37.550137435067256" lon="15.075994732382286"><ele>276.0</ele><time>2026-04-06T19:12:52Z</time></trkpt><trkpt lat="37.55017677078805" lon="15.076285751146504"><ele>276.0</ele><time>2026-04-06T19:12:53Z</time></trkpt><trkpt lat="37.55013249166057" lon="15.07655137720068"><ele>276.0</ele><time>2026-04-06T19:12:54Z</time></trkpt><trkpt lat="37.550140760638484" lon="15.076832806005525"><ele>276.0</ele><time>2026-04-06T19:12:55Z</time></trkpt><trkpt lat="37.55015391656008" lon="15.07711329768198"><ele>275.5</ele><time>2026-04-06T19:12:55.999Z</time></trkpt><trkpt lat="37.550165023758545" lon="15.077402643508602"><ele>275.0</ele><time>2026-04-06T19:12:56.999Z</time></trkpt><trkpt lat="37.55020655191918" lon="15.07767589282905"><ele>273.0</ele><time>2026-04-06T19:12:57.999Z</time></trkpt><trkpt lat="37.55024300811771" lon="15.077962078846722"><ele>271.0</ele><time>2026-04-06T19:12:58.999Z</time></trkpt><trkpt lat="37.55027650499692" lon="15.078255777277622"><ele>271.0</ele><time>2026-04-06T19:12:59.999Z</time></trkpt><trkpt lat="37.55033407219334" lon="15.078555296507448"><ele>271.0</ele><time>2026-04-06T19:13:00.999Z</time></trkpt><trkpt lat="37.55037669321015" lon="15.078847232089771"><ele>276.0</ele><time>2026-04-06T19:13:01.999Z</time></trkpt><trkpt lat="37.550428558812804" lon="15.079140817985923"><ele>281.0</ele><time>2026-04-06T19:13:02.999Z</time></trkpt><trkpt lat="37.550486806852845" lon="15.079437067810304"><ele>281.0</ele><time>2026-04-06T19:13:03.999Z</time></trkpt><trkpt lat="37.550552153511504" lon="15.079739082110807"><ele>281.0</ele><time>2026-04-06T19:13:04.999Z</time></trkpt><trkpt lat="37.55062068091388" lon="15.080033427010585"><ele>281.5</ele><time>2026-04-06T19:13:05.999Z</time></trkpt><trkpt lat="37.55072526919451" lon="15.080362398150823"><ele>282.0</ele><time>2026-04-06T19:13:06.999Z</time></trkpt><trkpt lat="37.55086210858927" lon="15.080679865441883"><ele>279.5</ele><time>2026-04-06T19:13:07.999Z</time></trkpt><trkpt lat="37.55098391308599" lon="15.080927189048307"><ele>277.0</ele><time>2026-04-06T19:13:08.999Z</time></trkpt><trkpt lat="37.551073498377555" lon="15.08118437215174"><ele>277.0</ele><time>2026-04-06T19:13:10.066Z</time></trkpt><trkpt lat="37.55115266979837" lon="15.081392670131065"><ele>277.0</ele><time>2026-04-06T19:13:11.068Z</time></trkpt><trkpt lat="37.551228434203686" lon="15.081575738705931"><ele>277.0</ele><time>2026-04-06T19:13:12.062Z</time></trkpt><trkpt lat="37.551292245542584" lon="15.081726546461445"><ele>279.5</ele><time>2026-04-06T19:13:13.053Z</time></trkpt><trkpt lat="37.55135183063086" lon="15.081867870944633"><ele>282.0</ele><time>2026-04-06T19:13:14.034Z</time></trkpt><trkpt lat="37.552262638453946" lon="15.08382079811049"><ele>282.0</ele><time>2026-04-06T19:13:17.999Z</time></trkpt><trkpt lat="37.552435812050824" lon="15.08406285534034"><ele>282.0</ele><time>2026-04-06T19:13:18.999Z</time></trkpt><trkpt lat="37.55246819835427" lon="15.08391458841683"><ele>282.0</ele><time>2026-04-06T19:13:20.999Z</time></trkpt><trkpt lat="37.55251698422921" lon="15.084087551777962"><ele>281.6666666666667</ele><time>2026-04-06T19:13:21.999Z</time></trkpt><trkpt lat="37.55263938512574" lon="15.084277028757052"><ele>281.33333333333337</ele><time>2026-04-06T19:13:22.999Z</time></trkpt><trkpt lat="37.552803148543354" lon="15.084463503671659"><ele>281.0</ele><time>2026-04-06T19:13:23.999Z</time></trkpt><trkpt lat="37.55296573905133" lon="15.08465193773435"><ele>283.0</ele><time>2026-04-06T19:13:24.999Z</time></trkpt><trkpt lat="37.553133621720846" lon="15.084826363953232"><ele>285.0</ele><time>2026-04-06T19:13:25.999Z</time></trkpt><trkpt lat="37.553295642237075" lon="15.08499846508387"><ele>287.0</ele><time>2026-04-06T19:13:26.999Z</time></trkpt><trkpt lat="37.553461587105176" lon="15.085168143103"><ele>287.0</ele><time>2026-04-06T19:13:27.999Z</time></trkpt><trkpt lat="37.55363432260265" lon="15.08533202169253"><ele>287.0</ele><time>2026-04-06T19:13:28.999Z</time></trkpt><trkpt lat="37.55380693784528" lon="15.085487663176385"><ele>287.0</ele><time>2026-04-06T19:13:29.999Z</time></trkpt><trkpt lat="37.55397559010286" lon="15.08563788111573"><ele>289.33333333333337</ele><time>2026-04-06T19:13:30.999Z</time></trkpt><trkpt lat="37.5541490868929" lon="15.085784224103191"><ele>291.6666666666667</ele><time>2026-04-06T19:13:31.999Z</time></trkpt><trkpt lat="37.55432278345393" lon="15.085933221030157"><ele>294.0</ele><time>2026-04-06T19:13:32.999Z</time></trkpt><trkpt lat="37.55449358591918" lon="15.086082744716126"><ele>295.0</ele><time>2026-04-06T19:13:33.999Z</time></trkpt><trkpt lat="37.554663688501186" lon="15.086234257417162"><ele>296.0</ele><time>2026-04-06T19:13:34.999Z</time></trkpt><trkpt lat="37.55483978071514" lon="15.086384694578557"><ele>297.0</ele><time>2026-04-06T19:13:35.999Z</time></trkpt><trkpt lat="37.5550111139476" lon="15.086538337747847"><ele>297.0</ele><time>2026-04-06T19:13:36.999Z</time></trkpt><trkpt lat="37.55518032815795" lon="15.086692846630068"><ele>297.0</ele><time>2026-04-06T19:13:37.998Z</time></trkpt><trkpt lat="37.55534777690854" lon="15.086852347465534"><ele>297.0</ele><time>2026-04-06T19:13:38.998Z</time></trkpt><trkpt lat="37.555514977120254" lon="15.087003661950275"><ele>297.3333333333333</ele><time>2026-04-06T19:13:39.998Z</time></trkpt><trkpt lat="37.55568592539212" lon="15.0871640309353"><ele>297.66666666666663</ele><time>2026-04-06T19:13:40.998Z</time></trkpt><trkpt lat="37.555852631154984" lon="15.087331622653334"><ele>298.0</ele><time>2026-04-06T19:13:41.998Z</time></trkpt><trkpt lat="37.556010688941804" lon="15.087506293635771"><ele>298.0</ele><time>2026-04-06T19:13:42.998Z</time></trkpt><trkpt lat="37.55616969196222" lon="15.087680120071418"><ele>298.0</ele><time>2026-04-06T19:13:43.998Z</time></trkpt><trkpt lat="37.55632483924872" lon="15.08785827132812"><ele>298.0</ele><time>2026-04-06T19:13:44.998Z</time></trkpt><trkpt lat="37.55647777130631" lon="15.08804106289791"><ele>299.66666666666663</ele><time>2026-04-06T19:13:45.998Z</time></trkpt><trkpt lat="37.55662134769837" lon="15.08823391538767"><ele>301.3333333333333</ele><time>2026-04-06T19:13:46.998Z</time></trkpt><trkpt lat="37.556769815605094" lon="15.088427347530837"><ele>303.0</ele><time>2026-04-06T19:13:47.998Z</time></trkpt><trkpt lat="37.55691527275599" lon="15.08861981970337"><ele>304.3333333333333</ele><time>2026-04-06T19:13:48.998Z</time></trkpt><trkpt lat="37.55706336689496" lon="15.088813973487804"><ele>305.66666666666663</ele><time>2026-04-06T19:13:49.998Z</time></trkpt><trkpt lat="37.557210039241525" lon="15.089007078917533"><ele>307.0</ele><time>2026-04-06T19:13:50.998Z</time></trkpt><trkpt lat="37.557341614272254" lon="15.089215039758843"><ele>307.0</ele><time>2026-04-06T19:13:51.998Z</time></trkpt><trkpt lat="37.557480183267145" lon="15.0894379729985"><ele>307.0</ele><time>2026-04-06T19:13:53.067Z</time></trkpt><trkpt lat="37.557607730546465" lon="15.089649005802153"><ele>307.0</ele><time>2026-04-06T19:13:54.067Z</time></trkpt><trkpt lat="37.55772761593917" lon="15.089861870287917"><ele>312.0</ele><time>2026-04-06T19:13:55.071Z</time></trkpt><trkpt lat="37.55893547553586" lon="15.09184799103708"><ele>312.0</ele><time>2026-04-06T19:14:03.998Z</time></trkpt><trkpt lat="37.559056158047795" lon="15.092075237472555"><ele>312.0</ele><time>2026-04-06T19:14:04.998Z</time></trkpt><trkpt lat="37.558993249968516" lon="15.09237635524557"><ele>309.6666666666667</ele><time>2026-04-06T19:14:05.998Z</time></trkpt><trkpt lat="37.55910852766841" lon="15.092597988267473"><ele>307.33333333333337</ele><time>2026-04-06T19:14:06.998Z</time></trkpt><trkpt lat="37.55921945208468" lon="15.092822525524587"><ele>305.0</ele><time>2026-04-06T19:14:07.998Z</time></trkpt><trkpt lat="37.559350013339" lon="15.093036901981648"><ele>305.0</ele><time>2026-04-06T19:14:08.998Z</time></trkpt><trkpt lat="37.55948480956053" lon="15.09325127362507"><ele>305.0</ele><time>2026-04-06T19:14:09.998Z</time></trkpt><trkpt lat="37.55962283425626" lon="15.093457716124705"><ele>305.0</ele><time>2026-04-06T19:14:10.998Z</time></trkpt><trkpt lat="37.55975923156317" lon="15.093663537351542"><ele>305.33333333333337</ele><time>2026-04-06T19:14:11.998Z</time></trkpt><trkpt lat="37.5598948736713" lon="15.093869663157676"><ele>305.6666666666667</ele><time>2026-04-06T19:14:12.998Z</time></trkpt><trkpt lat="37.5600367628989" lon="15.09406733038987"><ele>306.0</ele><time>2026-04-06T19:14:13.998Z</time></trkpt><trkpt lat="37.56020087758429" lon="15.094258372491463"><ele>306.0</ele><time>2026-04-06T19:14:14.998Z</time></trkpt><trkpt lat="37.5603373720953" lon="15.094460285052918"><ele>306.0</ele><time>2026-04-06T19:14:16Z</time></trkpt><trkpt lat="37.56047209069043" lon="15.094662336062985"><ele>306.0</ele><time>2026-04-06T19:14:17Z</time></trkpt><trkpt lat="37.56060809177657" lon="15.094863058971686"><ele>307.0</ele><time>2026-04-06T19:14:18Z</time></trkpt><trkpt lat="37.5607438901924" lon="15.095062116099475"><ele>308.0</ele><time>2026-04-06T19:14:19Z</time></trkpt><trkpt lat="37.560879428898616" lon="15.095261774369328"><ele>309.0</ele><time>2026-04-06T19:14:20Z</time></trkpt><trkpt lat="37.56101459652558" lon="15.095461485316793"><ele>309.0</ele><time>2026-04-06T19:14:21Z</time></trkpt><trkpt lat="37.56114855499989" lon="15.095654448530157"><ele>309.0</ele><time>2026-04-06T19:14:22Z</time></trkpt><trkpt lat="37.561282047497286" lon="15.095852922514695"><ele>309.0</ele><time>2026-04-06T19:14:23Z</time></trkpt><trkpt lat="37.5614140908278" lon="15.096046910678904"><ele>310.0</ele><time>2026-04-06T19:14:24Z</time></trkpt><trkpt lat="37.56154293808997" lon="15.0962375591707"><ele>311.0</ele><time>2026-04-06T19:14:25Z</time></trkpt><trkpt lat="37.561670711068594" lon="15.096430672720846"><ele>312.0</ele><time>2026-04-06T19:14:26Z</time></trkpt><trkpt lat="37.56179847307898" lon="15.09661914346017"><ele>312.0</ele><time>2026-04-06T19:14:27Z</time></trkpt><trkpt lat="37.56192512916401" lon="15.096807441240317"><ele>312.0</ele><time>2026-04-06T19:14:28Z</time></trkpt><trkpt lat="37.562053766754346" lon="15.096991970234962"><ele>312.0</ele><time>2026-04-06T19:14:29Z</time></trkpt><trkpt lat="37.56218198427938" lon="15.097177839444793"><ele>313.3333333333333</ele><time>2026-04-06T19:14:30Z</time></trkpt><trkpt lat="37.562309504703656" lon="15.097362478724124"><ele>314.66666666666663</ele><time>2026-04-06T19:14:31Z</time></trkpt><trkpt lat="37.562437505031774" lon="15.097547529224943"><ele>316.0</ele><time>2026-04-06T19:14:32Z</time></trkpt><trkpt lat="37.562561126143805" lon="15.097737082170935"><ele>316.0</ele><time>2026-04-06T19:14:33Z</time></trkpt><trkpt lat="37.56268372088227" lon="15.097925719584719"><ele>316.0</ele><time>2026-04-06T19:14:34Z</time></trkpt><trkpt lat="37.56280399199799" lon="15.098116283616163"><ele>316.0</ele><time>2026-04-06T19:14:35Z</time></trkpt><trkpt lat="37.56292045295722" lon="15.098305279394234"><ele>319.0</ele><time>2026-04-06T19:14:36Z</time></trkpt><trkpt lat="37.56303667349355" lon="15.098496167085045"><ele>322.0</ele><time>2026-04-06T19:14:37Z</time></trkpt><trkpt lat="37.56315259498087" lon="15.0986890579229"><ele>325.0</ele><time>2026-04-06T19:14:38Z</time></trkpt><trkpt lat="37.563265900109315" lon="15.09887877164864"><ele>325.0</ele><time>2026-04-06T19:14:39Z</time></trkpt><trkpt lat="37.56338024934937" lon="15.09906620588119"><ele>325.0</ele><time>2026-04-06T19:14:40Z</time></trkpt><trkpt lat="37.56349629737533" lon="15.099249864529277"><ele>325.0</ele><time>2026-04-06T19:14:41Z</time></trkpt><trkpt lat="37.56361344301336" lon="15.099431010260732"><ele>327.66666666666663</ele><time>2026-04-06T19:14:42Z</time></trkpt><trkpt lat="37.56372939701499" lon="15.099607642025175"><ele>330.3333333333333</ele><time>2026-04-06T19:14:43Z</time></trkpt><trkpt lat="37.56383108651079" lon="15.099775583041133"><ele>333.0</ele><time>2026-04-06T19:14:44Z</time></trkpt><trkpt lat="37.563925441872065" lon="15.099944016641674"><ele>333.0</ele><time>2026-04-06T19:14:45Z</time></trkpt><trkpt lat="37.56398975210307" lon="15.100106855447258"><ele>333.0</ele><time>2026-04-06T19:14:46Z</time></trkpt><trkpt lat="37.5640324789959" lon="15.100273590029756"><ele>333.0</ele><time>2026-04-06T19:14:47Z</time></trkpt><trkpt lat="37.564057272440984" lon="15.100454863804355"><ele>333.0</ele><time>2026-04-06T19:14:48Z</time></trkpt><trkpt lat="37.56405922909322" lon="15.100640090780312"><ele>332.6666666666667</ele><time>2026-04-06T19:14:49Z</time></trkpt><trkpt lat="37.5640580664379" lon="15.100832927689897"><ele>332.33333333333337</ele><time>2026-04-06T19:14:50Z</time></trkpt><trkpt lat="37.56405343145746" lon="15.101028049366638"><ele>332.0</ele><time>2026-04-06T19:14:51Z</time></trkpt><trkpt lat="37.564049470808094" lon="15.101215984403982"><ele>332.0</ele><time>2026-04-06T19:14:52Z</time></trkpt><trkpt lat="37.56405946168388" lon="15.101384691363224"><ele>332.0</ele><time>2026-04-06T19:14:53Z</time></trkpt><trkpt lat="37.56409514816553" lon="15.101542847761714"><ele>332.0</ele><time>2026-04-06T19:14:54Z</time></trkpt><trkpt lat="37.56413826502993" lon="15.101701660119293"><ele>332.0</ele><time>2026-04-06T19:14:55Z</time></trkpt><trkpt lat="37.56420913452494" lon="15.101846288897313"><ele>332.0</ele><time>2026-04-06T19:14:56Z</time></trkpt><trkpt lat="37.564307436004746" lon="15.101951875206346"><ele>332.0</ele><time>2026-04-06T19:14:57Z</time></trkpt><trkpt lat="37.56440246109417" lon="15.102049157222869"><ele>332.0</ele><time>2026-04-06T19:14:58Z</time></trkpt><trkpt lat="37.564508425141305" lon="15.102125442402565"><ele>332.0</ele><time>2026-04-06T19:14:59Z</time></trkpt><trkpt lat="37.564617036895044" lon="15.102179463630875"><ele>333.20000000000005</ele><time>2026-04-06T19:15:00Z</time></trkpt><trkpt lat="37.56471293353132" lon="15.102218768038075"><ele>334.4</ele><time>2026-04-06T19:15:00.999Z</time></trkpt><trkpt lat="37.56480269321345" lon="15.102236171719612"><ele>335.6</ele><time>2026-04-06T19:15:01.999Z</time></trkpt><trkpt lat="37.564899557966974" lon="15.102237791250419"><ele>336.79999999999995</ele><time>2026-04-06T19:15:02.999Z</time></trkpt><trkpt lat="37.56499798046805" lon="15.10223233519004"><ele>338.0</ele><time>2026-04-06T19:15:03.999Z</time></trkpt><trkpt lat="37.56509442937358" lon="15.102227104591512"><ele>338.0</ele><time>2026-04-06T19:15:04.999Z</time></trkpt><trkpt lat="37.565178788684605" lon="15.102226341459993"><ele>338.0</ele><time>2026-04-06T19:15:05.999Z</time></trkpt><trkpt lat="37.56524734917992" lon="15.102228177209815"><ele>338.0</ele><time>2026-04-06T19:15:06.999Z</time></trkpt><trkpt lat="37.56531576072929" lon="15.102235863984754"><ele>338.0</ele><time>2026-04-06T19:15:07.999Z</time></trkpt><trkpt lat="37.56540673698676" lon="15.102267762357103"><ele>338.0</ele><time>2026-04-06T19:15:08.999Z</time></trkpt><trkpt lat="37.565502518347586" lon="15.102323618656868"><ele>338.0</ele><time>2026-04-06T19:15:09.999Z</time></trkpt><trkpt lat="37.565600944722235" lon="15.102378131663386"><ele>338.5</ele><time>2026-04-06T19:15:10.999Z</time></trkpt><trkpt lat="37.56568224123948" lon="15.102504715473344"><ele>339.0</ele><time>2026-04-06T19:15:11.999Z</time></trkpt><trkpt lat="37.56576915743758" lon="15.102610067032106"><ele>339.5</ele><time>2026-04-06T19:15:12.999Z</time></trkpt><trkpt lat="37.565860858074196" lon="15.102702182100263"><ele>340.0</ele><time>2026-04-06T19:15:13.999Z</time></trkpt><trkpt lat="37.56595646105892" lon="15.102787810882859"><ele>340.0</ele><time>2026-04-06T19:15:14.999Z</time></trkpt><trkpt lat="37.56605044516695" lon="15.102869959792555"><ele>340.0</ele><time>2026-04-06T19:15:15.999Z</time></trkpt><trkpt lat="37.566131193202885" lon="15.102942225972733"><ele>340.0</ele><time>2026-04-06T19:15:16.999Z</time></trkpt><trkpt lat="37.566203929792444" lon="15.103013156169663"><ele>340.0</ele><time>2026-04-06T19:15:17.999Z</time></trkpt><trkpt lat="37.566264312685234" lon="15.103082636114241"><ele>340.0</ele><time>2026-04-06T19:15:18.999Z</time></trkpt><trkpt lat="37.56631230227025" lon="15.1031626961254"><ele>339.6</ele><time>2026-04-06T19:15:19.999Z</time></trkpt><trkpt lat="37.56633978839634" lon="15.103255854925866"><ele>339.2</ele><time>2026-04-06T19:15:20.999Z</time></trkpt><trkpt lat="37.56630227008991" lon="15.103368665909478"><ele>338.79999999999995</ele><time>2026-04-06T19:15:21.999Z</time></trkpt><trkpt lat="37.566300925849234" lon="15.10349555073554"><ele>338.4</ele><time>2026-04-06T19:15:22.999Z</time></trkpt><trkpt lat="37.566298094844385" lon="15.103636067956822"><ele>338.0</ele><time>2026-04-06T19:15:23.999Z</time></trkpt><trkpt lat="37.56629525306788" lon="15.103784966326751"><ele>338.0</ele><time>2026-04-06T19:15:24.999Z</time></trkpt><trkpt lat="37.566310202580596" lon="15.103948408740132"><ele>338.0</ele><time>2026-04-06T19:15:25.999Z</time></trkpt><trkpt lat="37.56633399613607" lon="15.104104666337298"><ele>338.0</ele><time>2026-04-06T19:15:26.999Z</time></trkpt><trkpt lat="37.56633997513105" lon="15.104257862203623"><ele>338.0</ele><time>2026-04-06T19:15:27.999Z</time></trkpt><trkpt lat="37.56635224908811" lon="15.104404214944614"><ele>337.2</ele><time>2026-04-06T19:15:28.999Z</time></trkpt><trkpt lat="37.566344632431836" lon="15.104542498083557"><ele>336.4</ele><time>2026-04-06T19:15:29.999Z</time></trkpt><trkpt lat="37.56634380385619" lon="15.104673665175588"><ele>335.59999999999997</ele><time>2026-04-06T19:15:30.999Z</time></trkpt><trkpt lat="37.566341270582754" lon="15.104802148517058"><ele>334.79999999999995</ele><time>2026-04-06T19:15:31.999Z</time></trkpt><trkpt lat="37.566336221411554" lon="15.104924939653962"><ele>334.0</ele><time>2026-04-06T19:15:32.999Z</time></trkpt><trkpt lat="37.56634535540694" lon="15.105043329998912"><ele>334.16666666666663</ele><time>2026-04-06T19:15:33.999Z</time></trkpt><trkpt lat="37.56633727930489" lon="15.105153457557941"><ele>334.3333333333333</ele><time>2026-04-06T19:15:34.999Z</time></trkpt><trkpt lat="37.566328795071655" lon="15.105249780334578"><ele>334.5</ele><time>2026-04-06T19:15:35.999Z</time></trkpt><trkpt lat="37.56628580531808" lon="15.105367804401514"><ele>334.6666666666667</ele><time>2026-04-06T19:15:37.999Z</time></trkpt><trkpt lat="37.56625812219964" lon="15.105479051850795"><ele>334.83333333333337</ele><time>2026-04-06T19:15:39.999Z</time></trkpt><trkpt lat="37.566219857436884" lon="15.105556134481937"><ele>335.0</ele><time>2026-04-06T19:15:40.999Z</time></trkpt><trkpt lat="37.56617879919495" lon="15.105620857873316"><ele>335.0</ele><time>2026-04-06T19:15:41.998Z</time></trkpt><trkpt lat="37.56613790650209" lon="15.105685320506609"><ele>335.0</ele><time>2026-04-06T19:15:42.998Z</time></trkpt><trkpt lat="37.56598251803996" lon="15.105605700144142"><ele>335.0</ele><time>2026-04-06T19:15:43.998Z</time></trkpt><trkpt lat="37.56589050795149" lon="15.105611766577606"><ele>335.0</ele><time>2026-04-06T19:15:44.998Z</time></trkpt><trkpt lat="37.56580692594696" lon="15.105647462849435"><ele>335.0</ele><time>2026-04-06T19:15:45.998Z</time></trkpt><trkpt lat="37.565735950078995" lon="15.105658333181648"><ele>335.0</ele><time>2026-04-06T19:15:46.998Z</time></trkpt><trkpt lat="37.56564280639506" lon="15.105669583830766"><ele>335.0</ele><time>2026-04-06T19:15:47.998Z</time></trkpt><trkpt lat="37.56552750859356" lon="15.10570848565831"><ele>335.0</ele><time>2026-04-06T19:15:48.998Z</time></trkpt><trkpt lat="37.56539674126718" lon="15.105767126443723"><ele>335.0</ele><time>2026-04-06T19:15:49.998Z</time></trkpt><trkpt lat="37.565259111378204" lon="15.105838403217309"><ele>335.6666666666667</ele><time>2026-04-06T19:15:50.998Z</time></trkpt><trkpt lat="37.56512123415913" lon="15.105921366708074"><ele>336.3333333333333</ele><time>2026-04-06T19:15:51.998Z</time></trkpt><trkpt lat="37.564977176465426" lon="15.105997643040515"><ele>337.0</ele><time>2026-04-06T19:15:52.998Z</time></trkpt><trkpt lat="37.56483442105064" lon="15.106072308023515"><ele>337.0</ele><time>2026-04-06T19:15:53.998Z</time></trkpt><trkpt lat="37.56469539415193" lon="15.1061535880533"><ele>337.0</ele><time>2026-04-06T19:15:54.998Z</time></trkpt><trkpt lat="37.56457386042799" lon="15.106222115558907"><ele>337.0</ele><time>2026-04-06T19:15:55.998Z</time></trkpt><trkpt lat="37.564465244104085" lon="15.106281559836251"><ele>337.0</ele><time>2026-04-06T19:15:56.998Z</time></trkpt><trkpt lat="37.564365808944125" lon="15.10633886559073"><ele>336.75</ele><time>2026-04-06T19:15:57.998Z</time></trkpt><trkpt lat="37.56429359301624" lon="15.10638233057448"><ele>336.5</ele><time>2026-04-06T19:15:58.998Z</time></trkpt><trkpt lat="37.56420161887343" lon="15.106442908615533"><ele>336.25</ele><time>2026-04-06T19:16:00.998Z</time></trkpt><trkpt lat="37.564240788653066" lon="15.106681144303883"><ele>336.0</ele><time>2026-04-06T19:16:03.998Z</time></trkpt><trkpt lat="37.56429515428046" lon="15.106760100146563"><ele>335.8333333333333</ele><time>2026-04-06T19:16:04.998Z</time></trkpt><trkpt lat="37.56435107528397" lon="15.106828329451524"><ele>335.6666666666667</ele><time>2026-04-06T19:16:05.998Z</time></trkpt><trkpt lat="37.56440394222478" lon="15.106880474868314"><ele>335.5</ele><time>2026-04-06T19:16:06.998Z</time></trkpt><trkpt lat="37.56445021140374" lon="15.107009595145833"><ele>335.33333333333337</ele><time>2026-04-06T19:16:08.998Z</time></trkpt><trkpt lat="37.56449383950724" lon="15.107083034710326"><ele>335.1666666666667</ele><time>2026-04-06T19:16:09.998Z</time></trkpt><trkpt lat="37.5645193013372" lon="15.107177322287063"><ele>335.0</ele><time>2026-04-06T19:16:10.998Z</time></trkpt><trkpt lat="37.56454136396902" lon="15.10727756811652"><ele>335.1666666666667</ele><time>2026-04-06T19:16:11.998Z</time></trkpt><trkpt lat="37.56456065514377" lon="15.107376436898168"><ele>335.33333333333337</ele><time>2026-04-06T19:16:12.998Z</time></trkpt><trkpt lat="37.56457166512501" lon="15.107479134523706"><ele>335.5</ele><time>2026-04-06T19:16:13.998Z</time></trkpt><trkpt lat="37.564578549603" lon="15.107583560758494"><ele>335.6666666666667</ele><time>2026-04-06T19:16:14.998Z</time></trkpt><trkpt lat="37.564588840296096" lon="15.107686273218562"><ele>335.8333333333333</ele><time>2026-04-06T19:16:15.998Z</time></trkpt><trkpt lat="37.56460195573983" lon="15.107788214266817"><ele>336.0</ele><time>2026-04-06T19:16:16.998Z</time></trkpt><trkpt lat="37.564612123519055" lon="15.107889633438289"><ele>336.0</ele><time>2026-04-06T19:16:17.998Z</time></trkpt><trkpt lat="37.56463229736776" lon="15.107982462804175"><ele>336.0</ele><time>2026-04-06T19:16:18.998Z</time></trkpt><trkpt lat="37.56465248322336" lon="15.108070110406652"><ele>336.0</ele><time>2026-04-06T19:16:19.998Z</time></trkpt><trkpt lat="37.56469809523837" lon="15.108171394539898"><ele>336.0</ele><time>2026-04-06T19:16:22Z</time></trkpt><trkpt lat="37.564734728156616" lon="15.108287195051982"><ele>336.0</ele><time>2026-04-06T19:16:25Z</time></trkpt><trkpt lat="37.564787996037026" lon="15.108394129579787"><ele>336.0</ele><time>2026-04-06T19:16:27Z</time></trkpt><trkpt lat="37.5648707015603" lon="15.108504107204269"><ele>336.14285714285717</ele><time>2026-04-06T19:16:29Z</time></trkpt><trkpt lat="37.56495326056533" lon="15.108609274129446"><ele>336.2857142857143</ele><time>2026-04-06T19:16:31Z</time></trkpt><trkpt lat="37.56500075696826" lon="15.108663803590499"><ele>336.42857142857144</ele><time>2026-04-06T19:16:32Z</time></trkpt><trkpt lat="37.56505379196412" lon="15.108717060983363"><ele>336.57142857142856</ele><time>2026-04-06T19:16:33Z</time></trkpt><trkpt lat="37.56510597560311" lon="15.10876713538038"><ele>336.7142857142857</ele><time>2026-04-06T19:16:34Z</time></trkpt><trkpt lat="37.56515936438018" lon="15.108815619068151"><ele>336.8571428571429</ele><time>2026-04-06T19:16:35Z</time></trkpt><trkpt lat="37.56521358845757" lon="15.108867279684231"><ele>337.0</ele><time>2026-04-06T19:16:36Z</time></trkpt><trkpt lat="37.56526998656108" lon="15.108922704054793"><ele>337.0</ele><time>2026-04-06T19:16:37Z</time></trkpt><trkpt lat="37.56532262999792" lon="15.108972711210024"><ele>337.0</ele><time>2026-04-06T19:16:38Z</time></trkpt><trkpt lat="37.56537685829271" lon="15.109020112904876"><ele>337.0</ele><time>2026-04-06T19:16:39Z</time></trkpt><trkpt lat="37.5654318966325" lon="15.109069978386573"><ele>337.0</ele><time>2026-04-06T19:16:40Z</time></trkpt><trkpt lat="37.5654865633523" lon="15.109113591431255"><ele>337.0</ele><time>2026-04-06T19:16:41Z</time></trkpt><trkpt lat="37.56558593997367" lon="15.109203691170084"><ele>337.0</ele><time>2026-04-06T19:16:43Z</time></trkpt><trkpt lat="37.56564537285327" lon="15.109245340462206"><ele>336.8333333333333</ele><time>2026-04-06T19:16:44Z</time></trkpt><trkpt lat="37.56569943100632" lon="15.109296594704377"><ele>336.66666666666663</ele><time>2026-04-06T19:16:45Z</time></trkpt><trkpt lat="37.565756100856284" lon="15.10934268173246"><ele>336.5</ele><time>2026-04-06T19:16:46Z</time></trkpt><trkpt lat="37.56580921572612" lon="15.109390024611091"><ele>336.3333333333333</ele><time>2026-04-06T19:16:47Z</time></trkpt><trkpt lat="37.56584502932091" lon="15.109468786200498"><ele>336.1666666666667</ele><time>2026-04-06T19:16:48Z</time></trkpt><trkpt lat="37.56594519838681" lon="15.109555808286716"><ele>336.0</ele><time>2026-04-06T19:16:50Z</time></trkpt><trkpt lat="37.56603722451912" lon="15.109640817915803"><ele>336.0</ele><time>2026-04-06T19:16:52Z</time></trkpt><trkpt lat="37.56608794639329" lon="15.109689140824653"><ele>336.0</ele><time>2026-04-06T19:16:53Z</time></trkpt><trkpt lat="37.56617957616399" lon="15.109779844908232"><ele>336.0</ele><time>2026-04-06T19:16:55Z</time></trkpt><trkpt lat="37.56624201299599" lon="15.109872630159296"><ele>336.0</ele><time>2026-04-06T19:16:57Z</time></trkpt><trkpt lat="37.566221310276276" lon="15.110012332636602"><ele>336.0</ele><time>2026-04-06T19:16:59Z</time></trkpt><trkpt lat="37.56623494290164" lon="15.11013360250571"><ele>336.0</ele><time>2026-04-06T19:17:01Z</time></trkpt><trkpt lat="37.566248553477095" lon="15.110268156959336"><ele>336.0</ele><time>2026-04-06T19:17:03Z</time></trkpt><trkpt lat="37.566253947085315" lon="15.110355753391115"><ele>336.0</ele><time>2026-04-06T19:17:03.999Z</time></trkpt><trkpt lat="37.566256195576734" lon="15.110471996979419"><ele>336.0</ele><time>2026-04-06T19:17:04.999Z</time></trkpt><trkpt lat="37.56621207923441" lon="15.110590046040517"><ele>336.0</ele><time>2026-04-06T19:17:05.999Z</time></trkpt><trkpt lat="37.5661796613897" lon="15.110723228774814"><ele>336.0</ele><time>2026-04-06T19:17:08.999Z</time></trkpt><trkpt lat="37.56615982969717" lon="15.110807771281115"><ele>336.0</ele><time>2026-04-06T19:17:09.999Z</time></trkpt><trkpt lat="37.56613883677665" lon="15.110897264118302"><ele>336.0</ele><time>2026-04-06T19:17:10.999Z</time></trkpt><trkpt lat="37.566116159393516" lon="15.110993937768257"><ele>336.0</ele><time>2026-04-06T19:17:11.999Z</time></trkpt><trkpt lat="37.566093241074" lon="15.111098471604944"><ele>336.0</ele><time>2026-04-06T19:17:12.999Z</time></trkpt><trkpt lat="37.56607047871484" lon="15.111202145397357"><ele>336.0</ele><time>2026-04-06T19:17:13.999Z</time></trkpt><trkpt lat="37.566048159625794" lon="15.111311174298988"><ele>336.0</ele><time>2026-04-06T19:17:14.999Z</time></trkpt><trkpt lat="37.56603331425411" lon="15.111427527951733"><ele>336.0</ele><time>2026-04-06T19:17:15.999Z</time></trkpt><trkpt lat="37.56602659011649" lon="15.111522194933135"><ele>336.0</ele><time>2026-04-06T19:17:16.999Z</time></trkpt><trkpt lat="37.56601919254593" lon="15.111680598330326"><ele>336.0</ele><time>2026-04-06T19:17:18.999Z</time></trkpt><trkpt lat="37.56601441818875" lon="15.11178608354726"><ele>336.0</ele><time>2026-04-06T19:17:19.999Z</time></trkpt><trkpt lat="37.566008918491036" lon="15.111907594510777"><ele>335.8</ele><time>2026-04-06T19:17:20.999Z</time></trkpt><trkpt lat="37.566003220645136" lon="15.112033483404138"><ele>335.6</ele><time>2026-04-06T19:17:21.999Z</time></trkpt><trkpt lat="37.56599541221622" lon="15.112166384869056"><ele>335.4</ele><time>2026-04-06T19:17:22.999Z</time></trkpt><trkpt lat="37.5659827160697" lon="15.112289426520299"><ele>335.2</ele><time>2026-04-06T19:17:23.999Z</time></trkpt><trkpt lat="37.56594587228115" lon="15.112413590639143"><ele>335.0</ele><time>2026-04-06T19:17:24.999Z</time></trkpt><trkpt lat="37.5658975393324" lon="15.112529099969967"><ele>335.0</ele><time>2026-04-06T19:17:25.999Z</time></trkpt><trkpt lat="37.565838381835015" lon="15.11264478487243"><ele>335.0</ele><time>2026-04-06T19:17:26.999Z</time></trkpt><trkpt lat="37.56577092006311" lon="15.112778063155185"><ele>335.0</ele><time>2026-04-06T19:17:27.999Z</time></trkpt><trkpt lat="37.56570471987789" lon="15.112909711242423"><ele>335.0</ele><time>2026-04-06T19:17:28.999Z</time></trkpt><trkpt lat="37.5656473691587" lon="15.113046646716015"><ele>335.0</ele><time>2026-04-06T19:17:29.999Z</time></trkpt><trkpt lat="37.56563105758385" lon="15.113201863100674"><ele>335.0</ele><time>2026-04-06T19:17:30.999Z</time></trkpt><trkpt lat="37.565601913396605" lon="15.113357750178148"><ele>335.0</ele><time>2026-04-06T19:17:31.999Z</time></trkpt><trkpt lat="37.56556917695747" lon="15.113515635824179"><ele>335.0</ele><time>2026-04-06T19:17:32.999Z</time></trkpt><trkpt lat="37.565556719104215" lon="15.113663827003286"><ele>335.0</ele><time>2026-04-06T19:17:33.999Z</time></trkpt><trkpt lat="37.56556722583661" lon="15.11381327678054"><ele>335.0</ele><time>2026-04-06T19:17:34.999Z</time></trkpt><trkpt lat="37.56561010322745" lon="15.113957893951167"><ele>335.0</ele><time>2026-04-06T19:17:35.999Z</time></trkpt><trkpt lat="37.56565722723841" lon="15.11409743609749"><ele>335.0</ele><time>2026-04-06T19:17:36.999Z</time></trkpt><trkpt lat="37.5656907398882" lon="15.114244663710226"><ele>335.0</ele><time>2026-04-06T19:17:37.999Z</time></trkpt><trkpt lat="37.56573507568552" lon="15.11438697320953"><ele>335.0</ele><time>2026-04-06T19:17:38.999Z</time></trkpt><trkpt lat="37.56576158068681" lon="15.114527132227868"><ele>335.0</ele><time>2026-04-06T19:17:39.999Z</time></trkpt><trkpt lat="37.56577146270873" lon="15.114674617319688"><ele>335.0</ele><time>2026-04-06T19:17:40.999Z</time></trkpt><trkpt lat="37.56577069927724" lon="15.11482635878357"><ele>334.75</ele><time>2026-04-06T19:17:41.999Z</time></trkpt><trkpt lat="37.565767419290786" lon="15.114985839932352"><ele>334.5</ele><time>2026-04-06T19:17:42.999Z</time></trkpt><trkpt lat="37.565768591768126" lon="15.115153036005077"><ele>334.25</ele><time>2026-04-06T19:17:43.999Z</time></trkpt><trkpt lat="37.56577650118103" lon="15.115284901816139"><ele>334.0</ele><time>2026-04-06T19:17:44.998Z</time></trkpt><trkpt lat="37.56575654199421" lon="15.11543476261689"><ele>334.0</ele><time>2026-04-06T19:17:45.998Z</time></trkpt><trkpt lat="37.565719808183054" lon="15.115587327332841"><ele>334.0</ele><time>2026-04-06T19:17:46.998Z</time></trkpt><trkpt lat="37.56567695977078" lon="15.115726719993658"><ele>334.0</ele><time>2026-04-06T19:17:47.998Z</time></trkpt><trkpt lat="37.56563284569531" lon="15.115867138027353"><ele>334.0</ele><time>2026-04-06T19:17:48.998Z</time></trkpt><trkpt lat="37.565595235936115" lon="15.115989607220689"><ele>333.6</ele><time>2026-04-06T19:17:49.998Z</time></trkpt><trkpt lat="37.565562887209076" lon="15.116095120796544"><ele>333.2</ele><time>2026-04-06T19:17:50.998Z</time></trkpt><trkpt lat="37.56552663047691" lon="15.116213375700058"><ele>332.8</ele><time>2026-04-06T19:17:51.998Z</time></trkpt><trkpt lat="37.56549807290858" lon="15.116335757021604"><ele>332.40000000000003</ele><time>2026-04-06T19:17:52.998Z</time></trkpt><trkpt lat="37.56546833407666" lon="15.116451536876287"><ele>332.0</ele><time>2026-04-06T19:17:53.998Z</time></trkpt><trkpt lat="37.565436162184" lon="15.116566203337527"><ele>331.40000000000003</ele><time>2026-04-06T19:17:54.998Z</time></trkpt><trkpt lat="37.56538704152588" lon="15.116675491843434"><ele>330.8</ele><time>2026-04-06T19:17:55.998Z</time></trkpt><trkpt lat="37.56532476369304" lon="15.116777072989429"><ele>330.2</ele><time>2026-04-06T19:17:56.998Z</time></trkpt><trkpt lat="37.56527884839699" lon="15.116887624996698"><ele>329.6</ele><time>2026-04-06T19:17:57.998Z</time></trkpt><trkpt lat="37.565219266279584" lon="15.116981893516618"><ele>329.0</ele><time>2026-04-06T19:17:58.998Z</time></trkpt><trkpt lat="37.56516048293931" lon="15.117089822913215"><ele>328.5</ele><time>2026-04-06T19:17:59.998Z</time></trkpt><trkpt lat="37.565088479217195" lon="15.117200130038752"><ele>328.0</ele><time>2026-04-06T19:18:00.998Z</time></trkpt><trkpt lat="37.565045003253644" lon="15.117363155706832"><ele>327.5</ele><time>2026-04-06T19:18:01.998Z</time></trkpt><trkpt lat="37.56502525212937" lon="15.11753105477866"><ele>327.0</ele><time>2026-04-06T19:18:02.998Z</time></trkpt><trkpt lat="37.56499992117008" lon="15.117689054375997"><ele>326.5</ele><time>2026-04-06T19:18:03.998Z</time></trkpt><trkpt lat="37.56499073305951" lon="15.117842009198165"><ele>326.0</ele><time>2026-04-06T19:18:04.998Z</time></trkpt><trkpt lat="37.56494789621115" lon="15.117955465467803"><ele>325.5</ele><time>2026-04-06T19:18:05.998Z</time></trkpt><trkpt lat="37.56491286973338" lon="15.118039297167815"><ele>325.0</ele><time>2026-04-06T19:18:06.998Z</time></trkpt><trkpt lat="37.56485583134675" lon="15.118095665870419"><ele>324.5</ele><time>2026-04-06T19:18:07.998Z</time></trkpt><trkpt lat="37.56477754455444" lon="15.118113543443904"><ele>324.0</ele><time>2026-04-06T19:18:08.998Z</time></trkpt><trkpt lat="37.56469487138735" lon="15.118166972474485"><ele>324.0</ele><time>2026-04-06T19:18:09.998Z</time></trkpt><trkpt lat="37.56461599824917" lon="15.118212994996716"><ele>324.0</ele><time>2026-04-06T19:18:10.998Z</time></trkpt><trkpt lat="37.564534563401935" lon="15.118270035628473"><ele>324.0</ele><time>2026-04-06T19:18:11.998Z</time></trkpt><trkpt lat="37.56445313745435" lon="15.118325739277141"><ele>324.0</ele><time>2026-04-06T19:18:12.998Z</time></trkpt><trkpt lat="37.564375934541545" lon="15.118380974047712"><ele>324.0</ele><time>2026-04-06T19:18:13.998Z</time></trkpt><trkpt lat="37.564311327129765" lon="15.118462868764727"><ele>322.59999999999997</ele><time>2026-04-06T19:18:14.998Z</time></trkpt><trkpt lat="37.56426113392242" lon="15.118566318282033"><ele>321.2</ele><time>2026-04-06T19:18:15.998Z</time></trkpt><trkpt lat="37.564238168020125" lon="15.11868078034994"><ele>319.79999999999995</ele><time>2026-04-06T19:18:16.998Z</time></trkpt><trkpt lat="37.564243458824386" lon="15.118791690972685"><ele>318.4</ele><time>2026-04-06T19:18:17.998Z</time></trkpt><trkpt lat="37.564275937434225" lon="15.118901024302405"><ele>317.0</ele><time>2026-04-06T19:18:18.998Z</time></trkpt><trkpt lat="37.56433524351772" lon="15.118999969914599"><ele>315.2</ele><time>2026-04-06T19:18:19.998Z</time></trkpt><trkpt lat="37.56441065958886" lon="15.119081573164168"><ele>313.4</ele><time>2026-04-06T19:18:20.998Z</time></trkpt><trkpt lat="37.56448548046564" lon="15.119164779872921"><ele>311.6</ele><time>2026-04-06T19:18:21.998Z</time></trkpt><trkpt lat="37.56455645348894" lon="15.119253945316558"><ele>309.8</ele><time>2026-04-06T19:18:22.998Z</time></trkpt><trkpt lat="37.56463069502611" lon="15.119346450291696"><ele>308.0</ele><time>2026-04-06T19:18:23.998Z</time></trkpt><trkpt lat="37.56470444217083" lon="15.1194467652132"><ele>308.0</ele><time>2026-04-06T19:18:24.998Z</time></trkpt><trkpt lat="37.56478236234784" lon="15.119545004288595"><ele>308.0</ele><time>2026-04-06T19:18:25.997Z</time></trkpt><trkpt lat="37.56486405990172" lon="15.119646402230652"><ele>308.0</ele><time>2026-04-06T19:18:27Z</time></trkpt><trkpt lat="37.56494888536035" lon="15.119749710767193"><ele>308.0</ele><time>2026-04-06T19:18:28Z</time></trkpt><trkpt lat="37.56503273671006" lon="15.119854732702924"><ele>305.8</ele><time>2026-04-06T19:18:29Z</time></trkpt><trkpt lat="37.565099114648916" lon="15.119969933853143"><ele>303.6</ele><time>2026-04-06T19:18:30Z</time></trkpt><trkpt lat="37.565161860786695" lon="15.120064602284446"><ele>301.4</ele><time>2026-04-06T19:18:31Z</time></trkpt><trkpt lat="37.565203284246536" lon="15.120178730580504"><ele>299.2</ele><time>2026-04-06T19:18:32Z</time></trkpt><trkpt lat="37.56523349761303" lon="15.120308340525904"><ele>297.0</ele><time>2026-04-06T19:18:33Z</time></trkpt><trkpt lat="37.565264463331935" lon="15.120441684880596"><ele>297.0</ele><time>2026-04-06T19:18:34Z</time></trkpt><trkpt lat="37.56529435381502" lon="15.120577246079051"><ele>297.0</ele><time>2026-04-06T19:18:35Z</time></trkpt><trkpt lat="37.56532678607661" lon="15.120717620835466"><ele>297.0</ele><time>2026-04-06T19:18:36Z</time></trkpt><trkpt lat="37.56536150026508" lon="15.120859658895423"><ele>297.0</ele><time>2026-04-06T19:18:37Z</time></trkpt><trkpt lat="37.565401018643485" lon="15.121006632072884"><ele>296.5</ele><time>2026-04-06T19:18:38Z</time></trkpt><trkpt lat="37.56544066845649" lon="15.121154094068045"><ele>296.0</ele><time>2026-04-06T19:18:39Z</time></trkpt><trkpt lat="37.565479887129946" lon="15.121299952605773"><ele>295.5</ele><time>2026-04-06T19:18:40Z</time></trkpt><trkpt lat="37.56552112250278" lon="15.12144568955025"><ele>295.0</ele><time>2026-04-06T19:18:41Z</time></trkpt><trkpt lat="37.565558547888074" lon="15.121577502448911"><ele>293.4</ele><time>2026-04-06T19:18:42Z</time></trkpt><trkpt lat="37.56558503618002" lon="15.12169644036405"><ele>291.8</ele><time>2026-04-06T19:18:43Z</time></trkpt><trkpt lat="37.56558314540547" lon="15.1218071630249"><ele>290.2</ele><time>2026-04-06T19:18:44Z</time></trkpt><trkpt lat="37.5655593717465" lon="15.12191833998691"><ele>288.6</ele><time>2026-04-06T19:18:45Z</time></trkpt><trkpt lat="37.56552380640868" lon="15.122041259276951"><ele>287.0</ele><time>2026-04-06T19:18:46Z</time></trkpt><trkpt lat="37.565486938005286" lon="15.122170269441213"><ele>287.0</ele><time>2026-04-06T19:18:47Z</time></trkpt><trkpt lat="37.565450991121615" lon="15.122295916264136"><ele>287.0</ele><time>2026-04-06T19:18:48Z</time></trkpt><trkpt lat="37.56541334291675" lon="15.12242750969894"><ele>287.0</ele><time>2026-04-06T19:18:49Z</time></trkpt><trkpt lat="37.56539195611777" lon="15.122566521433255"><ele>287.0</ele><time>2026-04-06T19:18:50Z</time></trkpt><trkpt lat="37.565349695316186" lon="15.122694056457993"><ele>287.0</ele><time>2026-04-06T19:18:51Z</time></trkpt><trkpt lat="37.56530056236622" lon="15.12281235961733"><ele>286.0</ele><time>2026-04-06T19:18:52Z</time></trkpt><trkpt lat="37.565257272859554" lon="15.122911345140398"><ele>285.0</ele><time>2026-04-06T19:18:53Z</time></trkpt><trkpt lat="37.56521303149872" lon="15.122997576473146"><ele>284.0</ele><time>2026-04-06T19:18:54Z</time></trkpt><trkpt lat="37.56520970122563" lon="15.123104526532993"><ele>283.0</ele><time>2026-04-06T19:18:55Z</time></trkpt><trkpt lat="37.56523213516459" lon="15.12320787776155"><ele>282.0</ele><time>2026-04-06T19:18:56Z</time></trkpt><trkpt lat="37.56532570469675" lon="15.123285445871517"><ele>281.0</ele><time>2026-04-06T19:18:57Z</time></trkpt><trkpt lat="37.56538462860522" lon="15.12337162150209"><ele>280.0</ele><time>2026-04-06T19:18:58Z</time></trkpt><trkpt lat="37.56541924685714" lon="15.123474438558635"><ele>279.0</ele><time>2026-04-06T19:18:59Z</time></trkpt><trkpt lat="37.56541451115792" lon="15.1236017669094"><ele>278.0</ele><time>2026-04-06T19:19:00Z</time></trkpt><trkpt lat="37.56541856431412" lon="15.123726898530867"><ele>277.0</ele><time>2026-04-06T19:19:01Z</time></trkpt><trkpt lat="37.56542123864715" lon="15.123852372424103"><ele>277.0</ele><time>2026-04-06T19:19:02Z</time></trkpt><trkpt lat="37.56540579377296" lon="15.12395838627678"><ele>277.0</ele><time>2026-04-06T19:19:03Z</time></trkpt><trkpt lat="37.56536829435401" lon="15.124054418288626"><ele>277.0</ele><time>2026-04-06T19:19:04Z</time></trkpt><trkpt lat="37.56530181038213" lon="15.124124896644323"><ele>277.0</ele><time>2026-04-06T19:19:04.999Z</time></trkpt><trkpt lat="37.565231691577026" lon="15.124200473631962"><ele>277.0</ele><time>2026-04-06T19:19:05.999Z</time></trkpt><trkpt lat="37.56514939670498" lon="15.12424525831542"><ele>277.0</ele><time>2026-04-06T19:19:06.999Z</time></trkpt><trkpt lat="37.56506237847211" lon="15.12429589155779"><ele>275.0</ele><time>2026-04-06T19:19:07.999Z</time></trkpt><trkpt lat="37.56497049094743" lon="15.12434396517214"><ele>273.0</ele><time>2026-04-06T19:19:08.999Z</time></trkpt><trkpt lat="37.564883677752945" lon="15.124416093031362"><ele>271.0</ele><time>2026-04-06T19:19:09.999Z</time></trkpt><trkpt lat="37.56480610253668" lon="15.124501450712065"><ele>269.0</ele><time>2026-04-06T19:19:10.999Z</time></trkpt><trkpt lat="37.564732641604095" lon="15.124579133772247"><ele>267.0</ele><time>2026-04-06T19:19:11.999Z</time></trkpt><trkpt lat="37.564671188845224" lon="15.1246493535208"><ele>267.0</ele><time>2026-04-06T19:19:12.999Z</time></trkpt><trkpt lat="37.56460599924249" lon="15.124715510375964"><ele>267.0</ele><time>2026-04-06T19:19:13.999Z</time></trkpt><trkpt lat="37.56455272270071" lon="15.12477044251187"><ele>267.0</ele><time>2026-04-06T19:19:14.999Z</time></trkpt><trkpt lat="37.56447270165762" lon="15.124912245312647"><ele>267.0</ele><time>2026-04-06T19:19:16.999Z</time></trkpt><trkpt lat="37.56445983791805" lon="15.125017074053217"><ele>267.0</ele><time>2026-04-06T19:19:17.999Z</time></trkpt><trkpt lat="37.56446442295372" lon="15.125133761716672"><ele>266.1666666666667</ele><time>2026-04-06T19:19:18.999Z</time></trkpt><trkpt lat="37.56447386258238" lon="15.125244878510765"><ele>265.3333333333333</ele><time>2026-04-06T19:19:19.999Z</time></trkpt><trkpt lat="37.564496388643384" lon="15.125339011775775"><ele>264.5</ele><time>2026-04-06T19:19:20.999Z</time></trkpt><trkpt lat="37.56452498652696" lon="15.125436163718584"><ele>263.66666666666663</ele><time>2026-04-06T19:19:21.999Z</time></trkpt><trkpt lat="37.56456045637686" lon="15.125539924878314"><ele>262.8333333333333</ele><time>2026-04-06T19:19:22.999Z</time></trkpt><trkpt lat="37.5645975468687" lon="15.125648028627998"><ele>262.0</ele><time>2026-04-06T19:19:23.999Z</time></trkpt><trkpt lat="37.56462993692795" lon="15.125744863990914"><ele>261.3333333333333</ele><time>2026-04-06T19:19:24.999Z</time></trkpt><trkpt lat="37.56465492660064" lon="15.125832380326903"><ele>260.66666666666663</ele><time>2026-04-06T19:19:25.999Z</time></trkpt><trkpt lat="37.56466773860689" lon="15.125925635023078"><ele>260.0</ele><time>2026-04-06T19:19:26.999Z</time></trkpt><trkpt lat="37.56468019575841" lon="15.12605137828465"><ele>259.3333333333333</ele><time>2026-04-06T19:19:27.999Z</time></trkpt><trkpt lat="37.56469309876583" lon="15.126170944921766"><ele>258.6666666666667</ele><time>2026-04-06T19:19:28.999Z</time></trkpt><trkpt lat="37.564704879933444" lon="15.126278921028872"><ele>258.0</ele><time>2026-04-06T19:19:29.999Z</time></trkpt><trkpt lat="37.56471419665307" lon="15.126388783313672"><ele>258.0</ele><time>2026-04-06T19:19:30.999Z</time></trkpt><trkpt lat="37.564728308066805" lon="15.126515555943994"><ele>258.0</ele><time>2026-04-06T19:19:31.999Z</time></trkpt><trkpt lat="37.56476198352823" lon="15.126641682386694"><ele>258.0</ele><time>2026-04-06T19:19:32.999Z</time></trkpt><trkpt lat="37.564792559255096" lon="15.126769138956588"><ele>258.0</ele><time>2026-04-06T19:19:33.999Z</time></trkpt><trkpt lat="37.56481965771481" lon="15.126898400293582"><ele>258.0</ele><time>2026-04-06T19:19:34.999Z</time></trkpt><trkpt lat="37.564842391144786" lon="15.127029317414703"><ele>257.2</ele><time>2026-04-06T19:19:35.999Z</time></trkpt><trkpt lat="37.564876566107365" lon="15.127155634098482"><ele>256.4</ele><time>2026-04-06T19:19:36.999Z</time></trkpt><trkpt lat="37.56490918043567" lon="15.127282019212952"><ele>255.59999999999997</ele><time>2026-04-06T19:19:37.999Z</time></trkpt><trkpt lat="37.564940525582685" lon="15.127406094571473"><ele>254.79999999999998</ele><time>2026-04-06T19:19:38.999Z</time></trkpt><trkpt lat="37.56496599605126" lon="15.12752935019374"><ele>254.0</ele><time>2026-04-06T19:19:39.999Z</time></trkpt><trkpt lat="37.564989106098885" lon="15.127649660961431"><ele>253.0</ele><time>2026-04-06T19:19:40.999Z</time></trkpt><trkpt lat="37.565012201467106" lon="15.1277668392599"><ele>251.99999999999997</ele><time>2026-04-06T19:19:41.999Z</time></trkpt><trkpt lat="37.56501221673865" lon="15.127886307688392"><ele>250.99999999999997</ele><time>2026-04-06T19:19:42.999Z</time></trkpt><trkpt lat="37.565022656649" lon="15.128003264473803"><ele>250.0</ele><time>2026-04-06T19:19:43.999Z</time></trkpt><trkpt lat="37.56504282453012" lon="15.128121692833217"><ele>249.0</ele><time>2026-04-06T19:19:44.999Z</time></trkpt><trkpt lat="37.565051791842414" lon="15.128244952146588"><ele>248.83333333333334</ele><time>2026-04-06T19:19:45.999Z</time></trkpt><trkpt lat="37.56504601683653" lon="15.12836498459622"><ele>248.66666666666669</ele><time>2026-04-06T19:19:46.998Z</time></trkpt><trkpt lat="37.56502380419128" lon="15.128473378203871"><ele>248.5</ele><time>2026-04-06T19:19:47.998Z</time></trkpt><trkpt lat="37.564974361176745" lon="15.128566772430007"><ele>248.33333333333334</ele><time>2026-04-06T19:19:48.998Z</time></trkpt><trkpt lat="37.564898267373124" lon="15.128631705849653"><ele>248.16666666666669</ele><time>2026-04-06T19:19:49.998Z</time></trkpt><trkpt lat="37.56486169268666" lon="15.128722371943493"><ele>248.0</ele><time>2026-04-06T19:19:50.998Z</time></trkpt><trkpt lat="37.564806043940145" lon="15.128789477873338"><ele>248.00000000000003</ele><time>2026-04-06T19:19:51.998Z</time></trkpt><trkpt lat="37.56477996635673" lon="15.128882284717115"><ele>248.0</ele><time>2026-04-06T19:19:52.998Z</time></trkpt><trkpt lat="37.56479466950546" lon="15.12898273511802"><ele>248.0</ele><time>2026-04-06T19:19:53.998Z</time></trkpt><trkpt lat="37.564805217449134" lon="15.129078295253015"><ele>248.0</ele><time>2026-04-06T19:19:54.998Z</time></trkpt><trkpt lat="37.56482615141466" lon="15.129171278681557"><ele>248.00000000000003</ele><time>2026-04-06T19:19:55.998Z</time></trkpt><trkpt lat="37.56482374947851" lon="15.129271713177303"><ele>248.0</ele><time>2026-04-06T19:19:56.998Z</time></trkpt><trkpt lat="37.5648203471606" lon="15.129368872892387"><ele>247.0</ele><time>2026-04-06T19:19:57.998Z</time></trkpt><trkpt lat="37.56481175486038" lon="15.129482144207696"><ele>246.0</ele><time>2026-04-06T19:19:58.998Z</time></trkpt><trkpt lat="37.564799950203735" lon="15.129604128506868"><ele>245.0</ele><time>2026-04-06T19:19:59.998Z</time></trkpt><trkpt lat="37.56478607614471" lon="15.129733474533543"><ele>244.0</ele><time>2026-04-06T19:20:00.998Z</time></trkpt><trkpt lat="37.56477053904257" lon="15.129862898283408"><ele>243.0</ele><time>2026-04-06T19:20:01.998Z</time></trkpt><trkpt lat="37.56475389084373" lon="15.129991554398107"><ele>242.60000000000002</ele><time>2026-04-06T19:20:02.998Z</time></trkpt><trkpt lat="37.564734781453744" lon="15.130123223742178"><ele>242.20000000000002</ele><time>2026-04-06T19:20:03.998Z</time></trkpt><trkpt lat="37.564712421512986" lon="15.130252634858389"><ele>241.8</ele><time>2026-04-06T19:20:04.998Z</time></trkpt><trkpt lat="37.56468236874378" lon="15.13038232341578"><ele>241.4</ele><time>2026-04-06T19:20:05.998Z</time></trkpt><trkpt lat="37.564647297616" lon="15.130511278721736"><ele>241.0</ele><time>2026-04-06T19:20:06.998Z</time></trkpt><trkpt lat="37.564611625693566" lon="15.130648593795572"><ele>241.25</ele><time>2026-04-06T19:20:07.998Z</time></trkpt><trkpt lat="37.564577380553864" lon="15.130790745019508"><ele>241.5</ele><time>2026-04-06T19:20:08.998Z</time></trkpt><trkpt lat="37.564546394296165" lon="15.130932873411293"><ele>241.75</ele><time>2026-04-06T19:20:09.998Z</time></trkpt><trkpt lat="37.564517363311474" lon="15.131081346048802"><ele>242.0</ele><time>2026-04-06T19:20:10.998Z</time></trkpt><trkpt lat="37.5644830548264" lon="15.131231543027758"><ele>239.25</ele><time>2026-04-06T19:20:11.998Z</time></trkpt><trkpt lat="37.56444798213676" lon="15.131378467320328"><ele>236.5</ele><time>2026-04-06T19:20:12.998Z</time></trkpt><trkpt lat="37.56441373879627" lon="15.131521917363875"><ele>233.75</ele><time>2026-04-06T19:20:13.998Z</time></trkpt><trkpt lat="37.564379907091514" lon="15.131663642895738"><ele>231.0</ele><time>2026-04-06T19:20:14.998Z</time></trkpt><trkpt lat="37.564341763108665" lon="15.131800539055373"><ele>231.0</ele><time>2026-04-06T19:20:15.998Z</time></trkpt><trkpt lat="37.5643039876063" lon="15.131926055159662"><ele>231.0</ele><time>2026-04-06T19:20:16.998Z</time></trkpt><trkpt lat="37.564271091495705" lon="15.132003585329656"><ele>231.0</ele><time>2026-04-06T19:20:17.998Z</time></trkpt><trkpt lat="37.56422839151927" lon="15.132105954157016"><ele>231.0</ele><time>2026-04-06T19:20:19.998Z</time></trkpt><trkpt lat="37.56409256208688" lon="15.131937879412366"><ele>231.0</ele><time>2026-04-06T19:20:23.998Z</time></trkpt><trkpt lat="37.56406952555989" lon="15.13183924956303"><ele>231.0</ele><time>2026-04-06T19:20:24.998Z</time></trkpt><trkpt lat="37.56403399031343" lon="15.131732940048037"><ele>231.0</ele><time>2026-04-06T19:20:25.998Z</time></trkpt><trkpt lat="37.563996758119266" lon="15.131615090672797"><ele>231.0</ele><time>2026-04-06T19:20:26.998Z</time></trkpt><trkpt lat="37.56396211493396" lon="15.13150167924474"><ele>231.0</ele><time>2026-04-06T19:20:27.998Z</time></trkpt><trkpt lat="37.56393098862775" lon="15.131413688567452"><ele>231.0</ele><time>2026-04-06T19:20:28.997Z</time></trkpt><trkpt lat="37.56390199692932" lon="15.13133233572754"><ele>230.60000000000002</ele><time>2026-04-06T19:20:29.997Z</time></trkpt><trkpt lat="37.56387146839152" lon="15.131246464889859"><ele>230.20000000000002</ele><time>2026-04-06T19:20:30.997Z</time></trkpt><trkpt lat="37.563838358222846" lon="15.13113081703031"><ele>229.79999999999998</ele><time>2026-04-06T19:20:33Z</time></trkpt><trkpt lat="37.56374331401742" lon="15.131153389371224"><ele>229.39999999999998</ele><time>2026-04-06T19:20:35Z</time></trkpt><trkpt lat="37.56363214091179" lon="15.131242542454807"><ele>229.0</ele><time>2026-04-06T19:20:37Z</time></trkpt><trkpt lat="37.5635745895594" lon="15.131289333173111"><ele>228.16666666666666</ele><time>2026-04-06T19:20:38Z</time></trkpt><trkpt lat="37.563511606072204" lon="15.131319259399614"><ele>227.33333333333331</ele><time>2026-04-06T19:20:39Z</time></trkpt><trkpt lat="37.56341517681154" lon="15.13138355499849"><ele>226.5</ele><time>2026-04-06T19:20:41Z</time></trkpt><trkpt lat="37.563358532299176" lon="15.131426073156721"><ele>225.66666666666669</ele><time>2026-04-06T19:20:43Z</time></trkpt><trkpt lat="37.563351099508495" lon="15.131561867688603"><ele>224.83333333333334</ele><time>2026-04-06T19:20:46Z</time></trkpt><trkpt lat="37.563357042919776" lon="15.131642875719896"><ele>224.0</ele><time>2026-04-06T19:20:47Z</time></trkpt><trkpt lat="37.5633753756316" lon="15.131719338250582"><ele>223.39999999999998</ele><time>2026-04-06T19:20:48Z</time></trkpt><trkpt lat="37.563395409841455" lon="15.131804385463173"><ele>222.79999999999998</ele><time>2026-04-06T19:20:49Z</time></trkpt><trkpt lat="37.56342027782071" lon="15.13191611974565"><ele>222.20000000000002</ele><time>2026-04-06T19:20:51Z</time></trkpt><trkpt lat="37.56346588069154" lon="15.132021005153504"><ele>221.60000000000002</ele><time>2026-04-06T19:20:55Z</time></trkpt><trkpt lat="37.563478132865576" lon="15.132180921287013"><ele>221.0</ele><time>2026-04-06T19:20:57Z</time></trkpt><trkpt lat="37.563499106393195" lon="15.132288279425604"><ele>223.5</ele><time>2026-04-06T19:20:58Z</time></trkpt><trkpt lat="37.56352476368935" lon="15.132419612506851"><ele>226.0</ele><time>2026-04-06T19:20:59Z</time></trkpt><trkpt lat="37.56393395875236" lon="15.132598845901557"><ele>228.5</ele><time>2026-04-06T19:21:01Z</time></trkpt><trkpt lat="37.56398396297304" lon="15.132765004808755"><ele>231.0</ele><time>2026-04-06T19:21:02Z</time></trkpt><trkpt lat="37.56378043997793" lon="15.13204874330015"><ele>228.5</ele><time>2026-04-06T19:21:03Z</time></trkpt><trkpt lat="37.563647910235325" lon="15.132104718379752"><ele>226.0</ele><time>2026-04-06T19:23:28.278Z</time></trkpt><trkpt lat="37.56358720539257" lon="15.132232928708143"><ele>223.5</ele><time>2026-04-06T19:24:26.898Z</time></trkpt><trkpt lat="37.5636065341777" lon="15.132126631328752"><ele>221.0</ele><time>2026-04-06T19:38:53.364Z</time></trkpt><trkpt lat="37.56354620733122" lon="15.132319060604248"><ele>221.0</ele><time>2026-04-06T19:39:17.007Z</time></trkpt><trkpt lat="37.5636065341777" lon="15.132126631328752"><ele>221.0</ele><time>2026-04-06T19:40:11.956Z</time></trkpt><trkpt lat="37.56354633702534" lon="15.132319144715266"><ele>221.0</ele><time>2026-04-06T19:41:43.007Z</time></trkpt><trkpt lat="37.5636065341777" lon="15.132126631328752"><ele>221.0</ele><time>2026-04-06T19:43:56.689Z</time></trkpt><trkpt lat="37.56354635551196" lon="15.132319156776356"><ele>221.0</ele><time>2026-04-06T19:44:22.654Z</time></trkpt><trkpt lat="37.5636065341777" lon="15.132126631328752"><ele>221.0</ele><time>2026-04-06T19:44:58.707Z</time></trkpt><trkpt lat="37.563546355542684" lon="15.132319156786535"><ele>221.0</ele><time>2026-04-06T19:45:22.732Z</time></trkpt><trkpt lat="37.5636065341777" lon="15.132126631328752"><ele>221.0</ele><time>2026-04-06T19:45:52.774Z</time></trkpt><trkpt lat="37.5635463555434" lon="15.132319156786776"><ele>221.0</ele><time>2026-04-06T19:46:16.806Z</time></trkpt><trkpt lat="37.5636065341777" lon="15.132126631328752"><ele>221.0</ele><time>2026-04-06T19:49:36.592Z</time></trkpt><trkpt lat="37.563546355543444" lon="15.132319156786789"><ele>221.0</ele><time>2026-04-06T19:50:00.621Z</time></trkpt></trkseg></trk></gpx>